<?xml version="1.0" encoding="UTF-8" standalone="no" ?>
<gpx xmlns="http://www.topografix.com/GPX/1/1" xmlns:xsi="http://www.w3.org/2001/XMLSchema-instance" xsi:schemaLocation="http://www.topografix.com/GPX/1/1 http://www.topografix.com/GPX/1/1/gpx.xsd" version="1.1" creator="VisuGPX - https://www.visugpx.com">
  <metadata>
    <name>Tete pelouse et trou de la mouche pour descendre par Paccaly </name>
  </metadata>
  <trk>
    <name><![CDATA[Tete pelouse et trou de la mouche pour descendre par Paccaly ]]></name>
    <trkseg>
      <trkpt lat="45.92245" lon="6.48438">
        <ele>1442.7</ele>
        <time>2015-03-24T09:11:57Z</time>
      </trkpt>
      <trkpt lat="45.92242" lon="6.48437">
        <ele>1442.7</ele>
        <time>2015-03-24T09:11:58Z</time>
      </trkpt>
      <trkpt lat="45.92238" lon="6.48438">
        <ele>1443</ele>
        <time>2015-03-24T09:13:06Z</time>
      </trkpt>
      <trkpt lat="45.92236" lon="6.48442">
        <ele>1443.4</ele>
        <time>2015-03-24T09:13:11Z</time>
      </trkpt>
      <trkpt lat="45.92232" lon="6.48447">
        <ele>1443.9</ele>
        <time>2015-03-24T09:13:13Z</time>
      </trkpt>
      <trkpt lat="45.92229" lon="6.48452">
        <ele>1444.4</ele>
        <time>2015-03-24T09:13:15Z</time>
      </trkpt>
      <trkpt lat="45.92224" lon="6.48456">
        <ele>1444.9</ele>
        <time>2015-03-24T09:13:17Z</time>
      </trkpt>
      <trkpt lat="45.92222" lon="6.48458">
        <ele>1445.2</ele>
        <time>2015-03-24T09:13:18Z</time>
      </trkpt>
      <trkpt lat="45.92219" lon="6.48462">
        <ele>1445.5</ele>
        <time>2015-03-24T09:13:21Z</time>
      </trkpt>
      <trkpt lat="45.92216" lon="6.48466">
        <ele>1445.9</ele>
        <time>2015-03-24T09:13:23Z</time>
      </trkpt>
      <trkpt lat="45.92214" lon="6.48469">
        <ele>1446.3</ele>
        <time>2015-03-24T09:13:24Z</time>
      </trkpt>
      <trkpt lat="45.92212" lon="6.48472">
        <ele>1446.7</ele>
        <time>2015-03-24T09:13:26Z</time>
      </trkpt>
      <trkpt lat="45.92209" lon="6.48476">
        <ele>1447.2</ele>
        <time>2015-03-24T09:13:28Z</time>
      </trkpt>
      <trkpt lat="45.92207" lon="6.48479">
        <ele>1447.7</ele>
        <time>2015-03-24T09:13:30Z</time>
      </trkpt>
      <trkpt lat="45.92205" lon="6.48484">
        <ele>1448.2</ele>
        <time>2015-03-24T09:13:32Z</time>
      </trkpt>
      <trkpt lat="45.92203" lon="6.48487">
        <ele>1448.7</ele>
        <time>2015-03-24T09:13:34Z</time>
      </trkpt>
      <trkpt lat="45.92201" lon="6.48489">
        <ele>1449.2</ele>
        <time>2015-03-24T09:13:37Z</time>
      </trkpt>
      <trkpt lat="45.92198" lon="6.48491">
        <ele>1449.8</ele>
        <time>2015-03-24T09:13:39Z</time>
      </trkpt>
      <trkpt lat="45.92196" lon="6.48495">
        <ele>1450.4</ele>
        <time>2015-03-24T09:13:42Z</time>
      </trkpt>
      <trkpt lat="45.92193" lon="6.48498">
        <ele>1451</ele>
        <time>2015-03-24T09:13:44Z</time>
      </trkpt>
      <trkpt lat="45.9219" lon="6.48502">
        <ele>1451.7</ele>
        <time>2015-03-24T09:13:47Z</time>
      </trkpt>
      <trkpt lat="45.92187" lon="6.48506">
        <ele>1452.4</ele>
        <time>2015-03-24T09:13:49Z</time>
      </trkpt>
      <trkpt lat="45.92185" lon="6.48509">
        <ele>1453</ele>
        <time>2015-03-24T09:13:51Z</time>
      </trkpt>
      <trkpt lat="45.92182" lon="6.48512">
        <ele>1453.6</ele>
        <time>2015-03-24T09:13:54Z</time>
      </trkpt>
      <trkpt lat="45.9218" lon="6.48514">
        <ele>1454.2</ele>
        <time>2015-03-24T09:13:57Z</time>
      </trkpt>
      <trkpt lat="45.92177" lon="6.48518">
        <ele>1454.8</ele>
        <time>2015-03-24T09:14:00Z</time>
      </trkpt>
      <trkpt lat="45.92175" lon="6.48521">
        <ele>1455.4</ele>
        <time>2015-03-24T09:14:03Z</time>
      </trkpt>
      <trkpt lat="45.92174" lon="6.48526">
        <ele>1456</ele>
        <time>2015-03-24T09:14:07Z</time>
      </trkpt>
      <trkpt lat="45.92171" lon="6.48529">
        <ele>1456.7</ele>
        <time>2015-03-24T09:14:09Z</time>
      </trkpt>
      <trkpt lat="45.9217" lon="6.48534">
        <ele>1457.3</ele>
        <time>2015-03-24T09:14:12Z</time>
      </trkpt>
      <trkpt lat="45.92168" lon="6.48538">
        <ele>1458</ele>
        <time>2015-03-24T09:14:14Z</time>
      </trkpt>
      <trkpt lat="45.92165" lon="6.48542">
        <ele>1458.7</ele>
        <time>2015-03-24T09:14:16Z</time>
      </trkpt>
      <trkpt lat="45.92164" lon="6.48545">
        <ele>1459.2</ele>
        <time>2015-03-24T09:14:18Z</time>
      </trkpt>
      <trkpt lat="45.92164" lon="6.4855">
        <ele>1459.6</ele>
        <time>2015-03-24T09:14:26Z</time>
      </trkpt>
      <trkpt lat="45.92162" lon="6.48553">
        <ele>1460.1</ele>
        <time>2015-03-24T09:14:28Z</time>
      </trkpt>
      <trkpt lat="45.92161" lon="6.48557">
        <ele>1460.6</ele>
        <time>2015-03-24T09:14:32Z</time>
      </trkpt>
      <trkpt lat="45.9216" lon="6.48563">
        <ele>1461.3</ele>
        <time>2015-03-24T09:14:36Z</time>
      </trkpt>
      <trkpt lat="45.92157" lon="6.48567">
        <ele>1462.1</ele>
        <time>2015-03-24T09:14:41Z</time>
      </trkpt>
      <trkpt lat="45.92155" lon="6.48572">
        <ele>1463</ele>
        <time>2015-03-24T09:14:43Z</time>
      </trkpt>
      <trkpt lat="45.92154" lon="6.48576">
        <ele>1463.5</ele>
        <time>2015-03-24T09:14:49Z</time>
      </trkpt>
      <trkpt lat="45.92153" lon="6.48579">
        <ele>1464.1</ele>
        <time>2015-03-24T09:14:51Z</time>
      </trkpt>
      <trkpt lat="45.92151" lon="6.48584">
        <ele>1465.1</ele>
        <time>2015-03-24T09:14:54Z</time>
      </trkpt>
      <trkpt lat="45.92149" lon="6.48587">
        <ele>1465.7</ele>
        <time>2015-03-24T09:14:57Z</time>
      </trkpt>
      <trkpt lat="45.92148" lon="6.48591">
        <ele>1466.4</ele>
        <time>2015-03-24T09:15:00Z</time>
      </trkpt>
      <trkpt lat="45.92146" lon="6.48596">
        <ele>1467.5</ele>
        <time>2015-03-24T09:15:03Z</time>
      </trkpt>
      <trkpt lat="45.92144" lon="6.486">
        <ele>1468.4</ele>
        <time>2015-03-24T09:15:05Z</time>
      </trkpt>
      <trkpt lat="45.92142" lon="6.48603">
        <ele>1469.2</ele>
        <time>2015-03-24T09:15:07Z</time>
      </trkpt>
      <trkpt lat="45.92141" lon="6.48607">
        <ele>1470</ele>
        <time>2015-03-24T09:15:09Z</time>
      </trkpt>
      <trkpt lat="45.92138" lon="6.48612">
        <ele>1471.3</ele>
        <time>2015-03-24T09:15:12Z</time>
      </trkpt>
      <trkpt lat="45.92137" lon="6.48615">
        <ele>1472</ele>
        <time>2015-03-24T09:15:15Z</time>
      </trkpt>
      <trkpt lat="45.92135" lon="6.4862">
        <ele>1473.2</ele>
        <time>2015-03-24T09:15:17Z</time>
      </trkpt>
      <trkpt lat="45.92134" lon="6.48623">
        <ele>1474.1</ele>
        <time>2015-03-24T09:15:19Z</time>
      </trkpt>
      <trkpt lat="45.92131" lon="6.48628">
        <ele>1475.2</ele>
        <time>2015-03-24T09:15:21Z</time>
      </trkpt>
      <trkpt lat="45.92129" lon="6.48633">
        <ele>1476.1</ele>
        <time>2015-03-24T09:15:25Z</time>
      </trkpt>
      <trkpt lat="45.92127" lon="6.48639">
        <ele>1476.7</ele>
        <time>2015-03-24T09:15:27Z</time>
      </trkpt>
      <trkpt lat="45.92126" lon="6.48645">
        <ele>1477.5</ele>
        <time>2015-03-24T09:15:29Z</time>
      </trkpt>
      <trkpt lat="45.92125" lon="6.48649">
        <ele>1477.9</ele>
        <time>2015-03-24T09:15:31Z</time>
      </trkpt>
      <trkpt lat="45.92124" lon="6.48653">
        <ele>1478.1</ele>
        <time>2015-03-24T09:15:33Z</time>
      </trkpt>
      <trkpt lat="45.92127" lon="6.48654">
        <ele>1477.3</ele>
        <time>2015-03-24T09:15:36Z</time>
      </trkpt>
      <trkpt lat="45.92128" lon="6.48659">
        <ele>1477.3</ele>
        <time>2015-03-24T09:15:39Z</time>
      </trkpt>
      <trkpt lat="45.92129" lon="6.48664">
        <ele>1477.1</ele>
        <time>2015-03-24T09:15:42Z</time>
      </trkpt>
      <trkpt lat="45.9213" lon="6.48669">
        <ele>1477</ele>
        <time>2015-03-24T09:15:45Z</time>
      </trkpt>
      <trkpt lat="45.92131" lon="6.48673">
        <ele>1476.5</ele>
        <time>2015-03-24T09:15:47Z</time>
      </trkpt>
      <trkpt lat="45.92132" lon="6.48678">
        <ele>1476.3</ele>
        <time>2015-03-24T09:15:49Z</time>
      </trkpt>
      <trkpt lat="45.92134" lon="6.48683">
        <ele>1475.8</ele>
        <time>2015-03-24T09:15:51Z</time>
      </trkpt>
      <trkpt lat="45.92137" lon="6.48688">
        <ele>1475</ele>
        <time>2015-03-24T09:15:53Z</time>
      </trkpt>
      <trkpt lat="45.9214" lon="6.48693">
        <ele>1474.1</ele>
        <time>2015-03-24T09:15:55Z</time>
      </trkpt>
      <trkpt lat="45.92143" lon="6.48698">
        <ele>1473.2</ele>
        <time>2015-03-24T09:15:57Z</time>
      </trkpt>
      <trkpt lat="45.92144" lon="6.48701">
        <ele>1472.6</ele>
        <time>2015-03-24T09:15:58Z</time>
      </trkpt>
      <trkpt lat="45.92146" lon="6.48705">
        <ele>1472.3</ele>
        <time>2015-03-24T09:15:59Z</time>
      </trkpt>
      <trkpt lat="45.92148" lon="6.48709">
        <ele>1471.5</ele>
        <time>2015-03-24T09:16:00Z</time>
      </trkpt>
      <trkpt lat="45.9215" lon="6.48712">
        <ele>1470.6</ele>
        <time>2015-03-24T09:16:01Z</time>
      </trkpt>
      <trkpt lat="45.92152" lon="6.48715">
        <ele>1469.8</ele>
        <time>2015-03-24T09:16:02Z</time>
      </trkpt>
      <trkpt lat="45.92154" lon="6.48719">
        <ele>1468.8</ele>
        <time>2015-03-24T09:16:03Z</time>
      </trkpt>
      <trkpt lat="45.92156" lon="6.48726">
        <ele>1467.8</ele>
        <time>2015-03-24T09:16:05Z</time>
      </trkpt>
      <trkpt lat="45.92158" lon="6.4873">
        <ele>1467.1</ele>
        <time>2015-03-24T09:16:06Z</time>
      </trkpt>
      <trkpt lat="45.92159" lon="6.48734">
        <ele>1466.5</ele>
        <time>2015-03-24T09:16:07Z</time>
      </trkpt>
      <trkpt lat="45.92162" lon="6.48741">
        <ele>1465.5</ele>
        <time>2015-03-24T09:16:09Z</time>
      </trkpt>
      <trkpt lat="45.92162" lon="6.48746">
        <ele>1465.3</ele>
        <time>2015-03-24T09:16:10Z</time>
      </trkpt>
      <trkpt lat="45.92165" lon="6.48752">
        <ele>1464.2</ele>
        <time>2015-03-24T09:16:12Z</time>
      </trkpt>
      <trkpt lat="45.92166" lon="6.48757">
        <ele>1464</ele>
        <time>2015-03-24T09:16:13Z</time>
      </trkpt>
      <trkpt lat="45.92165" lon="6.48763">
        <ele>1464</ele>
        <time>2015-03-24T09:16:14Z</time>
      </trkpt>
      <trkpt lat="45.92166" lon="6.48767">
        <ele>1463.7</ele>
        <time>2015-03-24T09:16:15Z</time>
      </trkpt>
      <trkpt lat="45.92167" lon="6.48772">
        <ele>1463.4</ele>
        <time>2015-03-24T09:16:16Z</time>
      </trkpt>
      <trkpt lat="45.92168" lon="6.48775">
        <ele>1463</ele>
        <time>2015-03-24T09:16:17Z</time>
      </trkpt>
      <trkpt lat="45.92171" lon="6.48782">
        <ele>1462</ele>
        <time>2015-03-24T09:16:19Z</time>
      </trkpt>
      <trkpt lat="45.92173" lon="6.48786">
        <ele>1461.6</ele>
        <time>2015-03-24T09:16:20Z</time>
      </trkpt>
      <trkpt lat="45.92175" lon="6.48793">
        <ele>1461.1</ele>
        <time>2015-03-24T09:16:22Z</time>
      </trkpt>
      <trkpt lat="45.92177" lon="6.48795">
        <ele>1460.5</ele>
        <time>2015-03-24T09:16:23Z</time>
      </trkpt>
      <trkpt lat="45.92178" lon="6.48802">
        <ele>1460.4</ele>
        <time>2015-03-24T09:16:25Z</time>
      </trkpt>
      <trkpt lat="45.92179" lon="6.4881">
        <ele>1460.4</ele>
        <time>2015-03-24T09:16:27Z</time>
      </trkpt>
      <trkpt lat="45.92178" lon="6.48815">
        <ele>1460.8</ele>
        <time>2015-03-24T09:16:28Z</time>
      </trkpt>
      <trkpt lat="45.92177" lon="6.48822">
        <ele>1461.2</ele>
        <time>2015-03-24T09:16:29Z</time>
      </trkpt>
      <trkpt lat="45.92175" lon="6.48826">
        <ele>1461.6</ele>
        <time>2015-03-24T09:16:30Z</time>
      </trkpt>
      <trkpt lat="45.92174" lon="6.48831">
        <ele>1461.9</ele>
        <time>2015-03-24T09:16:31Z</time>
      </trkpt>
      <trkpt lat="45.92172" lon="6.48839">
        <ele>1462.6</ele>
        <time>2015-03-24T09:16:33Z</time>
      </trkpt>
      <trkpt lat="45.9217" lon="6.48846">
        <ele>1463.1</ele>
        <time>2015-03-24T09:16:35Z</time>
      </trkpt>
      <trkpt lat="45.92168" lon="6.48853">
        <ele>1463.4</ele>
        <time>2015-03-24T09:16:37Z</time>
      </trkpt>
      <trkpt lat="45.92167" lon="6.48857">
        <ele>1463.8</ele>
        <time>2015-03-24T09:16:38Z</time>
      </trkpt>
      <trkpt lat="45.92165" lon="6.48863">
        <ele>1464.2</ele>
        <time>2015-03-24T09:16:40Z</time>
      </trkpt>
      <trkpt lat="45.92163" lon="6.48868">
        <ele>1464.5</ele>
        <time>2015-03-24T09:16:41Z</time>
      </trkpt>
      <trkpt lat="45.92164" lon="6.48874">
        <ele>1464.4</ele>
        <time>2015-03-24T09:16:43Z</time>
      </trkpt>
      <trkpt lat="45.92164" lon="6.48878">
        <ele>1464.6</ele>
        <time>2015-03-24T09:16:44Z</time>
      </trkpt>
      <trkpt lat="45.92165" lon="6.48882">
        <ele>1464.8</ele>
        <time>2015-03-24T09:16:46Z</time>
      </trkpt>
      <trkpt lat="45.92164" lon="6.48887">
        <ele>1465.5</ele>
        <time>2015-03-24T09:16:48Z</time>
      </trkpt>
      <trkpt lat="45.92163" lon="6.48894">
        <ele>1466.2</ele>
        <time>2015-03-24T09:16:50Z</time>
      </trkpt>
      <trkpt lat="45.92163" lon="6.48898">
        <ele>1466.5</ele>
        <time>2015-03-24T09:16:53Z</time>
      </trkpt>
      <trkpt lat="45.92162" lon="6.48905">
        <ele>1467.6</ele>
        <time>2015-03-24T09:16:55Z</time>
      </trkpt>
      <trkpt lat="45.92161" lon="6.4891">
        <ele>1468</ele>
        <time>2015-03-24T09:16:57Z</time>
      </trkpt>
      <trkpt lat="45.92162" lon="6.48914">
        <ele>1468.2</ele>
        <time>2015-03-24T09:16:59Z</time>
      </trkpt>
      <trkpt lat="45.92162" lon="6.48918">
        <ele>1468.5</ele>
        <time>2015-03-24T09:17:01Z</time>
      </trkpt>
      <trkpt lat="45.92163" lon="6.48921">
        <ele>1468.5</ele>
        <time>2015-03-24T09:17:03Z</time>
      </trkpt>
      <trkpt lat="45.92164" lon="6.48925">
        <ele>1468.6</ele>
        <time>2015-03-24T09:17:06Z</time>
      </trkpt>
      <trkpt lat="45.92163" lon="6.48931">
        <ele>1469.4</ele>
        <time>2015-03-24T09:17:08Z</time>
      </trkpt>
      <trkpt lat="45.92163" lon="6.48938">
        <ele>1470</ele>
        <time>2015-03-24T09:17:12Z</time>
      </trkpt>
      <trkpt lat="45.92163" lon="6.48941">
        <ele>1470.3</ele>
        <time>2015-03-24T09:17:14Z</time>
      </trkpt>
      <trkpt lat="45.92165" lon="6.48945">
        <ele>1470</ele>
        <time>2015-03-24T09:17:16Z</time>
      </trkpt>
      <trkpt lat="45.92164" lon="6.4895">
        <ele>1470.8</ele>
        <time>2015-03-24T09:17:18Z</time>
      </trkpt>
      <trkpt lat="45.92164" lon="6.48955">
        <ele>1471.1</ele>
        <time>2015-03-24T09:17:21Z</time>
      </trkpt>
      <trkpt lat="45.92166" lon="6.48959">
        <ele>1470.9</ele>
        <time>2015-03-24T09:17:24Z</time>
      </trkpt>
      <trkpt lat="45.92164" lon="6.48963">
        <ele>1471.5</ele>
        <time>2015-03-24T09:17:25Z</time>
      </trkpt>
      <trkpt lat="45.92163" lon="6.48968">
        <ele>1472</ele>
        <time>2015-03-24T09:17:27Z</time>
      </trkpt>
      <trkpt lat="45.92162" lon="6.48974">
        <ele>1472.8</ele>
        <time>2015-03-24T09:17:29Z</time>
      </trkpt>
      <trkpt lat="45.92163" lon="6.48977">
        <ele>1472.5</ele>
        <time>2015-03-24T09:17:32Z</time>
      </trkpt>
      <trkpt lat="45.92164" lon="6.48981">
        <ele>1472.4</ele>
        <time>2015-03-24T09:17:35Z</time>
      </trkpt>
      <trkpt lat="45.92165" lon="6.48987">
        <ele>1472.3</ele>
        <time>2015-03-24T09:17:39Z</time>
      </trkpt>
      <trkpt lat="45.92165" lon="6.48992">
        <ele>1472.5</ele>
        <time>2015-03-24T09:17:41Z</time>
      </trkpt>
      <trkpt lat="45.92166" lon="6.48996">
        <ele>1472.4</ele>
        <time>2015-03-24T09:17:43Z</time>
      </trkpt>
      <trkpt lat="45.92165" lon="6.49">
        <ele>1472.7</ele>
        <time>2015-03-24T09:17:45Z</time>
      </trkpt>
      <trkpt lat="45.92167" lon="6.49005">
        <ele>1472.5</ele>
        <time>2015-03-24T09:17:49Z</time>
      </trkpt>
      <trkpt lat="45.92166" lon="6.49009">
        <ele>1472.8</ele>
        <time>2015-03-24T09:17:52Z</time>
      </trkpt>
      <trkpt lat="45.92166" lon="6.49013">
        <ele>1473</ele>
        <time>2015-03-24T09:17:55Z</time>
      </trkpt>
      <trkpt lat="45.92169" lon="6.49016">
        <ele>1472.2</ele>
        <time>2015-03-24T09:17:59Z</time>
      </trkpt>
      <trkpt lat="45.92172" lon="6.49017">
        <ele>1471.4</ele>
        <time>2015-03-24T09:18:03Z</time>
      </trkpt>
      <trkpt lat="45.92172" lon="6.49022">
        <ele>1471.6</ele>
        <time>2015-03-24T09:18:06Z</time>
      </trkpt>
      <trkpt lat="45.92173" lon="6.49026">
        <ele>1471.6</ele>
        <time>2015-03-24T09:18:11Z</time>
      </trkpt>
      <trkpt lat="45.92174" lon="6.4903">
        <ele>1471.5</ele>
        <time>2015-03-24T09:18:14Z</time>
      </trkpt>
      <trkpt lat="45.92174" lon="6.49034">
        <ele>1471.6</ele>
        <time>2015-03-24T09:18:16Z</time>
      </trkpt>
      <trkpt lat="45.92175" lon="6.49039">
        <ele>1471.6</ele>
        <time>2015-03-24T09:18:19Z</time>
      </trkpt>
      <trkpt lat="45.92175" lon="6.49044">
        <ele>1472.3</ele>
        <time>2015-03-24T09:18:22Z</time>
      </trkpt>
      <trkpt lat="45.92174" lon="6.49049">
        <ele>1473.1</ele>
        <time>2015-03-24T09:18:24Z</time>
      </trkpt>
      <trkpt lat="45.92174" lon="6.49055">
        <ele>1474.1</ele>
        <time>2015-03-24T09:18:26Z</time>
      </trkpt>
      <trkpt lat="45.92175" lon="6.4906">
        <ele>1474.6</ele>
        <time>2015-03-24T09:18:29Z</time>
      </trkpt>
      <trkpt lat="45.92175" lon="6.49065">
        <ele>1475.3</ele>
        <time>2015-03-24T09:18:31Z</time>
      </trkpt>
      <trkpt lat="45.92175" lon="6.4907">
        <ele>1475.9</ele>
        <time>2015-03-24T09:18:33Z</time>
      </trkpt>
      <trkpt lat="45.92177" lon="6.49075">
        <ele>1476.1</ele>
        <time>2015-03-24T09:18:36Z</time>
      </trkpt>
      <trkpt lat="45.92177" lon="6.49079">
        <ele>1476.8</ele>
        <time>2015-03-24T09:18:37Z</time>
      </trkpt>
      <trkpt lat="45.92178" lon="6.49083">
        <ele>1477.2</ele>
        <time>2015-03-24T09:18:40Z</time>
      </trkpt>
      <trkpt lat="45.92179" lon="6.49088">
        <ele>1477.8</ele>
        <time>2015-03-24T09:18:43Z</time>
      </trkpt>
      <trkpt lat="45.92179" lon="6.49094">
        <ele>1478.4</ele>
        <time>2015-03-24T09:18:47Z</time>
      </trkpt>
      <trkpt lat="45.92181" lon="6.49097">
        <ele>1478.5</ele>
        <time>2015-03-24T09:18:50Z</time>
      </trkpt>
      <trkpt lat="45.92182" lon="6.49102">
        <ele>1478.9</ele>
        <time>2015-03-24T09:18:53Z</time>
      </trkpt>
      <trkpt lat="45.92184" lon="6.49105">
        <ele>1478.9</ele>
        <time>2015-03-24T09:18:56Z</time>
      </trkpt>
      <trkpt lat="45.92184" lon="6.49109">
        <ele>1479.6</ele>
        <time>2015-03-24T09:18:59Z</time>
      </trkpt>
      <trkpt lat="45.92184" lon="6.49113">
        <ele>1480.2</ele>
        <time>2015-03-24T09:19:02Z</time>
      </trkpt>
      <trkpt lat="45.92183" lon="6.49117">
        <ele>1481</ele>
        <time>2015-03-24T09:19:06Z</time>
      </trkpt>
      <trkpt lat="45.92184" lon="6.49121">
        <ele>1481.4</ele>
        <time>2015-03-24T09:19:09Z</time>
      </trkpt>
      <trkpt lat="45.92182" lon="6.49126">
        <ele>1482.4</ele>
        <time>2015-03-24T09:19:11Z</time>
      </trkpt>
      <trkpt lat="45.92184" lon="6.4913">
        <ele>1482.8</ele>
        <time>2015-03-24T09:19:16Z</time>
      </trkpt>
      <trkpt lat="45.92184" lon="6.49134">
        <ele>1484</ele>
        <time>2015-03-24T09:19:18Z</time>
      </trkpt>
      <trkpt lat="45.92186" lon="6.49138">
        <ele>1484.2</ele>
        <time>2015-03-24T09:19:22Z</time>
      </trkpt>
      <trkpt lat="45.92187" lon="6.49142">
        <ele>1485</ele>
        <time>2015-03-24T09:19:25Z</time>
      </trkpt>
      <trkpt lat="45.92187" lon="6.49147">
        <ele>1485.9</ele>
        <time>2015-03-24T09:19:29Z</time>
      </trkpt>
      <trkpt lat="45.92187" lon="6.49152">
        <ele>1486.7</ele>
        <time>2015-03-24T09:19:37Z</time>
      </trkpt>
      <trkpt lat="45.92188" lon="6.49157">
        <ele>1487.5</ele>
        <time>2015-03-24T09:19:42Z</time>
      </trkpt>
      <trkpt lat="45.92188" lon="6.49161">
        <ele>1488.6</ele>
        <time>2015-03-24T09:19:48Z</time>
      </trkpt>
      <trkpt lat="45.9219" lon="6.49165">
        <ele>1488.9</ele>
        <time>2015-03-24T09:19:54Z</time>
      </trkpt>
      <trkpt lat="45.92188" lon="6.4917">
        <ele>1490.4</ele>
        <time>2015-03-24T09:19:57Z</time>
      </trkpt>
      <trkpt lat="45.9219" lon="6.49174">
        <ele>1490.8</ele>
        <time>2015-03-24T09:20:02Z</time>
      </trkpt>
      <trkpt lat="45.92188" lon="6.49178">
        <ele>1492</ele>
        <time>2015-03-24T09:20:06Z</time>
      </trkpt>
      <trkpt lat="45.92189" lon="6.49182">
        <ele>1492.8</ele>
        <time>2015-03-24T09:20:13Z</time>
      </trkpt>
      <trkpt lat="45.92189" lon="6.49186">
        <ele>1493.5</ele>
        <time>2015-03-24T09:20:15Z</time>
      </trkpt>
      <trkpt lat="45.9219" lon="6.4919">
        <ele>1494.1</ele>
        <time>2015-03-24T09:20:18Z</time>
      </trkpt>
      <trkpt lat="45.92191" lon="6.49194">
        <ele>1494.3</ele>
        <time>2015-03-24T09:20:25Z</time>
      </trkpt>
      <trkpt lat="45.92193" lon="6.49199">
        <ele>1494.7</ele>
        <time>2015-03-24T09:20:30Z</time>
      </trkpt>
      <trkpt lat="45.92193" lon="6.49203">
        <ele>1495.8</ele>
        <time>2015-03-24T09:20:34Z</time>
      </trkpt>
      <trkpt lat="45.92192" lon="6.49208">
        <ele>1497</ele>
        <time>2015-03-24T09:20:37Z</time>
      </trkpt>
      <trkpt lat="45.92192" lon="6.49214">
        <ele>1498.4</ele>
        <time>2015-03-24T09:20:43Z</time>
      </trkpt>
      <trkpt lat="45.92192" lon="6.49218">
        <ele>1499.4</ele>
        <time>2015-03-24T09:20:48Z</time>
      </trkpt>
      <trkpt lat="45.92192" lon="6.49223">
        <ele>1500.2</ele>
        <time>2015-03-24T09:20:53Z</time>
      </trkpt>
      <trkpt lat="45.92193" lon="6.49227">
        <ele>1500.9</ele>
        <time>2015-03-24T09:20:57Z</time>
      </trkpt>
      <trkpt lat="45.92192" lon="6.49231">
        <ele>1502.1</ele>
        <time>2015-03-24T09:21:00Z</time>
      </trkpt>
      <trkpt lat="45.92194" lon="6.49235">
        <ele>1502.4</ele>
        <time>2015-03-24T09:21:05Z</time>
      </trkpt>
      <trkpt lat="45.92195" lon="6.49239">
        <ele>1502.9</ele>
        <time>2015-03-24T09:21:09Z</time>
      </trkpt>
      <trkpt lat="45.92196" lon="6.49243">
        <ele>1503.5</ele>
        <time>2015-03-24T09:21:14Z</time>
      </trkpt>
      <trkpt lat="45.92195" lon="6.49247">
        <ele>1504.6</ele>
        <time>2015-03-24T09:21:17Z</time>
      </trkpt>
      <trkpt lat="45.92196" lon="6.49252">
        <ele>1505.5</ele>
        <time>2015-03-24T09:21:21Z</time>
      </trkpt>
      <trkpt lat="45.92196" lon="6.49256">
        <ele>1506.4</ele>
        <time>2015-03-24T09:21:25Z</time>
      </trkpt>
      <trkpt lat="45.92197" lon="6.4926">
        <ele>1506.8</ele>
        <time>2015-03-24T09:21:28Z</time>
      </trkpt>
      <trkpt lat="45.92198" lon="6.49264">
        <ele>1507.5</ele>
        <time>2015-03-24T09:21:33Z</time>
      </trkpt>
      <trkpt lat="45.92198" lon="6.49268">
        <ele>1508.2</ele>
        <time>2015-03-24T09:21:38Z</time>
      </trkpt>
      <trkpt lat="45.92198" lon="6.49272">
        <ele>1509.4</ele>
        <time>2015-03-24T09:21:44Z</time>
      </trkpt>
      <trkpt lat="45.92198" lon="6.49277">
        <ele>1510.3</ele>
        <time>2015-03-24T09:21:48Z</time>
      </trkpt>
      <trkpt lat="45.92198" lon="6.49281">
        <ele>1511</ele>
        <time>2015-03-24T09:21:52Z</time>
      </trkpt>
      <trkpt lat="45.92199" lon="6.49285">
        <ele>1511.9</ele>
        <time>2015-03-24T09:21:57Z</time>
      </trkpt>
      <trkpt lat="45.92198" lon="6.49289">
        <ele>1513</ele>
        <time>2015-03-24T09:22:04Z</time>
      </trkpt>
      <trkpt lat="45.92197" lon="6.49294">
        <ele>1514.6</ele>
        <time>2015-03-24T09:22:10Z</time>
      </trkpt>
      <trkpt lat="45.92196" lon="6.49299">
        <ele>1516</ele>
        <time>2015-03-24T09:22:15Z</time>
      </trkpt>
      <trkpt lat="45.92195" lon="6.49303">
        <ele>1517.6</ele>
        <time>2015-03-24T09:22:23Z</time>
      </trkpt>
      <trkpt lat="45.92194" lon="6.49308">
        <ele>1519.6</ele>
        <time>2015-03-24T09:22:25Z</time>
      </trkpt>
      <trkpt lat="45.92192" lon="6.49313">
        <ele>1521.5</ele>
        <time>2015-03-24T09:22:27Z</time>
      </trkpt>
      <trkpt lat="45.92192" lon="6.49317">
        <ele>1522.7</ele>
        <time>2015-03-24T09:22:31Z</time>
      </trkpt>
      <trkpt lat="45.92191" lon="6.49322">
        <ele>1524.2</ele>
        <time>2015-03-24T09:22:44Z</time>
      </trkpt>
      <trkpt lat="45.9219" lon="6.49326">
        <ele>1525.6</ele>
        <time>2015-03-24T09:22:49Z</time>
      </trkpt>
      <trkpt lat="45.92189" lon="6.49329">
        <ele>1527.1</ele>
        <time>2015-03-24T09:22:55Z</time>
      </trkpt>
      <trkpt lat="45.92189" lon="6.49334">
        <ele>1528.3</ele>
        <time>2015-03-24T09:23:05Z</time>
      </trkpt>
      <trkpt lat="45.92188" lon="6.4934">
        <ele>1530.4</ele>
        <time>2015-03-24T09:23:08Z</time>
      </trkpt>
      <trkpt lat="45.92188" lon="6.49344">
        <ele>1531.5</ele>
        <time>2015-03-24T09:23:11Z</time>
      </trkpt>
      <trkpt lat="45.92188" lon="6.49349">
        <ele>1532.5</ele>
        <time>2015-03-24T09:23:14Z</time>
      </trkpt>
      <trkpt lat="45.92188" lon="6.49353">
        <ele>1533.7</ele>
        <time>2015-03-24T09:23:19Z</time>
      </trkpt>
      <trkpt lat="45.92188" lon="6.49358">
        <ele>1535.2</ele>
        <time>2015-03-24T09:23:24Z</time>
      </trkpt>
      <trkpt lat="45.92187" lon="6.49363">
        <ele>1536.9</ele>
        <time>2015-03-24T09:23:31Z</time>
      </trkpt>
      <trkpt lat="45.92186" lon="6.49367">
        <ele>1538.6</ele>
        <time>2015-03-24T09:23:35Z</time>
      </trkpt>
      <trkpt lat="45.92186" lon="6.49372">
        <ele>1539.5</ele>
        <time>2015-03-24T09:23:39Z</time>
      </trkpt>
      <trkpt lat="45.92187" lon="6.49377">
        <ele>1540.6</ele>
        <time>2015-03-24T09:23:43Z</time>
      </trkpt>
      <trkpt lat="45.92189" lon="6.4938">
        <ele>1540.9</ele>
        <time>2015-03-24T09:23:47Z</time>
      </trkpt>
      <trkpt lat="45.9219" lon="6.49384">
        <ele>1541.7</ele>
        <time>2015-03-24T09:23:51Z</time>
      </trkpt>
      <trkpt lat="45.9219" lon="6.49388">
        <ele>1542.6</ele>
        <time>2015-03-24T09:23:54Z</time>
      </trkpt>
      <trkpt lat="45.92192" lon="6.49392">
        <ele>1542.8</ele>
        <time>2015-03-24T09:23:58Z</time>
      </trkpt>
      <trkpt lat="45.92195" lon="6.49394">
        <ele>1542.2</ele>
        <time>2015-03-24T09:24:02Z</time>
      </trkpt>
      <trkpt lat="45.92196" lon="6.49398">
        <ele>1542.9</ele>
        <time>2015-03-24T09:24:05Z</time>
      </trkpt>
      <trkpt lat="45.92199" lon="6.49402">
        <ele>1543.2</ele>
        <time>2015-03-24T09:24:08Z</time>
      </trkpt>
      <trkpt lat="45.922" lon="6.49406">
        <ele>1543.9</ele>
        <time>2015-03-24T09:24:11Z</time>
      </trkpt>
      <trkpt lat="45.92203" lon="6.49408">
        <ele>1543.4</ele>
        <time>2015-03-24T09:24:15Z</time>
      </trkpt>
      <trkpt lat="45.92203" lon="6.49412">
        <ele>1544.1</ele>
        <time>2015-03-24T09:24:18Z</time>
      </trkpt>
      <trkpt lat="45.92205" lon="6.49416">
        <ele>1544.7</ele>
        <time>2015-03-24T09:24:22Z</time>
      </trkpt>
      <trkpt lat="45.92207" lon="6.49418">
        <ele>1544.5</ele>
        <time>2015-03-24T09:24:28Z</time>
      </trkpt>
      <trkpt lat="45.92209" lon="6.49422">
        <ele>1544.7</ele>
        <time>2015-03-24T09:24:34Z</time>
      </trkpt>
      <trkpt lat="45.9221" lon="6.49426">
        <ele>1545.9</ele>
        <time>2015-03-24T09:24:40Z</time>
      </trkpt>
      <trkpt lat="45.92213" lon="6.49426">
        <ele>1545.5</ele>
        <time>2015-03-24T09:24:43Z</time>
      </trkpt>
      <trkpt lat="45.92216" lon="6.4943">
        <ele>1546.3</ele>
        <time>2015-03-24T09:24:46Z</time>
      </trkpt>
      <trkpt lat="45.92218" lon="6.49433">
        <ele>1546.9</ele>
        <time>2015-03-24T09:24:51Z</time>
      </trkpt>
      <trkpt lat="45.92217" lon="6.49438">
        <ele>1548.2</ele>
        <time>2015-03-24T09:24:56Z</time>
      </trkpt>
      <trkpt lat="45.92217" lon="6.49442">
        <ele>1549.4</ele>
        <time>2015-03-24T09:24:58Z</time>
      </trkpt>
      <trkpt lat="45.92218" lon="6.49447">
        <ele>1550.6</ele>
        <time>2015-03-24T09:25:01Z</time>
      </trkpt>
      <trkpt lat="45.92218" lon="6.49452">
        <ele>1551.9</ele>
        <time>2015-03-24T09:25:04Z</time>
      </trkpt>
      <trkpt lat="45.92221" lon="6.49453">
        <ele>1551.6</ele>
        <time>2015-03-24T09:25:08Z</time>
      </trkpt>
      <trkpt lat="45.92223" lon="6.49458">
        <ele>1552.7</ele>
        <time>2015-03-24T09:25:13Z</time>
      </trkpt>
      <trkpt lat="45.92226" lon="6.4946">
        <ele>1553</ele>
        <time>2015-03-24T09:25:16Z</time>
      </trkpt>
      <trkpt lat="45.92228" lon="6.49464">
        <ele>1553.7</ele>
        <time>2015-03-24T09:25:22Z</time>
      </trkpt>
      <trkpt lat="45.92231" lon="6.49468">
        <ele>1554.6</ele>
        <time>2015-03-24T09:25:28Z</time>
      </trkpt>
      <trkpt lat="45.92233" lon="6.49471">
        <ele>1555.1</ele>
        <time>2015-03-24T09:25:32Z</time>
      </trkpt>
      <trkpt lat="45.92236" lon="6.49472">
        <ele>1555.1</ele>
        <time>2015-03-24T09:25:39Z</time>
      </trkpt>
      <trkpt lat="45.92239" lon="6.49475">
        <ele>1555.4</ele>
        <time>2015-03-24T09:25:46Z</time>
      </trkpt>
      <trkpt lat="45.92242" lon="6.49479">
        <ele>1556.2</ele>
        <time>2015-03-24T09:25:51Z</time>
      </trkpt>
      <trkpt lat="45.92243" lon="6.49483">
        <ele>1557.3</ele>
        <time>2015-03-24T09:25:59Z</time>
      </trkpt>
      <trkpt lat="45.92245" lon="6.49486">
        <ele>1557.7</ele>
        <time>2015-03-24T09:26:04Z</time>
      </trkpt>
      <trkpt lat="45.92248" lon="6.49488">
        <ele>1558</ele>
        <time>2015-03-24T09:26:10Z</time>
      </trkpt>
      <trkpt lat="45.9225" lon="6.49491">
        <ele>1558.5</ele>
        <time>2015-03-24T09:26:15Z</time>
      </trkpt>
      <trkpt lat="45.92252" lon="6.49494">
        <ele>1558.8</ele>
        <time>2015-03-24T09:26:19Z</time>
      </trkpt>
      <trkpt lat="45.92256" lon="6.49496">
        <ele>1559</ele>
        <time>2015-03-24T09:26:23Z</time>
      </trkpt>
      <trkpt lat="45.92259" lon="6.49497">
        <ele>1558.9</ele>
        <time>2015-03-24T09:26:28Z</time>
      </trkpt>
      <trkpt lat="45.92262" lon="6.49499">
        <ele>1558.8</ele>
        <time>2015-03-24T09:26:33Z</time>
      </trkpt>
      <trkpt lat="45.92262" lon="6.49503">
        <ele>1559.9</ele>
        <time>2015-03-24T09:26:44Z</time>
      </trkpt>
      <trkpt lat="45.92267" lon="6.49506">
        <ele>1560</ele>
        <time>2015-03-24T09:26:51Z</time>
      </trkpt>
      <trkpt lat="45.9227" lon="6.49507">
        <ele>1559.9</ele>
        <time>2015-03-24T09:26:56Z</time>
      </trkpt>
      <trkpt lat="45.92272" lon="6.49511">
        <ele>1560.7</ele>
        <time>2015-03-24T09:27:05Z</time>
      </trkpt>
      <trkpt lat="45.92274" lon="6.49512">
        <ele>1560.7</ele>
        <time>2015-03-24T09:27:07Z</time>
      </trkpt>
      <trkpt lat="45.92277" lon="6.49514">
        <ele>1560.7</ele>
        <time>2015-03-24T09:27:09Z</time>
      </trkpt>
      <trkpt lat="45.92278" lon="6.49518">
        <ele>1561.8</ele>
        <time>2015-03-24T09:27:12Z</time>
      </trkpt>
      <trkpt lat="45.9228" lon="6.49523">
        <ele>1562.7</ele>
        <time>2015-03-24T09:27:17Z</time>
      </trkpt>
      <trkpt lat="45.92282" lon="6.49527">
        <ele>1563.4</ele>
        <time>2015-03-24T09:27:20Z</time>
      </trkpt>
      <trkpt lat="45.92283" lon="6.49531">
        <ele>1564.5</ele>
        <time>2015-03-24T09:27:24Z</time>
      </trkpt>
      <trkpt lat="45.92285" lon="6.49534">
        <ele>1565</ele>
        <time>2015-03-24T09:27:30Z</time>
      </trkpt>
      <trkpt lat="45.92287" lon="6.49538">
        <ele>1565.8</ele>
        <time>2015-03-24T09:27:35Z</time>
      </trkpt>
      <trkpt lat="45.92289" lon="6.49542">
        <ele>1566.5</ele>
        <time>2015-03-24T09:27:40Z</time>
      </trkpt>
      <trkpt lat="45.92291" lon="6.49543">
        <ele>1566.8</ele>
        <time>2015-03-24T09:27:45Z</time>
      </trkpt>
      <trkpt lat="45.92293" lon="6.49547">
        <ele>1568.2</ele>
        <time>2015-03-24T09:27:51Z</time>
      </trkpt>
      <trkpt lat="45.92295" lon="6.4955">
        <ele>1569.8</ele>
        <time>2015-03-24T09:28:01Z</time>
      </trkpt>
      <trkpt lat="45.92292" lon="6.49553">
        <ele>1570.7</ele>
        <time>2015-03-24T09:28:11Z</time>
      </trkpt>
      <trkpt lat="45.92288" lon="6.49555">
        <ele>1572.2</ele>
        <time>2015-03-24T09:28:14Z</time>
      </trkpt>
      <trkpt lat="45.92286" lon="6.49556">
        <ele>1573</ele>
        <time>2015-03-24T09:28:18Z</time>
      </trkpt>
      <trkpt lat="45.92283" lon="6.49556">
        <ele>1573.7</ele>
        <time>2015-03-24T09:28:22Z</time>
      </trkpt>
      <trkpt lat="45.9228" lon="6.49558">
        <ele>1574.8</ele>
        <time>2015-03-24T09:28:26Z</time>
      </trkpt>
      <trkpt lat="45.92278" lon="6.4956">
        <ele>1575.9</ele>
        <time>2015-03-24T09:28:29Z</time>
      </trkpt>
      <trkpt lat="45.92274" lon="6.49562">
        <ele>1577.6</ele>
        <time>2015-03-24T09:28:33Z</time>
      </trkpt>
      <trkpt lat="45.92272" lon="6.49564">
        <ele>1579</ele>
        <time>2015-03-24T09:28:36Z</time>
      </trkpt>
      <trkpt lat="45.92269" lon="6.49568">
        <ele>1581.3</ele>
        <time>2015-03-24T09:28:40Z</time>
      </trkpt>
      <trkpt lat="45.92266" lon="6.49569">
        <ele>1582.1</ele>
        <time>2015-03-24T09:28:45Z</time>
      </trkpt>
      <trkpt lat="45.92263" lon="6.49571">
        <ele>1583.4</ele>
        <time>2015-03-24T09:28:50Z</time>
      </trkpt>
      <trkpt lat="45.9226" lon="6.49572">
        <ele>1584.5</ele>
        <time>2015-03-24T09:28:54Z</time>
      </trkpt>
      <trkpt lat="45.92256" lon="6.49574">
        <ele>1585.9</ele>
        <time>2015-03-24T09:28:58Z</time>
      </trkpt>
      <trkpt lat="45.92254" lon="6.49573">
        <ele>1585.9</ele>
        <time>2015-03-24T09:29:02Z</time>
      </trkpt>
      <trkpt lat="45.92251" lon="6.49575">
        <ele>1587.3</ele>
        <time>2015-03-24T09:29:05Z</time>
      </trkpt>
      <trkpt lat="45.92248" lon="6.49579">
        <ele>1589.2</ele>
        <time>2015-03-24T09:29:08Z</time>
      </trkpt>
      <trkpt lat="45.92246" lon="6.49582">
        <ele>1591</ele>
        <time>2015-03-24T09:29:11Z</time>
      </trkpt>
      <trkpt lat="45.92243" lon="6.49585">
        <ele>1593.1</ele>
        <time>2015-03-24T09:29:17Z</time>
      </trkpt>
      <trkpt lat="45.92239" lon="6.49584">
        <ele>1593.3</ele>
        <time>2015-03-24T09:29:22Z</time>
      </trkpt>
      <trkpt lat="45.92237" lon="6.49586">
        <ele>1594.7</ele>
        <time>2015-03-24T09:29:25Z</time>
      </trkpt>
      <trkpt lat="45.92234" lon="6.49585">
        <ele>1594.5</ele>
        <time>2015-03-24T09:29:30Z</time>
      </trkpt>
      <trkpt lat="45.92232" lon="6.49583">
        <ele>1594.1</ele>
        <time>2015-03-24T09:29:34Z</time>
      </trkpt>
      <trkpt lat="45.92229" lon="6.4958">
        <ele>1593.5</ele>
        <time>2015-03-24T09:29:38Z</time>
      </trkpt>
      <trkpt lat="45.92226" lon="6.49579">
        <ele>1593.2</ele>
        <time>2015-03-24T09:29:41Z</time>
      </trkpt>
      <trkpt lat="45.92223" lon="6.4958">
        <ele>1594.1</ele>
        <time>2015-03-24T09:29:46Z</time>
      </trkpt>
      <trkpt lat="45.92221" lon="6.4958">
        <ele>1595</ele>
        <time>2015-03-24T09:29:50Z</time>
      </trkpt>
      <trkpt lat="45.92218" lon="6.49579">
        <ele>1595</ele>
        <time>2015-03-24T09:29:53Z</time>
      </trkpt>
      <trkpt lat="45.92215" lon="6.49578">
        <ele>1594.7</ele>
        <time>2015-03-24T09:29:58Z</time>
      </trkpt>
      <trkpt lat="45.92213" lon="6.49575">
        <ele>1594</ele>
        <time>2015-03-24T09:30:02Z</time>
      </trkpt>
      <trkpt lat="45.9221" lon="6.49573">
        <ele>1593.8</ele>
        <time>2015-03-24T09:30:06Z</time>
      </trkpt>
      <trkpt lat="45.92206" lon="6.49573">
        <ele>1594.8</ele>
        <time>2015-03-24T09:30:12Z</time>
      </trkpt>
      <trkpt lat="45.92203" lon="6.49575">
        <ele>1596.6</ele>
        <time>2015-03-24T09:30:17Z</time>
      </trkpt>
      <trkpt lat="45.922" lon="6.49577">
        <ele>1598.5</ele>
        <time>2015-03-24T09:30:22Z</time>
      </trkpt>
      <trkpt lat="45.92198" lon="6.49578">
        <ele>1600</ele>
        <time>2015-03-24T09:30:28Z</time>
      </trkpt>
      <trkpt lat="45.92194" lon="6.4958">
        <ele>1602</ele>
        <time>2015-03-24T09:30:32Z</time>
      </trkpt>
      <trkpt lat="45.92192" lon="6.4958">
        <ele>1602.9</ele>
        <time>2015-03-24T09:30:36Z</time>
      </trkpt>
      <trkpt lat="45.92188" lon="6.49581">
        <ele>1604.5</ele>
        <time>2015-03-24T09:30:41Z</time>
      </trkpt>
      <trkpt lat="45.92186" lon="6.49579">
        <ele>1604.5</ele>
        <time>2015-03-24T09:30:44Z</time>
      </trkpt>
      <trkpt lat="45.92183" lon="6.49578">
        <ele>1605.4</ele>
        <time>2015-03-24T09:30:48Z</time>
      </trkpt>
      <trkpt lat="45.9218" lon="6.49579">
        <ele>1606.6</ele>
        <time>2015-03-24T09:30:52Z</time>
      </trkpt>
      <trkpt lat="45.92177" lon="6.49581">
        <ele>1608.3</ele>
        <time>2015-03-24T09:30:57Z</time>
      </trkpt>
      <trkpt lat="45.92174" lon="6.4958">
        <ele>1609.5</ele>
        <time>2015-03-24T09:31:01Z</time>
      </trkpt>
      <trkpt lat="45.92171" lon="6.4958">
        <ele>1610.2</ele>
        <time>2015-03-24T09:31:06Z</time>
      </trkpt>
      <trkpt lat="45.92168" lon="6.4958">
        <ele>1611.5</ele>
        <time>2015-03-24T09:31:12Z</time>
      </trkpt>
      <trkpt lat="45.92165" lon="6.49579">
        <ele>1612</ele>
        <time>2015-03-24T09:31:18Z</time>
      </trkpt>
      <trkpt lat="45.92162" lon="6.4958">
        <ele>1613.5</ele>
        <time>2015-03-24T09:31:22Z</time>
      </trkpt>
      <trkpt lat="45.92158" lon="6.4958">
        <ele>1614.9</ele>
        <time>2015-03-24T09:31:27Z</time>
      </trkpt>
      <trkpt lat="45.92155" lon="6.4958">
        <ele>1616.1</ele>
        <time>2015-03-24T09:31:33Z</time>
      </trkpt>
      <trkpt lat="45.92152" lon="6.49583">
        <ele>1618</ele>
        <time>2015-03-24T09:31:37Z</time>
      </trkpt>
      <trkpt lat="45.9215" lon="6.49584">
        <ele>1619.6</ele>
        <time>2015-03-24T09:31:43Z</time>
      </trkpt>
      <trkpt lat="45.92148" lon="6.49587">
        <ele>1621.3</ele>
        <time>2015-03-24T09:31:54Z</time>
      </trkpt>
      <trkpt lat="45.92146" lon="6.49591">
        <ele>1623.3</ele>
        <time>2015-03-24T09:32:02Z</time>
      </trkpt>
      <trkpt lat="45.92145" lon="6.49595">
        <ele>1625</ele>
        <time>2015-03-24T09:32:06Z</time>
      </trkpt>
      <trkpt lat="45.92142" lon="6.49598">
        <ele>1627.1</ele>
        <time>2015-03-24T09:32:10Z</time>
      </trkpt>
      <trkpt lat="45.9214" lon="6.49601">
        <ele>1628.8</ele>
        <time>2015-03-24T09:32:12Z</time>
      </trkpt>
      <trkpt lat="45.92138" lon="6.49602">
        <ele>1630</ele>
        <time>2015-03-24T09:32:17Z</time>
      </trkpt>
      <trkpt lat="45.92136" lon="6.49606">
        <ele>1631.9</ele>
        <time>2015-03-24T09:32:20Z</time>
      </trkpt>
      <trkpt lat="45.92136" lon="6.4961">
        <ele>1633.5</ele>
        <time>2015-03-24T09:32:24Z</time>
      </trkpt>
      <trkpt lat="45.92138" lon="6.49611">
        <ele>1633.1</ele>
        <time>2015-03-24T09:32:27Z</time>
      </trkpt>
      <trkpt lat="45.92141" lon="6.49614">
        <ele>1633.2</ele>
        <time>2015-03-24T09:32:33Z</time>
      </trkpt>
      <trkpt lat="45.92145" lon="6.49615">
        <ele>1632.3</ele>
        <time>2015-03-24T09:32:37Z</time>
      </trkpt>
      <trkpt lat="45.92148" lon="6.49617">
        <ele>1632.4</ele>
        <time>2015-03-24T09:32:42Z</time>
      </trkpt>
      <trkpt lat="45.92148" lon="6.49621">
        <ele>1633.6</ele>
        <time>2015-03-24T09:32:45Z</time>
      </trkpt>
      <trkpt lat="45.92148" lon="6.49625">
        <ele>1635.3</ele>
        <time>2015-03-24T09:32:56Z</time>
      </trkpt>
      <trkpt lat="45.92146" lon="6.49628">
        <ele>1636.8</ele>
        <time>2015-03-24T09:33:01Z</time>
      </trkpt>
      <trkpt lat="45.92146" lon="6.49633">
        <ele>1638.7</ele>
        <time>2015-03-24T09:33:10Z</time>
      </trkpt>
      <trkpt lat="45.92146" lon="6.49637">
        <ele>1639.9</ele>
        <time>2015-03-24T09:33:13Z</time>
      </trkpt>
      <trkpt lat="45.92146" lon="6.49642">
        <ele>1641.7</ele>
        <time>2015-03-24T09:33:18Z</time>
      </trkpt>
      <trkpt lat="45.92147" lon="6.49646">
        <ele>1642.8</ele>
        <time>2015-03-24T09:33:25Z</time>
      </trkpt>
      <trkpt lat="45.92147" lon="6.49651">
        <ele>1644.3</ele>
        <time>2015-03-24T09:33:32Z</time>
      </trkpt>
      <trkpt lat="45.92147" lon="6.49655">
        <ele>1645.8</ele>
        <time>2015-03-24T09:33:38Z</time>
      </trkpt>
      <trkpt lat="45.92151" lon="6.49656">
        <ele>1645</ele>
        <time>2015-03-24T09:33:45Z</time>
      </trkpt>
      <trkpt lat="45.92153" lon="6.49657">
        <ele>1644.6</ele>
        <time>2015-03-24T09:33:53Z</time>
      </trkpt>
      <trkpt lat="45.92154" lon="6.49661">
        <ele>1645.8</ele>
        <time>2015-03-24T09:33:57Z</time>
      </trkpt>
      <trkpt lat="45.92156" lon="6.49665">
        <ele>1646.9</ele>
        <time>2015-03-24T09:34:01Z</time>
      </trkpt>
      <trkpt lat="45.92155" lon="6.49669">
        <ele>1648.4</ele>
        <time>2015-03-24T09:34:05Z</time>
      </trkpt>
      <trkpt lat="45.92153" lon="6.49672">
        <ele>1650</ele>
        <time>2015-03-24T09:34:08Z</time>
      </trkpt>
      <trkpt lat="45.92153" lon="6.49677">
        <ele>1651.8</ele>
        <time>2015-03-24T09:34:15Z</time>
      </trkpt>
      <trkpt lat="45.92152" lon="6.49682">
        <ele>1653.8</ele>
        <time>2015-03-24T09:34:23Z</time>
      </trkpt>
      <trkpt lat="45.92151" lon="6.49685">
        <ele>1655.3</ele>
        <time>2015-03-24T09:34:32Z</time>
      </trkpt>
      <trkpt lat="45.92151" lon="6.49689">
        <ele>1656.5</ele>
        <time>2015-03-24T09:34:42Z</time>
      </trkpt>
      <trkpt lat="45.92152" lon="6.49693">
        <ele>1657.5</ele>
        <time>2015-03-24T09:34:46Z</time>
      </trkpt>
      <trkpt lat="45.92153" lon="6.49699">
        <ele>1659.2</ele>
        <time>2015-03-24T09:34:52Z</time>
      </trkpt>
      <trkpt lat="45.92152" lon="6.49702">
        <ele>1660.7</ele>
        <time>2015-03-24T09:34:53Z</time>
      </trkpt>
      <trkpt lat="45.92152" lon="6.49707">
        <ele>1662.4</ele>
        <time>2015-03-24T09:34:58Z</time>
      </trkpt>
      <trkpt lat="45.92152" lon="6.49711">
        <ele>1663.8</ele>
        <time>2015-03-24T09:35:03Z</time>
      </trkpt>
      <trkpt lat="45.92151" lon="6.49715">
        <ele>1665.1</ele>
        <time>2015-03-24T09:35:08Z</time>
      </trkpt>
      <trkpt lat="45.9215" lon="6.49719">
        <ele>1666.7</ele>
        <time>2015-03-24T09:35:12Z</time>
      </trkpt>
      <trkpt lat="45.92148" lon="6.49722">
        <ele>1668.1</ele>
        <time>2015-03-24T09:35:17Z</time>
      </trkpt>
      <trkpt lat="45.92146" lon="6.49725">
        <ele>1669.7</ele>
        <time>2015-03-24T09:35:21Z</time>
      </trkpt>
      <trkpt lat="45.92145" lon="6.49729">
        <ele>1671.1</ele>
        <time>2015-03-24T09:35:31Z</time>
      </trkpt>
      <trkpt lat="45.92145" lon="6.49734">
        <ele>1672.6</ele>
        <time>2015-03-24T09:35:36Z</time>
      </trkpt>
      <trkpt lat="45.92143" lon="6.49738">
        <ele>1674.1</ele>
        <time>2015-03-24T09:35:49Z</time>
      </trkpt>
      <trkpt lat="45.92141" lon="6.49742">
        <ele>1675.9</ele>
        <time>2015-03-24T09:35:53Z</time>
      </trkpt>
      <trkpt lat="45.92139" lon="6.49745">
        <ele>1677.5</ele>
        <time>2015-03-24T09:35:57Z</time>
      </trkpt>
      <trkpt lat="45.92137" lon="6.4975">
        <ele>1679.4</ele>
        <time>2015-03-24T09:36:11Z</time>
      </trkpt>
      <trkpt lat="45.92136" lon="6.49756">
        <ele>1681.2</ele>
        <time>2015-03-24T09:36:16Z</time>
      </trkpt>
      <trkpt lat="45.92136" lon="6.49759">
        <ele>1682.5</ele>
        <time>2015-03-24T09:36:22Z</time>
      </trkpt>
      <trkpt lat="45.92133" lon="6.49762">
        <ele>1683.7</ele>
        <time>2015-03-24T09:36:33Z</time>
      </trkpt>
      <trkpt lat="45.9213" lon="6.49763">
        <ele>1684.6</ele>
        <time>2015-03-24T09:36:40Z</time>
      </trkpt>
      <trkpt lat="45.92128" lon="6.49764">
        <ele>1685.4</ele>
        <time>2015-03-24T09:36:45Z</time>
      </trkpt>
      <trkpt lat="45.92125" lon="6.49763">
        <ele>1685.8</ele>
        <time>2015-03-24T09:36:54Z</time>
      </trkpt>
      <trkpt lat="45.92123" lon="6.49766">
        <ele>1687.3</ele>
        <time>2015-03-24T09:36:58Z</time>
      </trkpt>
      <trkpt lat="45.9212" lon="6.49768">
        <ele>1688.8</ele>
        <time>2015-03-24T09:37:04Z</time>
      </trkpt>
      <trkpt lat="45.92119" lon="6.49772">
        <ele>1690.4</ele>
        <time>2015-03-24T09:37:10Z</time>
      </trkpt>
      <trkpt lat="45.92118" lon="6.49777">
        <ele>1691.9</ele>
        <time>2015-03-24T09:37:19Z</time>
      </trkpt>
      <trkpt lat="45.92117" lon="6.49781">
        <ele>1693.5</ele>
        <time>2015-03-24T09:37:22Z</time>
      </trkpt>
      <trkpt lat="45.92116" lon="6.49786">
        <ele>1695.2</ele>
        <time>2015-03-24T09:37:34Z</time>
      </trkpt>
      <trkpt lat="45.92114" lon="6.49789">
        <ele>1696.8</ele>
        <time>2015-03-24T09:37:36Z</time>
      </trkpt>
      <trkpt lat="45.92112" lon="6.49794">
        <ele>1698.7</ele>
        <time>2015-03-24T09:37:42Z</time>
      </trkpt>
      <trkpt lat="45.9211" lon="6.49796">
        <ele>1700.4</ele>
        <time>2015-03-24T09:37:45Z</time>
      </trkpt>
      <trkpt lat="45.9211" lon="6.49802">
        <ele>1702.1</ele>
        <time>2015-03-24T09:37:50Z</time>
      </trkpt>
      <trkpt lat="45.92108" lon="6.49805">
        <ele>1703.9</ele>
        <time>2015-03-24T09:37:56Z</time>
      </trkpt>
      <trkpt lat="45.92105" lon="6.49807">
        <ele>1705.4</ele>
        <time>2015-03-24T09:38:01Z</time>
      </trkpt>
      <trkpt lat="45.92103" lon="6.49807">
        <ele>1706.3</ele>
        <time>2015-03-24T09:38:09Z</time>
      </trkpt>
      <trkpt lat="45.92101" lon="6.49811">
        <ele>1708.2</ele>
        <time>2015-03-24T09:38:18Z</time>
      </trkpt>
      <trkpt lat="45.92098" lon="6.49811">
        <ele>1709.2</ele>
        <time>2015-03-24T09:38:27Z</time>
      </trkpt>
      <trkpt lat="45.92096" lon="6.49815">
        <ele>1711</ele>
        <time>2015-03-24T09:38:34Z</time>
      </trkpt>
      <trkpt lat="45.92093" lon="6.49817">
        <ele>1712.6</ele>
        <time>2015-03-24T09:38:42Z</time>
      </trkpt>
      <trkpt lat="45.92092" lon="6.4982">
        <ele>1714.3</ele>
        <time>2015-03-24T09:38:46Z</time>
      </trkpt>
      <trkpt lat="45.92089" lon="6.49822">
        <ele>1715.9</ele>
        <time>2015-03-24T09:38:51Z</time>
      </trkpt>
      <trkpt lat="45.92086" lon="6.49824">
        <ele>1717.5</ele>
        <time>2015-03-24T09:39:00Z</time>
      </trkpt>
      <trkpt lat="45.92083" lon="6.49825">
        <ele>1718.9</ele>
        <time>2015-03-24T09:39:03Z</time>
      </trkpt>
      <trkpt lat="45.92081" lon="6.49828">
        <ele>1720.5</ele>
        <time>2015-03-24T09:39:06Z</time>
      </trkpt>
      <trkpt lat="45.9208" lon="6.49832">
        <ele>1722.3</ele>
        <time>2015-03-24T09:39:11Z</time>
      </trkpt>
      <trkpt lat="45.92078" lon="6.49835">
        <ele>1723.9</ele>
        <time>2015-03-24T09:39:13Z</time>
      </trkpt>
      <trkpt lat="45.92075" lon="6.49835">
        <ele>1725</ele>
        <time>2015-03-24T09:39:20Z</time>
      </trkpt>
      <trkpt lat="45.92072" lon="6.49838">
        <ele>1726.9</ele>
        <time>2015-03-24T09:39:28Z</time>
      </trkpt>
      <trkpt lat="45.92069" lon="6.4984">
        <ele>1728.8</ele>
        <time>2015-03-24T09:39:40Z</time>
      </trkpt>
      <trkpt lat="45.92066" lon="6.49839">
        <ele>1729.6</ele>
        <time>2015-03-24T09:39:53Z</time>
      </trkpt>
      <trkpt lat="45.92063" lon="6.49844">
        <ele>1732.1</ele>
        <time>2015-03-24T09:39:55Z</time>
      </trkpt>
      <trkpt lat="45.92064" lon="6.49848">
        <ele>1733.3</ele>
        <time>2015-03-24T09:39:59Z</time>
      </trkpt>
      <trkpt lat="45.92062" lon="6.49853">
        <ele>1735.7</ele>
        <time>2015-03-24T09:40:07Z</time>
      </trkpt>
      <trkpt lat="45.92059" lon="6.49852">
        <ele>1736.5</ele>
        <time>2015-03-24T09:40:19Z</time>
      </trkpt>
      <trkpt lat="45.92058" lon="6.49856">
        <ele>1738.3</ele>
        <time>2015-03-24T09:40:28Z</time>
      </trkpt>
      <trkpt lat="45.92056" lon="6.49859">
        <ele>1740.2</ele>
        <time>2015-03-24T09:40:40Z</time>
      </trkpt>
      <trkpt lat="45.92054" lon="6.49864">
        <ele>1742.3</ele>
        <time>2015-03-24T09:40:43Z</time>
      </trkpt>
      <trkpt lat="45.92054" lon="6.49869">
        <ele>1744.4</ele>
        <time>2015-03-24T09:40:49Z</time>
      </trkpt>
      <trkpt lat="45.92051" lon="6.4987">
        <ele>1745.8</ele>
        <time>2015-03-24T09:40:53Z</time>
      </trkpt>
      <trkpt lat="45.92049" lon="6.49873">
        <ele>1747.5</ele>
        <time>2015-03-24T09:40:57Z</time>
      </trkpt>
      <trkpt lat="45.92046" lon="6.49875">
        <ele>1749.2</ele>
        <time>2015-03-24T09:41:02Z</time>
      </trkpt>
      <trkpt lat="45.92044" lon="6.49878">
        <ele>1751</ele>
        <time>2015-03-24T09:41:06Z</time>
      </trkpt>
      <trkpt lat="45.92043" lon="6.49881">
        <ele>1752.5</ele>
        <time>2015-03-24T09:41:11Z</time>
      </trkpt>
      <trkpt lat="45.92042" lon="6.49885">
        <ele>1754.1</ele>
        <time>2015-03-24T09:41:19Z</time>
      </trkpt>
      <trkpt lat="45.92041" lon="6.49889">
        <ele>1755.6</ele>
        <time>2015-03-24T09:41:25Z</time>
      </trkpt>
      <trkpt lat="45.92039" lon="6.49893">
        <ele>1757.4</ele>
        <time>2015-03-24T09:41:30Z</time>
      </trkpt>
      <trkpt lat="45.92037" lon="6.49896">
        <ele>1759</ele>
        <time>2015-03-24T09:41:35Z</time>
      </trkpt>
      <trkpt lat="45.92038" lon="6.499">
        <ele>1760</ele>
        <time>2015-03-24T09:41:38Z</time>
      </trkpt>
      <trkpt lat="45.92037" lon="6.49904">
        <ele>1761.6</ele>
        <time>2015-03-24T09:41:41Z</time>
      </trkpt>
      <trkpt lat="45.92038" lon="6.49908">
        <ele>1762.5</ele>
        <time>2015-03-24T09:41:45Z</time>
      </trkpt>
      <trkpt lat="45.92037" lon="6.49913">
        <ele>1764.4</ele>
        <time>2015-03-24T09:42:04Z</time>
      </trkpt>
      <trkpt lat="45.92037" lon="6.49919">
        <ele>1766</ele>
        <time>2015-03-24T09:42:13Z</time>
      </trkpt>
      <trkpt lat="45.92038" lon="6.49924">
        <ele>1767.4</ele>
        <time>2015-03-24T09:42:15Z</time>
      </trkpt>
      <trkpt lat="45.92037" lon="6.49929">
        <ele>1769.2</ele>
        <time>2015-03-24T09:42:21Z</time>
      </trkpt>
      <trkpt lat="45.92033" lon="6.49929">
        <ele>1770.7</ele>
        <time>2015-03-24T09:42:25Z</time>
      </trkpt>
      <trkpt lat="45.9203" lon="6.49928">
        <ele>1771.5</ele>
        <time>2015-03-24T09:42:28Z</time>
      </trkpt>
      <trkpt lat="45.92027" lon="6.49926">
        <ele>1772.1</ele>
        <time>2015-03-24T09:42:32Z</time>
      </trkpt>
      <trkpt lat="45.92024" lon="6.49924">
        <ele>1772.9</ele>
        <time>2015-03-24T09:42:36Z</time>
      </trkpt>
      <trkpt lat="45.92022" lon="6.49923">
        <ele>1773.6</ele>
        <time>2015-03-24T09:42:40Z</time>
      </trkpt>
      <trkpt lat="45.92019" lon="6.4992">
        <ele>1773.7</ele>
        <time>2015-03-24T09:42:43Z</time>
      </trkpt>
      <trkpt lat="45.92017" lon="6.49917">
        <ele>1773.9</ele>
        <time>2015-03-24T09:42:47Z</time>
      </trkpt>
      <trkpt lat="45.92014" lon="6.49916">
        <ele>1774.7</ele>
        <time>2015-03-24T09:42:52Z</time>
      </trkpt>
      <trkpt lat="45.92011" lon="6.49913">
        <ele>1774.9</ele>
        <time>2015-03-24T09:43:02Z</time>
      </trkpt>
      <trkpt lat="45.92009" lon="6.4991">
        <ele>1775</ele>
        <time>2015-03-24T09:43:05Z</time>
      </trkpt>
      <trkpt lat="45.92006" lon="6.49906">
        <ele>1775.1</ele>
        <time>2015-03-24T09:43:08Z</time>
      </trkpt>
      <trkpt lat="45.92003" lon="6.49904">
        <ele>1775.6</ele>
        <time>2015-03-24T09:43:11Z</time>
      </trkpt>
      <trkpt lat="45.92001" lon="6.49904">
        <ele>1776.6</ele>
        <time>2015-03-24T09:43:16Z</time>
      </trkpt>
      <trkpt lat="45.91997" lon="6.49904">
        <ele>1778.1</ele>
        <time>2015-03-24T09:43:22Z</time>
      </trkpt>
      <trkpt lat="45.91994" lon="6.49902">
        <ele>1778.9</ele>
        <time>2015-03-24T09:43:27Z</time>
      </trkpt>
      <trkpt lat="45.91992" lon="6.499">
        <ele>1779.4</ele>
        <time>2015-03-24T09:43:31Z</time>
      </trkpt>
      <trkpt lat="45.91988" lon="6.49897">
        <ele>1780</ele>
        <time>2015-03-24T09:43:35Z</time>
      </trkpt>
      <trkpt lat="45.91986" lon="6.49895">
        <ele>1780.4</ele>
        <time>2015-03-24T09:43:43Z</time>
      </trkpt>
      <trkpt lat="45.91982" lon="6.49894">
        <ele>1781.5</ele>
        <time>2015-03-24T09:43:48Z</time>
      </trkpt>
      <trkpt lat="45.91979" lon="6.49895">
        <ele>1783</ele>
        <time>2015-03-24T09:43:56Z</time>
      </trkpt>
      <trkpt lat="45.91977" lon="6.49896">
        <ele>1784.4</ele>
        <time>2015-03-24T09:44:03Z</time>
      </trkpt>
      <trkpt lat="45.91975" lon="6.499">
        <ele>1786.2</ele>
        <time>2015-03-24T09:44:07Z</time>
      </trkpt>
      <trkpt lat="45.91973" lon="6.49903">
        <ele>1787.8</ele>
        <time>2015-03-24T09:44:12Z</time>
      </trkpt>
      <trkpt lat="45.91971" lon="6.49901">
        <ele>1788.3</ele>
        <time>2015-03-24T09:44:18Z</time>
      </trkpt>
      <trkpt lat="45.91969" lon="6.49905">
        <ele>1790.1</ele>
        <time>2015-03-24T09:44:30Z</time>
      </trkpt>
      <trkpt lat="45.91971" lon="6.49909">
        <ele>1790.7</ele>
        <time>2015-03-24T09:44:32Z</time>
      </trkpt>
      <trkpt lat="45.91969" lon="6.49913">
        <ele>1792.6</ele>
        <time>2015-03-24T09:44:36Z</time>
      </trkpt>
      <trkpt lat="45.91969" lon="6.49917">
        <ele>1793.7</ele>
        <time>2015-03-24T09:44:40Z</time>
      </trkpt>
      <trkpt lat="45.91968" lon="6.49922">
        <ele>1795.4</ele>
        <time>2015-03-24T09:44:43Z</time>
      </trkpt>
      <trkpt lat="45.91967" lon="6.49927">
        <ele>1797.4</ele>
        <time>2015-03-24T09:44:47Z</time>
      </trkpt>
      <trkpt lat="45.91966" lon="6.49932">
        <ele>1799.5</ele>
        <time>2015-03-24T09:44:51Z</time>
      </trkpt>
      <trkpt lat="45.91965" lon="6.49937">
        <ele>1801.2</ele>
        <time>2015-03-24T09:44:55Z</time>
      </trkpt>
      <trkpt lat="45.91964" lon="6.49941">
        <ele>1802.8</ele>
        <time>2015-03-24T09:45:00Z</time>
      </trkpt>
      <trkpt lat="45.91965" lon="6.49945">
        <ele>1803.6</ele>
        <time>2015-03-24T09:45:02Z</time>
      </trkpt>
      <trkpt lat="45.91966" lon="6.49951">
        <ele>1805</ele>
        <time>2015-03-24T09:45:05Z</time>
      </trkpt>
      <trkpt lat="45.91967" lon="6.49956">
        <ele>1805.6</ele>
        <time>2015-03-24T09:45:09Z</time>
      </trkpt>
      <trkpt lat="45.91969" lon="6.49959">
        <ele>1806</ele>
        <time>2015-03-24T09:45:12Z</time>
      </trkpt>
      <trkpt lat="45.91971" lon="6.49963">
        <ele>1806.2</ele>
        <time>2015-03-24T09:45:14Z</time>
      </trkpt>
      <trkpt lat="45.91968" lon="6.49962">
        <ele>1807.1</ele>
        <time>2015-03-24T09:45:20Z</time>
      </trkpt>
      <trkpt lat="45.91965" lon="6.49963">
        <ele>1808.6</ele>
        <time>2015-03-24T09:45:27Z</time>
      </trkpt>
      <trkpt lat="45.91961" lon="6.49961">
        <ele>1809.7</ele>
        <time>2015-03-24T09:45:31Z</time>
      </trkpt>
      <trkpt lat="45.91959" lon="6.49959">
        <ele>1810.1</ele>
        <time>2015-03-24T09:45:37Z</time>
      </trkpt>
      <trkpt lat="45.91958" lon="6.49964">
        <ele>1811.9</ele>
        <time>2015-03-24T09:45:48Z</time>
      </trkpt>
      <trkpt lat="45.91955" lon="6.49966">
        <ele>1813.5</ele>
        <time>2015-03-24T09:45:59Z</time>
      </trkpt>
      <trkpt lat="45.91955" lon="6.4997">
        <ele>1815</ele>
        <time>2015-03-24T09:46:05Z</time>
      </trkpt>
      <trkpt lat="45.91956" lon="6.49974">
        <ele>1815.4</ele>
        <time>2015-03-24T09:46:08Z</time>
      </trkpt>
      <trkpt lat="45.91957" lon="6.49978">
        <ele>1816.2</ele>
        <time>2015-03-24T09:46:12Z</time>
      </trkpt>
      <trkpt lat="45.91958" lon="6.49983">
        <ele>1817.2</ele>
        <time>2015-03-24T09:46:15Z</time>
      </trkpt>
      <trkpt lat="45.91958" lon="6.49987">
        <ele>1818.4</ele>
        <time>2015-03-24T09:46:18Z</time>
      </trkpt>
      <trkpt lat="45.91958" lon="6.49992">
        <ele>1819.8</ele>
        <time>2015-03-24T09:46:24Z</time>
      </trkpt>
      <trkpt lat="45.91961" lon="6.49996">
        <ele>1819.9</ele>
        <time>2015-03-24T09:46:28Z</time>
      </trkpt>
      <trkpt lat="45.91959" lon="6.49999">
        <ele>1821.5</ele>
        <time>2015-03-24T09:46:39Z</time>
      </trkpt>
      <trkpt lat="45.91956" lon="6.49998">
        <ele>1822.5</ele>
        <time>2015-03-24T09:46:47Z</time>
      </trkpt>
      <trkpt lat="45.91953" lon="6.49998">
        <ele>1823.6</ele>
        <time>2015-03-24T09:46:52Z</time>
      </trkpt>
      <trkpt lat="45.9195" lon="6.49998">
        <ele>1824.8</ele>
        <time>2015-03-24T09:46:57Z</time>
      </trkpt>
      <trkpt lat="45.91948" lon="6.49996">
        <ele>1825.3</ele>
        <time>2015-03-24T09:47:00Z</time>
      </trkpt>
      <trkpt lat="45.91945" lon="6.49993">
        <ele>1825.4</ele>
        <time>2015-03-24T09:47:05Z</time>
      </trkpt>
      <trkpt lat="45.91944" lon="6.49989">
        <ele>1825</ele>
        <time>2015-03-24T09:47:09Z</time>
      </trkpt>
      <trkpt lat="45.91942" lon="6.49985">
        <ele>1824.7</ele>
        <time>2015-03-24T09:47:13Z</time>
      </trkpt>
      <trkpt lat="45.9194" lon="6.49982">
        <ele>1824.9</ele>
        <time>2015-03-24T09:47:17Z</time>
      </trkpt>
      <trkpt lat="45.91937" lon="6.4998">
        <ele>1825.3</ele>
        <time>2015-03-24T09:47:22Z</time>
      </trkpt>
      <trkpt lat="45.91935" lon="6.49975">
        <ele>1824.9</ele>
        <time>2015-03-24T09:47:26Z</time>
      </trkpt>
      <trkpt lat="45.91933" lon="6.49971">
        <ele>1824.6</ele>
        <time>2015-03-24T09:47:30Z</time>
      </trkpt>
      <trkpt lat="45.91932" lon="6.49967">
        <ele>1824.3</ele>
        <time>2015-03-24T09:47:33Z</time>
      </trkpt>
      <trkpt lat="45.91932" lon="6.4996">
        <ele>1822.1</ele>
        <time>2015-03-24T09:47:37Z</time>
      </trkpt>
      <trkpt lat="45.91933" lon="6.49955">
        <ele>1820.2</ele>
        <time>2015-03-24T09:47:43Z</time>
      </trkpt>
      <trkpt lat="45.91932" lon="6.49951">
        <ele>1819.6</ele>
        <time>2015-03-24T09:47:54Z</time>
      </trkpt>
      <trkpt lat="45.9193" lon="6.4995">
        <ele>1820.3</ele>
        <time>2015-03-24T09:47:58Z</time>
      </trkpt>
      <trkpt lat="45.91927" lon="6.49949">
        <ele>1821.4</ele>
        <time>2015-03-24T09:48:04Z</time>
      </trkpt>
      <trkpt lat="45.91924" lon="6.49951">
        <ele>1823</ele>
        <time>2015-03-24T09:48:08Z</time>
      </trkpt>
      <trkpt lat="45.91922" lon="6.4995">
        <ele>1823.9</ele>
        <time>2015-03-24T09:48:24Z</time>
      </trkpt>
      <trkpt lat="45.91918" lon="6.49949">
        <ele>1825.1</ele>
        <time>2015-03-24T09:48:28Z</time>
      </trkpt>
      <trkpt lat="45.91916" lon="6.49949">
        <ele>1826.4</ele>
        <time>2015-03-24T09:48:32Z</time>
      </trkpt>
      <trkpt lat="45.91914" lon="6.49946">
        <ele>1826.3</ele>
        <time>2015-03-24T09:48:40Z</time>
      </trkpt>
      <trkpt lat="45.91911" lon="6.49943">
        <ele>1826.7</ele>
        <time>2015-03-24T09:48:51Z</time>
      </trkpt>
      <trkpt lat="45.91908" lon="6.49941">
        <ele>1827.5</ele>
        <time>2015-03-24T09:48:54Z</time>
      </trkpt>
      <trkpt lat="45.91905" lon="6.49939">
        <ele>1828.1</ele>
        <time>2015-03-24T09:48:57Z</time>
      </trkpt>
      <trkpt lat="45.91903" lon="6.49939">
        <ele>1829.2</ele>
        <time>2015-03-24T09:49:03Z</time>
      </trkpt>
      <trkpt lat="45.919" lon="6.49939">
        <ele>1830.5</ele>
        <time>2015-03-24T09:49:10Z</time>
      </trkpt>
      <trkpt lat="45.91897" lon="6.4994">
        <ele>1832.1</ele>
        <time>2015-03-24T09:49:13Z</time>
      </trkpt>
      <trkpt lat="45.91894" lon="6.49941">
        <ele>1833.6</ele>
        <time>2015-03-24T09:49:21Z</time>
      </trkpt>
      <trkpt lat="45.91891" lon="6.49942">
        <ele>1835.1</ele>
        <time>2015-03-24T09:49:25Z</time>
      </trkpt>
      <trkpt lat="45.91888" lon="6.49943">
        <ele>1836.9</ele>
        <time>2015-03-24T09:49:30Z</time>
      </trkpt>
      <trkpt lat="45.91887" lon="6.49947">
        <ele>1838.6</ele>
        <time>2015-03-24T09:49:34Z</time>
      </trkpt>
      <trkpt lat="45.91883" lon="6.49949">
        <ele>1840.9</ele>
        <time>2015-03-24T09:49:43Z</time>
      </trkpt>
      <trkpt lat="45.9188" lon="6.49953">
        <ele>1843.4</ele>
        <time>2015-03-24T09:49:52Z</time>
      </trkpt>
      <trkpt lat="45.91877" lon="6.49955">
        <ele>1845</ele>
        <time>2015-03-24T09:50:01Z</time>
      </trkpt>
      <trkpt lat="45.91875" lon="6.49958">
        <ele>1846.8</ele>
        <time>2015-03-24T09:50:03Z</time>
      </trkpt>
      <trkpt lat="45.91873" lon="6.4996">
        <ele>1848.2</ele>
        <time>2015-03-24T09:50:07Z</time>
      </trkpt>
      <trkpt lat="45.9187" lon="6.4996">
        <ele>1849.3</ele>
        <time>2015-03-24T09:50:18Z</time>
      </trkpt>
      <trkpt lat="45.91867" lon="6.49959">
        <ele>1850</ele>
        <time>2015-03-24T09:50:27Z</time>
      </trkpt>
      <trkpt lat="45.91864" lon="6.49958">
        <ele>1850.9</ele>
        <time>2015-03-24T09:50:33Z</time>
      </trkpt>
      <trkpt lat="45.91861" lon="6.49957">
        <ele>1852</ele>
        <time>2015-03-24T09:50:41Z</time>
      </trkpt>
      <trkpt lat="45.91858" lon="6.4996">
        <ele>1853.9</ele>
        <time>2015-03-24T09:50:51Z</time>
      </trkpt>
      <trkpt lat="45.91857" lon="6.49965">
        <ele>1855.5</ele>
        <time>2015-03-24T09:51:01Z</time>
      </trkpt>
      <trkpt lat="45.91855" lon="6.49968">
        <ele>1856.9</ele>
        <time>2015-03-24T09:51:05Z</time>
      </trkpt>
      <trkpt lat="45.91852" lon="6.49969">
        <ele>1858.3</ele>
        <time>2015-03-24T09:51:09Z</time>
      </trkpt>
      <trkpt lat="45.91849" lon="6.49965">
        <ele>1858.6</ele>
        <time>2015-03-24T09:51:25Z</time>
      </trkpt>
      <trkpt lat="45.91847" lon="6.49961">
        <ele>1858.4</ele>
        <time>2015-03-24T09:51:28Z</time>
      </trkpt>
      <trkpt lat="45.91846" lon="6.49958">
        <ele>1858</ele>
        <time>2015-03-24T09:51:30Z</time>
      </trkpt>
      <trkpt lat="45.91846" lon="6.49953">
        <ele>1856.6</ele>
        <time>2015-03-24T09:51:54Z</time>
      </trkpt>
      <trkpt lat="45.91844" lon="6.49949">
        <ele>1855.7</ele>
        <time>2015-03-24T09:52:01Z</time>
      </trkpt>
      <trkpt lat="45.91842" lon="6.49946">
        <ele>1855.8</ele>
        <time>2015-03-24T09:52:05Z</time>
      </trkpt>
      <trkpt lat="45.91839" lon="6.49948">
        <ele>1857.3</ele>
        <time>2015-03-24T09:52:10Z</time>
      </trkpt>
      <trkpt lat="45.91836" lon="6.49951">
        <ele>1859.3</ele>
        <time>2015-03-24T09:52:13Z</time>
      </trkpt>
      <trkpt lat="45.91834" lon="6.49952">
        <ele>1860.8</ele>
        <time>2015-03-24T09:52:16Z</time>
      </trkpt>
      <trkpt lat="45.91832" lon="6.49954">
        <ele>1862.2</ele>
        <time>2015-03-24T09:52:22Z</time>
      </trkpt>
      <trkpt lat="45.91828" lon="6.49956">
        <ele>1864.2</ele>
        <time>2015-03-24T09:52:27Z</time>
      </trkpt>
      <trkpt lat="45.91826" lon="6.49959">
        <ele>1865.9</ele>
        <time>2015-03-24T09:52:30Z</time>
      </trkpt>
      <trkpt lat="45.91823" lon="6.4996">
        <ele>1867.4</ele>
        <time>2015-03-24T09:52:34Z</time>
      </trkpt>
      <trkpt lat="45.9182" lon="6.49962">
        <ele>1869</ele>
        <time>2015-03-24T09:52:37Z</time>
      </trkpt>
      <trkpt lat="45.91816" lon="6.49964">
        <ele>1870.8</ele>
        <time>2015-03-24T09:52:40Z</time>
      </trkpt>
      <trkpt lat="45.91814" lon="6.49965">
        <ele>1872.1</ele>
        <time>2015-03-24T09:52:43Z</time>
      </trkpt>
      <trkpt lat="45.9181" lon="6.49966">
        <ele>1873.9</ele>
        <time>2015-03-24T09:52:46Z</time>
      </trkpt>
      <trkpt lat="45.91807" lon="6.49968">
        <ele>1875.5</ele>
        <time>2015-03-24T09:52:48Z</time>
      </trkpt>
      <trkpt lat="45.91802" lon="6.49971">
        <ele>1878</ele>
        <time>2015-03-24T09:52:52Z</time>
      </trkpt>
      <trkpt lat="45.91798" lon="6.4997">
        <ele>1879.4</ele>
        <time>2015-03-24T09:52:56Z</time>
      </trkpt>
      <trkpt lat="45.91795" lon="6.4997">
        <ele>1880.7</ele>
        <time>2015-03-24T09:52:58Z</time>
      </trkpt>
      <trkpt lat="45.91792" lon="6.49971">
        <ele>1882</ele>
        <time>2015-03-24T09:53:02Z</time>
      </trkpt>
      <trkpt lat="45.91789" lon="6.49973">
        <ele>1883.4</ele>
        <time>2015-03-24T09:53:07Z</time>
      </trkpt>
      <trkpt lat="45.91786" lon="6.49975">
        <ele>1884.5</ele>
        <time>2015-03-24T09:53:10Z</time>
      </trkpt>
      <trkpt lat="45.91783" lon="6.49973">
        <ele>1884.9</ele>
        <time>2015-03-24T09:53:15Z</time>
      </trkpt>
      <trkpt lat="45.9178" lon="6.49972">
        <ele>1885.6</ele>
        <time>2015-03-24T09:53:18Z</time>
      </trkpt>
      <trkpt lat="45.91777" lon="6.49972">
        <ele>1886.4</ele>
        <time>2015-03-24T09:53:22Z</time>
      </trkpt>
      <trkpt lat="45.91774" lon="6.49973">
        <ele>1887.5</ele>
        <time>2015-03-24T09:53:29Z</time>
      </trkpt>
      <trkpt lat="45.9177" lon="6.49973">
        <ele>1888.3</ele>
        <time>2015-03-24T09:53:34Z</time>
      </trkpt>
      <trkpt lat="45.91767" lon="6.49974">
        <ele>1889.5</ele>
        <time>2015-03-24T09:53:41Z</time>
      </trkpt>
      <trkpt lat="45.9177" lon="6.49977">
        <ele>1889.2</ele>
        <time>2015-03-24T09:53:49Z</time>
      </trkpt>
      <trkpt lat="45.91767" lon="6.49977">
        <ele>1890.2</ele>
        <time>2015-03-24T09:53:57Z</time>
      </trkpt>
      <trkpt lat="45.91764" lon="6.49977">
        <ele>1890.9</ele>
        <time>2015-03-24T09:54:02Z</time>
      </trkpt>
      <trkpt lat="45.91761" lon="6.49978">
        <ele>1891.9</ele>
        <time>2015-03-24T09:54:05Z</time>
      </trkpt>
      <trkpt lat="45.91758" lon="6.49975">
        <ele>1892.1</ele>
        <time>2015-03-24T09:54:09Z</time>
      </trkpt>
      <trkpt lat="45.91755" lon="6.49975">
        <ele>1892.9</ele>
        <time>2015-03-24T09:54:12Z</time>
      </trkpt>
      <trkpt lat="45.91752" lon="6.49974">
        <ele>1893.5</ele>
        <time>2015-03-24T09:54:15Z</time>
      </trkpt>
      <trkpt lat="45.91748" lon="6.49973">
        <ele>1894.2</ele>
        <time>2015-03-24T09:54:20Z</time>
      </trkpt>
      <trkpt lat="45.91745" lon="6.49973">
        <ele>1895</ele>
        <time>2015-03-24T09:54:26Z</time>
      </trkpt>
      <trkpt lat="45.91743" lon="6.49972">
        <ele>1895.6</ele>
        <time>2015-03-24T09:54:30Z</time>
      </trkpt>
      <trkpt lat="45.9174" lon="6.49971">
        <ele>1896.3</ele>
        <time>2015-03-24T09:54:36Z</time>
      </trkpt>
      <trkpt lat="45.91737" lon="6.49969">
        <ele>1896.8</ele>
        <time>2015-03-24T09:54:41Z</time>
      </trkpt>
      <trkpt lat="45.91734" lon="6.49968">
        <ele>1897.2</ele>
        <time>2015-03-24T09:54:44Z</time>
      </trkpt>
      <trkpt lat="45.91731" lon="6.49968">
        <ele>1898.1</ele>
        <time>2015-03-24T09:54:47Z</time>
      </trkpt>
      <trkpt lat="45.91727" lon="6.49969">
        <ele>1899.2</ele>
        <time>2015-03-24T09:54:51Z</time>
      </trkpt>
      <trkpt lat="45.91725" lon="6.49967">
        <ele>1899.7</ele>
        <time>2015-03-24T09:54:57Z</time>
      </trkpt>
      <trkpt lat="45.91721" lon="6.49966">
        <ele>1900.4</ele>
        <time>2015-03-24T09:55:05Z</time>
      </trkpt>
      <trkpt lat="45.91718" lon="6.49966">
        <ele>1901.4</ele>
        <time>2015-03-24T09:55:16Z</time>
      </trkpt>
      <trkpt lat="45.91715" lon="6.49967">
        <ele>1902.4</ele>
        <time>2015-03-24T09:55:18Z</time>
      </trkpt>
      <trkpt lat="45.91712" lon="6.49966">
        <ele>1903</ele>
        <time>2015-03-24T09:55:23Z</time>
      </trkpt>
      <trkpt lat="45.91709" lon="6.49966">
        <ele>1903.7</ele>
        <time>2015-03-24T09:55:32Z</time>
      </trkpt>
      <trkpt lat="45.91706" lon="6.49964">
        <ele>1905.2</ele>
        <time>2015-03-24T09:55:37Z</time>
      </trkpt>
      <trkpt lat="45.91703" lon="6.49961">
        <ele>1907.1</ele>
        <time>2015-03-24T09:55:43Z</time>
      </trkpt>
      <trkpt lat="45.91701" lon="6.49958">
        <ele>1908.9</ele>
        <time>2015-03-24T09:55:48Z</time>
      </trkpt>
      <trkpt lat="45.91698" lon="6.49956">
        <ele>1910.7</ele>
        <time>2015-03-24T09:55:57Z</time>
      </trkpt>
      <trkpt lat="45.91695" lon="6.49954">
        <ele>1912.7</ele>
        <time>2015-03-24T09:56:02Z</time>
      </trkpt>
      <trkpt lat="45.91692" lon="6.49951">
        <ele>1914.5</ele>
        <time>2015-03-24T09:56:12Z</time>
      </trkpt>
      <trkpt lat="45.9169" lon="6.49948">
        <ele>1916</ele>
        <time>2015-03-24T09:56:17Z</time>
      </trkpt>
      <trkpt lat="45.91686" lon="6.49948">
        <ele>1918.7</ele>
        <time>2015-03-24T09:56:20Z</time>
      </trkpt>
      <trkpt lat="45.91683" lon="6.49951">
        <ele>1921.9</ele>
        <time>2015-03-24T09:56:28Z</time>
      </trkpt>
      <trkpt lat="45.9168" lon="6.49953">
        <ele>1924.5</ele>
        <time>2015-03-24T09:56:34Z</time>
      </trkpt>
      <trkpt lat="45.91678" lon="6.49956">
        <ele>1926.1</ele>
        <time>2015-03-24T09:56:39Z</time>
      </trkpt>
      <trkpt lat="45.91679" lon="6.4996">
        <ele>1926.2</ele>
        <time>2015-03-24T09:56:45Z</time>
      </trkpt>
      <trkpt lat="45.91677" lon="6.49964">
        <ele>1927.5</ele>
        <time>2015-03-24T09:56:47Z</time>
      </trkpt>
      <trkpt lat="45.91675" lon="6.49965">
        <ele>1929.6</ele>
        <time>2015-03-24T09:57:01Z</time>
      </trkpt>
      <trkpt lat="45.91673" lon="6.49968">
        <ele>1931.1</ele>
        <time>2015-03-24T09:57:06Z</time>
      </trkpt>
      <trkpt lat="45.91671" lon="6.4997">
        <ele>1933</ele>
        <time>2015-03-24T09:57:08Z</time>
      </trkpt>
      <trkpt lat="45.91669" lon="6.49973">
        <ele>1934.6</ele>
        <time>2015-03-24T09:57:09Z</time>
      </trkpt>
      <trkpt lat="45.91668" lon="6.4998">
        <ele>1935.3</ele>
        <time>2015-03-24T09:57:16Z</time>
      </trkpt>
      <trkpt lat="45.91669" lon="6.49982">
        <ele>1934.7</ele>
        <time>2015-03-24T09:57:26Z</time>
      </trkpt>
      <trkpt lat="45.9167" lon="6.49985">
        <ele>1934.3</ele>
        <time>2015-03-24T09:57:29Z</time>
      </trkpt>
      <trkpt lat="45.91671" lon="6.49987">
        <ele>1933.8</ele>
        <time>2015-03-24T09:57:33Z</time>
      </trkpt>
      <trkpt lat="45.91672" lon="6.4999">
        <ele>1933.3</ele>
        <time>2015-03-24T09:57:36Z</time>
      </trkpt>
      <trkpt lat="45.91672" lon="6.49993">
        <ele>1932.9</ele>
        <time>2015-03-24T09:57:39Z</time>
      </trkpt>
      <trkpt lat="45.91673" lon="6.49995">
        <ele>1932.5</ele>
        <time>2015-03-24T09:57:43Z</time>
      </trkpt>
      <trkpt lat="45.91674" lon="6.49998">
        <ele>1932</ele>
        <time>2015-03-24T09:57:49Z</time>
      </trkpt>
      <trkpt lat="45.91675" lon="6.5">
        <ele>1931.6</ele>
        <time>2015-03-24T09:57:50Z</time>
      </trkpt>
      <trkpt lat="45.91673" lon="6.50003">
        <ele>1933.4</ele>
        <time>2015-03-24T09:57:55Z</time>
      </trkpt>
      <trkpt lat="45.91669" lon="6.50003">
        <ele>1935.7</ele>
        <time>2015-03-24T09:58:03Z</time>
      </trkpt>
      <trkpt lat="45.91665" lon="6.50003">
        <ele>1938.4</ele>
        <time>2015-03-24T09:58:12Z</time>
      </trkpt>
      <trkpt lat="45.91663" lon="6.50001">
        <ele>1939.8</ele>
        <time>2015-03-24T09:58:27Z</time>
      </trkpt>
      <trkpt lat="45.9166" lon="6.50002">
        <ele>1942.1</ele>
        <time>2015-03-24T09:58:36Z</time>
      </trkpt>
      <trkpt lat="45.91657" lon="6.50002">
        <ele>1944</ele>
        <time>2015-03-24T09:58:40Z</time>
      </trkpt>
      <trkpt lat="45.91655" lon="6.50005">
        <ele>1945.7</ele>
        <time>2015-03-24T09:58:44Z</time>
      </trkpt>
      <trkpt lat="45.91651" lon="6.50005">
        <ele>1947.9</ele>
        <time>2015-03-24T09:59:01Z</time>
      </trkpt>
      <trkpt lat="45.91648" lon="6.50005">
        <ele>1950.1</ele>
        <time>2015-03-24T09:59:04Z</time>
      </trkpt>
      <trkpt lat="45.91645" lon="6.50004">
        <ele>1952</ele>
        <time>2015-03-24T09:59:09Z</time>
      </trkpt>
      <trkpt lat="45.91642" lon="6.50003">
        <ele>1954</ele>
        <time>2015-03-24T09:59:15Z</time>
      </trkpt>
      <trkpt lat="45.91639" lon="6.50002">
        <ele>1956.2</ele>
        <time>2015-03-24T09:59:21Z</time>
      </trkpt>
      <trkpt lat="45.91636" lon="6.50004">
        <ele>1958.2</ele>
        <time>2015-03-24T09:59:28Z</time>
      </trkpt>
      <trkpt lat="45.91633" lon="6.50003">
        <ele>1960.4</ele>
        <time>2015-03-24T09:59:45Z</time>
      </trkpt>
      <trkpt lat="45.9163" lon="6.50003">
        <ele>1962.7</ele>
        <time>2015-03-24T09:59:58Z</time>
      </trkpt>
      <trkpt lat="45.91629" lon="6.50007">
        <ele>1963</ele>
        <time>2015-03-24T10:00:08Z</time>
      </trkpt>
      <trkpt lat="45.91626" lon="6.50009">
        <ele>1964.6</ele>
        <time>2015-03-24T10:00:18Z</time>
      </trkpt>
      <trkpt lat="45.91624" lon="6.50011">
        <ele>1965.9</ele>
        <time>2015-03-24T10:00:20Z</time>
      </trkpt>
      <trkpt lat="45.91621" lon="6.50011">
        <ele>1967.3</ele>
        <time>2015-03-24T10:00:28Z</time>
      </trkpt>
      <trkpt lat="45.91619" lon="6.50009">
        <ele>1968.6</ele>
        <time>2015-03-24T10:00:32Z</time>
      </trkpt>
      <trkpt lat="45.91616" lon="6.50006">
        <ele>1970.1</ele>
        <time>2015-03-24T10:00:37Z</time>
      </trkpt>
      <trkpt lat="45.91614" lon="6.50003">
        <ele>1971.1</ele>
        <time>2015-03-24T10:00:49Z</time>
      </trkpt>
      <trkpt lat="45.91614" lon="6.49999">
        <ele>1971.7</ele>
        <time>2015-03-24T10:00:56Z</time>
      </trkpt>
      <trkpt lat="45.9161" lon="6.50002">
        <ele>1973.3</ele>
        <time>2015-03-24T10:01:01Z</time>
      </trkpt>
      <trkpt lat="45.91608" lon="6.50002">
        <ele>1974.6</ele>
        <time>2015-03-24T10:01:07Z</time>
      </trkpt>
      <trkpt lat="45.91605" lon="6.50005">
        <ele>1975.6</ele>
        <time>2015-03-24T10:01:11Z</time>
      </trkpt>
      <trkpt lat="45.91608" lon="6.50007">
        <ele>1974.3</ele>
        <time>2015-03-24T10:01:20Z</time>
      </trkpt>
      <trkpt lat="45.91609" lon="6.50011">
        <ele>1973.2</ele>
        <time>2015-03-24T10:01:26Z</time>
      </trkpt>
      <trkpt lat="45.91607" lon="6.50008">
        <ele>1974.4</ele>
        <time>2015-03-24T10:01:38Z</time>
      </trkpt>
      <trkpt lat="45.91604" lon="6.50007">
        <ele>1975.8</ele>
        <time>2015-03-24T10:01:41Z</time>
      </trkpt>
      <trkpt lat="45.91604" lon="6.50003">
        <ele>1976.2</ele>
        <time>2015-03-24T10:01:52Z</time>
      </trkpt>
      <trkpt lat="45.91604" lon="6.49999">
        <ele>1976.8</ele>
        <time>2015-03-24T10:01:57Z</time>
      </trkpt>
      <trkpt lat="45.91606" lon="6.49997">
        <ele>1975.6</ele>
        <time>2015-03-24T10:02:05Z</time>
      </trkpt>
      <trkpt lat="45.91606" lon="6.49993">
        <ele>1976.1</ele>
        <time>2015-03-24T10:02:10Z</time>
      </trkpt>
      <trkpt lat="45.91602" lon="6.4999">
        <ele>1978.2</ele>
        <time>2015-03-24T10:02:19Z</time>
      </trkpt>
      <trkpt lat="45.91599" lon="6.49989">
        <ele>1979.8</ele>
        <time>2015-03-24T10:02:25Z</time>
      </trkpt>
      <trkpt lat="45.91594" lon="6.49989">
        <ele>1982.6</ele>
        <time>2015-03-24T10:02:28Z</time>
      </trkpt>
      <trkpt lat="45.91591" lon="6.49991">
        <ele>1983.9</ele>
        <time>2015-03-24T10:02:32Z</time>
      </trkpt>
      <trkpt lat="45.91589" lon="6.49992">
        <ele>1985.1</ele>
        <time>2015-03-24T10:02:37Z</time>
      </trkpt>
      <trkpt lat="45.91586" lon="6.49993">
        <ele>1986.4</ele>
        <time>2015-03-24T10:02:43Z</time>
      </trkpt>
      <trkpt lat="45.91583" lon="6.49994">
        <ele>1987.6</ele>
        <time>2015-03-24T10:02:48Z</time>
      </trkpt>
      <trkpt lat="45.91581" lon="6.49995">
        <ele>1988.9</ele>
        <time>2015-03-24T10:02:54Z</time>
      </trkpt>
      <trkpt lat="45.91578" lon="6.49997">
        <ele>1990.1</ele>
        <time>2015-03-24T10:03:02Z</time>
      </trkpt>
      <trkpt lat="45.91575" lon="6.49998">
        <ele>1991.3</ele>
        <time>2015-03-24T10:03:05Z</time>
      </trkpt>
      <trkpt lat="45.91573" lon="6.49999">
        <ele>1992.5</ele>
        <time>2015-03-24T10:03:07Z</time>
      </trkpt>
      <trkpt lat="45.9157" lon="6.5">
        <ele>1993.7</ele>
        <time>2015-03-24T10:03:10Z</time>
      </trkpt>
      <trkpt lat="45.91567" lon="6.50002">
        <ele>1994.9</ele>
        <time>2015-03-24T10:03:20Z</time>
      </trkpt>
      <trkpt lat="45.91565" lon="6.50003">
        <ele>1996.1</ele>
        <time>2015-03-24T10:03:33Z</time>
      </trkpt>
      <trkpt lat="45.91562" lon="6.50004">
        <ele>1997.3</ele>
        <time>2015-03-24T10:03:34Z</time>
      </trkpt>
      <trkpt lat="45.9156" lon="6.50008">
        <ele>1997.8</ele>
        <time>2015-03-24T10:03:35Z</time>
      </trkpt>
      <trkpt lat="45.91559" lon="6.50012">
        <ele>1997.8</ele>
        <time>2015-03-24T10:03:38Z</time>
      </trkpt>
      <trkpt lat="45.91556" lon="6.50014">
        <ele>1998.8</ele>
        <time>2015-03-24T10:03:41Z</time>
      </trkpt>
      <trkpt lat="45.91553" lon="6.50016">
        <ele>2000.1</ele>
        <time>2015-03-24T10:03:42Z</time>
      </trkpt>
      <trkpt lat="45.91549" lon="6.50016">
        <ele>2001.7</ele>
        <time>2015-03-24T10:03:44Z</time>
      </trkpt>
      <trkpt lat="45.91548" lon="6.50021">
        <ele>2001.6</ele>
        <time>2015-03-24T10:03:49Z</time>
      </trkpt>
      <trkpt lat="45.91547" lon="6.50025">
        <ele>2001.5</ele>
        <time>2015-03-24T10:04:00Z</time>
      </trkpt>
      <trkpt lat="45.91544" lon="6.50028">
        <ele>2002.1</ele>
        <time>2015-03-24T10:04:03Z</time>
      </trkpt>
      <trkpt lat="45.91543" lon="6.50024">
        <ele>2003.4</ele>
        <time>2015-03-24T10:04:12Z</time>
      </trkpt>
      <trkpt lat="45.91541" lon="6.50027">
        <ele>2003.9</ele>
        <time>2015-03-24T10:04:17Z</time>
      </trkpt>
      <trkpt lat="45.91538" lon="6.5003">
        <ele>2005.5</ele>
        <time>2015-03-24T10:04:19Z</time>
      </trkpt>
      <trkpt lat="45.91535" lon="6.50033">
        <ele>2007.2</ele>
        <time>2015-03-24T10:04:25Z</time>
      </trkpt>
      <trkpt lat="45.91533" lon="6.50037">
        <ele>2007.2</ele>
        <time>2015-03-24T10:04:32Z</time>
      </trkpt>
      <trkpt lat="45.91531" lon="6.50043">
        <ele>2007.5</ele>
        <time>2015-03-24T10:04:36Z</time>
      </trkpt>
      <trkpt lat="45.91529" lon="6.50049">
        <ele>2009.4</ele>
        <time>2015-03-24T10:04:40Z</time>
      </trkpt>
      <trkpt lat="45.91527" lon="6.50052">
        <ele>2011.4</ele>
        <time>2015-03-24T10:04:44Z</time>
      </trkpt>
      <trkpt lat="45.91525" lon="6.50056">
        <ele>2012.9</ele>
        <time>2015-03-24T10:04:47Z</time>
      </trkpt>
      <trkpt lat="45.91522" lon="6.50057">
        <ele>2014.6</ele>
        <time>2015-03-24T10:04:52Z</time>
      </trkpt>
      <trkpt lat="45.91518" lon="6.50058">
        <ele>2016.8</ele>
        <time>2015-03-24T10:04:57Z</time>
      </trkpt>
      <trkpt lat="45.91514" lon="6.50059">
        <ele>2019.1</ele>
        <time>2015-03-24T10:05:00Z</time>
      </trkpt>
      <trkpt lat="45.91511" lon="6.5006">
        <ele>2021</ele>
        <time>2015-03-24T10:05:09Z</time>
      </trkpt>
      <trkpt lat="45.91507" lon="6.5006">
        <ele>2023.2</ele>
        <time>2015-03-24T10:05:12Z</time>
      </trkpt>
      <trkpt lat="45.91506" lon="6.50065">
        <ele>2024.1</ele>
        <time>2015-03-24T10:05:15Z</time>
      </trkpt>
      <trkpt lat="45.91509" lon="6.50063">
        <ele>2022.4</ele>
        <time>2015-03-24T10:05:22Z</time>
      </trkpt>
      <trkpt lat="45.91508" lon="6.50067">
        <ele>2023.4</ele>
        <time>2015-03-24T10:05:24Z</time>
      </trkpt>
      <trkpt lat="45.91506" lon="6.5007">
        <ele>2024.5</ele>
        <time>2015-03-24T10:05:28Z</time>
      </trkpt>
      <trkpt lat="45.91505" lon="6.50074">
        <ele>2025.5</ele>
        <time>2015-03-24T10:05:31Z</time>
      </trkpt>
      <trkpt lat="45.91506" lon="6.5008">
        <ele>2025.4</ele>
        <time>2015-03-24T10:05:33Z</time>
      </trkpt>
      <trkpt lat="45.91504" lon="6.50083">
        <ele>2026.9</ele>
        <time>2015-03-24T10:05:35Z</time>
      </trkpt>
      <trkpt lat="45.91503" lon="6.50088">
        <ele>2027.6</ele>
        <time>2015-03-24T10:05:38Z</time>
      </trkpt>
      <trkpt lat="45.91506" lon="6.50089">
        <ele>2026.2</ele>
        <time>2015-03-24T10:05:43Z</time>
      </trkpt>
      <trkpt lat="45.91505" lon="6.50094">
        <ele>2027</ele>
        <time>2015-03-24T10:05:46Z</time>
      </trkpt>
      <trkpt lat="45.91508" lon="6.50094">
        <ele>2025.4</ele>
        <time>2015-03-24T10:05:48Z</time>
      </trkpt>
      <trkpt lat="45.9151" lon="6.50097">
        <ele>2024.7</ele>
        <time>2015-03-24T10:05:52Z</time>
      </trkpt>
      <trkpt lat="45.9151" lon="6.50101">
        <ele>2025</ele>
        <time>2015-03-24T10:05:56Z</time>
      </trkpt>
      <trkpt lat="45.91511" lon="6.50107">
        <ele>2025.1</ele>
        <time>2015-03-24T10:06:01Z</time>
      </trkpt>
      <trkpt lat="45.91513" lon="6.50112">
        <ele>2025</ele>
        <time>2015-03-24T10:06:05Z</time>
      </trkpt>
      <trkpt lat="45.91513" lon="6.50117">
        <ele>2025.4</ele>
        <time>2015-03-24T10:06:11Z</time>
      </trkpt>
      <trkpt lat="45.91513" lon="6.50121">
        <ele>2025.8</ele>
        <time>2015-03-24T10:06:14Z</time>
      </trkpt>
      <trkpt lat="45.91511" lon="6.50125">
        <ele>2026.8</ele>
        <time>2015-03-24T10:06:15Z</time>
      </trkpt>
      <trkpt lat="45.91513" lon="6.50129">
        <ele>2026.5</ele>
        <time>2015-03-24T10:06:21Z</time>
      </trkpt>
      <trkpt lat="45.91515" lon="6.50132">
        <ele>2026.3</ele>
        <time>2015-03-24T10:06:25Z</time>
      </trkpt>
      <trkpt lat="45.91518" lon="6.50135">
        <ele>2025.3</ele>
        <time>2015-03-24T10:06:35Z</time>
      </trkpt>
      <trkpt lat="45.91519" lon="6.50139">
        <ele>2025.3</ele>
        <time>2015-03-24T10:06:41Z</time>
      </trkpt>
      <trkpt lat="45.91517" lon="6.5014">
        <ele>2026.7</ele>
        <time>2015-03-24T10:06:48Z</time>
      </trkpt>
      <trkpt lat="45.91514" lon="6.50144">
        <ele>2028.3</ele>
        <time>2015-03-24T10:06:52Z</time>
      </trkpt>
      <trkpt lat="45.91512" lon="6.50148">
        <ele>2029.9</ele>
        <time>2015-03-24T10:06:54Z</time>
      </trkpt>
      <trkpt lat="45.9151" lon="6.50151">
        <ele>2031.3</ele>
        <time>2015-03-24T10:07:00Z</time>
      </trkpt>
      <trkpt lat="45.91508" lon="6.50155">
        <ele>2032.5</ele>
        <time>2015-03-24T10:07:04Z</time>
      </trkpt>
      <trkpt lat="45.91507" lon="6.50158">
        <ele>2033.6</ele>
        <time>2015-03-24T10:07:08Z</time>
      </trkpt>
      <trkpt lat="45.91509" lon="6.50156">
        <ele>2032.1</ele>
        <time>2015-03-24T10:07:10Z</time>
      </trkpt>
      <trkpt lat="45.9151" lon="6.50161">
        <ele>2032.5</ele>
        <time>2015-03-24T10:07:15Z</time>
      </trkpt>
      <trkpt lat="45.9151" lon="6.50167">
        <ele>2033.4</ele>
        <time>2015-03-24T10:07:19Z</time>
      </trkpt>
      <trkpt lat="45.91512" lon="6.5017">
        <ele>2032.8</ele>
        <time>2015-03-24T10:07:22Z</time>
      </trkpt>
      <trkpt lat="45.91513" lon="6.50175">
        <ele>2033.1</ele>
        <time>2015-03-24T10:07:33Z</time>
      </trkpt>
      <trkpt lat="45.9151" lon="6.50177">
        <ele>2034.7</ele>
        <time>2015-03-24T10:07:40Z</time>
      </trkpt>
      <trkpt lat="45.9151" lon="6.50181">
        <ele>2035.5</ele>
        <time>2015-03-24T10:07:47Z</time>
      </trkpt>
      <trkpt lat="45.91507" lon="6.50185">
        <ele>2037.2</ele>
        <time>2015-03-24T10:07:50Z</time>
      </trkpt>
      <trkpt lat="45.91506" lon="6.50188">
        <ele>2038.4</ele>
        <time>2015-03-24T10:07:56Z</time>
      </trkpt>
      <trkpt lat="45.91508" lon="6.50191">
        <ele>2038</ele>
        <time>2015-03-24T10:08:01Z</time>
      </trkpt>
      <trkpt lat="45.91514" lon="6.50193">
        <ele>2035.4</ele>
        <time>2015-03-24T10:08:05Z</time>
      </trkpt>
      <trkpt lat="45.91515" lon="6.50197">
        <ele>2035.8</ele>
        <time>2015-03-24T10:08:11Z</time>
      </trkpt>
      <trkpt lat="45.91514" lon="6.50201">
        <ele>2036.6</ele>
        <time>2015-03-24T10:08:14Z</time>
      </trkpt>
      <trkpt lat="45.91512" lon="6.50206">
        <ele>2037.9</ele>
        <time>2015-03-24T10:08:19Z</time>
      </trkpt>
      <trkpt lat="45.91512" lon="6.5021">
        <ele>2039.1</ele>
        <time>2015-03-24T10:08:23Z</time>
      </trkpt>
      <trkpt lat="45.91511" lon="6.50214">
        <ele>2040.5</ele>
        <time>2015-03-24T10:08:28Z</time>
      </trkpt>
      <trkpt lat="45.9151" lon="6.50219">
        <ele>2042.5</ele>
        <time>2015-03-24T10:08:32Z</time>
      </trkpt>
      <trkpt lat="45.91513" lon="6.5022">
        <ele>2041.3</ele>
        <time>2015-03-24T10:08:35Z</time>
      </trkpt>
      <trkpt lat="45.91511" lon="6.50223">
        <ele>2043.1</ele>
        <time>2015-03-24T10:08:38Z</time>
      </trkpt>
      <trkpt lat="45.91509" lon="6.5023">
        <ele>2046</ele>
        <time>2015-03-24T10:08:41Z</time>
      </trkpt>
      <trkpt lat="45.91509" lon="6.50234">
        <ele>2047.1</ele>
        <time>2015-03-24T10:08:49Z</time>
      </trkpt>
      <trkpt lat="45.91512" lon="6.50236">
        <ele>2046.5</ele>
        <time>2015-03-24T10:08:55Z</time>
      </trkpt>
      <trkpt lat="45.91509" lon="6.50239">
        <ele>2048.3</ele>
        <time>2015-03-24T10:08:59Z</time>
      </trkpt>
      <trkpt lat="45.91512" lon="6.50241">
        <ele>2047.7</ele>
        <time>2015-03-24T10:09:03Z</time>
      </trkpt>
      <trkpt lat="45.9151" lon="6.50245">
        <ele>2049.6</ele>
        <time>2015-03-24T10:09:10Z</time>
      </trkpt>
      <trkpt lat="45.9151" lon="6.50249">
        <ele>2050.8</ele>
        <time>2015-03-24T10:09:19Z</time>
      </trkpt>
      <trkpt lat="45.91505" lon="6.50251">
        <ele>2053.5</ele>
        <time>2015-03-24T10:09:25Z</time>
      </trkpt>
      <trkpt lat="45.91506" lon="6.50255">
        <ele>2054.2</ele>
        <time>2015-03-24T10:09:30Z</time>
      </trkpt>
      <trkpt lat="45.91504" lon="6.50259">
        <ele>2056.1</ele>
        <time>2015-03-24T10:09:46Z</time>
      </trkpt>
      <trkpt lat="45.91505" lon="6.50263">
        <ele>2056.5</ele>
        <time>2015-03-24T10:09:56Z</time>
      </trkpt>
      <trkpt lat="45.91504" lon="6.50266">
        <ele>2058.4</ele>
        <time>2015-03-24T10:09:58Z</time>
      </trkpt>
      <trkpt lat="45.91506" lon="6.50269">
        <ele>2058.1</ele>
        <time>2015-03-24T10:10:01Z</time>
      </trkpt>
      <trkpt lat="45.91507" lon="6.50273">
        <ele>2058.3</ele>
        <time>2015-03-24T10:10:08Z</time>
      </trkpt>
      <trkpt lat="45.91506" lon="6.50277">
        <ele>2060.3</ele>
        <time>2015-03-24T10:10:15Z</time>
      </trkpt>
      <trkpt lat="45.91503" lon="6.50278">
        <ele>2061.7</ele>
        <time>2015-03-24T10:10:18Z</time>
      </trkpt>
      <trkpt lat="45.915" lon="6.50281">
        <ele>2063.8</ele>
        <time>2015-03-24T10:10:24Z</time>
      </trkpt>
      <trkpt lat="45.91498" lon="6.50284">
        <ele>2065.9</ele>
        <time>2015-03-24T10:10:28Z</time>
      </trkpt>
      <trkpt lat="45.91495" lon="6.50287">
        <ele>2068.2</ele>
        <time>2015-03-24T10:10:40Z</time>
      </trkpt>
      <trkpt lat="45.91492" lon="6.5029">
        <ele>2070</ele>
        <time>2015-03-24T10:10:45Z</time>
      </trkpt>
      <trkpt lat="45.9149" lon="6.50294">
        <ele>2072.1</ele>
        <time>2015-03-24T10:10:48Z</time>
      </trkpt>
      <trkpt lat="45.91488" lon="6.50298">
        <ele>2073.2</ele>
        <time>2015-03-24T10:10:54Z</time>
      </trkpt>
      <trkpt lat="45.91486" lon="6.50303">
        <ele>2075</ele>
        <time>2015-03-24T10:11:03Z</time>
      </trkpt>
      <trkpt lat="45.91483" lon="6.50305">
        <ele>2076.5</ele>
        <time>2015-03-24T10:11:07Z</time>
      </trkpt>
      <trkpt lat="45.91481" lon="6.50308">
        <ele>2078.1</ele>
        <time>2015-03-24T10:11:11Z</time>
      </trkpt>
      <trkpt lat="45.91478" lon="6.5031">
        <ele>2079.5</ele>
        <time>2015-03-24T10:11:15Z</time>
      </trkpt>
      <trkpt lat="45.91474" lon="6.50312">
        <ele>2081.7</ele>
        <time>2015-03-24T10:11:19Z</time>
      </trkpt>
      <trkpt lat="45.91471" lon="6.50313">
        <ele>2083.2</ele>
        <time>2015-03-24T10:11:22Z</time>
      </trkpt>
      <trkpt lat="45.91468" lon="6.50316">
        <ele>2084.5</ele>
        <time>2015-03-24T10:11:28Z</time>
      </trkpt>
      <trkpt lat="45.91467" lon="6.50319">
        <ele>2085.6</ele>
        <time>2015-03-24T10:11:35Z</time>
      </trkpt>
      <trkpt lat="45.91464" lon="6.50322">
        <ele>2087.1</ele>
        <time>2015-03-24T10:11:38Z</time>
      </trkpt>
      <trkpt lat="45.91462" lon="6.50326">
        <ele>2088.6</ele>
        <time>2015-03-24T10:11:41Z</time>
      </trkpt>
      <trkpt lat="45.9146" lon="6.5033">
        <ele>2089.7</ele>
        <time>2015-03-24T10:11:44Z</time>
      </trkpt>
      <trkpt lat="45.9146" lon="6.50334">
        <ele>2090.2</ele>
        <time>2015-03-24T10:11:52Z</time>
      </trkpt>
      <trkpt lat="45.91458" lon="6.50338">
        <ele>2091.6</ele>
        <time>2015-03-24T10:11:55Z</time>
      </trkpt>
      <trkpt lat="45.91456" lon="6.50341">
        <ele>2092.8</ele>
        <time>2015-03-24T10:11:58Z</time>
      </trkpt>
      <trkpt lat="45.91456" lon="6.50345">
        <ele>2093.5</ele>
        <time>2015-03-24T10:12:03Z</time>
      </trkpt>
      <trkpt lat="45.91454" lon="6.50348">
        <ele>2095</ele>
        <time>2015-03-24T10:12:07Z</time>
      </trkpt>
      <trkpt lat="45.91455" lon="6.50352">
        <ele>2094.7</ele>
        <time>2015-03-24T10:12:15Z</time>
      </trkpt>
      <trkpt lat="45.91454" lon="6.50349">
        <ele>2095.1</ele>
        <time>2015-03-24T10:12:36Z</time>
      </trkpt>
      <trkpt lat="45.91451" lon="6.50347">
        <ele>2096.1</ele>
        <time>2015-03-24T10:12:39Z</time>
      </trkpt>
      <trkpt lat="45.9145" lon="6.50343">
        <ele>2096.3</ele>
        <time>2015-03-24T10:12:45Z</time>
      </trkpt>
      <trkpt lat="45.91447" lon="6.50339">
        <ele>2097</ele>
        <time>2015-03-24T10:12:56Z</time>
      </trkpt>
      <trkpt lat="45.91444" lon="6.50341">
        <ele>2098.6</ele>
        <time>2015-03-24T10:13:14Z</time>
      </trkpt>
      <trkpt lat="45.91448" lon="6.50346">
        <ele>2097.4</ele>
        <time>2015-03-24T10:13:21Z</time>
      </trkpt>
      <trkpt lat="45.91446" lon="6.50349">
        <ele>2098.7</ele>
        <time>2015-03-24T10:13:25Z</time>
      </trkpt>
      <trkpt lat="45.91446" lon="6.50354">
        <ele>2099.2</ele>
        <time>2015-03-24T10:13:32Z</time>
      </trkpt>
      <trkpt lat="45.91445" lon="6.5036">
        <ele>2100.5</ele>
        <time>2015-03-24T10:13:36Z</time>
      </trkpt>
      <trkpt lat="45.91444" lon="6.50364">
        <ele>2101.6</ele>
        <time>2015-03-24T10:13:43Z</time>
      </trkpt>
      <trkpt lat="45.91447" lon="6.50362">
        <ele>2099.9</ele>
        <time>2015-03-24T10:13:46Z</time>
      </trkpt>
      <trkpt lat="45.91444" lon="6.50363">
        <ele>2101.4</ele>
        <time>2015-03-24T10:13:49Z</time>
      </trkpt>
      <trkpt lat="45.91441" lon="6.50365">
        <ele>2102.8</ele>
        <time>2015-03-24T10:14:05Z</time>
      </trkpt>
      <trkpt lat="45.91439" lon="6.50363">
        <ele>2103.8</ele>
        <time>2015-03-24T10:14:09Z</time>
      </trkpt>
      <trkpt lat="45.91437" lon="6.5036">
        <ele>2104.3</ele>
        <time>2015-03-24T10:14:12Z</time>
      </trkpt>
      <trkpt lat="45.91434" lon="6.50358">
        <ele>2105.3</ele>
        <time>2015-03-24T10:14:17Z</time>
      </trkpt>
      <trkpt lat="45.91433" lon="6.50355">
        <ele>2105.5</ele>
        <time>2015-03-24T10:14:19Z</time>
      </trkpt>
      <trkpt lat="45.91431" lon="6.50351">
        <ele>2106</ele>
        <time>2015-03-24T10:14:23Z</time>
      </trkpt>
      <trkpt lat="45.91428" lon="6.5035">
        <ele>2107.2</ele>
        <time>2015-03-24T10:14:36Z</time>
      </trkpt>
      <trkpt lat="45.91426" lon="6.50353">
        <ele>2108.7</ele>
        <time>2015-03-24T10:14:40Z</time>
      </trkpt>
      <trkpt lat="45.91422" lon="6.50354">
        <ele>2110.5</ele>
        <time>2015-03-24T10:14:47Z</time>
      </trkpt>
      <trkpt lat="45.91419" lon="6.50353">
        <ele>2112</ele>
        <time>2015-03-24T10:14:59Z</time>
      </trkpt>
      <trkpt lat="45.91417" lon="6.5035">
        <ele>2112.7</ele>
        <time>2015-03-24T10:15:04Z</time>
      </trkpt>
      <trkpt lat="45.91415" lon="6.50346">
        <ele>2112.8</ele>
        <time>2015-03-24T10:15:07Z</time>
      </trkpt>
      <trkpt lat="45.91414" lon="6.50342">
        <ele>2112.9</ele>
        <time>2015-03-24T10:15:10Z</time>
      </trkpt>
      <trkpt lat="45.91412" lon="6.50339">
        <ele>2113.5</ele>
        <time>2015-03-24T10:15:14Z</time>
      </trkpt>
      <trkpt lat="45.91412" lon="6.50334">
        <ele>2113.2</ele>
        <time>2015-03-24T10:15:25Z</time>
      </trkpt>
      <trkpt lat="45.91408" lon="6.50333">
        <ele>2114.6</ele>
        <time>2015-03-24T10:15:37Z</time>
      </trkpt>
      <trkpt lat="45.91406" lon="6.50334">
        <ele>2116.1</ele>
        <time>2015-03-24T10:15:41Z</time>
      </trkpt>
      <trkpt lat="45.91404" lon="6.50331">
        <ele>2116.7</ele>
        <time>2015-03-24T10:15:47Z</time>
      </trkpt>
      <trkpt lat="45.91402" lon="6.50327">
        <ele>2117</ele>
        <time>2015-03-24T10:15:52Z</time>
      </trkpt>
      <trkpt lat="45.914" lon="6.50323">
        <ele>2117.5</ele>
        <time>2015-03-24T10:15:56Z</time>
      </trkpt>
      <trkpt lat="45.91397" lon="6.50321">
        <ele>2118.7</ele>
        <time>2015-03-24T10:16:03Z</time>
      </trkpt>
      <trkpt lat="45.91393" lon="6.5032">
        <ele>2120.4</ele>
        <time>2015-03-24T10:16:10Z</time>
      </trkpt>
      <trkpt lat="45.91391" lon="6.50318">
        <ele>2121.5</ele>
        <time>2015-03-24T10:16:17Z</time>
      </trkpt>
      <trkpt lat="45.91388" lon="6.50317">
        <ele>2122.5</ele>
        <time>2015-03-24T10:16:20Z</time>
      </trkpt>
      <trkpt lat="45.91385" lon="6.50315">
        <ele>2124</ele>
        <time>2015-03-24T10:16:26Z</time>
      </trkpt>
      <trkpt lat="45.91381" lon="6.50318">
        <ele>2125.8</ele>
        <time>2015-03-24T10:16:36Z</time>
      </trkpt>
      <trkpt lat="45.91378" lon="6.50318">
        <ele>2127.6</ele>
        <time>2015-03-24T10:16:46Z</time>
      </trkpt>
      <trkpt lat="45.91375" lon="6.50317">
        <ele>2128.9</ele>
        <time>2015-03-24T10:16:55Z</time>
      </trkpt>
      <trkpt lat="45.91372" lon="6.50316">
        <ele>2130.3</ele>
        <time>2015-03-24T10:16:59Z</time>
      </trkpt>
      <trkpt lat="45.91369" lon="6.50317">
        <ele>2131.5</ele>
        <time>2015-03-24T10:17:02Z</time>
      </trkpt>
      <trkpt lat="45.91367" lon="6.5032">
        <ele>2132.9</ele>
        <time>2015-03-24T10:17:17Z</time>
      </trkpt>
      <trkpt lat="45.91364" lon="6.50319">
        <ele>2134.1</ele>
        <time>2015-03-24T10:17:24Z</time>
      </trkpt>
      <trkpt lat="45.91361" lon="6.50319">
        <ele>2135.5</ele>
        <time>2015-03-24T10:17:26Z</time>
      </trkpt>
      <trkpt lat="45.91358" lon="6.50319">
        <ele>2136.7</ele>
        <time>2015-03-24T10:17:33Z</time>
      </trkpt>
      <trkpt lat="45.91355" lon="6.50321">
        <ele>2138.1</ele>
        <time>2015-03-24T10:17:39Z</time>
      </trkpt>
      <trkpt lat="45.91354" lon="6.50324">
        <ele>2139.3</ele>
        <time>2015-03-24T10:17:44Z</time>
      </trkpt>
      <trkpt lat="45.91352" lon="6.50327">
        <ele>2140.5</ele>
        <time>2015-03-24T10:17:46Z</time>
      </trkpt>
      <trkpt lat="45.91348" lon="6.50329">
        <ele>2142.4</ele>
        <time>2015-03-24T10:17:55Z</time>
      </trkpt>
      <trkpt lat="45.91345" lon="6.50329">
        <ele>2143.7</ele>
        <time>2015-03-24T10:18:00Z</time>
      </trkpt>
      <trkpt lat="45.91343" lon="6.50331">
        <ele>2145.1</ele>
        <time>2015-03-24T10:18:05Z</time>
      </trkpt>
      <trkpt lat="45.9134" lon="6.50332">
        <ele>2146.6</ele>
        <time>2015-03-24T10:18:11Z</time>
      </trkpt>
      <trkpt lat="45.91337" lon="6.50333">
        <ele>2148</ele>
        <time>2015-03-24T10:18:17Z</time>
      </trkpt>
      <trkpt lat="45.91333" lon="6.50333">
        <ele>2149.8</ele>
        <time>2015-03-24T10:18:21Z</time>
      </trkpt>
      <trkpt lat="45.91331" lon="6.50334">
        <ele>2151.1</ele>
        <time>2015-03-24T10:18:23Z</time>
      </trkpt>
      <trkpt lat="45.91328" lon="6.50333">
        <ele>2152.3</ele>
        <time>2015-03-24T10:18:25Z</time>
      </trkpt>
      <trkpt lat="45.91324" lon="6.50333">
        <ele>2154</ele>
        <time>2015-03-24T10:18:32Z</time>
      </trkpt>
      <trkpt lat="45.91321" lon="6.50335">
        <ele>2155.6</ele>
        <time>2015-03-24T10:18:37Z</time>
      </trkpt>
      <trkpt lat="45.91318" lon="6.50336">
        <ele>2157</ele>
        <time>2015-03-24T10:18:47Z</time>
      </trkpt>
      <trkpt lat="45.91317" lon="6.5034">
        <ele>2158.3</ele>
        <time>2015-03-24T10:18:51Z</time>
      </trkpt>
      <trkpt lat="45.91315" lon="6.50345">
        <ele>2159.6</ele>
        <time>2015-03-24T10:18:56Z</time>
      </trkpt>
      <trkpt lat="45.91314" lon="6.50351">
        <ele>2161.3</ele>
        <time>2015-03-24T10:18:59Z</time>
      </trkpt>
      <trkpt lat="45.91312" lon="6.50355">
        <ele>2162.7</ele>
        <time>2015-03-24T10:19:02Z</time>
      </trkpt>
      <trkpt lat="45.91314" lon="6.50359">
        <ele>2162.2</ele>
        <time>2015-03-24T10:19:06Z</time>
      </trkpt>
      <trkpt lat="45.91313" lon="6.50363">
        <ele>2163.2</ele>
        <time>2015-03-24T10:19:09Z</time>
      </trkpt>
      <trkpt lat="45.91312" lon="6.50368">
        <ele>2164.5</ele>
        <time>2015-03-24T10:19:13Z</time>
      </trkpt>
      <trkpt lat="45.9131" lon="6.50371">
        <ele>2165.7</ele>
        <time>2015-03-24T10:19:17Z</time>
      </trkpt>
      <trkpt lat="45.91311" lon="6.50376">
        <ele>2165.9</ele>
        <time>2015-03-24T10:19:24Z</time>
      </trkpt>
      <trkpt lat="45.91309" lon="6.50379">
        <ele>2167.2</ele>
        <time>2015-03-24T10:19:31Z</time>
      </trkpt>
      <trkpt lat="45.91307" lon="6.50383">
        <ele>2169</ele>
        <time>2015-03-24T10:19:36Z</time>
      </trkpt>
      <trkpt lat="45.91305" lon="6.50387">
        <ele>2170.6</ele>
        <time>2015-03-24T10:19:39Z</time>
      </trkpt>
      <trkpt lat="45.91305" lon="6.50392">
        <ele>2171.2</ele>
        <time>2015-03-24T10:19:46Z</time>
      </trkpt>
      <trkpt lat="45.91303" lon="6.50396">
        <ele>2172.5</ele>
        <time>2015-03-24T10:19:51Z</time>
      </trkpt>
      <trkpt lat="45.91301" lon="6.50393">
        <ele>2173.2</ele>
        <time>2015-03-24T10:20:05Z</time>
      </trkpt>
      <trkpt lat="45.91298" lon="6.50391">
        <ele>2174.2</ele>
        <time>2015-03-24T10:20:11Z</time>
      </trkpt>
      <trkpt lat="45.91296" lon="6.5039">
        <ele>2175.4</ele>
        <time>2015-03-24T10:20:15Z</time>
      </trkpt>
      <trkpt lat="45.91293" lon="6.50388">
        <ele>2176.4</ele>
        <time>2015-03-24T10:20:22Z</time>
      </trkpt>
      <trkpt lat="45.9129" lon="6.50388">
        <ele>2178</ele>
        <time>2015-03-24T10:20:31Z</time>
      </trkpt>
      <trkpt lat="45.91287" lon="6.50387">
        <ele>2180</ele>
        <time>2015-03-24T10:20:37Z</time>
      </trkpt>
      <trkpt lat="45.91284" lon="6.50383">
        <ele>2181.5</ele>
        <time>2015-03-24T10:20:41Z</time>
      </trkpt>
      <trkpt lat="45.91283" lon="6.5038">
        <ele>2182.3</ele>
        <time>2015-03-24T10:20:44Z</time>
      </trkpt>
      <trkpt lat="45.9128" lon="6.50378">
        <ele>2183.8</ele>
        <time>2015-03-24T10:20:49Z</time>
      </trkpt>
      <trkpt lat="45.91277" lon="6.50376">
        <ele>2185.7</ele>
        <time>2015-03-24T10:20:56Z</time>
      </trkpt>
      <trkpt lat="45.91275" lon="6.50374">
        <ele>2187.1</ele>
        <time>2015-03-24T10:21:03Z</time>
      </trkpt>
      <trkpt lat="45.91272" lon="6.50375">
        <ele>2189.1</ele>
        <time>2015-03-24T10:21:14Z</time>
      </trkpt>
      <trkpt lat="45.9127" lon="6.50379">
        <ele>2191.1</ele>
        <time>2015-03-24T10:21:20Z</time>
      </trkpt>
      <trkpt lat="45.91268" lon="6.50383">
        <ele>2193.4</ele>
        <time>2015-03-24T10:21:24Z</time>
      </trkpt>
      <trkpt lat="45.91267" lon="6.50387">
        <ele>2194.5</ele>
        <time>2015-03-24T10:21:28Z</time>
      </trkpt>
      <trkpt lat="45.91263" lon="6.50386">
        <ele>2197.1</ele>
        <time>2015-03-24T10:21:37Z</time>
      </trkpt>
      <trkpt lat="45.91261" lon="6.50383">
        <ele>2198.3</ele>
        <time>2015-03-24T10:21:44Z</time>
      </trkpt>
      <trkpt lat="45.91259" lon="6.5038">
        <ele>2199.4</ele>
        <time>2015-03-24T10:21:49Z</time>
      </trkpt>
      <trkpt lat="45.91258" lon="6.50377">
        <ele>2200.1</ele>
        <time>2015-03-24T10:21:53Z</time>
      </trkpt>
      <trkpt lat="45.91255" lon="6.50377">
        <ele>2202.2</ele>
        <time>2015-03-24T10:21:58Z</time>
      </trkpt>
      <trkpt lat="45.91252" lon="6.50379">
        <ele>2204.4</ele>
        <time>2015-03-24T10:22:04Z</time>
      </trkpt>
      <trkpt lat="45.91251" lon="6.50383">
        <ele>2205.2</ele>
        <time>2015-03-24T10:22:07Z</time>
      </trkpt>
      <trkpt lat="45.9125" lon="6.50388">
        <ele>2206.2</ele>
        <time>2015-03-24T10:22:10Z</time>
      </trkpt>
      <trkpt lat="45.9125" lon="6.50393">
        <ele>2207.1</ele>
        <time>2015-03-24T10:22:14Z</time>
      </trkpt>
      <trkpt lat="45.91249" lon="6.50398">
        <ele>2207.8</ele>
        <time>2015-03-24T10:22:17Z</time>
      </trkpt>
      <trkpt lat="45.9125" lon="6.50403">
        <ele>2207.7</ele>
        <time>2015-03-24T10:22:21Z</time>
      </trkpt>
      <trkpt lat="45.91251" lon="6.50407">
        <ele>2207.1</ele>
        <time>2015-03-24T10:22:26Z</time>
      </trkpt>
      <trkpt lat="45.91252" lon="6.50411">
        <ele>2206.9</ele>
        <time>2015-03-24T10:22:29Z</time>
      </trkpt>
      <trkpt lat="45.91253" lon="6.50416">
        <ele>2206.8</ele>
        <time>2015-03-24T10:22:31Z</time>
      </trkpt>
      <trkpt lat="45.91253" lon="6.5042">
        <ele>2206.8</ele>
        <time>2015-03-24T10:22:35Z</time>
      </trkpt>
      <trkpt lat="45.91253" lon="6.50424">
        <ele>2207.4</ele>
        <time>2015-03-24T10:22:41Z</time>
      </trkpt>
      <trkpt lat="45.91249" lon="6.50425">
        <ele>2209.6</ele>
        <time>2015-03-24T10:22:49Z</time>
      </trkpt>
      <trkpt lat="45.91246" lon="6.50425">
        <ele>2211.7</ele>
        <time>2015-03-24T10:22:53Z</time>
      </trkpt>
      <trkpt lat="45.91243" lon="6.50424">
        <ele>2213.5</ele>
        <time>2015-03-24T10:23:01Z</time>
      </trkpt>
      <trkpt lat="45.91241" lon="6.50423">
        <ele>2215</ele>
        <time>2015-03-24T10:23:06Z</time>
      </trkpt>
      <trkpt lat="45.91237" lon="6.50422">
        <ele>2217.3</ele>
        <time>2015-03-24T10:23:15Z</time>
      </trkpt>
      <trkpt lat="45.91234" lon="6.5042">
        <ele>2219.1</ele>
        <time>2015-03-24T10:23:23Z</time>
      </trkpt>
      <trkpt lat="45.91232" lon="6.50416">
        <ele>2219.9</ele>
        <time>2015-03-24T10:23:28Z</time>
      </trkpt>
      <trkpt lat="45.91232" lon="6.50411">
        <ele>2220.2</ele>
        <time>2015-03-24T10:23:31Z</time>
      </trkpt>
      <trkpt lat="45.91229" lon="6.50408">
        <ele>2221.6</ele>
        <time>2015-03-24T10:23:35Z</time>
      </trkpt>
      <trkpt lat="45.91227" lon="6.50406">
        <ele>2222.8</ele>
        <time>2015-03-24T10:23:38Z</time>
      </trkpt>
      <trkpt lat="45.91224" lon="6.50406">
        <ele>2225.3</ele>
        <time>2015-03-24T10:23:50Z</time>
      </trkpt>
      <trkpt lat="45.91222" lon="6.50411">
        <ele>2226.3</ele>
        <time>2015-03-24T10:23:52Z</time>
      </trkpt>
      <trkpt lat="45.91221" lon="6.50415">
        <ele>2227</ele>
        <time>2015-03-24T10:23:55Z</time>
      </trkpt>
      <trkpt lat="45.9122" lon="6.50419">
        <ele>2227.8</ele>
        <time>2015-03-24T10:23:57Z</time>
      </trkpt>
      <trkpt lat="45.9122" lon="6.50425">
        <ele>2228</ele>
        <time>2015-03-24T10:24:01Z</time>
      </trkpt>
      <trkpt lat="45.9122" lon="6.50429">
        <ele>2228.3</ele>
        <time>2015-03-24T10:24:06Z</time>
      </trkpt>
      <trkpt lat="45.91219" lon="6.50434">
        <ele>2228.6</ele>
        <time>2015-03-24T10:24:09Z</time>
      </trkpt>
      <trkpt lat="45.91219" lon="6.50438">
        <ele>2229</ele>
        <time>2015-03-24T10:24:11Z</time>
      </trkpt>
      <trkpt lat="45.91219" lon="6.50443">
        <ele>2228.8</ele>
        <time>2015-03-24T10:24:16Z</time>
      </trkpt>
      <trkpt lat="45.9122" lon="6.50447">
        <ele>2228.3</ele>
        <time>2015-03-24T10:24:21Z</time>
      </trkpt>
      <trkpt lat="45.91218" lon="6.50451">
        <ele>2229.3</ele>
        <time>2015-03-24T10:24:24Z</time>
      </trkpt>
      <trkpt lat="45.91216" lon="6.50451">
        <ele>2230.9</ele>
        <time>2015-03-24T10:24:29Z</time>
      </trkpt>
      <trkpt lat="45.91213" lon="6.5045">
        <ele>2232.7</ele>
        <time>2015-03-24T10:24:33Z</time>
      </trkpt>
      <trkpt lat="45.91214" lon="6.50454">
        <ele>2231.6</ele>
        <time>2015-03-24T10:24:36Z</time>
      </trkpt>
      <trkpt lat="45.91215" lon="6.50458">
        <ele>2231.5</ele>
        <time>2015-03-24T10:24:40Z</time>
      </trkpt>
      <trkpt lat="45.91215" lon="6.50463">
        <ele>2232.2</ele>
        <time>2015-03-24T10:24:44Z</time>
      </trkpt>
      <trkpt lat="45.91214" lon="6.50466">
        <ele>2234.3</ele>
        <time>2015-03-24T10:24:48Z</time>
      </trkpt>
      <trkpt lat="45.91213" lon="6.50472">
        <ele>2236.4</ele>
        <time>2015-03-24T10:24:53Z</time>
      </trkpt>
      <trkpt lat="45.91214" lon="6.50476">
        <ele>2237</ele>
        <time>2015-03-24T10:24:58Z</time>
      </trkpt>
      <trkpt lat="45.91215" lon="6.5048">
        <ele>2237.7</ele>
        <time>2015-03-24T10:25:03Z</time>
      </trkpt>
      <trkpt lat="45.91215" lon="6.50484">
        <ele>2238.7</ele>
        <time>2015-03-24T10:25:06Z</time>
      </trkpt>
      <trkpt lat="45.91214" lon="6.50489">
        <ele>2240.3</ele>
        <time>2015-03-24T10:25:12Z</time>
      </trkpt>
      <trkpt lat="45.91213" lon="6.50492">
        <ele>2242.3</ele>
        <time>2015-03-24T10:25:15Z</time>
      </trkpt>
      <trkpt lat="45.91213" lon="6.50497">
        <ele>2243.8</ele>
        <time>2015-03-24T10:25:19Z</time>
      </trkpt>
      <trkpt lat="45.91216" lon="6.50499">
        <ele>2242.5</ele>
        <time>2015-03-24T10:25:23Z</time>
      </trkpt>
      <trkpt lat="45.91216" lon="6.50504">
        <ele>2244.1</ele>
        <time>2015-03-24T10:25:26Z</time>
      </trkpt>
      <trkpt lat="45.91217" lon="6.50509">
        <ele>2244.7</ele>
        <time>2015-03-24T10:25:33Z</time>
      </trkpt>
      <trkpt lat="45.91217" lon="6.50514">
        <ele>2246.4</ele>
        <time>2015-03-24T10:25:37Z</time>
      </trkpt>
      <trkpt lat="45.91217" lon="6.50518">
        <ele>2247.4</ele>
        <time>2015-03-24T10:25:40Z</time>
      </trkpt>
      <trkpt lat="45.91217" lon="6.50522">
        <ele>2248.6</ele>
        <time>2015-03-24T10:25:44Z</time>
      </trkpt>
      <trkpt lat="45.91217" lon="6.50528">
        <ele>2250.3</ele>
        <time>2015-03-24T10:25:48Z</time>
      </trkpt>
      <trkpt lat="45.91216" lon="6.50532">
        <ele>2251.9</ele>
        <time>2015-03-24T10:25:51Z</time>
      </trkpt>
      <trkpt lat="45.91216" lon="6.50536">
        <ele>2253.2</ele>
        <time>2015-03-24T10:25:54Z</time>
      </trkpt>
      <trkpt lat="45.91217" lon="6.5054">
        <ele>2253.9</ele>
        <time>2015-03-24T10:25:57Z</time>
      </trkpt>
      <trkpt lat="45.91215" lon="6.50543">
        <ele>2255.7</ele>
        <time>2015-03-24T10:25:59Z</time>
      </trkpt>
      <trkpt lat="45.91217" lon="6.50545">
        <ele>2254.6</ele>
        <time>2015-03-24T10:26:05Z</time>
      </trkpt>
      <trkpt lat="45.91217" lon="6.5055">
        <ele>2256</ele>
        <time>2015-03-24T10:26:08Z</time>
      </trkpt>
      <trkpt lat="45.91219" lon="6.50554">
        <ele>2255.6</ele>
        <time>2015-03-24T10:26:17Z</time>
      </trkpt>
      <trkpt lat="45.91222" lon="6.50555">
        <ele>2254.1</ele>
        <time>2015-03-24T10:26:21Z</time>
      </trkpt>
      <trkpt lat="45.91223" lon="6.50559">
        <ele>2254.2</ele>
        <time>2015-03-24T10:26:25Z</time>
      </trkpt>
      <trkpt lat="45.91225" lon="6.50563">
        <ele>2254.2</ele>
        <time>2015-03-24T10:26:29Z</time>
      </trkpt>
      <trkpt lat="45.91222" lon="6.50568">
        <ele>2256.5</ele>
        <time>2015-03-24T10:26:32Z</time>
      </trkpt>
      <trkpt lat="45.91221" lon="6.50571">
        <ele>2258</ele>
        <time>2015-03-24T10:26:37Z</time>
      </trkpt>
      <trkpt lat="45.9122" lon="6.50567">
        <ele>2257.7</ele>
        <time>2015-03-24T10:26:52Z</time>
      </trkpt>
      <trkpt lat="45.91217" lon="6.50566">
        <ele>2259.2</ele>
        <time>2015-03-24T10:26:57Z</time>
      </trkpt>
      <trkpt lat="45.91214" lon="6.50564">
        <ele>2260.1</ele>
        <time>2015-03-24T10:27:00Z</time>
      </trkpt>
      <trkpt lat="45.91212" lon="6.50561">
        <ele>2260.6</ele>
        <time>2015-03-24T10:27:03Z</time>
      </trkpt>
      <trkpt lat="45.91209" lon="6.50559">
        <ele>2261.9</ele>
        <time>2015-03-24T10:27:09Z</time>
      </trkpt>
      <trkpt lat="45.91206" lon="6.50561">
        <ele>2264.3</ele>
        <time>2015-03-24T10:27:14Z</time>
      </trkpt>
      <trkpt lat="45.91202" lon="6.50561">
        <ele>2266.6</ele>
        <time>2015-03-24T10:27:19Z</time>
      </trkpt>
      <trkpt lat="45.912" lon="6.50562">
        <ele>2268.6</ele>
        <time>2015-03-24T10:27:25Z</time>
      </trkpt>
      <trkpt lat="45.91197" lon="6.5056">
        <ele>2269.9</ele>
        <time>2015-03-24T10:27:28Z</time>
      </trkpt>
      <trkpt lat="45.91194" lon="6.50557">
        <ele>2271.2</ele>
        <time>2015-03-24T10:27:30Z</time>
      </trkpt>
      <trkpt lat="45.91194" lon="6.50561">
        <ele>2272.4</ele>
        <time>2015-03-24T10:27:41Z</time>
      </trkpt>
      <trkpt lat="45.91193" lon="6.50566">
        <ele>2273.6</ele>
        <time>2015-03-24T10:27:44Z</time>
      </trkpt>
      <trkpt lat="45.91194" lon="6.5057">
        <ele>2273.6</ele>
        <time>2015-03-24T10:27:48Z</time>
      </trkpt>
      <trkpt lat="45.91196" lon="6.50575">
        <ele>2273.6</ele>
        <time>2015-03-24T10:27:55Z</time>
      </trkpt>
      <trkpt lat="45.91198" lon="6.50578">
        <ele>2272.7</ele>
        <time>2015-03-24T10:28:00Z</time>
      </trkpt>
      <trkpt lat="45.912" lon="6.50581">
        <ele>2272.2</ele>
        <time>2015-03-24T10:28:04Z</time>
      </trkpt>
      <trkpt lat="45.91201" lon="6.50586">
        <ele>2272.4</ele>
        <time>2015-03-24T10:28:12Z</time>
      </trkpt>
      <trkpt lat="45.91202" lon="6.5059">
        <ele>2272.5</ele>
        <time>2015-03-24T10:28:17Z</time>
      </trkpt>
      <trkpt lat="45.91199" lon="6.50592">
        <ele>2274.5</ele>
        <time>2015-03-24T10:28:27Z</time>
      </trkpt>
      <trkpt lat="45.91196" lon="6.50589">
        <ele>2276.3</ele>
        <time>2015-03-24T10:28:31Z</time>
      </trkpt>
      <trkpt lat="45.91193" lon="6.50588">
        <ele>2277.8</ele>
        <time>2015-03-24T10:28:35Z</time>
      </trkpt>
      <trkpt lat="45.9119" lon="6.5059">
        <ele>2280.1</ele>
        <time>2015-03-24T10:28:40Z</time>
      </trkpt>
      <trkpt lat="45.9119" lon="6.50594">
        <ele>2280.8</ele>
        <time>2015-03-24T10:28:49Z</time>
      </trkpt>
      <trkpt lat="45.9119" lon="6.50598">
        <ele>2281.3</ele>
        <time>2015-03-24T10:28:55Z</time>
      </trkpt>
      <trkpt lat="45.91191" lon="6.50603">
        <ele>2281.5</ele>
        <time>2015-03-24T10:29:00Z</time>
      </trkpt>
      <trkpt lat="45.91189" lon="6.50607">
        <ele>2283.6</ele>
        <time>2015-03-24T10:29:03Z</time>
      </trkpt>
      <trkpt lat="45.91188" lon="6.50611">
        <ele>2284.9</ele>
        <time>2015-03-24T10:29:04Z</time>
      </trkpt>
      <trkpt lat="45.9119" lon="6.50614">
        <ele>2284.2</ele>
        <time>2015-03-24T10:29:07Z</time>
      </trkpt>
      <trkpt lat="45.91189" lon="6.50617">
        <ele>2285.7</ele>
        <time>2015-03-24T10:29:11Z</time>
      </trkpt>
      <trkpt lat="45.91187" lon="6.50621">
        <ele>2287.5</ele>
        <time>2015-03-24T10:29:15Z</time>
      </trkpt>
      <trkpt lat="45.91185" lon="6.50625">
        <ele>2289.5</ele>
        <time>2015-03-24T10:29:23Z</time>
      </trkpt>
      <trkpt lat="45.91183" lon="6.50629">
        <ele>2291</ele>
        <time>2015-03-24T10:29:29Z</time>
      </trkpt>
      <trkpt lat="45.91187" lon="6.50632">
        <ele>2289.6</ele>
        <time>2015-03-24T10:29:34Z</time>
      </trkpt>
      <trkpt lat="45.91186" lon="6.50638">
        <ele>2291.4</ele>
        <time>2015-03-24T10:29:45Z</time>
      </trkpt>
      <trkpt lat="45.91182" lon="6.5064">
        <ele>2293.8</ele>
        <time>2015-03-24T10:29:46Z</time>
      </trkpt>
      <trkpt lat="45.91182" lon="6.50644">
        <ele>2294.8</ele>
        <time>2015-03-24T10:29:51Z</time>
      </trkpt>
      <trkpt lat="45.91182" lon="6.50648">
        <ele>2296</ele>
        <time>2015-03-24T10:29:53Z</time>
      </trkpt>
      <trkpt lat="45.9118" lon="6.50654">
        <ele>2298</ele>
        <time>2015-03-24T10:29:55Z</time>
      </trkpt>
      <trkpt lat="45.9118" lon="6.5065">
        <ele>2297.3</ele>
        <time>2015-03-24T10:30:07Z</time>
      </trkpt>
      <trkpt lat="45.9118" lon="6.50645">
        <ele>2296.5</ele>
        <time>2015-03-24T10:30:10Z</time>
      </trkpt>
      <trkpt lat="45.91178" lon="6.50642">
        <ele>2296.8</ele>
        <time>2015-03-24T10:30:14Z</time>
      </trkpt>
      <trkpt lat="45.91177" lon="6.50637">
        <ele>2296.6</ele>
        <time>2015-03-24T10:30:19Z</time>
      </trkpt>
      <trkpt lat="45.91176" lon="6.50634">
        <ele>2296.9</ele>
        <time>2015-03-24T10:30:22Z</time>
      </trkpt>
      <trkpt lat="45.91174" lon="6.50631">
        <ele>2297.5</ele>
        <time>2015-03-24T10:30:31Z</time>
      </trkpt>
      <trkpt lat="45.91171" lon="6.50628">
        <ele>2298.4</ele>
        <time>2015-03-24T10:30:34Z</time>
      </trkpt>
      <trkpt lat="45.91168" lon="6.50626">
        <ele>2300.2</ele>
        <time>2015-03-24T10:30:38Z</time>
      </trkpt>
      <trkpt lat="45.91165" lon="6.50624">
        <ele>2301.5</ele>
        <time>2015-03-24T10:30:42Z</time>
      </trkpt>
      <trkpt lat="45.91163" lon="6.50622">
        <ele>2302.5</ele>
        <time>2015-03-24T10:30:50Z</time>
      </trkpt>
      <trkpt lat="45.91159" lon="6.5062">
        <ele>2304.3</ele>
        <time>2015-03-24T10:30:52Z</time>
      </trkpt>
      <trkpt lat="45.91155" lon="6.50617">
        <ele>2306.3</ele>
        <time>2015-03-24T10:30:56Z</time>
      </trkpt>
      <trkpt lat="45.91152" lon="6.50616">
        <ele>2308.2</ele>
        <time>2015-03-24T10:30:59Z</time>
      </trkpt>
      <trkpt lat="45.91148" lon="6.50613">
        <ele>2310</ele>
        <time>2015-03-24T10:31:01Z</time>
      </trkpt>
      <trkpt lat="45.91145" lon="6.5061">
        <ele>2311.5</ele>
        <time>2015-03-24T10:31:04Z</time>
      </trkpt>
      <trkpt lat="45.91143" lon="6.50607">
        <ele>2312.6</ele>
        <time>2015-03-24T10:31:06Z</time>
      </trkpt>
      <trkpt lat="45.9114" lon="6.50603">
        <ele>2314</ele>
        <time>2015-03-24T10:31:09Z</time>
      </trkpt>
      <trkpt lat="45.91137" lon="6.50601">
        <ele>2315.5</ele>
        <time>2015-03-24T10:31:12Z</time>
      </trkpt>
      <trkpt lat="45.91133" lon="6.50599">
        <ele>2317.4</ele>
        <time>2015-03-24T10:31:15Z</time>
      </trkpt>
      <trkpt lat="45.9113" lon="6.50597">
        <ele>2319</ele>
        <time>2015-03-24T10:31:17Z</time>
      </trkpt>
      <trkpt lat="45.91127" lon="6.50594">
        <ele>2320.7</ele>
        <time>2015-03-24T10:31:21Z</time>
      </trkpt>
      <trkpt lat="45.91124" lon="6.50592">
        <ele>2322.3</ele>
        <time>2015-03-24T10:31:24Z</time>
      </trkpt>
      <trkpt lat="45.91122" lon="6.50591">
        <ele>2324</ele>
        <time>2015-03-24T10:31:30Z</time>
      </trkpt>
      <trkpt lat="45.91119" lon="6.50588">
        <ele>2326</ele>
        <time>2015-03-24T10:31:34Z</time>
      </trkpt>
      <trkpt lat="45.91116" lon="6.50585">
        <ele>2327.7</ele>
        <time>2015-03-24T10:31:37Z</time>
      </trkpt>
      <trkpt lat="45.91113" lon="6.50581">
        <ele>2329.5</ele>
        <time>2015-03-24T10:31:41Z</time>
      </trkpt>
      <trkpt lat="45.91111" lon="6.50585">
        <ele>2331.5</ele>
        <time>2015-03-24T10:31:57Z</time>
      </trkpt>
      <trkpt lat="45.9111" lon="6.50589">
        <ele>2333.3</ele>
        <time>2015-03-24T10:32:02Z</time>
      </trkpt>
      <trkpt lat="45.9111" lon="6.50593">
        <ele>2333.9</ele>
        <time>2015-03-24T10:32:07Z</time>
      </trkpt>
      <trkpt lat="45.91109" lon="6.50598">
        <ele>2334.4</ele>
        <time>2015-03-24T10:32:11Z</time>
      </trkpt>
      <trkpt lat="45.9111" lon="6.50603">
        <ele>2334.3</ele>
        <time>2015-03-24T10:32:16Z</time>
      </trkpt>
      <trkpt lat="45.9111" lon="6.50608">
        <ele>2334.9</ele>
        <time>2015-03-24T10:32:20Z</time>
      </trkpt>
      <trkpt lat="45.9111" lon="6.50613">
        <ele>2335.2</ele>
        <time>2015-03-24T10:32:24Z</time>
      </trkpt>
      <trkpt lat="45.9111" lon="6.50619">
        <ele>2335.7</ele>
        <time>2015-03-24T10:32:32Z</time>
      </trkpt>
      <trkpt lat="45.91111" lon="6.50624">
        <ele>2336.1</ele>
        <time>2015-03-24T10:32:34Z</time>
      </trkpt>
      <trkpt lat="45.91113" lon="6.50624">
        <ele>2334.1</ele>
        <time>2015-03-24T10:32:44Z</time>
      </trkpt>
      <trkpt lat="45.91114" lon="6.50628">
        <ele>2334.5</ele>
        <time>2015-03-24T10:32:52Z</time>
      </trkpt>
      <trkpt lat="45.91117" lon="6.5063">
        <ele>2332.9</ele>
        <time>2015-03-24T10:32:57Z</time>
      </trkpt>
      <trkpt lat="45.91114" lon="6.50629">
        <ele>2334.5</ele>
        <time>2015-03-24T10:33:15Z</time>
      </trkpt>
      <trkpt lat="45.91112" lon="6.50626">
        <ele>2335.7</ele>
        <time>2015-03-24T10:33:17Z</time>
      </trkpt>
      <trkpt lat="45.91109" lon="6.50623">
        <ele>2337.4</ele>
        <time>2015-03-24T10:33:19Z</time>
      </trkpt>
      <trkpt lat="45.91105" lon="6.5062">
        <ele>2339.4</ele>
        <time>2015-03-24T10:33:21Z</time>
      </trkpt>
      <trkpt lat="45.91103" lon="6.50616">
        <ele>2340.5</ele>
        <time>2015-03-24T10:33:23Z</time>
      </trkpt>
      <trkpt lat="45.91101" lon="6.50613">
        <ele>2342.1</ele>
        <time>2015-03-24T10:33:25Z</time>
      </trkpt>
      <trkpt lat="45.91098" lon="6.50612">
        <ele>2343.9</ele>
        <time>2015-03-24T10:33:27Z</time>
      </trkpt>
      <trkpt lat="45.91095" lon="6.5061">
        <ele>2346.2</ele>
        <time>2015-03-24T10:33:30Z</time>
      </trkpt>
      <trkpt lat="45.91092" lon="6.50607">
        <ele>2348.1</ele>
        <time>2015-03-24T10:33:32Z</time>
      </trkpt>
      <trkpt lat="45.9109" lon="6.50603">
        <ele>2349.3</ele>
        <time>2015-03-24T10:33:37Z</time>
      </trkpt>
      <trkpt lat="45.91089" lon="6.50599">
        <ele>2350.2</ele>
        <time>2015-03-24T10:33:42Z</time>
      </trkpt>
      <trkpt lat="45.91088" lon="6.50595">
        <ele>2350.8</ele>
        <time>2015-03-24T10:33:47Z</time>
      </trkpt>
      <trkpt lat="45.91088" lon="6.50591">
        <ele>2350.8</ele>
        <time>2015-03-24T10:33:52Z</time>
      </trkpt>
      <trkpt lat="45.91085" lon="6.50593">
        <ele>2352.7</ele>
        <time>2015-03-24T10:34:01Z</time>
      </trkpt>
      <trkpt lat="45.91084" lon="6.50598">
        <ele>2354.1</ele>
        <time>2015-03-24T10:34:05Z</time>
      </trkpt>
      <trkpt lat="45.91082" lon="6.50602">
        <ele>2355.5</ele>
        <time>2015-03-24T10:34:07Z</time>
      </trkpt>
      <trkpt lat="45.91081" lon="6.50606">
        <ele>2356.5</ele>
        <time>2015-03-24T10:34:10Z</time>
      </trkpt>
      <trkpt lat="45.9108" lon="6.50611">
        <ele>2357.2</ele>
        <time>2015-03-24T10:34:15Z</time>
      </trkpt>
      <trkpt lat="45.9108" lon="6.50615">
        <ele>2357.6</ele>
        <time>2015-03-24T10:34:18Z</time>
      </trkpt>
      <trkpt lat="45.91079" lon="6.5062">
        <ele>2358.3</ele>
        <time>2015-03-24T10:34:21Z</time>
      </trkpt>
      <trkpt lat="45.91078" lon="6.50624">
        <ele>2359.2</ele>
        <time>2015-03-24T10:34:26Z</time>
      </trkpt>
      <trkpt lat="45.91076" lon="6.50622">
        <ele>2361</ele>
        <time>2015-03-24T10:34:32Z</time>
      </trkpt>
      <trkpt lat="45.91074" lon="6.50618">
        <ele>2361.8</ele>
        <time>2015-03-24T10:34:36Z</time>
      </trkpt>
      <trkpt lat="45.91073" lon="6.50614">
        <ele>2362.8</ele>
        <time>2015-03-24T10:34:40Z</time>
      </trkpt>
      <trkpt lat="45.91073" lon="6.5061">
        <ele>2362.9</ele>
        <time>2015-03-24T10:34:46Z</time>
      </trkpt>
      <trkpt lat="45.91072" lon="6.50606">
        <ele>2363.4</ele>
        <time>2015-03-24T10:34:50Z</time>
      </trkpt>
      <trkpt lat="45.91072" lon="6.506">
        <ele>2363.2</ele>
        <time>2015-03-24T10:34:55Z</time>
      </trkpt>
      <trkpt lat="45.91071" lon="6.50596">
        <ele>2363.6</ele>
        <time>2015-03-24T10:35:00Z</time>
      </trkpt>
      <trkpt lat="45.91072" lon="6.50591">
        <ele>2363</ele>
        <time>2015-03-24T10:35:03Z</time>
      </trkpt>
      <trkpt lat="45.91072" lon="6.50587">
        <ele>2363.3</ele>
        <time>2015-03-24T10:35:06Z</time>
      </trkpt>
      <trkpt lat="45.91071" lon="6.50583">
        <ele>2364</ele>
        <time>2015-03-24T10:35:10Z</time>
      </trkpt>
      <trkpt lat="45.91069" lon="6.50579">
        <ele>2364.9</ele>
        <time>2015-03-24T10:35:14Z</time>
      </trkpt>
      <trkpt lat="45.91069" lon="6.50575">
        <ele>2364.9</ele>
        <time>2015-03-24T10:35:18Z</time>
      </trkpt>
      <trkpt lat="45.91068" lon="6.50571">
        <ele>2366.1</ele>
        <time>2015-03-24T10:35:24Z</time>
      </trkpt>
      <trkpt lat="45.91067" lon="6.50566">
        <ele>2366.5</ele>
        <time>2015-03-24T10:35:28Z</time>
      </trkpt>
      <trkpt lat="45.91066" lon="6.50562">
        <ele>2367.6</ele>
        <time>2015-03-24T10:35:33Z</time>
      </trkpt>
      <trkpt lat="45.91064" lon="6.50559">
        <ele>2368.8</ele>
        <time>2015-03-24T10:35:36Z</time>
      </trkpt>
      <trkpt lat="45.91063" lon="6.50555">
        <ele>2370.1</ele>
        <time>2015-03-24T10:35:41Z</time>
      </trkpt>
      <trkpt lat="45.91061" lon="6.50551">
        <ele>2371.9</ele>
        <time>2015-03-24T10:35:47Z</time>
      </trkpt>
      <trkpt lat="45.91058" lon="6.50549">
        <ele>2374.6</ele>
        <time>2015-03-24T10:35:52Z</time>
      </trkpt>
      <trkpt lat="45.91056" lon="6.50546">
        <ele>2376.5</ele>
        <time>2015-03-24T10:35:59Z</time>
      </trkpt>
      <trkpt lat="45.91053" lon="6.50543">
        <ele>2378.6</ele>
        <time>2015-03-24T10:36:02Z</time>
      </trkpt>
      <trkpt lat="45.91051" lon="6.50543">
        <ele>2381.1</ele>
        <time>2015-03-24T10:36:08Z</time>
      </trkpt>
      <trkpt lat="45.91048" lon="6.50546">
        <ele>2383.1</ele>
        <time>2015-03-24T10:36:13Z</time>
      </trkpt>
      <trkpt lat="45.91046" lon="6.50549">
        <ele>2384.9</ele>
        <time>2015-03-24T10:36:17Z</time>
      </trkpt>
      <trkpt lat="45.91044" lon="6.50552">
        <ele>2386.9</ele>
        <time>2015-03-24T10:36:21Z</time>
      </trkpt>
      <trkpt lat="45.91041" lon="6.50556">
        <ele>2388.5</ele>
        <time>2015-03-24T10:36:25Z</time>
      </trkpt>
      <trkpt lat="45.91039" lon="6.50561">
        <ele>2388.9</ele>
        <time>2015-03-24T10:36:32Z</time>
      </trkpt>
      <trkpt lat="45.91038" lon="6.50564">
        <ele>2389.3</ele>
        <time>2015-03-24T10:36:35Z</time>
      </trkpt>
      <trkpt lat="45.91036" lon="6.50568">
        <ele>2389.7</ele>
        <time>2015-03-24T10:36:38Z</time>
      </trkpt>
      <trkpt lat="45.91035" lon="6.50572">
        <ele>2390</ele>
        <time>2015-03-24T10:36:42Z</time>
      </trkpt>
      <trkpt lat="45.91033" lon="6.50577">
        <ele>2390.6</ele>
        <time>2015-03-24T10:36:45Z</time>
      </trkpt>
      <trkpt lat="45.91032" lon="6.50581">
        <ele>2391.3</ele>
        <time>2015-03-24T10:36:50Z</time>
      </trkpt>
      <trkpt lat="45.9103" lon="6.50585">
        <ele>2391.9</ele>
        <time>2015-03-24T10:36:54Z</time>
      </trkpt>
      <trkpt lat="45.9103" lon="6.50591">
        <ele>2392.2</ele>
        <time>2015-03-24T10:37:00Z</time>
      </trkpt>
      <trkpt lat="45.9103" lon="6.50595">
        <ele>2392.1</ele>
        <time>2015-03-24T10:37:05Z</time>
      </trkpt>
      <trkpt lat="45.9103" lon="6.50601">
        <ele>2392.1</ele>
        <time>2015-03-24T10:37:10Z</time>
      </trkpt>
      <trkpt lat="45.91031" lon="6.50605">
        <ele>2392</ele>
        <time>2015-03-24T10:37:20Z</time>
      </trkpt>
      <trkpt lat="45.9103" lon="6.50609">
        <ele>2392.5</ele>
        <time>2015-03-24T10:37:23Z</time>
      </trkpt>
      <trkpt lat="45.91031" lon="6.50616">
        <ele>2392.2</ele>
        <time>2015-03-24T10:37:28Z</time>
      </trkpt>
      <trkpt lat="45.91032" lon="6.50619">
        <ele>2391.3</ele>
        <time>2015-03-24T10:37:31Z</time>
      </trkpt>
      <trkpt lat="45.91032" lon="6.50623">
        <ele>2391.1</ele>
        <time>2015-03-24T10:37:34Z</time>
      </trkpt>
      <trkpt lat="45.91035" lon="6.50626">
        <ele>2389.9</ele>
        <time>2015-03-24T10:37:43Z</time>
      </trkpt>
      <trkpt lat="45.91034" lon="6.5063">
        <ele>2390.8</ele>
        <time>2015-03-24T10:37:50Z</time>
      </trkpt>
      <trkpt lat="45.91033" lon="6.50634">
        <ele>2392.1</ele>
        <time>2015-03-24T10:37:54Z</time>
      </trkpt>
      <trkpt lat="45.9103" lon="6.50632">
        <ele>2393.7</ele>
        <time>2015-03-24T10:38:04Z</time>
      </trkpt>
      <trkpt lat="45.91028" lon="6.5063">
        <ele>2395.3</ele>
        <time>2015-03-24T10:38:09Z</time>
      </trkpt>
      <trkpt lat="45.91026" lon="6.50626">
        <ele>2395.3</ele>
        <time>2015-03-24T10:38:15Z</time>
      </trkpt>
      <trkpt lat="45.91024" lon="6.50623">
        <ele>2396.3</ele>
        <time>2015-03-24T10:38:21Z</time>
      </trkpt>
      <trkpt lat="45.91022" lon="6.5062">
        <ele>2397.4</ele>
        <time>2015-03-24T10:38:25Z</time>
      </trkpt>
      <trkpt lat="45.9102" lon="6.50616">
        <ele>2398.4</ele>
        <time>2015-03-24T10:38:32Z</time>
      </trkpt>
      <trkpt lat="45.9102" lon="6.50612">
        <ele>2398.6</ele>
        <time>2015-03-24T10:38:38Z</time>
      </trkpt>
      <trkpt lat="45.9102" lon="6.50608">
        <ele>2398.2</ele>
        <time>2015-03-24T10:38:51Z</time>
      </trkpt>
      <trkpt lat="45.91017" lon="6.50611">
        <ele>2399.8</ele>
        <time>2015-03-24T10:39:00Z</time>
      </trkpt>
      <trkpt lat="45.91015" lon="6.50614">
        <ele>2401.4</ele>
        <time>2015-03-24T10:39:04Z</time>
      </trkpt>
      <trkpt lat="45.91013" lon="6.50618">
        <ele>2403.1</ele>
        <time>2015-03-24T10:39:07Z</time>
      </trkpt>
      <trkpt lat="45.91011" lon="6.50621">
        <ele>2404.9</ele>
        <time>2015-03-24T10:39:10Z</time>
      </trkpt>
      <trkpt lat="45.9101" lon="6.50626">
        <ele>2406.4</ele>
        <time>2015-03-24T10:39:14Z</time>
      </trkpt>
      <trkpt lat="45.91008" lon="6.5063">
        <ele>2407.9</ele>
        <time>2015-03-24T10:39:18Z</time>
      </trkpt>
      <trkpt lat="45.91008" lon="6.50635">
        <ele>2409</ele>
        <time>2015-03-24T10:39:23Z</time>
      </trkpt>
      <trkpt lat="45.91008" lon="6.50639">
        <ele>2410.4</ele>
        <time>2015-03-24T10:39:28Z</time>
      </trkpt>
      <trkpt lat="45.91009" lon="6.50644">
        <ele>2410.8</ele>
        <time>2015-03-24T10:39:33Z</time>
      </trkpt>
      <trkpt lat="45.91011" lon="6.50646">
        <ele>2409.3</ele>
        <time>2015-03-24T10:39:37Z</time>
      </trkpt>
      <trkpt lat="45.91011" lon="6.5065">
        <ele>2410.2</ele>
        <time>2015-03-24T10:39:40Z</time>
      </trkpt>
      <trkpt lat="45.91011" lon="6.50655">
        <ele>2411.5</ele>
        <time>2015-03-24T10:39:45Z</time>
      </trkpt>
      <trkpt lat="45.91011" lon="6.50659">
        <ele>2412.1</ele>
        <time>2015-03-24T10:39:50Z</time>
      </trkpt>
      <trkpt lat="45.91011" lon="6.50663">
        <ele>2413</ele>
        <time>2015-03-24T10:39:53Z</time>
      </trkpt>
      <trkpt lat="45.91011" lon="6.50667">
        <ele>2413.8</ele>
        <time>2015-03-24T10:39:59Z</time>
      </trkpt>
      <trkpt lat="45.91011" lon="6.50674">
        <ele>2415.1</ele>
        <time>2015-03-24T10:40:04Z</time>
      </trkpt>
      <trkpt lat="45.91013" lon="6.50678">
        <ele>2414.8</ele>
        <time>2015-03-24T10:40:12Z</time>
      </trkpt>
      <trkpt lat="45.9101" lon="6.50679">
        <ele>2417.1</ele>
        <time>2015-03-24T10:40:26Z</time>
      </trkpt>
      <trkpt lat="45.91008" lon="6.50679">
        <ele>2419.1</ele>
        <time>2015-03-24T10:40:30Z</time>
      </trkpt>
      <trkpt lat="45.91005" lon="6.50678">
        <ele>2420.9</ele>
        <time>2015-03-24T10:40:34Z</time>
      </trkpt>
      <trkpt lat="45.91003" lon="6.50675">
        <ele>2421.8</ele>
        <time>2015-03-24T10:40:38Z</time>
      </trkpt>
      <trkpt lat="45.91001" lon="6.50671">
        <ele>2422.6</ele>
        <time>2015-03-24T10:40:46Z</time>
      </trkpt>
      <trkpt lat="45.90998" lon="6.50668">
        <ele>2423.7</ele>
        <time>2015-03-24T10:40:50Z</time>
      </trkpt>
      <trkpt lat="45.90996" lon="6.5067">
        <ele>2426</ele>
        <time>2015-03-24T10:41:01Z</time>
      </trkpt>
      <trkpt lat="45.90994" lon="6.50674">
        <ele>2428.1</ele>
        <time>2015-03-24T10:41:13Z</time>
      </trkpt>
      <trkpt lat="45.90993" lon="6.50679">
        <ele>2430.3</ele>
        <time>2015-03-24T10:41:20Z</time>
      </trkpt>
      <trkpt lat="45.90994" lon="6.50683">
        <ele>2430.4</ele>
        <time>2015-03-24T10:41:24Z</time>
      </trkpt>
      <trkpt lat="45.90994" lon="6.50687">
        <ele>2431.2</ele>
        <time>2015-03-24T10:41:27Z</time>
      </trkpt>
      <trkpt lat="45.90993" lon="6.50691">
        <ele>2433.2</ele>
        <time>2015-03-24T10:41:29Z</time>
      </trkpt>
      <trkpt lat="45.90994" lon="6.50696">
        <ele>2433.7</ele>
        <time>2015-03-24T10:41:33Z</time>
      </trkpt>
      <trkpt lat="45.90996" lon="6.507">
        <ele>2433</ele>
        <time>2015-03-24T10:41:35Z</time>
      </trkpt>
      <trkpt lat="45.90997" lon="6.50703">
        <ele>2432.5</ele>
        <time>2015-03-24T10:41:38Z</time>
      </trkpt>
      <trkpt lat="45.90997" lon="6.50707">
        <ele>2433.3</ele>
        <time>2015-03-24T10:41:49Z</time>
      </trkpt>
      <trkpt lat="45.90996" lon="6.50714">
        <ele>2435.7</ele>
        <time>2015-03-24T10:41:54Z</time>
      </trkpt>
      <trkpt lat="45.90993" lon="6.50715">
        <ele>2438</ele>
        <time>2015-03-24T10:41:59Z</time>
      </trkpt>
      <trkpt lat="45.90991" lon="6.50715">
        <ele>2440.2</ele>
        <time>2015-03-24T10:42:06Z</time>
      </trkpt>
      <trkpt lat="45.90988" lon="6.50713">
        <ele>2441.6</ele>
        <time>2015-03-24T10:42:13Z</time>
      </trkpt>
      <trkpt lat="45.90986" lon="6.5071">
        <ele>2443.2</ele>
        <time>2015-03-24T10:42:16Z</time>
      </trkpt>
      <trkpt lat="45.90984" lon="6.50707">
        <ele>2443.8</ele>
        <time>2015-03-24T10:42:23Z</time>
      </trkpt>
      <trkpt lat="45.90982" lon="6.50703">
        <ele>2444.3</ele>
        <time>2015-03-24T10:42:36Z</time>
      </trkpt>
      <trkpt lat="45.9098" lon="6.507">
        <ele>2445.2</ele>
        <time>2015-03-24T10:42:42Z</time>
      </trkpt>
      <trkpt lat="45.90977" lon="6.507">
        <ele>2447.4</ele>
        <time>2015-03-24T10:42:52Z</time>
      </trkpt>
      <trkpt lat="45.90977" lon="6.50705">
        <ele>2449.2</ele>
        <time>2015-03-24T10:42:56Z</time>
      </trkpt>
      <trkpt lat="45.90978" lon="6.50709">
        <ele>2449.4</ele>
        <time>2015-03-24T10:42:59Z</time>
      </trkpt>
      <trkpt lat="45.90978" lon="6.50713">
        <ele>2449.7</ele>
        <time>2015-03-24T10:43:06Z</time>
      </trkpt>
      <trkpt lat="45.90979" lon="6.50718">
        <ele>2449.7</ele>
        <time>2015-03-24T10:43:08Z</time>
      </trkpt>
      <trkpt lat="45.90979" lon="6.50722">
        <ele>2450.2</ele>
        <time>2015-03-24T10:43:13Z</time>
      </trkpt>
      <trkpt lat="45.90981" lon="6.50725">
        <ele>2449.3</ele>
        <time>2015-03-24T10:43:19Z</time>
      </trkpt>
      <trkpt lat="45.90983" lon="6.50729">
        <ele>2448.1</ele>
        <time>2015-03-24T10:43:25Z</time>
      </trkpt>
      <trkpt lat="45.90981" lon="6.50732">
        <ele>2450</ele>
        <time>2015-03-24T10:43:29Z</time>
      </trkpt>
      <trkpt lat="45.90979" lon="6.50736">
        <ele>2452</ele>
        <time>2015-03-24T10:43:32Z</time>
      </trkpt>
      <trkpt lat="45.90976" lon="6.50738">
        <ele>2454.5</ele>
        <time>2015-03-24T10:43:36Z</time>
      </trkpt>
      <trkpt lat="45.90974" lon="6.50741">
        <ele>2456.2</ele>
        <time>2015-03-24T10:43:39Z</time>
      </trkpt>
      <trkpt lat="45.90971" lon="6.50741">
        <ele>2458.2</ele>
        <time>2015-03-24T10:43:47Z</time>
      </trkpt>
      <trkpt lat="45.90969" lon="6.50736">
        <ele>2459</ele>
        <time>2015-03-24T10:43:52Z</time>
      </trkpt>
      <trkpt lat="45.90969" lon="6.50733">
        <ele>2458.9</ele>
        <time>2015-03-24T10:44:06Z</time>
      </trkpt>
      <trkpt lat="45.90966" lon="6.5073">
        <ele>2460.9</ele>
        <time>2015-03-24T10:44:21Z</time>
      </trkpt>
      <trkpt lat="45.90964" lon="6.50728">
        <ele>2462.5</ele>
        <time>2015-03-24T10:44:23Z</time>
      </trkpt>
      <trkpt lat="45.90961" lon="6.50729">
        <ele>2464.8</ele>
        <time>2015-03-24T10:44:26Z</time>
      </trkpt>
      <trkpt lat="45.9096" lon="6.50735">
        <ele>2465.6</ele>
        <time>2015-03-24T10:44:32Z</time>
      </trkpt>
      <trkpt lat="45.9096" lon="6.5074">
        <ele>2465.9</ele>
        <time>2015-03-24T10:44:35Z</time>
      </trkpt>
      <trkpt lat="45.90962" lon="6.50744">
        <ele>2465.1</ele>
        <time>2015-03-24T10:44:38Z</time>
      </trkpt>
      <trkpt lat="45.90964" lon="6.50747">
        <ele>2464</ele>
        <time>2015-03-24T10:44:41Z</time>
      </trkpt>
      <trkpt lat="45.90965" lon="6.50751">
        <ele>2463.5</ele>
        <time>2015-03-24T10:44:43Z</time>
      </trkpt>
      <trkpt lat="45.90965" lon="6.50756">
        <ele>2463.7</ele>
        <time>2015-03-24T10:44:46Z</time>
      </trkpt>
      <trkpt lat="45.90967" lon="6.50759">
        <ele>2462.7</ele>
        <time>2015-03-24T10:44:49Z</time>
      </trkpt>
      <trkpt lat="45.90971" lon="6.50763">
        <ele>2460.9</ele>
        <time>2015-03-24T10:44:52Z</time>
      </trkpt>
      <trkpt lat="45.90972" lon="6.50767">
        <ele>2460.6</ele>
        <time>2015-03-24T10:44:55Z</time>
      </trkpt>
      <trkpt lat="45.90973" lon="6.50771">
        <ele>2460.1</ele>
        <time>2015-03-24T10:44:58Z</time>
      </trkpt>
      <trkpt lat="45.90975" lon="6.50777">
        <ele>2459.6</ele>
        <time>2015-03-24T10:45:01Z</time>
      </trkpt>
      <trkpt lat="45.90977" lon="6.50781">
        <ele>2459</ele>
        <time>2015-03-24T10:45:05Z</time>
      </trkpt>
      <trkpt lat="45.9098" lon="6.50785">
        <ele>2457.9</ele>
        <time>2015-03-24T10:45:10Z</time>
      </trkpt>
      <trkpt lat="45.90979" lon="6.50789">
        <ele>2458.8</ele>
        <time>2015-03-24T10:45:15Z</time>
      </trkpt>
      <trkpt lat="45.9098" lon="6.50793">
        <ele>2458.6</ele>
        <time>2015-03-24T10:45:19Z</time>
      </trkpt>
      <trkpt lat="45.90979" lon="6.50798">
        <ele>2459.5</ele>
        <time>2015-03-24T10:45:21Z</time>
      </trkpt>
      <trkpt lat="45.90978" lon="6.50801">
        <ele>2460.8</ele>
        <time>2015-03-24T10:45:33Z</time>
      </trkpt>
      <trkpt lat="45.90976" lon="6.50804">
        <ele>2462.1</ele>
        <time>2015-03-24T10:45:41Z</time>
      </trkpt>
      <trkpt lat="45.90975" lon="6.5081">
        <ele>2463.1</ele>
        <time>2015-03-24T10:45:45Z</time>
      </trkpt>
      <trkpt lat="45.90974" lon="6.50814">
        <ele>2464.1</ele>
        <time>2015-03-24T10:45:50Z</time>
      </trkpt>
      <trkpt lat="45.90974" lon="6.50819">
        <ele>2464.2</ele>
        <time>2015-03-24T10:45:55Z</time>
      </trkpt>
      <trkpt lat="45.90974" lon="6.50824">
        <ele>2464.5</ele>
        <time>2015-03-24T10:46:01Z</time>
      </trkpt>
      <trkpt lat="45.90976" lon="6.50828">
        <ele>2464.1</ele>
        <time>2015-03-24T10:46:06Z</time>
      </trkpt>
      <trkpt lat="45.90975" lon="6.50832">
        <ele>2464.8</ele>
        <time>2015-03-24T10:46:09Z</time>
      </trkpt>
      <trkpt lat="45.90976" lon="6.50836">
        <ele>2464.9</ele>
        <time>2015-03-24T10:46:14Z</time>
      </trkpt>
      <trkpt lat="45.90973" lon="6.50835">
        <ele>2466.4</ele>
        <time>2015-03-24T10:46:28Z</time>
      </trkpt>
      <trkpt lat="45.9097" lon="6.50834">
        <ele>2467.8</ele>
        <time>2015-03-24T10:46:32Z</time>
      </trkpt>
      <trkpt lat="45.90966" lon="6.50834">
        <ele>2469.5</ele>
        <time>2015-03-24T10:46:36Z</time>
      </trkpt>
      <trkpt lat="45.90963" lon="6.50832">
        <ele>2471.2</ele>
        <time>2015-03-24T10:46:41Z</time>
      </trkpt>
      <trkpt lat="45.9096" lon="6.5083">
        <ele>2472.4</ele>
        <time>2015-03-24T10:46:46Z</time>
      </trkpt>
      <trkpt lat="45.90957" lon="6.50829">
        <ele>2473</ele>
        <time>2015-03-24T10:46:51Z</time>
      </trkpt>
      <trkpt lat="45.90955" lon="6.50827">
        <ele>2472.1</ele>
        <time>2015-03-24T10:46:54Z</time>
      </trkpt>
      <trkpt lat="45.90952" lon="6.50823">
        <ele>2471.1</ele>
        <time>2015-03-24T10:47:00Z</time>
      </trkpt>
      <trkpt lat="45.90949" lon="6.50822">
        <ele>2470</ele>
        <time>2015-03-24T10:47:03Z</time>
      </trkpt>
      <trkpt lat="45.90946" lon="6.5082">
        <ele>2469.2</ele>
        <time>2015-03-24T10:47:08Z</time>
      </trkpt>
      <trkpt lat="45.90943" lon="6.50817">
        <ele>2468.1</ele>
        <time>2015-03-24T10:47:12Z</time>
      </trkpt>
      <trkpt lat="45.90941" lon="6.50815">
        <ele>2467.2</ele>
        <time>2015-03-24T10:47:16Z</time>
      </trkpt>
      <trkpt lat="45.90941" lon="6.5082">
        <ele>2467.7</ele>
        <time>2015-03-24T10:47:25Z</time>
      </trkpt>
      <trkpt lat="45.90942" lon="6.50825">
        <ele>2468.2</ele>
        <time>2015-03-24T10:47:29Z</time>
      </trkpt>
      <trkpt lat="45.90942" lon="6.5083">
        <ele>2468.6</ele>
        <time>2015-03-24T10:47:35Z</time>
      </trkpt>
      <trkpt lat="45.90943" lon="6.50834">
        <ele>2469.2</ele>
        <time>2015-03-24T10:47:39Z</time>
      </trkpt>
      <trkpt lat="45.9094" lon="6.50836">
        <ele>2468.6</ele>
        <time>2015-03-24T10:47:50Z</time>
      </trkpt>
      <trkpt lat="45.90937" lon="6.50835">
        <ele>2467.5</ele>
        <time>2015-03-24T10:47:54Z</time>
      </trkpt>
      <trkpt lat="45.90934" lon="6.50834">
        <ele>2466.6</ele>
        <time>2015-03-24T10:48:02Z</time>
      </trkpt>
      <trkpt lat="45.90931" lon="6.50831">
        <ele>2465.5</ele>
        <time>2015-03-24T10:48:10Z</time>
      </trkpt>
      <trkpt lat="45.90929" lon="6.50829">
        <ele>2464.7</ele>
        <time>2015-03-24T10:48:18Z</time>
      </trkpt>
      <trkpt lat="45.9093" lon="6.50833">
        <ele>2465.4</ele>
        <time>2015-03-24T10:48:24Z</time>
      </trkpt>
      <trkpt lat="45.90931" lon="6.50838">
        <ele>2466.1</ele>
        <time>2015-03-24T10:48:28Z</time>
      </trkpt>
      <trkpt lat="45.9093" lon="6.50843">
        <ele>2466.3</ele>
        <time>2015-03-24T10:48:30Z</time>
      </trkpt>
      <trkpt lat="45.90931" lon="6.50846">
        <ele>2466.8</ele>
        <time>2015-03-24T10:48:40Z</time>
      </trkpt>
      <trkpt lat="45.90928" lon="6.50848">
        <ele>2466.1</ele>
        <time>2015-03-24T10:48:50Z</time>
      </trkpt>
      <trkpt lat="45.90925" lon="6.50848">
        <ele>2465.2</ele>
        <time>2015-03-24T10:48:57Z</time>
      </trkpt>
      <trkpt lat="45.90922" lon="6.50844">
        <ele>2464.2</ele>
        <time>2015-03-24T10:49:02Z</time>
      </trkpt>
      <trkpt lat="45.9092" lon="6.50842">
        <ele>2463.4</ele>
        <time>2015-03-24T10:49:03Z</time>
      </trkpt>
      <trkpt lat="45.90917" lon="6.5084">
        <ele>2462.5</ele>
        <time>2015-03-24T10:49:06Z</time>
      </trkpt>
      <trkpt lat="45.90917" lon="6.5084">
        <ele>2462.5</ele>
        <time>2015-03-24T10:49:11Z</time>
      </trkpt>
      <trkpt lat="45.90917" lon="6.5084">
        <ele>2462.5</ele>
        <time>2015-03-24T10:49:48Z</time>
      </trkpt>
      <trkpt lat="45.90917" lon="6.5084">
        <ele>2462.4</ele>
        <time>2015-03-24T10:49:51Z</time>
      </trkpt>
      <trkpt lat="45.90917" lon="6.50841">
        <ele>2462.4</ele>
        <time>2015-03-24T10:51:07Z</time>
      </trkpt>
      <trkpt lat="45.90917" lon="6.50841">
        <ele>2462.4</ele>
        <time>2015-03-24T10:51:19Z</time>
      </trkpt>
      <trkpt lat="45.90917" lon="6.50841">
        <ele>2462.3</ele>
        <time>2015-03-24T10:52:12Z</time>
      </trkpt>
      <trkpt lat="45.90916" lon="6.50841">
        <ele>2462.3</ele>
        <time>2015-03-24T10:52:45Z</time>
      </trkpt>
      <trkpt lat="45.90916" lon="6.50841">
        <ele>2462.3</ele>
        <time>2015-03-24T10:52:50Z</time>
      </trkpt>
      <trkpt lat="45.90916" lon="6.50841">
        <ele>2462.3</ele>
        <time>2015-03-24T10:53:13Z</time>
      </trkpt>
      <trkpt lat="45.90916" lon="6.50841">
        <ele>2462.2</ele>
        <time>2015-03-24T10:53:23Z</time>
      </trkpt>
      <trkpt lat="45.90916" lon="6.50841">
        <ele>2462.2</ele>
        <time>2015-03-24T10:53:28Z</time>
      </trkpt>
      <trkpt lat="45.90916" lon="6.50841">
        <ele>2462.2</ele>
        <time>2015-03-24T10:54:44Z</time>
      </trkpt>
      <trkpt lat="45.90916" lon="6.50841">
        <ele>2462.2</ele>
        <time>2015-03-24T10:54:50Z</time>
      </trkpt>
      <trkpt lat="45.90916" lon="6.50841">
        <ele>2462.1</ele>
        <time>2015-03-24T10:57:36Z</time>
      </trkpt>
      <trkpt lat="45.90916" lon="6.50841">
        <ele>2462.1</ele>
        <time>2015-03-24T10:59:20Z</time>
      </trkpt>
      <trkpt lat="45.90916" lon="6.50841">
        <ele>2462.1</ele>
        <time>2015-03-24T10:59:21Z</time>
      </trkpt>
      <trkpt lat="45.90919" lon="6.5084">
        <ele>2462.9</ele>
        <time>2015-03-24T10:59:22Z</time>
      </trkpt>
      <trkpt lat="45.90922" lon="6.50841">
        <ele>2463.9</ele>
        <time>2015-03-24T10:59:23Z</time>
      </trkpt>
      <trkpt lat="45.90925" lon="6.50838">
        <ele>2464.4</ele>
        <time>2015-03-24T10:59:24Z</time>
      </trkpt>
      <trkpt lat="45.90928" lon="6.50839">
        <ele>2465.3</ele>
        <time>2015-03-24T10:59:25Z</time>
      </trkpt>
      <trkpt lat="45.90931" lon="6.50838">
        <ele>2466.1</ele>
        <time>2015-03-24T10:59:26Z</time>
      </trkpt>
      <trkpt lat="45.90934" lon="6.50833">
        <ele>2466.5</ele>
        <time>2015-03-24T10:59:27Z</time>
      </trkpt>
      <trkpt lat="45.90938" lon="6.50833">
        <ele>2467.6</ele>
        <time>2015-03-24T10:59:28Z</time>
      </trkpt>
      <trkpt lat="45.90942" lon="6.50833">
        <ele>2468.9</ele>
        <time>2015-03-24T10:59:29Z</time>
      </trkpt>
      <trkpt lat="45.90946" lon="6.50832">
        <ele>2470</ele>
        <time>2015-03-24T10:59:30Z</time>
      </trkpt>
      <trkpt lat="45.9095" lon="6.50828">
        <ele>2470.6</ele>
        <time>2015-03-24T10:59:33Z</time>
      </trkpt>
      <trkpt lat="45.9095" lon="6.50824">
        <ele>2470.4</ele>
        <time>2015-03-24T10:59:36Z</time>
      </trkpt>
      <trkpt lat="45.90951" lon="6.5082">
        <ele>2470.4</ele>
        <time>2015-03-24T10:59:39Z</time>
      </trkpt>
      <trkpt lat="45.90954" lon="6.50819">
        <ele>2471.4</ele>
        <time>2015-03-24T10:59:41Z</time>
      </trkpt>
      <trkpt lat="45.90959" lon="6.50827">
        <ele>2472.9</ele>
        <time>2015-03-24T10:59:42Z</time>
      </trkpt>
      <trkpt lat="45.90961" lon="6.50831">
        <ele>2472</ele>
        <time>2015-03-24T10:59:43Z</time>
      </trkpt>
      <trkpt lat="45.90964" lon="6.50834">
        <ele>2470.9</ele>
        <time>2015-03-24T10:59:44Z</time>
      </trkpt>
      <trkpt lat="45.90966" lon="6.50838">
        <ele>2469.7</ele>
        <time>2015-03-24T10:59:45Z</time>
      </trkpt>
      <trkpt lat="45.90969" lon="6.50842">
        <ele>2468.9</ele>
        <time>2015-03-24T10:59:46Z</time>
      </trkpt>
      <trkpt lat="45.90971" lon="6.50846">
        <ele>2467.9</ele>
        <time>2015-03-24T10:59:47Z</time>
      </trkpt>
      <trkpt lat="45.90974" lon="6.5085">
        <ele>2467</ele>
        <time>2015-03-24T10:59:48Z</time>
      </trkpt>
      <trkpt lat="45.90976" lon="6.50855">
        <ele>2466.3</ele>
        <time>2015-03-24T10:59:49Z</time>
      </trkpt>
      <trkpt lat="45.90979" lon="6.50858">
        <ele>2465.2</ele>
        <time>2015-03-24T10:59:50Z</time>
      </trkpt>
      <trkpt lat="45.90981" lon="6.50865">
        <ele>2465.1</ele>
        <time>2015-03-24T10:59:51Z</time>
      </trkpt>
      <trkpt lat="45.90982" lon="6.50869">
        <ele>2464.7</ele>
        <time>2015-03-24T10:59:52Z</time>
      </trkpt>
      <trkpt lat="45.90985" lon="6.50867">
        <ele>2463.4</ele>
        <time>2015-03-24T10:59:53Z</time>
      </trkpt>
      <trkpt lat="45.90987" lon="6.50864">
        <ele>2462.1</ele>
        <time>2015-03-24T10:59:54Z</time>
      </trkpt>
      <trkpt lat="45.9099" lon="6.50862">
        <ele>2460.6</ele>
        <time>2015-03-24T10:59:55Z</time>
      </trkpt>
      <trkpt lat="45.90993" lon="6.50863">
        <ele>2459.3</ele>
        <time>2015-03-24T10:59:56Z</time>
      </trkpt>
      <trkpt lat="45.90997" lon="6.50862">
        <ele>2457.2</ele>
        <time>2015-03-24T10:59:58Z</time>
      </trkpt>
      <trkpt lat="45.91004" lon="6.50863">
        <ele>2454</ele>
        <time>2015-03-24T11:00:00Z</time>
      </trkpt>
      <trkpt lat="45.91008" lon="6.50864">
        <ele>2452.3</ele>
        <time>2015-03-24T11:00:01Z</time>
      </trkpt>
      <trkpt lat="45.91013" lon="6.50861">
        <ele>2449.9</ele>
        <time>2015-03-24T11:00:02Z</time>
      </trkpt>
      <trkpt lat="45.91017" lon="6.50861">
        <ele>2447.8</ele>
        <time>2015-03-24T11:00:03Z</time>
      </trkpt>
      <trkpt lat="45.91021" lon="6.5086">
        <ele>2445.9</ele>
        <time>2015-03-24T11:00:04Z</time>
      </trkpt>
      <trkpt lat="45.91017" lon="6.50863">
        <ele>2448.1</ele>
        <time>2015-03-24T11:00:05Z</time>
      </trkpt>
      <trkpt lat="45.9102" lon="6.50862">
        <ele>2446.7</ele>
        <time>2015-03-24T11:00:06Z</time>
      </trkpt>
      <trkpt lat="45.91022" lon="6.50861">
        <ele>2445.3</ele>
        <time>2015-03-24T11:00:07Z</time>
      </trkpt>
      <trkpt lat="45.91025" lon="6.50865">
        <ele>2444.9</ele>
        <time>2015-03-24T11:00:08Z</time>
      </trkpt>
      <trkpt lat="45.91029" lon="6.50863">
        <ele>2442.5</ele>
        <time>2015-03-24T11:00:10Z</time>
      </trkpt>
      <trkpt lat="45.91028" lon="6.50871">
        <ele>2444.2</ele>
        <time>2015-03-24T11:00:13Z</time>
      </trkpt>
      <trkpt lat="45.9103" lon="6.50877">
        <ele>2444.5</ele>
        <time>2015-03-24T11:00:14Z</time>
      </trkpt>
      <trkpt lat="45.9103" lon="6.50883">
        <ele>2445.1</ele>
        <time>2015-03-24T11:00:15Z</time>
      </trkpt>
      <trkpt lat="45.9103" lon="6.50889">
        <ele>2445.7</ele>
        <time>2015-03-24T11:00:16Z</time>
      </trkpt>
      <trkpt lat="45.91032" lon="6.50894">
        <ele>2445.8</ele>
        <time>2015-03-24T11:00:17Z</time>
      </trkpt>
      <trkpt lat="45.91033" lon="6.509">
        <ele>2445.8</ele>
        <time>2015-03-24T11:00:18Z</time>
      </trkpt>
      <trkpt lat="45.91035" lon="6.50907">
        <ele>2445.6</ele>
        <time>2015-03-24T11:00:19Z</time>
      </trkpt>
      <trkpt lat="45.91038" lon="6.50915">
        <ele>2445.3</ele>
        <time>2015-03-24T11:00:20Z</time>
      </trkpt>
      <trkpt lat="45.91042" lon="6.50916">
        <ele>2443.3</ele>
        <time>2015-03-24T11:00:21Z</time>
      </trkpt>
      <trkpt lat="45.91045" lon="6.50917">
        <ele>2441.3</ele>
        <time>2015-03-24T11:00:22Z</time>
      </trkpt>
      <trkpt lat="45.9105" lon="6.50918">
        <ele>2438</ele>
        <time>2015-03-24T11:00:23Z</time>
      </trkpt>
      <trkpt lat="45.91054" lon="6.50919">
        <ele>2435.1</ele>
        <time>2015-03-24T11:00:24Z</time>
      </trkpt>
      <trkpt lat="45.91059" lon="6.50922">
        <ele>2432.1</ele>
        <time>2015-03-24T11:00:25Z</time>
      </trkpt>
      <trkpt lat="45.9106" lon="6.50927">
        <ele>2432</ele>
        <time>2015-03-24T11:00:26Z</time>
      </trkpt>
      <trkpt lat="45.91061" lon="6.50931">
        <ele>2431.6</ele>
        <time>2015-03-24T11:00:28Z</time>
      </trkpt>
      <trkpt lat="45.91067" lon="6.50932">
        <ele>2427.4</ele>
        <time>2015-03-24T11:00:30Z</time>
      </trkpt>
      <trkpt lat="45.91069" lon="6.50927">
        <ele>2425.5</ele>
        <time>2015-03-24T11:00:31Z</time>
      </trkpt>
      <trkpt lat="45.91072" lon="6.50927">
        <ele>2423.4</ele>
        <time>2015-03-24T11:00:32Z</time>
      </trkpt>
      <trkpt lat="45.91073" lon="6.50922">
        <ele>2422.3</ele>
        <time>2015-03-24T11:00:33Z</time>
      </trkpt>
      <trkpt lat="45.91075" lon="6.50916">
        <ele>2420</ele>
        <time>2015-03-24T11:00:35Z</time>
      </trkpt>
      <trkpt lat="45.9108" lon="6.50916">
        <ele>2416.6</ele>
        <time>2015-03-24T11:00:37Z</time>
      </trkpt>
      <trkpt lat="45.91084" lon="6.5091">
        <ele>2412.7</ele>
        <time>2015-03-24T11:00:39Z</time>
      </trkpt>
      <trkpt lat="45.91087" lon="6.50908">
        <ele>2410.7</ele>
        <time>2015-03-24T11:00:40Z</time>
      </trkpt>
      <trkpt lat="45.9109" lon="6.50908">
        <ele>2408.1</ele>
        <time>2015-03-24T11:00:43Z</time>
      </trkpt>
      <trkpt lat="45.91095" lon="6.50909">
        <ele>2404.7</ele>
        <time>2015-03-24T11:00:45Z</time>
      </trkpt>
      <trkpt lat="45.91098" lon="6.50907">
        <ele>2402.8</ele>
        <time>2015-03-24T11:00:46Z</time>
      </trkpt>
      <trkpt lat="45.91095" lon="6.50906">
        <ele>2404.8</ele>
        <time>2015-03-24T11:00:47Z</time>
      </trkpt>
      <trkpt lat="45.91098" lon="6.50914">
        <ele>2403.5</ele>
        <time>2015-03-24T11:00:49Z</time>
      </trkpt>
      <trkpt lat="45.91101" lon="6.50918">
        <ele>2402</ele>
        <time>2015-03-24T11:00:51Z</time>
      </trkpt>
      <trkpt lat="45.91104" lon="6.50919">
        <ele>2399.7</ele>
        <time>2015-03-24T11:00:53Z</time>
      </trkpt>
      <trkpt lat="45.91109" lon="6.50917">
        <ele>2396</ele>
        <time>2015-03-24T11:00:55Z</time>
      </trkpt>
      <trkpt lat="45.91109" lon="6.50911">
        <ele>2395.2</ele>
        <time>2015-03-24T11:00:56Z</time>
      </trkpt>
      <trkpt lat="45.91111" lon="6.50909">
        <ele>2393.4</ele>
        <time>2015-03-24T11:00:57Z</time>
      </trkpt>
      <trkpt lat="45.91114" lon="6.50906">
        <ele>2390.9</ele>
        <time>2015-03-24T11:00:58Z</time>
      </trkpt>
      <trkpt lat="45.91119" lon="6.50902">
        <ele>2387.1</ele>
        <time>2015-03-24T11:00:59Z</time>
      </trkpt>
      <trkpt lat="45.91123" lon="6.50895">
        <ele>2383.8</ele>
        <time>2015-03-24T11:01:01Z</time>
      </trkpt>
      <trkpt lat="45.91125" lon="6.50891">
        <ele>2381.8</ele>
        <time>2015-03-24T11:01:02Z</time>
      </trkpt>
      <trkpt lat="45.91131" lon="6.50891">
        <ele>2376.9</ele>
        <time>2015-03-24T11:01:04Z</time>
      </trkpt>
      <trkpt lat="45.91133" lon="6.50886">
        <ele>2374.7</ele>
        <time>2015-03-24T11:01:06Z</time>
      </trkpt>
      <trkpt lat="45.91132" lon="6.50891">
        <ele>2376.3</ele>
        <time>2015-03-24T11:01:07Z</time>
      </trkpt>
      <trkpt lat="45.91131" lon="6.50898">
        <ele>2377.7</ele>
        <time>2015-03-24T11:01:09Z</time>
      </trkpt>
      <trkpt lat="45.91137" lon="6.50901">
        <ele>2373.7</ele>
        <time>2015-03-24T11:01:11Z</time>
      </trkpt>
      <trkpt lat="45.9114" lon="6.50901">
        <ele>2370.8</ele>
        <time>2015-03-24T11:01:12Z</time>
      </trkpt>
      <trkpt lat="45.91144" lon="6.50896">
        <ele>2367.3</ele>
        <time>2015-03-24T11:01:13Z</time>
      </trkpt>
      <trkpt lat="45.91141" lon="6.509">
        <ele>2370</ele>
        <time>2015-03-24T11:01:14Z</time>
      </trkpt>
      <trkpt lat="45.91144" lon="6.50904">
        <ele>2368.1</ele>
        <time>2015-03-24T11:01:15Z</time>
      </trkpt>
      <trkpt lat="45.91145" lon="6.50909">
        <ele>2367.7</ele>
        <time>2015-03-24T11:01:17Z</time>
      </trkpt>
      <trkpt lat="45.91149" lon="6.5091">
        <ele>2364.7</ele>
        <time>2015-03-24T11:01:19Z</time>
      </trkpt>
      <trkpt lat="45.91155" lon="6.5091">
        <ele>2359.8</ele>
        <time>2015-03-24T11:01:21Z</time>
      </trkpt>
      <trkpt lat="45.9116" lon="6.50907">
        <ele>2355.7</ele>
        <time>2015-03-24T11:01:23Z</time>
      </trkpt>
      <trkpt lat="45.91164" lon="6.50902">
        <ele>2352</ele>
        <time>2015-03-24T11:01:25Z</time>
      </trkpt>
      <trkpt lat="45.91167" lon="6.50901">
        <ele>2349.7</ele>
        <time>2015-03-24T11:01:26Z</time>
      </trkpt>
      <trkpt lat="45.9117" lon="6.50899">
        <ele>2347.1</ele>
        <time>2015-03-24T11:01:27Z</time>
      </trkpt>
      <trkpt lat="45.91172" lon="6.50893">
        <ele>2345.1</ele>
        <time>2015-03-24T11:01:28Z</time>
      </trkpt>
      <trkpt lat="45.91174" lon="6.509">
        <ele>2343.9</ele>
        <time>2015-03-24T11:01:31Z</time>
      </trkpt>
      <trkpt lat="45.91172" lon="6.50904">
        <ele>2345.8</ele>
        <time>2015-03-24T11:01:32Z</time>
      </trkpt>
      <trkpt lat="45.91175" lon="6.50912">
        <ele>2344.8</ele>
        <time>2015-03-24T11:01:34Z</time>
      </trkpt>
      <trkpt lat="45.91176" lon="6.50916">
        <ele>2344.5</ele>
        <time>2015-03-24T11:01:35Z</time>
      </trkpt>
      <trkpt lat="45.91177" lon="6.50924">
        <ele>2344.2</ele>
        <time>2015-03-24T11:01:37Z</time>
      </trkpt>
      <trkpt lat="45.91179" lon="6.50927">
        <ele>2343</ele>
        <time>2015-03-24T11:01:38Z</time>
      </trkpt>
      <trkpt lat="45.91182" lon="6.50936">
        <ele>2341.9</ele>
        <time>2015-03-24T11:01:39Z</time>
      </trkpt>
      <trkpt lat="45.91185" lon="6.50944">
        <ele>2340.6</ele>
        <time>2015-03-24T11:01:40Z</time>
      </trkpt>
      <trkpt lat="45.91189" lon="6.50951">
        <ele>2338.6</ele>
        <time>2015-03-24T11:01:41Z</time>
      </trkpt>
      <trkpt lat="45.91193" lon="6.50959">
        <ele>2335.8</ele>
        <time>2015-03-24T11:01:42Z</time>
      </trkpt>
      <trkpt lat="45.91198" lon="6.50967">
        <ele>2333</ele>
        <time>2015-03-24T11:01:43Z</time>
      </trkpt>
      <trkpt lat="45.91202" lon="6.50973">
        <ele>2330.9</ele>
        <time>2015-03-24T11:01:44Z</time>
      </trkpt>
      <trkpt lat="45.91206" lon="6.50978">
        <ele>2328.4</ele>
        <time>2015-03-24T11:01:45Z</time>
      </trkpt>
      <trkpt lat="45.91208" lon="6.50983">
        <ele>2326.6</ele>
        <time>2015-03-24T11:01:46Z</time>
      </trkpt>
      <trkpt lat="45.91211" lon="6.50989">
        <ele>2325.5</ele>
        <time>2015-03-24T11:01:47Z</time>
      </trkpt>
      <trkpt lat="45.91213" lon="6.50995">
        <ele>2325.1</ele>
        <time>2015-03-24T11:01:48Z</time>
      </trkpt>
      <trkpt lat="45.91215" lon="6.51002">
        <ele>2324.4</ele>
        <time>2015-03-24T11:01:49Z</time>
      </trkpt>
      <trkpt lat="45.91218" lon="6.51004">
        <ele>2323.3</ele>
        <time>2015-03-24T11:01:50Z</time>
      </trkpt>
      <trkpt lat="45.91221" lon="6.51001">
        <ele>2321.1</ele>
        <time>2015-03-24T11:01:51Z</time>
      </trkpt>
      <trkpt lat="45.91224" lon="6.51002">
        <ele>2319.4</ele>
        <time>2015-03-24T11:01:52Z</time>
      </trkpt>
      <trkpt lat="45.91227" lon="6.51002">
        <ele>2317.4</ele>
        <time>2015-03-24T11:01:53Z</time>
      </trkpt>
      <trkpt lat="45.91231" lon="6.50999">
        <ele>2314.4</ele>
        <time>2015-03-24T11:01:54Z</time>
      </trkpt>
      <trkpt lat="45.91237" lon="6.50996">
        <ele>2310.3</ele>
        <time>2015-03-24T11:01:55Z</time>
      </trkpt>
      <trkpt lat="45.91239" lon="6.51">
        <ele>2310</ele>
        <time>2015-03-24T11:01:56Z</time>
      </trkpt>
      <trkpt lat="45.91243" lon="6.51001">
        <ele>2307.7</ele>
        <time>2015-03-24T11:01:57Z</time>
      </trkpt>
      <trkpt lat="45.91246" lon="6.51002">
        <ele>2305.5</ele>
        <time>2015-03-24T11:01:58Z</time>
      </trkpt>
      <trkpt lat="45.91251" lon="6.51003">
        <ele>2303.1</ele>
        <time>2015-03-24T11:01:59Z</time>
      </trkpt>
      <trkpt lat="45.91254" lon="6.51004">
        <ele>2300.8</ele>
        <time>2015-03-24T11:02:00Z</time>
      </trkpt>
      <trkpt lat="45.91258" lon="6.51001">
        <ele>2298</ele>
        <time>2015-03-24T11:02:01Z</time>
      </trkpt>
      <trkpt lat="45.91264" lon="6.51002">
        <ele>2294.6</ele>
        <time>2015-03-24T11:02:02Z</time>
      </trkpt>
      <trkpt lat="45.91269" lon="6.51001">
        <ele>2291.8</ele>
        <time>2015-03-24T11:02:03Z</time>
      </trkpt>
      <trkpt lat="45.91274" lon="6.50999">
        <ele>2288.4</ele>
        <time>2015-03-24T11:02:04Z</time>
      </trkpt>
      <trkpt lat="45.91277" lon="6.50996">
        <ele>2285.9</ele>
        <time>2015-03-24T11:02:05Z</time>
      </trkpt>
      <trkpt lat="45.91281" lon="6.50993">
        <ele>2282.9</ele>
        <time>2015-03-24T11:02:06Z</time>
      </trkpt>
      <trkpt lat="45.91288" lon="6.5099">
        <ele>2278.4</ele>
        <time>2015-03-24T11:02:08Z</time>
      </trkpt>
      <trkpt lat="45.91292" lon="6.50987">
        <ele>2275.8</ele>
        <time>2015-03-24T11:02:09Z</time>
      </trkpt>
      <trkpt lat="45.91296" lon="6.50984">
        <ele>2273.5</ele>
        <time>2015-03-24T11:02:10Z</time>
      </trkpt>
      <trkpt lat="45.91296" lon="6.50979">
        <ele>2273.2</ele>
        <time>2015-03-24T11:02:11Z</time>
      </trkpt>
      <trkpt lat="45.913" lon="6.50975">
        <ele>2270.8</ele>
        <time>2015-03-24T11:02:12Z</time>
      </trkpt>
      <trkpt lat="45.91303" lon="6.50972">
        <ele>2269.2</ele>
        <time>2015-03-24T11:02:13Z</time>
      </trkpt>
      <trkpt lat="45.91308" lon="6.50969">
        <ele>2266.5</ele>
        <time>2015-03-24T11:02:14Z</time>
      </trkpt>
      <trkpt lat="45.91296" lon="6.5097">
        <ele>2271.5</ele>
        <time>2015-03-24T11:02:15Z</time>
      </trkpt>
      <trkpt lat="45.91302" lon="6.50979">
        <ele>2270.7</ele>
        <time>2015-03-24T11:02:17Z</time>
      </trkpt>
      <trkpt lat="45.91308" lon="6.50982">
        <ele>2268.6</ele>
        <time>2015-03-24T11:02:18Z</time>
      </trkpt>
      <trkpt lat="45.91311" lon="6.50988">
        <ele>2268.3</ele>
        <time>2015-03-24T11:02:19Z</time>
      </trkpt>
      <trkpt lat="45.9132" lon="6.50995">
        <ele>2265.5</ele>
        <time>2015-03-24T11:02:20Z</time>
      </trkpt>
      <trkpt lat="45.9133" lon="6.51003">
        <ele>2262.9</ele>
        <time>2015-03-24T11:02:21Z</time>
      </trkpt>
      <trkpt lat="45.91338" lon="6.5101">
        <ele>2260.6</ele>
        <time>2015-03-24T11:02:22Z</time>
      </trkpt>
      <trkpt lat="45.91344" lon="6.51017">
        <ele>2259.4</ele>
        <time>2015-03-24T11:02:23Z</time>
      </trkpt>
      <trkpt lat="45.91353" lon="6.51022">
        <ele>2257.1</ele>
        <time>2015-03-24T11:02:24Z</time>
      </trkpt>
      <trkpt lat="45.91361" lon="6.51025">
        <ele>2254.4</ele>
        <time>2015-03-24T11:02:25Z</time>
      </trkpt>
      <trkpt lat="45.91368" lon="6.51028">
        <ele>2252.1</ele>
        <time>2015-03-24T11:02:26Z</time>
      </trkpt>
      <trkpt lat="45.91375" lon="6.51027">
        <ele>2249.3</ele>
        <time>2015-03-24T11:02:27Z</time>
      </trkpt>
      <trkpt lat="45.9138" lon="6.51025">
        <ele>2249.5</ele>
        <time>2015-03-24T11:02:28Z</time>
      </trkpt>
      <trkpt lat="45.91384" lon="6.51022">
        <ele>2249.4</ele>
        <time>2015-03-24T11:02:29Z</time>
      </trkpt>
      <trkpt lat="45.91386" lon="6.51017">
        <ele>2248.5</ele>
        <time>2015-03-24T11:02:32Z</time>
      </trkpt>
      <trkpt lat="45.91383" lon="6.51016">
        <ele>2248.1</ele>
        <time>2015-03-24T11:02:33Z</time>
      </trkpt>
      <trkpt lat="45.91376" lon="6.51014">
        <ele>2247.2</ele>
        <time>2015-03-24T11:02:34Z</time>
      </trkpt>
      <trkpt lat="45.9137" lon="6.51018">
        <ele>2249.7</ele>
        <time>2015-03-24T11:02:35Z</time>
      </trkpt>
      <trkpt lat="45.91362" lon="6.51018">
        <ele>2252.6</ele>
        <time>2015-03-24T11:02:36Z</time>
      </trkpt>
      <trkpt lat="45.91359" lon="6.51018">
        <ele>2253.8</ele>
        <time>2015-03-24T11:02:37Z</time>
      </trkpt>
      <trkpt lat="45.91363" lon="6.51015">
        <ele>2251.7</ele>
        <time>2015-03-24T11:02:44Z</time>
      </trkpt>
      <trkpt lat="45.91366" lon="6.51013">
        <ele>2250.4</ele>
        <time>2015-03-24T11:02:49Z</time>
      </trkpt>
      <trkpt lat="45.91366" lon="6.51017">
        <ele>2251</ele>
        <time>2015-03-24T11:03:17Z</time>
      </trkpt>
      <trkpt lat="45.91364" lon="6.51019">
        <ele>2252.3</ele>
        <time>2015-03-24T11:03:23Z</time>
      </trkpt>
      <trkpt lat="45.91363" lon="6.51024">
        <ele>2253.5</ele>
        <time>2015-03-24T11:03:24Z</time>
      </trkpt>
      <trkpt lat="45.9136" lon="6.51029">
        <ele>2255.3</ele>
        <time>2015-03-24T11:03:25Z</time>
      </trkpt>
      <trkpt lat="45.91359" lon="6.51032">
        <ele>2256.5</ele>
        <time>2015-03-24T11:03:33Z</time>
      </trkpt>
      <trkpt lat="45.91361" lon="6.51031">
        <ele>2255.3</ele>
        <time>2015-03-24T11:05:04Z</time>
      </trkpt>
      <trkpt lat="45.91363" lon="6.51029">
        <ele>2254.1</ele>
        <time>2015-03-24T11:05:17Z</time>
      </trkpt>
      <trkpt lat="45.91365" lon="6.51024">
        <ele>2252.7</ele>
        <time>2015-03-24T11:05:20Z</time>
      </trkpt>
      <trkpt lat="45.91364" lon="6.51029">
        <ele>2253.7</ele>
        <time>2015-03-24T11:07:28Z</time>
      </trkpt>
      <trkpt lat="45.91368" lon="6.51026">
        <ele>2252.1</ele>
        <time>2015-03-24T11:07:37Z</time>
      </trkpt>
      <trkpt lat="45.9137" lon="6.51024">
        <ele>2250.6</ele>
        <time>2015-03-24T11:07:39Z</time>
      </trkpt>
      <trkpt lat="45.91373" lon="6.51022">
        <ele>2249.3</ele>
        <time>2015-03-24T11:07:43Z</time>
      </trkpt>
      <trkpt lat="45.91376" lon="6.51021">
        <ele>2248.4</ele>
        <time>2015-03-24T11:07:47Z</time>
      </trkpt>
      <trkpt lat="45.9138" lon="6.51021">
        <ele>2248.7</ele>
        <time>2015-03-24T11:07:53Z</time>
      </trkpt>
      <trkpt lat="45.91384" lon="6.5102">
        <ele>2249</ele>
        <time>2015-03-24T11:07:58Z</time>
      </trkpt>
      <trkpt lat="45.91389" lon="6.51019">
        <ele>2249.1</ele>
        <time>2015-03-24T11:08:02Z</time>
      </trkpt>
      <trkpt lat="45.91391" lon="6.51018">
        <ele>2249.2</ele>
        <time>2015-03-24T11:08:11Z</time>
      </trkpt>
      <trkpt lat="45.91394" lon="6.51017">
        <ele>2249.2</ele>
        <time>2015-03-24T11:08:17Z</time>
      </trkpt>
      <trkpt lat="45.91397" lon="6.51017">
        <ele>2249.6</ele>
        <time>2015-03-24T11:08:25Z</time>
      </trkpt>
      <trkpt lat="45.914" lon="6.51017">
        <ele>2249.8</ele>
        <time>2015-03-24T11:08:31Z</time>
      </trkpt>
      <trkpt lat="45.91403" lon="6.51016">
        <ele>2249.8</ele>
        <time>2015-03-24T11:08:37Z</time>
      </trkpt>
      <trkpt lat="45.91406" lon="6.51016">
        <ele>2250.1</ele>
        <time>2015-03-24T11:08:40Z</time>
      </trkpt>
      <trkpt lat="45.9141" lon="6.51016">
        <ele>2250.4</ele>
        <time>2015-03-24T11:08:48Z</time>
      </trkpt>
      <trkpt lat="45.91413" lon="6.51015">
        <ele>2250.6</ele>
        <time>2015-03-24T11:08:52Z</time>
      </trkpt>
      <trkpt lat="45.91416" lon="6.51015">
        <ele>2250.7</ele>
        <time>2015-03-24T11:09:00Z</time>
      </trkpt>
      <trkpt lat="45.91418" lon="6.51015">
        <ele>2251</ele>
        <time>2015-03-24T11:09:07Z</time>
      </trkpt>
      <trkpt lat="45.91421" lon="6.51014">
        <ele>2251.1</ele>
        <time>2015-03-24T11:09:12Z</time>
      </trkpt>
      <trkpt lat="45.91425" lon="6.51013">
        <ele>2251.1</ele>
        <time>2015-03-24T11:09:15Z</time>
      </trkpt>
      <trkpt lat="45.91428" lon="6.51012">
        <ele>2251.4</ele>
        <time>2015-03-24T11:09:20Z</time>
      </trkpt>
      <trkpt lat="45.91431" lon="6.51013">
        <ele>2251.7</ele>
        <time>2015-03-24T11:09:28Z</time>
      </trkpt>
      <trkpt lat="45.91435" lon="6.51012">
        <ele>2251.7</ele>
        <time>2015-03-24T11:09:32Z</time>
      </trkpt>
      <trkpt lat="45.91438" lon="6.5101">
        <ele>2251.7</ele>
        <time>2015-03-24T11:09:37Z</time>
      </trkpt>
      <trkpt lat="45.91441" lon="6.5101">
        <ele>2251.9</ele>
        <time>2015-03-24T11:09:40Z</time>
      </trkpt>
      <trkpt lat="45.91445" lon="6.5101">
        <ele>2252.4</ele>
        <time>2015-03-24T11:09:46Z</time>
      </trkpt>
      <trkpt lat="45.91448" lon="6.51009">
        <ele>2252.4</ele>
        <time>2015-03-24T11:09:52Z</time>
      </trkpt>
      <trkpt lat="45.91452" lon="6.51009">
        <ele>2252.5</ele>
        <time>2015-03-24T11:09:56Z</time>
      </trkpt>
      <trkpt lat="45.91451" lon="6.51013">
        <ele>2253.6</ele>
        <time>2015-03-24T11:10:06Z</time>
      </trkpt>
      <trkpt lat="45.91449" lon="6.51016">
        <ele>2254</ele>
        <time>2015-03-24T11:10:09Z</time>
      </trkpt>
      <trkpt lat="45.91448" lon="6.5102">
        <ele>2254.8</ele>
        <time>2015-03-24T11:10:12Z</time>
      </trkpt>
      <trkpt lat="45.91447" lon="6.51024">
        <ele>2255.7</ele>
        <time>2015-03-24T11:10:15Z</time>
      </trkpt>
      <trkpt lat="45.91446" lon="6.51029">
        <ele>2256.8</ele>
        <time>2015-03-24T11:10:19Z</time>
      </trkpt>
      <trkpt lat="45.91444" lon="6.51032">
        <ele>2257.3</ele>
        <time>2015-03-24T11:10:24Z</time>
      </trkpt>
      <trkpt lat="45.91443" lon="6.51039">
        <ele>2258.8</ele>
        <time>2015-03-24T11:10:28Z</time>
      </trkpt>
      <trkpt lat="45.91442" lon="6.51043">
        <ele>2259.5</ele>
        <time>2015-03-24T11:10:30Z</time>
      </trkpt>
      <trkpt lat="45.9144" lon="6.51046">
        <ele>2260.3</ele>
        <time>2015-03-24T11:10:35Z</time>
      </trkpt>
      <trkpt lat="45.91439" lon="6.51051">
        <ele>2261.6</ele>
        <time>2015-03-24T11:10:40Z</time>
      </trkpt>
      <trkpt lat="45.91437" lon="6.51055">
        <ele>2262.8</ele>
        <time>2015-03-24T11:10:44Z</time>
      </trkpt>
      <trkpt lat="45.91436" lon="6.5106">
        <ele>2264.1</ele>
        <time>2015-03-24T11:10:51Z</time>
      </trkpt>
      <trkpt lat="45.91435" lon="6.51063">
        <ele>2264.9</ele>
        <time>2015-03-24T11:10:56Z</time>
      </trkpt>
      <trkpt lat="45.91433" lon="6.51067">
        <ele>2266</ele>
        <time>2015-03-24T11:11:03Z</time>
      </trkpt>
      <trkpt lat="45.91433" lon="6.51073">
        <ele>2267.6</ele>
        <time>2015-03-24T11:11:13Z</time>
      </trkpt>
      <trkpt lat="45.91431" lon="6.51077">
        <ele>2268.6</ele>
        <time>2015-03-24T11:11:28Z</time>
      </trkpt>
      <trkpt lat="45.9143" lon="6.51081">
        <ele>2269.6</ele>
        <time>2015-03-24T11:11:33Z</time>
      </trkpt>
      <trkpt lat="45.91428" lon="6.51085">
        <ele>2270.5</ele>
        <time>2015-03-24T11:11:37Z</time>
      </trkpt>
      <trkpt lat="45.91426" lon="6.51088">
        <ele>2271.2</ele>
        <time>2015-03-24T11:11:42Z</time>
      </trkpt>
      <trkpt lat="45.91424" lon="6.51092">
        <ele>2272</ele>
        <time>2015-03-24T11:11:48Z</time>
      </trkpt>
      <trkpt lat="45.91422" lon="6.51096">
        <ele>2273</ele>
        <time>2015-03-24T11:11:52Z</time>
      </trkpt>
      <trkpt lat="45.91421" lon="6.511">
        <ele>2274</ele>
        <time>2015-03-24T11:11:57Z</time>
      </trkpt>
      <trkpt lat="45.91421" lon="6.51104">
        <ele>2275.2</ele>
        <time>2015-03-24T11:12:02Z</time>
      </trkpt>
      <trkpt lat="45.91424" lon="6.51102">
        <ele>2275.1</ele>
        <time>2015-03-24T11:12:06Z</time>
      </trkpt>
      <trkpt lat="45.91426" lon="6.511">
        <ele>2274.7</ele>
        <time>2015-03-24T11:12:10Z</time>
      </trkpt>
      <trkpt lat="45.91429" lon="6.51098">
        <ele>2274.6</ele>
        <time>2015-03-24T11:12:13Z</time>
      </trkpt>
      <trkpt lat="45.91432" lon="6.51098">
        <ele>2275.3</ele>
        <time>2015-03-24T11:12:17Z</time>
      </trkpt>
      <trkpt lat="45.91435" lon="6.51097">
        <ele>2275.4</ele>
        <time>2015-03-24T11:12:19Z</time>
      </trkpt>
      <trkpt lat="45.91437" lon="6.51096">
        <ele>2275.5</ele>
        <time>2015-03-24T11:12:23Z</time>
      </trkpt>
      <trkpt lat="45.9144" lon="6.51095">
        <ele>2275.6</ele>
        <time>2015-03-24T11:12:28Z</time>
      </trkpt>
      <trkpt lat="45.91444" lon="6.51094">
        <ele>2275.9</ele>
        <time>2015-03-24T11:12:37Z</time>
      </trkpt>
      <trkpt lat="45.91447" lon="6.51095">
        <ele>2276.6</ele>
        <time>2015-03-24T11:12:43Z</time>
      </trkpt>
      <trkpt lat="45.9145" lon="6.51095">
        <ele>2276.9</ele>
        <time>2015-03-24T11:12:48Z</time>
      </trkpt>
      <trkpt lat="45.91453" lon="6.51094">
        <ele>2277</ele>
        <time>2015-03-24T11:12:52Z</time>
      </trkpt>
      <trkpt lat="45.91457" lon="6.51094">
        <ele>2277.8</ele>
        <time>2015-03-24T11:12:58Z</time>
      </trkpt>
      <trkpt lat="45.91459" lon="6.51096">
        <ele>2278.8</ele>
        <time>2015-03-24T11:13:03Z</time>
      </trkpt>
      <trkpt lat="45.91462" lon="6.51096">
        <ele>2280</ele>
        <time>2015-03-24T11:13:11Z</time>
      </trkpt>
      <trkpt lat="45.91465" lon="6.51097">
        <ele>2281.2</ele>
        <time>2015-03-24T11:13:18Z</time>
      </trkpt>
      <trkpt lat="45.91468" lon="6.51096">
        <ele>2281.8</ele>
        <time>2015-03-24T11:13:23Z</time>
      </trkpt>
      <trkpt lat="45.91471" lon="6.51097">
        <ele>2283.1</ele>
        <time>2015-03-24T11:13:27Z</time>
      </trkpt>
      <trkpt lat="45.91474" lon="6.51097">
        <ele>2283.9</ele>
        <time>2015-03-24T11:13:29Z</time>
      </trkpt>
      <trkpt lat="45.91477" lon="6.51097">
        <ele>2285</ele>
        <time>2015-03-24T11:13:36Z</time>
      </trkpt>
      <trkpt lat="45.9148" lon="6.51097">
        <ele>2286.2</ele>
        <time>2015-03-24T11:13:44Z</time>
      </trkpt>
      <trkpt lat="45.91479" lon="6.51102">
        <ele>2287.4</ele>
        <time>2015-03-24T11:13:51Z</time>
      </trkpt>
      <trkpt lat="45.91477" lon="6.51106">
        <ele>2288.3</ele>
        <time>2015-03-24T11:13:55Z</time>
      </trkpt>
      <trkpt lat="45.91476" lon="6.5111">
        <ele>2289.4</ele>
        <time>2015-03-24T11:14:02Z</time>
      </trkpt>
      <trkpt lat="45.91473" lon="6.51113">
        <ele>2289.3</ele>
        <time>2015-03-24T11:14:06Z</time>
      </trkpt>
      <trkpt lat="45.91471" lon="6.51115">
        <ele>2289.1</ele>
        <time>2015-03-24T11:14:09Z</time>
      </trkpt>
      <trkpt lat="45.91475" lon="6.51116">
        <ele>2291</ele>
        <time>2015-03-24T11:14:10Z</time>
      </trkpt>
      <trkpt lat="45.91472" lon="6.51118">
        <ele>2290.6</ele>
        <time>2015-03-24T11:14:13Z</time>
      </trkpt>
      <trkpt lat="45.91469" lon="6.5112">
        <ele>2290.4</ele>
        <time>2015-03-24T11:14:16Z</time>
      </trkpt>
      <trkpt lat="45.91466" lon="6.51122">
        <ele>2289.8</ele>
        <time>2015-03-24T11:14:23Z</time>
      </trkpt>
      <trkpt lat="45.91464" lon="6.51124">
        <ele>2289.7</ele>
        <time>2015-03-24T11:14:26Z</time>
      </trkpt>
      <trkpt lat="45.91461" lon="6.51127">
        <ele>2289.6</ele>
        <time>2015-03-24T11:14:30Z</time>
      </trkpt>
      <trkpt lat="45.91462" lon="6.5113">
        <ele>2291.6</ele>
        <time>2015-03-24T11:14:33Z</time>
      </trkpt>
      <trkpt lat="45.9146" lon="6.51133">
        <ele>2292</ele>
        <time>2015-03-24T11:14:37Z</time>
      </trkpt>
      <trkpt lat="45.91458" lon="6.51136">
        <ele>2292.3</ele>
        <time>2015-03-24T11:14:42Z</time>
      </trkpt>
      <trkpt lat="45.91456" lon="6.51139">
        <ele>2293.3</ele>
        <time>2015-03-24T11:14:47Z</time>
      </trkpt>
      <trkpt lat="45.91455" lon="6.51144">
        <ele>2295.1</ele>
        <time>2015-03-24T11:14:53Z</time>
      </trkpt>
      <trkpt lat="45.91452" lon="6.51147">
        <ele>2295.9</ele>
        <time>2015-03-24T11:14:58Z</time>
      </trkpt>
      <trkpt lat="45.91455" lon="6.5115">
        <ele>2297.3</ele>
        <time>2015-03-24T11:15:04Z</time>
      </trkpt>
      <trkpt lat="45.91457" lon="6.51147">
        <ele>2296.8</ele>
        <time>2015-03-24T11:15:14Z</time>
      </trkpt>
      <trkpt lat="45.9146" lon="6.51144">
        <ele>2296.3</ele>
        <time>2015-03-24T11:15:28Z</time>
      </trkpt>
      <trkpt lat="45.91462" lon="6.51142">
        <ele>2296.5</ele>
        <time>2015-03-24T11:15:41Z</time>
      </trkpt>
      <trkpt lat="45.91466" lon="6.51142">
        <ele>2297.7</ele>
        <time>2015-03-24T11:15:47Z</time>
      </trkpt>
      <trkpt lat="45.91468" lon="6.51142">
        <ele>2298.7</ele>
        <time>2015-03-24T11:15:51Z</time>
      </trkpt>
      <trkpt lat="45.91471" lon="6.51142">
        <ele>2299.7</ele>
        <time>2015-03-24T11:15:56Z</time>
      </trkpt>
      <trkpt lat="45.91474" lon="6.51145">
        <ele>2301.8</ele>
        <time>2015-03-24T11:16:03Z</time>
      </trkpt>
      <trkpt lat="45.91475" lon="6.51148">
        <ele>2303.9</ele>
        <time>2015-03-24T11:16:09Z</time>
      </trkpt>
      <trkpt lat="45.91474" lon="6.51153">
        <ele>2305.4</ele>
        <time>2015-03-24T11:16:16Z</time>
      </trkpt>
      <trkpt lat="45.91472" lon="6.51157">
        <ele>2306.5</ele>
        <time>2015-03-24T11:16:22Z</time>
      </trkpt>
      <trkpt lat="45.91471" lon="6.51161">
        <ele>2307.9</ele>
        <time>2015-03-24T11:16:31Z</time>
      </trkpt>
      <trkpt lat="45.9147" lon="6.51165">
        <ele>2309.1</ele>
        <time>2015-03-24T11:16:35Z</time>
      </trkpt>
      <trkpt lat="45.9147" lon="6.51169">
        <ele>2310.4</ele>
        <time>2015-03-24T11:16:40Z</time>
      </trkpt>
      <trkpt lat="45.91467" lon="6.51174">
        <ele>2311.4</ele>
        <time>2015-03-24T11:16:46Z</time>
      </trkpt>
      <trkpt lat="45.91466" lon="6.51177">
        <ele>2312.3</ele>
        <time>2015-03-24T11:16:52Z</time>
      </trkpt>
      <trkpt lat="45.91464" lon="6.51181">
        <ele>2313.1</ele>
        <time>2015-03-24T11:16:58Z</time>
      </trkpt>
      <trkpt lat="45.91466" lon="6.51185">
        <ele>2315.3</ele>
        <time>2015-03-24T11:17:02Z</time>
      </trkpt>
      <trkpt lat="45.91464" lon="6.51188">
        <ele>2315.9</ele>
        <time>2015-03-24T11:17:08Z</time>
      </trkpt>
      <trkpt lat="45.91466" lon="6.51186">
        <ele>2316.3</ele>
        <time>2015-03-24T11:17:14Z</time>
      </trkpt>
      <trkpt lat="45.91469" lon="6.51185">
        <ele>2316.8</ele>
        <time>2015-03-24T11:17:17Z</time>
      </trkpt>
      <trkpt lat="45.9147" lon="6.5118">
        <ele>2315.3</ele>
        <time>2015-03-24T11:17:19Z</time>
      </trkpt>
      <trkpt lat="45.91473" lon="6.51182">
        <ele>2317.2</ele>
        <time>2015-03-24T11:17:28Z</time>
      </trkpt>
      <trkpt lat="45.91476" lon="6.5118">
        <ele>2317.3</ele>
        <time>2015-03-24T11:17:32Z</time>
      </trkpt>
      <trkpt lat="45.91479" lon="6.51179">
        <ele>2318.1</ele>
        <time>2015-03-24T11:17:36Z</time>
      </trkpt>
      <trkpt lat="45.91481" lon="6.51178">
        <ele>2318.7</ele>
        <time>2015-03-24T11:17:51Z</time>
      </trkpt>
      <trkpt lat="45.91484" lon="6.51178">
        <ele>2319.9</ele>
        <time>2015-03-24T11:17:57Z</time>
      </trkpt>
      <trkpt lat="45.91489" lon="6.51181">
        <ele>2323.1</ele>
        <time>2015-03-24T11:18:19Z</time>
      </trkpt>
      <trkpt lat="45.91492" lon="6.51182">
        <ele>2324.9</ele>
        <time>2015-03-24T11:18:20Z</time>
      </trkpt>
      <trkpt lat="45.91491" lon="6.51188">
        <ele>2326.9</ele>
        <time>2015-03-24T11:18:34Z</time>
      </trkpt>
      <trkpt lat="45.91488" lon="6.5119">
        <ele>2326.7</ele>
        <time>2015-03-24T11:18:38Z</time>
      </trkpt>
      <trkpt lat="45.91487" lon="6.51194">
        <ele>2327.9</ele>
        <time>2015-03-24T11:18:41Z</time>
      </trkpt>
      <trkpt lat="45.91488" lon="6.51198">
        <ele>2330.1</ele>
        <time>2015-03-24T11:18:53Z</time>
      </trkpt>
      <trkpt lat="45.91491" lon="6.51196">
        <ele>2330.3</ele>
        <time>2015-03-24T11:18:57Z</time>
      </trkpt>
      <trkpt lat="45.91494" lon="6.51196">
        <ele>2331.5</ele>
        <time>2015-03-24T11:19:01Z</time>
      </trkpt>
      <trkpt lat="45.91496" lon="6.51194">
        <ele>2331.8</ele>
        <time>2015-03-24T11:19:11Z</time>
      </trkpt>
      <trkpt lat="45.91495" lon="6.51199">
        <ele>2333.3</ele>
        <time>2015-03-24T11:19:25Z</time>
      </trkpt>
      <trkpt lat="45.91495" lon="6.51203">
        <ele>2334.7</ele>
        <time>2015-03-24T11:19:28Z</time>
      </trkpt>
      <trkpt lat="45.91493" lon="6.51206">
        <ele>2335.6</ele>
        <time>2015-03-24T11:19:31Z</time>
      </trkpt>
      <trkpt lat="45.91497" lon="6.51207">
        <ele>2337.7</ele>
        <time>2015-03-24T11:19:34Z</time>
      </trkpt>
      <trkpt lat="45.91496" lon="6.51212">
        <ele>2338.7</ele>
        <time>2015-03-24T11:19:39Z</time>
      </trkpt>
      <trkpt lat="45.91493" lon="6.51213">
        <ele>2337.8</ele>
        <time>2015-03-24T11:19:41Z</time>
      </trkpt>
      <trkpt lat="45.9149" lon="6.51215">
        <ele>2337.4</ele>
        <time>2015-03-24T11:19:48Z</time>
      </trkpt>
      <trkpt lat="45.9149" lon="6.51219">
        <ele>2338.7</ele>
        <time>2015-03-24T11:19:54Z</time>
      </trkpt>
      <trkpt lat="45.91491" lon="6.51224">
        <ele>2340.5</ele>
        <time>2015-03-24T11:20:00Z</time>
      </trkpt>
      <trkpt lat="45.91489" lon="6.51227">
        <ele>2340.6</ele>
        <time>2015-03-24T11:20:06Z</time>
      </trkpt>
      <trkpt lat="45.91486" lon="6.51228">
        <ele>2339.5</ele>
        <time>2015-03-24T11:20:09Z</time>
      </trkpt>
      <trkpt lat="45.91484" lon="6.51231">
        <ele>2339.4</ele>
        <time>2015-03-24T11:20:15Z</time>
      </trkpt>
      <trkpt lat="45.91484" lon="6.51235">
        <ele>2341</ele>
        <time>2015-03-24T11:20:22Z</time>
      </trkpt>
      <trkpt lat="45.91482" lon="6.51238">
        <ele>2340.9</ele>
        <time>2015-03-24T11:20:28Z</time>
      </trkpt>
      <trkpt lat="45.9148" lon="6.51241">
        <ele>2340.9</ele>
        <time>2015-03-24T11:20:32Z</time>
      </trkpt>
      <trkpt lat="45.9148" lon="6.51245">
        <ele>2342</ele>
        <time>2015-03-24T11:20:38Z</time>
      </trkpt>
      <trkpt lat="45.91483" lon="6.51246">
        <ele>2343.7</ele>
        <time>2015-03-24T11:20:50Z</time>
      </trkpt>
      <trkpt lat="45.91486" lon="6.51246">
        <ele>2345</ele>
        <time>2015-03-24T11:20:54Z</time>
      </trkpt>
      <trkpt lat="45.9149" lon="6.51245">
        <ele>2346.7</ele>
        <time>2015-03-24T11:21:00Z</time>
      </trkpt>
      <trkpt lat="45.91493" lon="6.51246">
        <ele>2348</ele>
        <time>2015-03-24T11:21:03Z</time>
      </trkpt>
      <trkpt lat="45.91495" lon="6.51247">
        <ele>2349.6</ele>
        <time>2015-03-24T11:21:11Z</time>
      </trkpt>
      <trkpt lat="45.91498" lon="6.51247">
        <ele>2350.9</ele>
        <time>2015-03-24T11:21:17Z</time>
      </trkpt>
      <trkpt lat="45.91501" lon="6.51247">
        <ele>2352.2</ele>
        <time>2015-03-24T11:21:20Z</time>
      </trkpt>
      <trkpt lat="45.91504" lon="6.51249">
        <ele>2354.2</ele>
        <time>2015-03-24T11:21:24Z</time>
      </trkpt>
      <trkpt lat="45.91507" lon="6.51248">
        <ele>2355.2</ele>
        <time>2015-03-24T11:21:29Z</time>
      </trkpt>
      <trkpt lat="45.9151" lon="6.51246">
        <ele>2355.6</ele>
        <time>2015-03-24T11:21:36Z</time>
      </trkpt>
      <trkpt lat="45.91513" lon="6.51247">
        <ele>2357.5</ele>
        <time>2015-03-24T11:21:44Z</time>
      </trkpt>
      <trkpt lat="45.91516" lon="6.51247">
        <ele>2359.2</ele>
        <time>2015-03-24T11:21:47Z</time>
      </trkpt>
      <trkpt lat="45.91518" lon="6.51243">
        <ele>2358.3</ele>
        <time>2015-03-24T11:21:51Z</time>
      </trkpt>
      <trkpt lat="45.9152" lon="6.51242">
        <ele>2359.1</ele>
        <time>2015-03-24T11:21:57Z</time>
      </trkpt>
      <trkpt lat="45.91523" lon="6.51243">
        <ele>2360.7</ele>
        <time>2015-03-24T11:22:00Z</time>
      </trkpt>
      <trkpt lat="45.91526" lon="6.51241">
        <ele>2361.3</ele>
        <time>2015-03-24T11:22:09Z</time>
      </trkpt>
      <trkpt lat="45.91527" lon="6.51245">
        <ele>2363</ele>
        <time>2015-03-24T11:22:20Z</time>
      </trkpt>
      <trkpt lat="45.91524" lon="6.51248">
        <ele>2362.6</ele>
        <time>2015-03-24T11:22:24Z</time>
      </trkpt>
      <trkpt lat="45.91522" lon="6.51251">
        <ele>2362.7</ele>
        <time>2015-03-24T11:22:27Z</time>
      </trkpt>
      <trkpt lat="45.91521" lon="6.51255">
        <ele>2363.9</ele>
        <time>2015-03-24T11:22:34Z</time>
      </trkpt>
      <trkpt lat="45.91523" lon="6.51258">
        <ele>2365.8</ele>
        <time>2015-03-24T11:22:41Z</time>
      </trkpt>
      <trkpt lat="45.9152" lon="6.51258">
        <ele>2364.4</ele>
        <time>2015-03-24T11:22:46Z</time>
      </trkpt>
      <trkpt lat="45.91516" lon="6.51259">
        <ele>2362.9</ele>
        <time>2015-03-24T11:22:51Z</time>
      </trkpt>
      <trkpt lat="45.91512" lon="6.5126">
        <ele>2361.7</ele>
        <time>2015-03-24T11:22:55Z</time>
      </trkpt>
      <trkpt lat="45.9151" lon="6.51262">
        <ele>2360.9</ele>
        <time>2015-03-24T11:22:59Z</time>
      </trkpt>
      <trkpt lat="45.91512" lon="6.5126">
        <ele>2361.7</ele>
        <time>2015-03-24T11:23:03Z</time>
      </trkpt>
      <trkpt lat="45.91515" lon="6.51262">
        <ele>2363.7</ele>
        <time>2015-03-24T11:23:06Z</time>
      </trkpt>
      <trkpt lat="45.91519" lon="6.51263">
        <ele>2365.6</ele>
        <time>2015-03-24T11:23:10Z</time>
      </trkpt>
      <trkpt lat="45.91522" lon="6.51264">
        <ele>2367.2</ele>
        <time>2015-03-24T11:23:14Z</time>
      </trkpt>
      <trkpt lat="45.91524" lon="6.51263">
        <ele>2367.9</ele>
        <time>2015-03-24T11:23:25Z</time>
      </trkpt>
      <trkpt lat="45.91527" lon="6.51263">
        <ele>2369.3</ele>
        <time>2015-03-24T11:23:29Z</time>
      </trkpt>
      <trkpt lat="45.9153" lon="6.5126">
        <ele>2369.7</ele>
        <time>2015-03-24T11:23:34Z</time>
      </trkpt>
      <trkpt lat="45.91533" lon="6.51262">
        <ele>2371.3</ele>
        <time>2015-03-24T11:23:36Z</time>
      </trkpt>
      <trkpt lat="45.91535" lon="6.51263">
        <ele>2372.9</ele>
        <time>2015-03-24T11:23:39Z</time>
      </trkpt>
      <trkpt lat="45.91538" lon="6.51261">
        <ele>2373.8</ele>
        <time>2015-03-24T11:23:43Z</time>
      </trkpt>
      <trkpt lat="45.91536" lon="6.51261">
        <ele>2372.5</ele>
        <time>2015-03-24T11:23:52Z</time>
      </trkpt>
      <trkpt lat="45.91534" lon="6.51264">
        <ele>2372.9</ele>
        <time>2015-03-24T11:24:03Z</time>
      </trkpt>
      <trkpt lat="45.91531" lon="6.51266">
        <ele>2372.1</ele>
        <time>2015-03-24T11:24:07Z</time>
      </trkpt>
      <trkpt lat="45.91528" lon="6.51267">
        <ele>2371</ele>
        <time>2015-03-24T11:24:11Z</time>
      </trkpt>
      <trkpt lat="45.91528" lon="6.51271">
        <ele>2372.3</ele>
        <time>2015-03-24T11:24:17Z</time>
      </trkpt>
      <trkpt lat="45.91526" lon="6.51275">
        <ele>2372.8</ele>
        <time>2015-03-24T11:24:22Z</time>
      </trkpt>
      <trkpt lat="45.91523" lon="6.51275">
        <ele>2371.3</ele>
        <time>2015-03-24T11:24:26Z</time>
      </trkpt>
      <trkpt lat="45.91526" lon="6.51276">
        <ele>2372.9</ele>
        <time>2015-03-24T11:24:35Z</time>
      </trkpt>
      <trkpt lat="45.91528" lon="6.51275">
        <ele>2373.7</ele>
        <time>2015-03-24T11:24:38Z</time>
      </trkpt>
      <trkpt lat="45.91531" lon="6.51275">
        <ele>2375</ele>
        <time>2015-03-24T11:24:46Z</time>
      </trkpt>
      <trkpt lat="45.91534" lon="6.51276">
        <ele>2376.6</ele>
        <time>2015-03-24T11:24:48Z</time>
      </trkpt>
      <trkpt lat="45.91537" lon="6.51277">
        <ele>2378.8</ele>
        <time>2015-03-24T11:24:51Z</time>
      </trkpt>
      <trkpt lat="45.9154" lon="6.51276">
        <ele>2379.6</ele>
        <time>2015-03-24T11:24:58Z</time>
      </trkpt>
      <trkpt lat="45.91542" lon="6.51274">
        <ele>2379.9</ele>
        <time>2015-03-24T11:25:05Z</time>
      </trkpt>
      <trkpt lat="45.91545" lon="6.51275">
        <ele>2381.7</ele>
        <time>2015-03-24T11:25:10Z</time>
      </trkpt>
      <trkpt lat="45.91548" lon="6.51273">
        <ele>2382.6</ele>
        <time>2015-03-24T11:25:25Z</time>
      </trkpt>
      <trkpt lat="45.9155" lon="6.5127">
        <ele>2382.5</ele>
        <time>2015-03-24T11:25:31Z</time>
      </trkpt>
      <trkpt lat="45.91553" lon="6.51268">
        <ele>2383.5</ele>
        <time>2015-03-24T11:25:35Z</time>
      </trkpt>
      <trkpt lat="45.91556" lon="6.5127">
        <ele>2385.6</ele>
        <time>2015-03-24T11:25:41Z</time>
      </trkpt>
      <trkpt lat="45.91559" lon="6.51267">
        <ele>2386.3</ele>
        <time>2015-03-24T11:25:44Z</time>
      </trkpt>
      <trkpt lat="45.91562" lon="6.51264">
        <ele>2386.6</ele>
        <time>2015-03-24T11:25:46Z</time>
      </trkpt>
      <trkpt lat="45.91565" lon="6.51264">
        <ele>2388.2</ele>
        <time>2015-03-24T11:25:50Z</time>
      </trkpt>
      <trkpt lat="45.91566" lon="6.51264">
        <ele>2388.6</ele>
        <time>2015-03-24T11:25:59Z</time>
      </trkpt>
      <trkpt lat="45.91566" lon="6.51264">
        <ele>2388.9</ele>
        <time>2015-03-24T11:26:05Z</time>
      </trkpt>
      <trkpt lat="45.91567" lon="6.51265">
        <ele>2389.4</ele>
        <time>2015-03-24T11:26:08Z</time>
      </trkpt>
      <trkpt lat="45.91567" lon="6.51265">
        <ele>2389.7</ele>
        <time>2015-03-24T11:26:14Z</time>
      </trkpt>
      <trkpt lat="45.91568" lon="6.51265">
        <ele>2390</ele>
        <time>2015-03-24T11:26:18Z</time>
      </trkpt>
      <trkpt lat="45.91569" lon="6.51265">
        <ele>2390.4</ele>
        <time>2015-03-24T11:26:21Z</time>
      </trkpt>
      <trkpt lat="45.91569" lon="6.51266">
        <ele>2390.8</ele>
        <time>2015-03-24T11:26:37Z</time>
      </trkpt>
      <trkpt lat="45.9157" lon="6.51266">
        <ele>2391.2</ele>
        <time>2015-03-24T11:26:47Z</time>
      </trkpt>
      <trkpt lat="45.9157" lon="6.51266">
        <ele>2391.5</ele>
        <time>2015-03-24T11:26:54Z</time>
      </trkpt>
      <trkpt lat="45.91571" lon="6.51266">
        <ele>2391.9</ele>
        <time>2015-03-24T11:26:58Z</time>
      </trkpt>
      <trkpt lat="45.91571" lon="6.51267">
        <ele>2392.2</ele>
        <time>2015-03-24T11:27:04Z</time>
      </trkpt>
      <trkpt lat="45.91572" lon="6.51267">
        <ele>2392.6</ele>
        <time>2015-03-24T11:27:06Z</time>
      </trkpt>
      <trkpt lat="45.91572" lon="6.51267">
        <ele>2393</ele>
        <time>2015-03-24T11:27:18Z</time>
      </trkpt>
      <trkpt lat="45.91573" lon="6.51267">
        <ele>2393.3</ele>
        <time>2015-03-24T11:27:47Z</time>
      </trkpt>
      <trkpt lat="45.91573" lon="6.51268">
        <ele>2393.7</ele>
        <time>2015-03-24T11:28:06Z</time>
      </trkpt>
      <trkpt lat="45.91574" lon="6.51268">
        <ele>2394.1</ele>
        <time>2015-03-24T11:28:18Z</time>
      </trkpt>
      <trkpt lat="45.91574" lon="6.51268">
        <ele>2394.4</ele>
        <time>2015-03-24T11:31:03Z</time>
      </trkpt>
      <trkpt lat="45.91575" lon="6.51268">
        <ele>2394.8</ele>
        <time>2015-03-24T11:32:29Z</time>
      </trkpt>
      <trkpt lat="45.91576" lon="6.51269">
        <ele>2395.2</ele>
        <time>2015-03-24T11:35:25Z</time>
      </trkpt>
      <trkpt lat="45.91576" lon="6.51269">
        <ele>2395.5</ele>
        <time>2015-03-24T11:35:32Z</time>
      </trkpt>
      <trkpt lat="45.91577" lon="6.51269">
        <ele>2395.9</ele>
        <time>2015-03-24T11:46:27Z</time>
      </trkpt>
      <trkpt lat="45.91577" lon="6.51269">
        <ele>2396.2</ele>
        <time>2015-03-24T11:46:36Z</time>
      </trkpt>
      <trkpt lat="45.91578" lon="6.5127">
        <ele>2396.7</ele>
        <time>2015-03-24T11:51:00Z</time>
      </trkpt>
      <trkpt lat="45.91578" lon="6.5127">
        <ele>2397</ele>
        <time>2015-03-24T11:51:17Z</time>
      </trkpt>
      <trkpt lat="45.91579" lon="6.5127">
        <ele>2397.4</ele>
        <time>2015-03-24T11:57:24Z</time>
      </trkpt>
      <trkpt lat="45.91579" lon="6.5127">
        <ele>2397.7</ele>
        <time>2015-03-24T11:57:33Z</time>
      </trkpt>
      <trkpt lat="45.9158" lon="6.51271">
        <ele>2398.1</ele>
        <time>2015-03-24T11:57:51Z</time>
      </trkpt>
      <trkpt lat="45.9158" lon="6.51271">
        <ele>2398.5</ele>
        <time>2015-03-24T11:57:55Z</time>
      </trkpt>
      <trkpt lat="45.91581" lon="6.51271">
        <ele>2398.8</ele>
        <time>2015-03-24T11:58:04Z</time>
      </trkpt>
      <trkpt lat="45.91582" lon="6.51271">
        <ele>2399.2</ele>
        <time>2015-03-24T11:58:05Z</time>
      </trkpt>
      <trkpt lat="45.91577" lon="6.51274">
        <ele>2398.2</ele>
        <time>2015-03-24T11:58:06Z</time>
      </trkpt>
      <trkpt lat="45.91573" lon="6.51279">
        <ele>2397.6</ele>
        <time>2015-03-24T11:58:07Z</time>
      </trkpt>
      <trkpt lat="45.91572" lon="6.51282">
        <ele>2398.5</ele>
        <time>2015-03-24T11:58:12Z</time>
      </trkpt>
      <trkpt lat="45.91573" lon="6.51282">
        <ele>2398.9</ele>
        <time>2015-03-24T11:58:14Z</time>
      </trkpt>
      <trkpt lat="45.91575" lon="6.51281">
        <ele>2399.5</ele>
        <time>2015-03-24T11:58:15Z</time>
      </trkpt>
      <trkpt lat="45.9157" lon="6.51279">
        <ele>2396.3</ele>
        <time>2015-03-24T11:58:16Z</time>
      </trkpt>
      <trkpt lat="45.91568" lon="6.51283">
        <ele>2396.8</ele>
        <time>2015-03-24T11:58:21Z</time>
      </trkpt>
      <trkpt lat="45.91566" lon="6.51287">
        <ele>2397.1</ele>
        <time>2015-03-24T11:58:24Z</time>
      </trkpt>
      <trkpt lat="45.91563" lon="6.5129">
        <ele>2396.6</ele>
        <time>2015-03-24T11:58:26Z</time>
      </trkpt>
      <trkpt lat="45.91564" lon="6.51296">
        <ele>2397.6</ele>
        <time>2015-03-24T11:58:28Z</time>
      </trkpt>
      <trkpt lat="45.91568" lon="6.51298">
        <ele>2399.1</ele>
        <time>2015-03-24T11:58:29Z</time>
      </trkpt>
      <trkpt lat="45.91573" lon="6.513">
        <ele>2401.7</ele>
        <time>2015-03-24T11:58:30Z</time>
      </trkpt>
      <trkpt lat="45.91578" lon="6.51301">
        <ele>2403.8</ele>
        <time>2015-03-24T11:58:31Z</time>
      </trkpt>
      <trkpt lat="45.91581" lon="6.51303">
        <ele>2404.8</ele>
        <time>2015-03-24T11:58:32Z</time>
      </trkpt>
      <trkpt lat="45.91583" lon="6.51301">
        <ele>2406.3</ele>
        <time>2015-03-24T11:58:35Z</time>
      </trkpt>
      <trkpt lat="45.91584" lon="6.51307">
        <ele>2405.5</ele>
        <time>2015-03-24T11:58:37Z</time>
      </trkpt>
      <trkpt lat="45.91582" lon="6.5131">
        <ele>2404.1</ele>
        <time>2015-03-24T11:58:40Z</time>
      </trkpt>
      <trkpt lat="45.91579" lon="6.51308">
        <ele>2403.3</ele>
        <time>2015-03-24T11:58:43Z</time>
      </trkpt>
      <trkpt lat="45.91579" lon="6.51312">
        <ele>2402.6</ele>
        <time>2015-03-24T11:58:56Z</time>
      </trkpt>
      <trkpt lat="45.91579" lon="6.51317">
        <ele>2401.8</ele>
        <time>2015-03-24T11:58:58Z</time>
      </trkpt>
      <trkpt lat="45.9158" lon="6.51322">
        <ele>2401.2</ele>
        <time>2015-03-24T11:59:02Z</time>
      </trkpt>
      <trkpt lat="45.91578" lon="6.51325">
        <ele>2400.1</ele>
        <time>2015-03-24T11:59:05Z</time>
      </trkpt>
      <trkpt lat="45.91577" lon="6.51329">
        <ele>2399.3</ele>
        <time>2015-03-24T11:59:11Z</time>
      </trkpt>
      <trkpt lat="45.91575" lon="6.51333">
        <ele>2398.1</ele>
        <time>2015-03-24T11:59:20Z</time>
      </trkpt>
      <trkpt lat="45.91574" lon="6.51337">
        <ele>2397.2</ele>
        <time>2015-03-24T11:59:26Z</time>
      </trkpt>
      <trkpt lat="45.91572" lon="6.51341">
        <ele>2396.3</ele>
        <time>2015-03-24T11:59:31Z</time>
      </trkpt>
      <trkpt lat="45.91571" lon="6.51345">
        <ele>2395.6</ele>
        <time>2015-03-24T11:59:37Z</time>
      </trkpt>
      <trkpt lat="45.9157" lon="6.51349">
        <ele>2395.1</ele>
        <time>2015-03-24T11:59:43Z</time>
      </trkpt>
      <trkpt lat="45.91571" lon="6.51353">
        <ele>2394.7</ele>
        <time>2015-03-24T11:59:51Z</time>
      </trkpt>
      <trkpt lat="45.9157" lon="6.51357">
        <ele>2394.2</ele>
        <time>2015-03-24T11:59:53Z</time>
      </trkpt>
      <trkpt lat="45.91569" lon="6.51353">
        <ele>2394.4</ele>
        <time>2015-03-24T12:00:19Z</time>
      </trkpt>
      <trkpt lat="45.91566" lon="6.51357">
        <ele>2393.7</ele>
        <time>2015-03-24T12:01:37Z</time>
      </trkpt>
      <trkpt lat="45.91566" lon="6.51364">
        <ele>2393.1</ele>
        <time>2015-03-24T12:01:39Z</time>
      </trkpt>
      <trkpt lat="45.91567" lon="6.51368">
        <ele>2392.8</ele>
        <time>2015-03-24T12:01:40Z</time>
      </trkpt>
      <trkpt lat="45.91565" lon="6.51375">
        <ele>2392.3</ele>
        <time>2015-03-24T12:01:43Z</time>
      </trkpt>
      <trkpt lat="45.91565" lon="6.5137">
        <ele>2392.6</ele>
        <time>2015-03-24T12:01:48Z</time>
      </trkpt>
      <trkpt lat="45.91562" lon="6.51372">
        <ele>2392.4</ele>
        <time>2015-03-24T12:01:57Z</time>
      </trkpt>
      <trkpt lat="45.91561" lon="6.51376">
        <ele>2392.1</ele>
        <time>2015-03-24T12:02:05Z</time>
      </trkpt>
      <trkpt lat="45.91559" lon="6.51381">
        <ele>2391.1</ele>
        <time>2015-03-24T12:02:17Z</time>
      </trkpt>
      <trkpt lat="45.9156" lon="6.51385">
        <ele>2390.2</ele>
        <time>2015-03-24T12:02:31Z</time>
      </trkpt>
      <trkpt lat="45.91562" lon="6.51387">
        <ele>2389.9</ele>
        <time>2015-03-24T12:02:41Z</time>
      </trkpt>
      <trkpt lat="45.91561" lon="6.51391">
        <ele>2389.1</ele>
        <time>2015-03-24T12:02:51Z</time>
      </trkpt>
      <trkpt lat="45.91562" lon="6.51396">
        <ele>2388.1</ele>
        <time>2015-03-24T12:03:01Z</time>
      </trkpt>
      <trkpt lat="45.9156" lon="6.51399">
        <ele>2387.4</ele>
        <time>2015-03-24T12:03:12Z</time>
      </trkpt>
      <trkpt lat="45.91563" lon="6.51402">
        <ele>2386.8</ele>
        <time>2015-03-24T12:03:17Z</time>
      </trkpt>
      <trkpt lat="45.91566" lon="6.51403">
        <ele>2386.3</ele>
        <time>2015-03-24T12:04:49Z</time>
      </trkpt>
      <trkpt lat="45.91568" lon="6.51405">
        <ele>2385.8</ele>
        <time>2015-03-24T12:05:00Z</time>
      </trkpt>
      <trkpt lat="45.9157" lon="6.51409">
        <ele>2384.8</ele>
        <time>2015-03-24T12:05:10Z</time>
      </trkpt>
      <trkpt lat="45.9157" lon="6.51414">
        <ele>2383.7</ele>
        <time>2015-03-24T12:05:14Z</time>
      </trkpt>
      <trkpt lat="45.91568" lon="6.51418">
        <ele>2382.8</ele>
        <time>2015-03-24T12:05:19Z</time>
      </trkpt>
      <trkpt lat="45.91567" lon="6.51422">
        <ele>2382</ele>
        <time>2015-03-24T12:05:27Z</time>
      </trkpt>
      <trkpt lat="45.91566" lon="6.51426">
        <ele>2381.3</ele>
        <time>2015-03-24T12:05:31Z</time>
      </trkpt>
      <trkpt lat="45.91569" lon="6.51428">
        <ele>2380.6</ele>
        <time>2015-03-24T12:05:35Z</time>
      </trkpt>
      <trkpt lat="45.91571" lon="6.51431">
        <ele>2379.7</ele>
        <time>2015-03-24T12:05:44Z</time>
      </trkpt>
      <trkpt lat="45.9157" lon="6.51434">
        <ele>2379</ele>
        <time>2015-03-24T12:07:06Z</time>
      </trkpt>
      <trkpt lat="45.91571" lon="6.51439">
        <ele>2377.8</ele>
        <time>2015-03-24T12:08:27Z</time>
      </trkpt>
      <trkpt lat="45.91573" lon="6.51438">
        <ele>2377.5</ele>
        <time>2015-03-24T12:14:45Z</time>
      </trkpt>
      <trkpt lat="45.91571" lon="6.5144">
        <ele>2377.6</ele>
        <time>2015-03-24T12:15:00Z</time>
      </trkpt>
      <trkpt lat="45.91575" lon="6.51445">
        <ele>2375.7</ele>
        <time>2015-03-24T12:15:05Z</time>
      </trkpt>
      <trkpt lat="45.91574" lon="6.5145">
        <ele>2374.6</ele>
        <time>2015-03-24T12:15:07Z</time>
      </trkpt>
      <trkpt lat="45.91572" lon="6.51456">
        <ele>2373.6</ele>
        <time>2015-03-24T12:15:21Z</time>
      </trkpt>
      <trkpt lat="45.91576" lon="6.51455">
        <ele>2373.1</ele>
        <time>2015-03-24T12:15:23Z</time>
      </trkpt>
      <trkpt lat="45.91578" lon="6.5146">
        <ele>2371.5</ele>
        <time>2015-03-24T12:15:25Z</time>
      </trkpt>
      <trkpt lat="45.91579" lon="6.51464">
        <ele>2370.3</ele>
        <time>2015-03-24T12:15:27Z</time>
      </trkpt>
      <trkpt lat="45.9158" lon="6.5146">
        <ele>2371</ele>
        <time>2015-03-24T12:15:29Z</time>
      </trkpt>
      <trkpt lat="45.91582" lon="6.51455">
        <ele>2371.8</ele>
        <time>2015-03-24T12:15:32Z</time>
      </trkpt>
      <trkpt lat="45.91585" lon="6.51456">
        <ele>2370.7</ele>
        <time>2015-03-24T12:15:37Z</time>
      </trkpt>
      <trkpt lat="45.91587" lon="6.51454">
        <ele>2370.8</ele>
        <time>2015-03-24T12:15:39Z</time>
      </trkpt>
      <trkpt lat="45.91589" lon="6.51451">
        <ele>2371.2</ele>
        <time>2015-03-24T12:15:41Z</time>
      </trkpt>
      <trkpt lat="45.91592" lon="6.51451">
        <ele>2370.7</ele>
        <time>2015-03-24T12:15:44Z</time>
      </trkpt>
      <trkpt lat="45.91596" lon="6.51455">
        <ele>2368.6</ele>
        <time>2015-03-24T12:15:48Z</time>
      </trkpt>
      <trkpt lat="45.91599" lon="6.51452">
        <ele>2368.9</ele>
        <time>2015-03-24T12:15:50Z</time>
      </trkpt>
      <trkpt lat="45.91601" lon="6.51455">
        <ele>2367.6</ele>
        <time>2015-03-24T12:15:52Z</time>
      </trkpt>
      <trkpt lat="45.91605" lon="6.51452">
        <ele>2367.7</ele>
        <time>2015-03-24T12:15:54Z</time>
      </trkpt>
      <trkpt lat="45.91608" lon="6.51455">
        <ele>2366</ele>
        <time>2015-03-24T12:15:56Z</time>
      </trkpt>
      <trkpt lat="45.91612" lon="6.51455">
        <ele>2365.3</ele>
        <time>2015-03-24T12:15:59Z</time>
      </trkpt>
      <trkpt lat="45.91617" lon="6.51455">
        <ele>2364.2</ele>
        <time>2015-03-24T12:16:01Z</time>
      </trkpt>
      <trkpt lat="45.91621" lon="6.51457">
        <ele>2362.6</ele>
        <time>2015-03-24T12:16:03Z</time>
      </trkpt>
      <trkpt lat="45.91622" lon="6.51462">
        <ele>2360.9</ele>
        <time>2015-03-24T12:16:05Z</time>
      </trkpt>
      <trkpt lat="45.91627" lon="6.51461">
        <ele>2359.6</ele>
        <time>2015-03-24T12:16:07Z</time>
      </trkpt>
      <trkpt lat="45.91632" lon="6.51461">
        <ele>2357.8</ele>
        <time>2015-03-24T12:16:09Z</time>
      </trkpt>
      <trkpt lat="45.91635" lon="6.51466">
        <ele>2355.5</ele>
        <time>2015-03-24T12:16:11Z</time>
      </trkpt>
      <trkpt lat="45.9164" lon="6.5147">
        <ele>2352.5</ele>
        <time>2015-03-24T12:16:13Z</time>
      </trkpt>
      <trkpt lat="45.91643" lon="6.51472">
        <ele>2351</ele>
        <time>2015-03-24T12:16:14Z</time>
      </trkpt>
      <trkpt lat="45.91646" lon="6.51477">
        <ele>2348.7</ele>
        <time>2015-03-24T12:16:16Z</time>
      </trkpt>
      <trkpt lat="45.91649" lon="6.51479">
        <ele>2347.2</ele>
        <time>2015-03-24T12:16:17Z</time>
      </trkpt>
      <trkpt lat="45.91652" lon="6.51482">
        <ele>2345.3</ele>
        <time>2015-03-24T12:16:19Z</time>
      </trkpt>
      <trkpt lat="45.91659" lon="6.51487">
        <ele>2341.3</ele>
        <time>2015-03-24T12:16:21Z</time>
      </trkpt>
      <trkpt lat="45.91663" lon="6.51488">
        <ele>2339.5</ele>
        <time>2015-03-24T12:16:22Z</time>
      </trkpt>
      <trkpt lat="45.91666" lon="6.51491">
        <ele>2337.7</ele>
        <time>2015-03-24T12:16:23Z</time>
      </trkpt>
      <trkpt lat="45.9167" lon="6.51493">
        <ele>2335.7</ele>
        <time>2015-03-24T12:16:24Z</time>
      </trkpt>
      <trkpt lat="45.91674" lon="6.51494">
        <ele>2333.9</ele>
        <time>2015-03-24T12:16:25Z</time>
      </trkpt>
      <trkpt lat="45.91677" lon="6.51497">
        <ele>2332.2</ele>
        <time>2015-03-24T12:16:26Z</time>
      </trkpt>
      <trkpt lat="45.91675" lon="6.51499">
        <ele>2332.6</ele>
        <time>2015-03-24T12:16:50Z</time>
      </trkpt>
      <trkpt lat="45.91678" lon="6.51497">
        <ele>2331.6</ele>
        <time>2015-03-24T12:17:20Z</time>
      </trkpt>
      <trkpt lat="45.91681" lon="6.51494">
        <ele>2331.1</ele>
        <time>2015-03-24T12:17:21Z</time>
      </trkpt>
      <trkpt lat="45.91687" lon="6.51491">
        <ele>2329.2</ele>
        <time>2015-03-24T12:17:22Z</time>
      </trkpt>
      <trkpt lat="45.91691" lon="6.51489">
        <ele>2328</ele>
        <time>2015-03-24T12:17:23Z</time>
      </trkpt>
      <trkpt lat="45.91694" lon="6.51485">
        <ele>2327.5</ele>
        <time>2015-03-24T12:17:24Z</time>
      </trkpt>
      <trkpt lat="45.91697" lon="6.51482">
        <ele>2327.1</ele>
        <time>2015-03-24T12:17:25Z</time>
      </trkpt>
      <trkpt lat="45.91701" lon="6.51478">
        <ele>2326.3</ele>
        <time>2015-03-24T12:17:26Z</time>
      </trkpt>
      <trkpt lat="45.91705" lon="6.51475">
        <ele>2325.1</ele>
        <time>2015-03-24T12:17:27Z</time>
      </trkpt>
      <trkpt lat="45.91709" lon="6.51473">
        <ele>2323.6</ele>
        <time>2015-03-24T12:17:28Z</time>
      </trkpt>
      <trkpt lat="45.91713" lon="6.5147">
        <ele>2322.8</ele>
        <time>2015-03-24T12:17:29Z</time>
      </trkpt>
      <trkpt lat="45.9172" lon="6.51468">
        <ele>2320.3</ele>
        <time>2015-03-24T12:17:30Z</time>
      </trkpt>
      <trkpt lat="45.91721" lon="6.51463">
        <ele>2320.5</ele>
        <time>2015-03-24T12:17:31Z</time>
      </trkpt>
      <trkpt lat="45.91724" lon="6.5146">
        <ele>2319.5</ele>
        <time>2015-03-24T12:17:32Z</time>
      </trkpt>
      <trkpt lat="45.91728" lon="6.51458">
        <ele>2318.2</ele>
        <time>2015-03-24T12:17:33Z</time>
      </trkpt>
      <trkpt lat="45.91731" lon="6.51455">
        <ele>2317.5</ele>
        <time>2015-03-24T12:17:34Z</time>
      </trkpt>
      <trkpt lat="45.91736" lon="6.51453">
        <ele>2315.9</ele>
        <time>2015-03-24T12:17:35Z</time>
      </trkpt>
      <trkpt lat="45.91739" lon="6.51448">
        <ele>2315.7</ele>
        <time>2015-03-24T12:17:36Z</time>
      </trkpt>
      <trkpt lat="45.91743" lon="6.51446">
        <ele>2313.9</ele>
        <time>2015-03-24T12:17:37Z</time>
      </trkpt>
      <trkpt lat="45.91748" lon="6.51443">
        <ele>2312.6</ele>
        <time>2015-03-24T12:17:38Z</time>
      </trkpt>
      <trkpt lat="45.91751" lon="6.51441">
        <ele>2311.4</ele>
        <time>2015-03-24T12:17:39Z</time>
      </trkpt>
      <trkpt lat="45.91757" lon="6.5144">
        <ele>2308.9</ele>
        <time>2015-03-24T12:17:40Z</time>
      </trkpt>
      <trkpt lat="45.9176" lon="6.51437">
        <ele>2308</ele>
        <time>2015-03-24T12:17:41Z</time>
      </trkpt>
      <trkpt lat="45.91764" lon="6.51435">
        <ele>2306.8</ele>
        <time>2015-03-24T12:17:42Z</time>
      </trkpt>
      <trkpt lat="45.91768" lon="6.51432">
        <ele>2305.6</ele>
        <time>2015-03-24T12:17:43Z</time>
      </trkpt>
      <trkpt lat="45.91771" lon="6.51429">
        <ele>2304.5</ele>
        <time>2015-03-24T12:17:44Z</time>
      </trkpt>
      <trkpt lat="45.91776" lon="6.51423">
        <ele>2303.6</ele>
        <time>2015-03-24T12:17:45Z</time>
      </trkpt>
      <trkpt lat="45.91781" lon="6.51422">
        <ele>2301.4</ele>
        <time>2015-03-24T12:17:46Z</time>
      </trkpt>
      <trkpt lat="45.91787" lon="6.51418">
        <ele>2299.3</ele>
        <time>2015-03-24T12:17:47Z</time>
      </trkpt>
      <trkpt lat="45.9179" lon="6.51418">
        <ele>2297.8</ele>
        <time>2015-03-24T12:17:48Z</time>
      </trkpt>
      <trkpt lat="45.91793" lon="6.51424">
        <ele>2295.1</ele>
        <time>2015-03-24T12:17:50Z</time>
      </trkpt>
      <trkpt lat="45.91797" lon="6.51425">
        <ele>2292.4</ele>
        <time>2015-03-24T12:17:51Z</time>
      </trkpt>
      <trkpt lat="45.918" lon="6.5142">
        <ele>2290.9</ele>
        <time>2015-03-24T12:17:52Z</time>
      </trkpt>
      <trkpt lat="45.91804" lon="6.51418">
        <ele>2288.9</ele>
        <time>2015-03-24T12:17:53Z</time>
      </trkpt>
      <trkpt lat="45.91805" lon="6.51414">
        <ele>2289.1</ele>
        <time>2015-03-24T12:17:54Z</time>
      </trkpt>
      <trkpt lat="45.91807" lon="6.51408">
        <ele>2288.1</ele>
        <time>2015-03-24T12:17:55Z</time>
      </trkpt>
      <trkpt lat="45.9181" lon="6.51406">
        <ele>2286.2</ele>
        <time>2015-03-24T12:17:56Z</time>
      </trkpt>
      <trkpt lat="45.91813" lon="6.51401">
        <ele>2285.3</ele>
        <time>2015-03-24T12:17:57Z</time>
      </trkpt>
      <trkpt lat="45.91813" lon="6.51395">
        <ele>2285.4</ele>
        <time>2015-03-24T12:17:58Z</time>
      </trkpt>
      <trkpt lat="45.91814" lon="6.51389">
        <ele>2285.4</ele>
        <time>2015-03-24T12:17:59Z</time>
      </trkpt>
      <trkpt lat="45.91814" lon="6.51385">
        <ele>2285.3</ele>
        <time>2015-03-24T12:18:00Z</time>
      </trkpt>
      <trkpt lat="45.91815" lon="6.5138">
        <ele>2285.7</ele>
        <time>2015-03-24T12:18:01Z</time>
      </trkpt>
      <trkpt lat="45.91812" lon="6.51377">
        <ele>2287.9</ele>
        <time>2015-03-24T12:18:04Z</time>
      </trkpt>
      <trkpt lat="45.91815" lon="6.51376">
        <ele>2285.7</ele>
        <time>2015-03-24T12:18:06Z</time>
      </trkpt>
      <trkpt lat="45.91814" lon="6.51371">
        <ele>2288.6</ele>
        <time>2015-03-24T12:18:46Z</time>
      </trkpt>
      <trkpt lat="45.91817" lon="6.51369">
        <ele>2286.4</ele>
        <time>2015-03-24T12:18:49Z</time>
      </trkpt>
      <trkpt lat="45.9182" lon="6.5137">
        <ele>2283.6</ele>
        <time>2015-03-24T12:18:51Z</time>
      </trkpt>
      <trkpt lat="45.91823" lon="6.51364">
        <ele>2282.8</ele>
        <time>2015-03-24T12:18:53Z</time>
      </trkpt>
      <trkpt lat="45.91828" lon="6.51363">
        <ele>2278.9</ele>
        <time>2015-03-24T12:18:55Z</time>
      </trkpt>
      <trkpt lat="45.9183" lon="6.51357">
        <ele>2278.6</ele>
        <time>2015-03-24T12:18:57Z</time>
      </trkpt>
      <trkpt lat="45.9183" lon="6.51353">
        <ele>2280</ele>
        <time>2015-03-24T12:18:59Z</time>
      </trkpt>
      <trkpt lat="45.91835" lon="6.51353">
        <ele>2276.4</ele>
        <time>2015-03-24T12:19:02Z</time>
      </trkpt>
      <trkpt lat="45.91836" lon="6.51349">
        <ele>2276.2</ele>
        <time>2015-03-24T12:19:03Z</time>
      </trkpt>
      <trkpt lat="45.91839" lon="6.51351">
        <ele>2273.1</ele>
        <time>2015-03-24T12:19:06Z</time>
      </trkpt>
      <trkpt lat="45.91843" lon="6.51348">
        <ele>2270.6</ele>
        <time>2015-03-24T12:19:09Z</time>
      </trkpt>
      <trkpt lat="45.9184" lon="6.51345">
        <ele>2273.9</ele>
        <time>2015-03-24T12:19:10Z</time>
      </trkpt>
      <trkpt lat="45.91843" lon="6.51345">
        <ele>2270.6</ele>
        <time>2015-03-24T12:19:13Z</time>
      </trkpt>
      <trkpt lat="45.91846" lon="6.51342">
        <ele>2269.1</ele>
        <time>2015-03-24T12:19:15Z</time>
      </trkpt>
      <trkpt lat="45.91848" lon="6.51339">
        <ele>2267.8</ele>
        <time>2015-03-24T12:19:18Z</time>
      </trkpt>
      <trkpt lat="45.91849" lon="6.51335">
        <ele>2268.5</ele>
        <time>2015-03-24T12:19:20Z</time>
      </trkpt>
      <trkpt lat="45.91851" lon="6.5133">
        <ele>2267.9</ele>
        <time>2015-03-24T12:19:24Z</time>
      </trkpt>
      <trkpt lat="45.91854" lon="6.51331">
        <ele>2264.5</ele>
        <time>2015-03-24T12:19:26Z</time>
      </trkpt>
      <trkpt lat="45.91858" lon="6.51326">
        <ele>2262.2</ele>
        <time>2015-03-24T12:19:28Z</time>
      </trkpt>
      <trkpt lat="45.9186" lon="6.51324">
        <ele>2260.3</ele>
        <time>2015-03-24T12:19:29Z</time>
      </trkpt>
      <trkpt lat="45.91862" lon="6.5132">
        <ele>2259.2</ele>
        <time>2015-03-24T12:19:30Z</time>
      </trkpt>
      <trkpt lat="45.91863" lon="6.51314">
        <ele>2259.9</ele>
        <time>2015-03-24T12:19:31Z</time>
      </trkpt>
      <trkpt lat="45.91864" lon="6.51308">
        <ele>2259.8</ele>
        <time>2015-03-24T12:19:33Z</time>
      </trkpt>
      <trkpt lat="45.91866" lon="6.51303">
        <ele>2259.3</ele>
        <time>2015-03-24T12:19:35Z</time>
      </trkpt>
      <trkpt lat="45.91867" lon="6.51299">
        <ele>2259.5</ele>
        <time>2015-03-24T12:19:36Z</time>
      </trkpt>
      <trkpt lat="45.91869" lon="6.51294">
        <ele>2257.9</ele>
        <time>2015-03-24T12:19:37Z</time>
      </trkpt>
      <trkpt lat="45.9187" lon="6.51289">
        <ele>2258.5</ele>
        <time>2015-03-24T12:19:38Z</time>
      </trkpt>
      <trkpt lat="45.91872" lon="6.51283">
        <ele>2257.8</ele>
        <time>2015-03-24T12:19:39Z</time>
      </trkpt>
      <trkpt lat="45.91872" lon="6.51278">
        <ele>2258.4</ele>
        <time>2015-03-24T12:19:40Z</time>
      </trkpt>
      <trkpt lat="45.91873" lon="6.51273">
        <ele>2259</ele>
        <time>2015-03-24T12:19:41Z</time>
      </trkpt>
      <trkpt lat="45.91874" lon="6.51269">
        <ele>2259</ele>
        <time>2015-03-24T12:19:42Z</time>
      </trkpt>
      <trkpt lat="45.91874" lon="6.51262">
        <ele>2260.5</ele>
        <time>2015-03-24T12:19:44Z</time>
      </trkpt>
      <trkpt lat="45.91877" lon="6.51256">
        <ele>2258.4</ele>
        <time>2015-03-24T12:19:45Z</time>
      </trkpt>
      <trkpt lat="45.91881" lon="6.51252">
        <ele>2255.4</ele>
        <time>2015-03-24T12:19:46Z</time>
      </trkpt>
      <trkpt lat="45.91881" lon="6.51248">
        <ele>2255.8</ele>
        <time>2015-03-24T12:19:47Z</time>
      </trkpt>
      <trkpt lat="45.91886" lon="6.51242">
        <ele>2252.2</ele>
        <time>2015-03-24T12:19:49Z</time>
      </trkpt>
      <trkpt lat="45.91889" lon="6.51239">
        <ele>2248.9</ele>
        <time>2015-03-24T12:19:50Z</time>
      </trkpt>
      <trkpt lat="45.91892" lon="6.51236">
        <ele>2247.1</ele>
        <time>2015-03-24T12:19:51Z</time>
      </trkpt>
      <trkpt lat="45.91882" lon="6.51233">
        <ele>2258.9</ele>
        <time>2015-03-24T12:19:52Z</time>
      </trkpt>
      <trkpt lat="45.91886" lon="6.5123">
        <ele>2254.2</ele>
        <time>2015-03-24T12:19:53Z</time>
      </trkpt>
      <trkpt lat="45.91889" lon="6.51225">
        <ele>2252.4</ele>
        <time>2015-03-24T12:19:55Z</time>
      </trkpt>
      <trkpt lat="45.91892" lon="6.5122">
        <ele>2249.5</ele>
        <time>2015-03-24T12:19:57Z</time>
      </trkpt>
      <trkpt lat="45.91895" lon="6.51217">
        <ele>2247.5</ele>
        <time>2015-03-24T12:19:58Z</time>
      </trkpt>
      <trkpt lat="45.91896" lon="6.51213">
        <ele>2246</ele>
        <time>2015-03-24T12:19:59Z</time>
      </trkpt>
      <trkpt lat="45.91899" lon="6.51206">
        <ele>2244.3</ele>
        <time>2015-03-24T12:20:01Z</time>
      </trkpt>
      <trkpt lat="45.91896" lon="6.51204">
        <ele>2248.2</ele>
        <time>2015-03-24T12:20:02Z</time>
      </trkpt>
      <trkpt lat="45.91897" lon="6.51197">
        <ele>2248.5</ele>
        <time>2015-03-24T12:20:04Z</time>
      </trkpt>
      <trkpt lat="45.91898" lon="6.51193">
        <ele>2248.9</ele>
        <time>2015-03-24T12:20:05Z</time>
      </trkpt>
      <trkpt lat="45.919" lon="6.51189">
        <ele>2247</ele>
        <time>2015-03-24T12:20:06Z</time>
      </trkpt>
      <trkpt lat="45.91903" lon="6.51183">
        <ele>2245</ele>
        <time>2015-03-24T12:20:08Z</time>
      </trkpt>
      <trkpt lat="45.91904" lon="6.51177">
        <ele>2244.4</ele>
        <time>2015-03-24T12:20:10Z</time>
      </trkpt>
      <trkpt lat="45.91907" lon="6.51174">
        <ele>2241.6</ele>
        <time>2015-03-24T12:20:11Z</time>
      </trkpt>
      <trkpt lat="45.91909" lon="6.51171">
        <ele>2238.4</ele>
        <time>2015-03-24T12:20:12Z</time>
      </trkpt>
      <trkpt lat="45.91917" lon="6.51168">
        <ele>2228.5</ele>
        <time>2015-03-24T12:20:14Z</time>
      </trkpt>
      <trkpt lat="45.91922" lon="6.51177">
        <ele>2221.3</ele>
        <time>2015-03-24T12:20:15Z</time>
      </trkpt>
      <trkpt lat="45.91927" lon="6.5118">
        <ele>2213.7</ele>
        <time>2015-03-24T12:20:16Z</time>
      </trkpt>
      <trkpt lat="45.91924" lon="6.51182">
        <ele>2217.9</ele>
        <time>2015-03-24T12:20:17Z</time>
      </trkpt>
      <trkpt lat="45.91928" lon="6.51183">
        <ele>2213.2</ele>
        <time>2015-03-24T12:20:18Z</time>
      </trkpt>
      <trkpt lat="45.91932" lon="6.51183">
        <ele>2207.2</ele>
        <time>2015-03-24T12:20:20Z</time>
      </trkpt>
      <trkpt lat="45.91934" lon="6.51173">
        <ele>2206.5</ele>
        <time>2015-03-24T12:20:21Z</time>
      </trkpt>
      <trkpt lat="45.91935" lon="6.51168">
        <ele>2204.7</ele>
        <time>2015-03-24T12:20:22Z</time>
      </trkpt>
      <trkpt lat="45.91936" lon="6.51163">
        <ele>2203.9</ele>
        <time>2015-03-24T12:20:23Z</time>
      </trkpt>
      <trkpt lat="45.91937" lon="6.51158">
        <ele>2203</ele>
        <time>2015-03-24T12:20:24Z</time>
      </trkpt>
      <trkpt lat="45.91938" lon="6.51153">
        <ele>2202.4</ele>
        <time>2015-03-24T12:20:25Z</time>
      </trkpt>
      <trkpt lat="45.91939" lon="6.51149">
        <ele>2200.9</ele>
        <time>2015-03-24T12:20:26Z</time>
      </trkpt>
      <trkpt lat="45.91941" lon="6.51145">
        <ele>2199.1</ele>
        <time>2015-03-24T12:20:27Z</time>
      </trkpt>
      <trkpt lat="45.91942" lon="6.51139">
        <ele>2198.2</ele>
        <time>2015-03-24T12:20:28Z</time>
      </trkpt>
      <trkpt lat="45.91943" lon="6.51134">
        <ele>2197</ele>
        <time>2015-03-24T12:20:29Z</time>
      </trkpt>
      <trkpt lat="45.91943" lon="6.51129">
        <ele>2196.7</ele>
        <time>2015-03-24T12:20:30Z</time>
      </trkpt>
      <trkpt lat="45.91944" lon="6.51121">
        <ele>2196.5</ele>
        <time>2015-03-24T12:20:32Z</time>
      </trkpt>
      <trkpt lat="45.91946" lon="6.51117">
        <ele>2193.5</ele>
        <time>2015-03-24T12:20:33Z</time>
      </trkpt>
      <trkpt lat="45.91946" lon="6.5111">
        <ele>2194.1</ele>
        <time>2015-03-24T12:20:34Z</time>
      </trkpt>
      <trkpt lat="45.91947" lon="6.51103">
        <ele>2194.6</ele>
        <time>2015-03-24T12:20:35Z</time>
      </trkpt>
      <trkpt lat="45.91947" lon="6.51097">
        <ele>2194.6</ele>
        <time>2015-03-24T12:20:36Z</time>
      </trkpt>
      <trkpt lat="45.9195" lon="6.51093">
        <ele>2191.7</ele>
        <time>2015-03-24T12:20:38Z</time>
      </trkpt>
      <trkpt lat="45.91961" lon="6.51098">
        <ele>2177.4</ele>
        <time>2015-03-24T12:20:40Z</time>
      </trkpt>
      <trkpt lat="45.91965" lon="6.51096">
        <ele>2175.5</ele>
        <time>2015-03-24T12:20:41Z</time>
      </trkpt>
      <trkpt lat="45.91969" lon="6.51094">
        <ele>2173.9</ele>
        <time>2015-03-24T12:20:42Z</time>
      </trkpt>
      <trkpt lat="45.91966" lon="6.51091">
        <ele>2175.6</ele>
        <time>2015-03-24T12:20:43Z</time>
      </trkpt>
      <trkpt lat="45.91962" lon="6.51089">
        <ele>2178.3</ele>
        <time>2015-03-24T12:20:45Z</time>
      </trkpt>
      <trkpt lat="45.91959" lon="6.51088">
        <ele>2180</ele>
        <time>2015-03-24T12:20:51Z</time>
      </trkpt>
      <trkpt lat="45.91958" lon="6.51083">
        <ele>2181.5</ele>
        <time>2015-03-24T12:20:56Z</time>
      </trkpt>
      <trkpt lat="45.91958" lon="6.51077">
        <ele>2182.5</ele>
        <time>2015-03-24T12:21:09Z</time>
      </trkpt>
      <trkpt lat="45.91959" lon="6.51072">
        <ele>2182.8</ele>
        <time>2015-03-24T12:21:10Z</time>
      </trkpt>
      <trkpt lat="45.91958" lon="6.51063">
        <ele>2184.8</ele>
        <time>2015-03-24T12:21:12Z</time>
      </trkpt>
      <trkpt lat="45.91957" lon="6.51055">
        <ele>2187.6</ele>
        <time>2015-03-24T12:21:13Z</time>
      </trkpt>
      <trkpt lat="45.91957" lon="6.51048">
        <ele>2188.6</ele>
        <time>2015-03-24T12:21:14Z</time>
      </trkpt>
      <trkpt lat="45.91957" lon="6.51041">
        <ele>2189.7</ele>
        <time>2015-03-24T12:21:15Z</time>
      </trkpt>
      <trkpt lat="45.91959" lon="6.51032">
        <ele>2194.9</ele>
        <time>2015-03-24T12:21:16Z</time>
      </trkpt>
      <trkpt lat="45.9196" lon="6.51025">
        <ele>2199.1</ele>
        <time>2015-03-24T12:21:17Z</time>
      </trkpt>
      <trkpt lat="45.91962" lon="6.51019">
        <ele>2202.3</ele>
        <time>2015-03-24T12:21:18Z</time>
      </trkpt>
      <trkpt lat="45.91963" lon="6.51012">
        <ele>2206.2</ele>
        <time>2015-03-24T12:21:19Z</time>
      </trkpt>
      <trkpt lat="45.91965" lon="6.51008">
        <ele>2207.7</ele>
        <time>2015-03-24T12:21:20Z</time>
      </trkpt>
      <trkpt lat="45.91967" lon="6.51004">
        <ele>2208.5</ele>
        <time>2015-03-24T12:21:21Z</time>
      </trkpt>
      <trkpt lat="45.91969" lon="6.50996">
        <ele>2212.2</ele>
        <time>2015-03-24T12:21:22Z</time>
      </trkpt>
      <trkpt lat="45.9197" lon="6.50986">
        <ele>2218.1</ele>
        <time>2015-03-24T12:21:24Z</time>
      </trkpt>
      <trkpt lat="45.91973" lon="6.50985">
        <ele>2216.6</ele>
        <time>2015-03-24T12:21:25Z</time>
      </trkpt>
      <trkpt lat="45.91978" lon="6.50983">
        <ele>2211.6</ele>
        <time>2015-03-24T12:21:27Z</time>
      </trkpt>
      <trkpt lat="45.91981" lon="6.50981">
        <ele>2209.7</ele>
        <time>2015-03-24T12:21:28Z</time>
      </trkpt>
      <trkpt lat="45.91987" lon="6.50982">
        <ele>2203.2</ele>
        <time>2015-03-24T12:21:29Z</time>
      </trkpt>
      <trkpt lat="45.91991" lon="6.50982">
        <ele>2198.7</ele>
        <time>2015-03-24T12:21:30Z</time>
      </trkpt>
      <trkpt lat="45.91996" lon="6.50985">
        <ele>2192.3</ele>
        <time>2015-03-24T12:21:31Z</time>
      </trkpt>
      <trkpt lat="45.92001" lon="6.50988">
        <ele>2185.1</ele>
        <time>2015-03-24T12:21:33Z</time>
      </trkpt>
      <trkpt lat="45.92004" lon="6.50988">
        <ele>2181.7</ele>
        <time>2015-03-24T12:21:34Z</time>
      </trkpt>
      <trkpt lat="45.92007" lon="6.50991">
        <ele>2177.3</ele>
        <time>2015-03-24T12:21:36Z</time>
      </trkpt>
      <trkpt lat="45.92012" lon="6.50991">
        <ele>2172</ele>
        <time>2015-03-24T12:21:38Z</time>
      </trkpt>
      <trkpt lat="45.92016" lon="6.50989">
        <ele>2169.3</ele>
        <time>2015-03-24T12:21:39Z</time>
      </trkpt>
      <trkpt lat="45.92018" lon="6.50991">
        <ele>2165.8</ele>
        <time>2015-03-24T12:21:41Z</time>
      </trkpt>
      <trkpt lat="45.92022" lon="6.50989">
        <ele>2162.7</ele>
        <time>2015-03-24T12:21:42Z</time>
      </trkpt>
      <trkpt lat="45.92026" lon="6.50988">
        <ele>2158.7</ele>
        <time>2015-03-24T12:21:44Z</time>
      </trkpt>
      <trkpt lat="45.9203" lon="6.50982">
        <ele>2157.1</ele>
        <time>2015-03-24T12:21:46Z</time>
      </trkpt>
      <trkpt lat="45.92033" lon="6.50976">
        <ele>2155.6</ele>
        <time>2015-03-24T12:21:47Z</time>
      </trkpt>
      <trkpt lat="45.92035" lon="6.50971">
        <ele>2154.2</ele>
        <time>2015-03-24T12:21:48Z</time>
      </trkpt>
      <trkpt lat="45.92039" lon="6.50967">
        <ele>2150.8</ele>
        <time>2015-03-24T12:21:49Z</time>
      </trkpt>
      <trkpt lat="45.92042" lon="6.50962">
        <ele>2149.1</ele>
        <time>2015-03-24T12:21:50Z</time>
      </trkpt>
      <trkpt lat="45.92044" lon="6.50958">
        <ele>2148.3</ele>
        <time>2015-03-24T12:21:51Z</time>
      </trkpt>
      <trkpt lat="45.92045" lon="6.50955">
        <ele>2149.4</ele>
        <time>2015-03-24T12:21:52Z</time>
      </trkpt>
      <trkpt lat="45.92049" lon="6.50953">
        <ele>2148.4</ele>
        <time>2015-03-24T12:21:53Z</time>
      </trkpt>
      <trkpt lat="45.9205" lon="6.50956">
        <ele>2144.3</ele>
        <time>2015-03-24T12:21:54Z</time>
      </trkpt>
      <trkpt lat="45.92054" lon="6.50957">
        <ele>2140.3</ele>
        <time>2015-03-24T12:21:55Z</time>
      </trkpt>
      <trkpt lat="45.9206" lon="6.50956">
        <ele>2135.3</ele>
        <time>2015-03-24T12:21:57Z</time>
      </trkpt>
      <trkpt lat="45.92065" lon="6.50956">
        <ele>2130.9</ele>
        <time>2015-03-24T12:21:58Z</time>
      </trkpt>
      <trkpt lat="45.9207" lon="6.50958">
        <ele>2125.3</ele>
        <time>2015-03-24T12:21:59Z</time>
      </trkpt>
      <trkpt lat="45.92074" lon="6.50959">
        <ele>2121.3</ele>
        <time>2015-03-24T12:22:00Z</time>
      </trkpt>
      <trkpt lat="45.92075" lon="6.50963">
        <ele>2119.8</ele>
        <time>2015-03-24T12:22:01Z</time>
      </trkpt>
      <trkpt lat="45.9208" lon="6.50967">
        <ele>2114.8</ele>
        <time>2015-03-24T12:22:03Z</time>
      </trkpt>
      <trkpt lat="45.92085" lon="6.5097">
        <ele>2110.9</ele>
        <time>2015-03-24T12:22:05Z</time>
      </trkpt>
      <trkpt lat="45.92083" lon="6.50967">
        <ele>2113</ele>
        <time>2015-03-24T12:22:17Z</time>
      </trkpt>
      <trkpt lat="45.92086" lon="6.50962">
        <ele>2110.5</ele>
        <time>2015-03-24T12:22:22Z</time>
      </trkpt>
      <trkpt lat="45.92089" lon="6.5096">
        <ele>2108.2</ele>
        <time>2015-03-24T12:22:23Z</time>
      </trkpt>
      <trkpt lat="45.92088" lon="6.50964">
        <ele>2108.3</ele>
        <time>2015-03-24T12:22:27Z</time>
      </trkpt>
      <trkpt lat="45.92091" lon="6.50964">
        <ele>2105.7</ele>
        <time>2015-03-24T12:23:07Z</time>
      </trkpt>
      <trkpt lat="45.92095" lon="6.50965">
        <ele>2102.5</ele>
        <time>2015-03-24T12:23:09Z</time>
      </trkpt>
      <trkpt lat="45.92098" lon="6.50962">
        <ele>2100.1</ele>
        <time>2015-03-24T12:23:13Z</time>
      </trkpt>
      <trkpt lat="45.921" lon="6.50959">
        <ele>2098</ele>
        <time>2015-03-24T12:23:14Z</time>
      </trkpt>
      <trkpt lat="45.92104" lon="6.50954">
        <ele>2096.9</ele>
        <time>2015-03-24T12:23:15Z</time>
      </trkpt>
      <trkpt lat="45.92106" lon="6.50949">
        <ele>2097.4</ele>
        <time>2015-03-24T12:23:16Z</time>
      </trkpt>
      <trkpt lat="45.9211" lon="6.50944">
        <ele>2095.8</ele>
        <time>2015-03-24T12:23:17Z</time>
      </trkpt>
      <trkpt lat="45.92111" lon="6.50939">
        <ele>2097</ele>
        <time>2015-03-24T12:23:18Z</time>
      </trkpt>
      <trkpt lat="45.92116" lon="6.50933">
        <ele>2094.8</ele>
        <time>2015-03-24T12:23:19Z</time>
      </trkpt>
      <trkpt lat="45.92118" lon="6.50928">
        <ele>2095.2</ele>
        <time>2015-03-24T12:23:20Z</time>
      </trkpt>
      <trkpt lat="45.92119" lon="6.50924">
        <ele>2095.3</ele>
        <time>2015-03-24T12:23:21Z</time>
      </trkpt>
      <trkpt lat="45.92122" lon="6.5092">
        <ele>2094.3</ele>
        <time>2015-03-24T12:23:22Z</time>
      </trkpt>
      <trkpt lat="45.92124" lon="6.50917">
        <ele>2092.6</ele>
        <time>2015-03-24T12:23:23Z</time>
      </trkpt>
      <trkpt lat="45.9212" lon="6.50916">
        <ele>2097.4</ele>
        <time>2015-03-24T12:23:24Z</time>
      </trkpt>
      <trkpt lat="45.92117" lon="6.5092">
        <ele>2099</ele>
        <time>2015-03-24T12:23:25Z</time>
      </trkpt>
      <trkpt lat="45.92122" lon="6.50917">
        <ele>2094.5</ele>
        <time>2015-03-24T12:23:26Z</time>
      </trkpt>
      <trkpt lat="45.92127" lon="6.50915">
        <ele>2090.5</ele>
        <time>2015-03-24T12:23:27Z</time>
      </trkpt>
      <trkpt lat="45.92132" lon="6.50919">
        <ele>2085.6</ele>
        <time>2015-03-24T12:23:28Z</time>
      </trkpt>
      <trkpt lat="45.92131" lon="6.50925">
        <ele>2084.2</ele>
        <time>2015-03-24T12:23:29Z</time>
      </trkpt>
      <trkpt lat="45.92129" lon="6.50934">
        <ele>2082.6</ele>
        <time>2015-03-24T12:23:30Z</time>
      </trkpt>
      <trkpt lat="45.92124" lon="6.50943">
        <ele>2082.4</ele>
        <time>2015-03-24T12:23:31Z</time>
      </trkpt>
      <trkpt lat="45.92121" lon="6.50952">
        <ele>2082.4</ele>
        <time>2015-03-24T12:23:32Z</time>
      </trkpt>
      <trkpt lat="45.92119" lon="6.5096">
        <ele>2081.2</ele>
        <time>2015-03-24T12:23:33Z</time>
      </trkpt>
      <trkpt lat="45.92115" lon="6.50967">
        <ele>2085</ele>
        <time>2015-03-24T12:23:34Z</time>
      </trkpt>
      <trkpt lat="45.92121" lon="6.50973">
        <ele>2080.8</ele>
        <time>2015-03-24T12:23:35Z</time>
      </trkpt>
      <trkpt lat="45.92125" lon="6.50976">
        <ele>2077.9</ele>
        <time>2015-03-24T12:23:36Z</time>
      </trkpt>
      <trkpt lat="45.92129" lon="6.50972">
        <ele>2075.1</ele>
        <time>2015-03-24T12:23:37Z</time>
      </trkpt>
      <trkpt lat="45.92134" lon="6.50976">
        <ele>2072.5</ele>
        <time>2015-03-24T12:23:38Z</time>
      </trkpt>
      <trkpt lat="45.92141" lon="6.50979">
        <ele>2069.3</ele>
        <time>2015-03-24T12:23:40Z</time>
      </trkpt>
      <trkpt lat="45.92143" lon="6.50985">
        <ele>2068.8</ele>
        <time>2015-03-24T12:23:41Z</time>
      </trkpt>
      <trkpt lat="45.92145" lon="6.5099">
        <ele>2068.1</ele>
        <time>2015-03-24T12:23:42Z</time>
      </trkpt>
      <trkpt lat="45.92149" lon="6.50991">
        <ele>2065.6</ele>
        <time>2015-03-24T12:23:43Z</time>
      </trkpt>
      <trkpt lat="45.92154" lon="6.50991">
        <ele>2062.8</ele>
        <time>2015-03-24T12:23:44Z</time>
      </trkpt>
      <trkpt lat="45.92156" lon="6.50986">
        <ele>2061.6</ele>
        <time>2015-03-24T12:23:45Z</time>
      </trkpt>
      <trkpt lat="45.92159" lon="6.50982">
        <ele>2059.2</ele>
        <time>2015-03-24T12:23:46Z</time>
      </trkpt>
      <trkpt lat="45.92163" lon="6.50981">
        <ele>2056.8</ele>
        <time>2015-03-24T12:23:47Z</time>
      </trkpt>
      <trkpt lat="45.92167" lon="6.50977">
        <ele>2054.8</ele>
        <time>2015-03-24T12:23:48Z</time>
      </trkpt>
      <trkpt lat="45.92169" lon="6.50975">
        <ele>2053.3</ele>
        <time>2015-03-24T12:23:50Z</time>
      </trkpt>
      <trkpt lat="45.92172" lon="6.50973">
        <ele>2051.2</ele>
        <time>2015-03-24T12:23:51Z</time>
      </trkpt>
      <trkpt lat="45.92175" lon="6.50977">
        <ele>2050.1</ele>
        <time>2015-03-24T12:23:53Z</time>
      </trkpt>
      <trkpt lat="45.92178" lon="6.5098">
        <ele>2048.5</ele>
        <time>2015-03-24T12:23:55Z</time>
      </trkpt>
      <trkpt lat="45.92185" lon="6.50982">
        <ele>2045</ele>
        <time>2015-03-24T12:23:57Z</time>
      </trkpt>
      <trkpt lat="45.92189" lon="6.50973">
        <ele>2041.8</ele>
        <time>2015-03-24T12:23:58Z</time>
      </trkpt>
      <trkpt lat="45.92197" lon="6.5097">
        <ele>2037.4</ele>
        <time>2015-03-24T12:23:59Z</time>
      </trkpt>
      <trkpt lat="45.92204" lon="6.50973">
        <ele>2033.4</ele>
        <time>2015-03-24T12:24:00Z</time>
      </trkpt>
      <trkpt lat="45.92212" lon="6.50978">
        <ele>2029.3</ele>
        <time>2015-03-24T12:24:01Z</time>
      </trkpt>
      <trkpt lat="45.92218" lon="6.50979">
        <ele>2026.4</ele>
        <time>2015-03-24T12:24:02Z</time>
      </trkpt>
      <trkpt lat="45.92223" lon="6.50983">
        <ele>2023.8</ele>
        <time>2015-03-24T12:24:03Z</time>
      </trkpt>
      <trkpt lat="45.92229" lon="6.50977">
        <ele>2019.8</ele>
        <time>2015-03-24T12:24:04Z</time>
      </trkpt>
      <trkpt lat="45.92236" lon="6.50978">
        <ele>2015.4</ele>
        <time>2015-03-24T12:24:05Z</time>
      </trkpt>
      <trkpt lat="45.9224" lon="6.50979">
        <ele>2013.7</ele>
        <time>2015-03-24T12:24:06Z</time>
      </trkpt>
      <trkpt lat="45.92247" lon="6.50977">
        <ele>2009.2</ele>
        <time>2015-03-24T12:24:07Z</time>
      </trkpt>
      <trkpt lat="45.92253" lon="6.50976">
        <ele>2005.4</ele>
        <time>2015-03-24T12:24:08Z</time>
      </trkpt>
      <trkpt lat="45.92254" lon="6.50972">
        <ele>2004.4</ele>
        <time>2015-03-24T12:24:09Z</time>
      </trkpt>
      <trkpt lat="45.92248" lon="6.50962">
        <ele>2006.7</ele>
        <time>2015-03-24T12:24:10Z</time>
      </trkpt>
      <trkpt lat="45.92247" lon="6.50955">
        <ele>2006.3</ele>
        <time>2015-03-24T12:24:11Z</time>
      </trkpt>
      <trkpt lat="45.92247" lon="6.50947">
        <ele>2005.7</ele>
        <time>2015-03-24T12:24:12Z</time>
      </trkpt>
      <trkpt lat="45.92249" lon="6.50941">
        <ele>2003.6</ele>
        <time>2015-03-24T12:24:13Z</time>
      </trkpt>
      <trkpt lat="45.92253" lon="6.50946">
        <ele>2001.9</ele>
        <time>2015-03-24T12:24:14Z</time>
      </trkpt>
      <trkpt lat="45.92254" lon="6.50941">
        <ele>2000.5</ele>
        <time>2015-03-24T12:24:15Z</time>
      </trkpt>
      <trkpt lat="45.92254" lon="6.50936">
        <ele>1999.5</ele>
        <time>2015-03-24T12:24:17Z</time>
      </trkpt>
      <trkpt lat="45.92251" lon="6.50936">
        <ele>2001.4</ele>
        <time>2015-03-24T12:24:18Z</time>
      </trkpt>
      <trkpt lat="45.92251" lon="6.50932">
        <ele>2001.1</ele>
        <time>2015-03-24T12:24:42Z</time>
      </trkpt>
      <trkpt lat="45.92249" lon="6.50927">
        <ele>2001.7</ele>
        <time>2015-03-24T12:24:44Z</time>
      </trkpt>
      <trkpt lat="45.92249" lon="6.5092">
        <ele>2001.2</ele>
        <time>2015-03-24T12:24:45Z</time>
      </trkpt>
      <trkpt lat="45.92248" lon="6.50913">
        <ele>2000.9</ele>
        <time>2015-03-24T12:24:46Z</time>
      </trkpt>
      <trkpt lat="45.92247" lon="6.50907">
        <ele>2001.2</ele>
        <time>2015-03-24T12:24:47Z</time>
      </trkpt>
      <trkpt lat="45.92247" lon="6.50902">
        <ele>2000.8</ele>
        <time>2015-03-24T12:24:48Z</time>
      </trkpt>
      <trkpt lat="45.92249" lon="6.50895">
        <ele>1997.9</ele>
        <time>2015-03-24T12:24:50Z</time>
      </trkpt>
      <trkpt lat="45.9225" lon="6.50888">
        <ele>1996.8</ele>
        <time>2015-03-24T12:24:51Z</time>
      </trkpt>
      <trkpt lat="45.92249" lon="6.50879">
        <ele>1996.5</ele>
        <time>2015-03-24T12:24:53Z</time>
      </trkpt>
      <trkpt lat="45.9225" lon="6.50875">
        <ele>1994.8</ele>
        <time>2015-03-24T12:24:54Z</time>
      </trkpt>
      <trkpt lat="45.92255" lon="6.50873">
        <ele>1990.2</ele>
        <time>2015-03-24T12:24:56Z</time>
      </trkpt>
      <trkpt lat="45.92257" lon="6.50871">
        <ele>1988</ele>
        <time>2015-03-24T12:24:57Z</time>
      </trkpt>
      <trkpt lat="45.92265" lon="6.50872">
        <ele>1981.1</ele>
        <time>2015-03-24T12:24:58Z</time>
      </trkpt>
      <trkpt lat="45.92272" lon="6.50874">
        <ele>1975.2</ele>
        <time>2015-03-24T12:24:59Z</time>
      </trkpt>
      <trkpt lat="45.92271" lon="6.50881">
        <ele>1977.4</ele>
        <time>2015-03-24T12:25:00Z</time>
      </trkpt>
      <trkpt lat="45.92275" lon="6.50884">
        <ele>1974.6</ele>
        <time>2015-03-24T12:25:01Z</time>
      </trkpt>
      <trkpt lat="45.92279" lon="6.50886">
        <ele>1971.8</ele>
        <time>2015-03-24T12:25:02Z</time>
      </trkpt>
      <trkpt lat="45.92285" lon="6.50885">
        <ele>1966.2</ele>
        <time>2015-03-24T12:25:04Z</time>
      </trkpt>
      <trkpt lat="45.92289" lon="6.50888">
        <ele>1963.9</ele>
        <time>2015-03-24T12:25:05Z</time>
      </trkpt>
      <trkpt lat="45.92292" lon="6.50894">
        <ele>1962.9</ele>
        <time>2015-03-24T12:25:06Z</time>
      </trkpt>
      <trkpt lat="45.92295" lon="6.50898">
        <ele>1963.2</ele>
        <time>2015-03-24T12:25:07Z</time>
      </trkpt>
      <trkpt lat="45.92299" lon="6.509">
        <ele>1963</ele>
        <time>2015-03-24T12:25:08Z</time>
      </trkpt>
      <trkpt lat="45.92303" lon="6.50904">
        <ele>1962.9</ele>
        <time>2015-03-24T12:25:10Z</time>
      </trkpt>
      <trkpt lat="45.9231" lon="6.50905">
        <ele>1961.6</ele>
        <time>2015-03-24T12:25:11Z</time>
      </trkpt>
      <trkpt lat="45.92316" lon="6.50907">
        <ele>1960.4</ele>
        <time>2015-03-24T12:25:12Z</time>
      </trkpt>
      <trkpt lat="45.92322" lon="6.50908">
        <ele>1959.3</ele>
        <time>2015-03-24T12:25:13Z</time>
      </trkpt>
      <trkpt lat="45.92328" lon="6.50907">
        <ele>1957.8</ele>
        <time>2015-03-24T12:25:14Z</time>
      </trkpt>
      <trkpt lat="45.92332" lon="6.50908">
        <ele>1956.7</ele>
        <time>2015-03-24T12:25:15Z</time>
      </trkpt>
      <trkpt lat="45.92337" lon="6.50908">
        <ele>1955.8</ele>
        <time>2015-03-24T12:25:16Z</time>
      </trkpt>
      <trkpt lat="45.9234" lon="6.50907">
        <ele>1954.7</ele>
        <time>2015-03-24T12:25:17Z</time>
      </trkpt>
      <trkpt lat="45.92344" lon="6.50905">
        <ele>1953.2</ele>
        <time>2015-03-24T12:25:18Z</time>
      </trkpt>
      <trkpt lat="45.92349" lon="6.50903">
        <ele>1951.7</ele>
        <time>2015-03-24T12:25:19Z</time>
      </trkpt>
      <trkpt lat="45.92352" lon="6.50898">
        <ele>1949.7</ele>
        <time>2015-03-24T12:25:20Z</time>
      </trkpt>
      <trkpt lat="45.92354" lon="6.50892">
        <ele>1947.7</ele>
        <time>2015-03-24T12:25:21Z</time>
      </trkpt>
      <trkpt lat="45.92353" lon="6.50883">
        <ele>1946</ele>
        <time>2015-03-24T12:25:22Z</time>
      </trkpt>
      <trkpt lat="45.92355" lon="6.50878">
        <ele>1944.2</ele>
        <time>2015-03-24T12:25:23Z</time>
      </trkpt>
      <trkpt lat="45.92358" lon="6.50876">
        <ele>1943.1</ele>
        <time>2015-03-24T12:25:24Z</time>
      </trkpt>
      <trkpt lat="45.9236" lon="6.50873">
        <ele>1941.5</ele>
        <time>2015-03-24T12:25:25Z</time>
      </trkpt>
      <trkpt lat="45.92356" lon="6.50872">
        <ele>1942</ele>
        <time>2015-03-24T12:25:27Z</time>
      </trkpt>
      <trkpt lat="45.9236" lon="6.50869">
        <ele>1939.9</ele>
        <time>2015-03-24T12:25:29Z</time>
      </trkpt>
      <trkpt lat="45.92364" lon="6.50869">
        <ele>1938.8</ele>
        <time>2015-03-24T12:25:31Z</time>
      </trkpt>
      <trkpt lat="45.92367" lon="6.50868">
        <ele>1937.6</ele>
        <time>2015-03-24T12:25:33Z</time>
      </trkpt>
      <trkpt lat="45.92369" lon="6.50865">
        <ele>1935.9</ele>
        <time>2015-03-24T12:25:41Z</time>
      </trkpt>
      <trkpt lat="45.92374" lon="6.50865">
        <ele>1934.4</ele>
        <time>2015-03-24T12:26:09Z</time>
      </trkpt>
      <trkpt lat="45.92378" lon="6.50866">
        <ele>1933.3</ele>
        <time>2015-03-24T12:26:11Z</time>
      </trkpt>
      <trkpt lat="45.92381" lon="6.50866">
        <ele>1932.4</ele>
        <time>2015-03-24T12:26:13Z</time>
      </trkpt>
      <trkpt lat="45.92377" lon="6.50864">
        <ele>1933</ele>
        <time>2015-03-24T12:26:16Z</time>
      </trkpt>
      <trkpt lat="45.92371" lon="6.50862">
        <ele>1933.9</ele>
        <time>2015-03-24T12:26:18Z</time>
      </trkpt>
      <trkpt lat="45.92367" lon="6.50857">
        <ele>1932.9</ele>
        <time>2015-03-24T12:26:20Z</time>
      </trkpt>
      <trkpt lat="45.92367" lon="6.50851">
        <ele>1930.1</ele>
        <time>2015-03-24T12:26:22Z</time>
      </trkpt>
      <trkpt lat="45.9237" lon="6.5085">
        <ele>1928.7</ele>
        <time>2015-03-24T12:26:23Z</time>
      </trkpt>
      <trkpt lat="45.92373" lon="6.50845">
        <ele>1925.6</ele>
        <time>2015-03-24T12:26:25Z</time>
      </trkpt>
      <trkpt lat="45.92369" lon="6.5084">
        <ele>1924.7</ele>
        <time>2015-03-24T12:26:26Z</time>
      </trkpt>
      <trkpt lat="45.92365" lon="6.50837">
        <ele>1924.8</ele>
        <time>2015-03-24T12:26:27Z</time>
      </trkpt>
      <trkpt lat="45.92365" lon="6.50833">
        <ele>1922.8</ele>
        <time>2015-03-24T12:26:28Z</time>
      </trkpt>
      <trkpt lat="45.92366" lon="6.50828">
        <ele>1920.5</ele>
        <time>2015-03-24T12:26:29Z</time>
      </trkpt>
      <trkpt lat="45.92367" lon="6.5082">
        <ele>1916.8</ele>
        <time>2015-03-24T12:26:31Z</time>
      </trkpt>
      <trkpt lat="45.92368" lon="6.50817">
        <ele>1914.7</ele>
        <time>2015-03-24T12:26:32Z</time>
      </trkpt>
      <trkpt lat="45.92372" lon="6.50814">
        <ele>1911.8</ele>
        <time>2015-03-24T12:26:34Z</time>
      </trkpt>
      <trkpt lat="45.92375" lon="6.50813">
        <ele>1909.9</ele>
        <time>2015-03-24T12:26:35Z</time>
      </trkpt>
      <trkpt lat="45.92377" lon="6.5081">
        <ele>1907.6</ele>
        <time>2015-03-24T12:26:36Z</time>
      </trkpt>
      <trkpt lat="45.92373" lon="6.50806">
        <ele>1907.2</ele>
        <time>2015-03-24T12:26:39Z</time>
      </trkpt>
      <trkpt lat="45.92372" lon="6.50799">
        <ele>1904.8</ele>
        <time>2015-03-24T12:26:41Z</time>
      </trkpt>
      <trkpt lat="45.92371" lon="6.50794">
        <ele>1902.8</ele>
        <time>2015-03-24T12:26:42Z</time>
      </trkpt>
      <trkpt lat="45.92377" lon="6.50793">
        <ele>1899.6</ele>
        <time>2015-03-24T12:26:44Z</time>
      </trkpt>
      <trkpt lat="45.92381" lon="6.50788">
        <ele>1896.3</ele>
        <time>2015-03-24T12:26:46Z</time>
      </trkpt>
      <trkpt lat="45.92382" lon="6.50781">
        <ele>1893.9</ele>
        <time>2015-03-24T12:26:48Z</time>
      </trkpt>
      <trkpt lat="45.92384" lon="6.50778">
        <ele>1892</ele>
        <time>2015-03-24T12:26:49Z</time>
      </trkpt>
      <trkpt lat="45.92387" lon="6.50774">
        <ele>1889.9</ele>
        <time>2015-03-24T12:26:51Z</time>
      </trkpt>
      <trkpt lat="45.92387" lon="6.5077">
        <ele>1888.3</ele>
        <time>2015-03-24T12:26:52Z</time>
      </trkpt>
      <trkpt lat="45.92391" lon="6.50767">
        <ele>1886.2</ele>
        <time>2015-03-24T12:26:53Z</time>
      </trkpt>
      <trkpt lat="45.92393" lon="6.50763">
        <ele>1884.3</ele>
        <time>2015-03-24T12:26:54Z</time>
      </trkpt>
      <trkpt lat="45.92393" lon="6.50757">
        <ele>1882.9</ele>
        <time>2015-03-24T12:26:55Z</time>
      </trkpt>
      <trkpt lat="45.92396" lon="6.50753">
        <ele>1880.5</ele>
        <time>2015-03-24T12:26:56Z</time>
      </trkpt>
      <trkpt lat="45.92395" lon="6.50748">
        <ele>1879.3</ele>
        <time>2015-03-24T12:26:57Z</time>
      </trkpt>
      <trkpt lat="45.924" lon="6.50745">
        <ele>1876.8</ele>
        <time>2015-03-24T12:26:58Z</time>
      </trkpt>
      <trkpt lat="45.92402" lon="6.50742">
        <ele>1875</ele>
        <time>2015-03-24T12:26:59Z</time>
      </trkpt>
      <trkpt lat="45.92405" lon="6.50746">
        <ele>1874.8</ele>
        <time>2015-03-24T12:27:00Z</time>
      </trkpt>
      <trkpt lat="45.92409" lon="6.50746">
        <ele>1873.2</ele>
        <time>2015-03-24T12:27:02Z</time>
      </trkpt>
      <trkpt lat="45.92413" lon="6.50745">
        <ele>1871.4</ele>
        <time>2015-03-24T12:27:05Z</time>
      </trkpt>
      <trkpt lat="45.92416" lon="6.50745">
        <ele>1870.1</ele>
        <time>2015-03-24T12:27:07Z</time>
      </trkpt>
      <trkpt lat="45.92423" lon="6.50747">
        <ele>1867.3</ele>
        <time>2015-03-24T12:27:09Z</time>
      </trkpt>
      <trkpt lat="45.92429" lon="6.50751">
        <ele>1865.7</ele>
        <time>2015-03-24T12:27:10Z</time>
      </trkpt>
      <trkpt lat="45.92432" lon="6.50754">
        <ele>1864.9</ele>
        <time>2015-03-24T12:27:11Z</time>
      </trkpt>
      <trkpt lat="45.92438" lon="6.50754">
        <ele>1862.3</ele>
        <time>2015-03-24T12:27:12Z</time>
      </trkpt>
      <trkpt lat="45.9244" lon="6.5075">
        <ele>1860.7</ele>
        <time>2015-03-24T12:27:13Z</time>
      </trkpt>
      <trkpt lat="45.92449" lon="6.50747">
        <ele>1856.4</ele>
        <time>2015-03-24T12:27:15Z</time>
      </trkpt>
      <trkpt lat="45.92451" lon="6.50742">
        <ele>1854.7</ele>
        <time>2015-03-24T12:27:16Z</time>
      </trkpt>
      <trkpt lat="45.92448" lon="6.50736">
        <ele>1855.1</ele>
        <time>2015-03-24T12:27:17Z</time>
      </trkpt>
      <trkpt lat="45.92447" lon="6.50729">
        <ele>1853.9</ele>
        <time>2015-03-24T12:27:18Z</time>
      </trkpt>
      <trkpt lat="45.92452" lon="6.50724">
        <ele>1851.3</ele>
        <time>2015-03-24T12:27:19Z</time>
      </trkpt>
      <trkpt lat="45.92451" lon="6.50717">
        <ele>1850.4</ele>
        <time>2015-03-24T12:27:20Z</time>
      </trkpt>
      <trkpt lat="45.92446" lon="6.50714">
        <ele>1851.5</ele>
        <time>2015-03-24T12:27:21Z</time>
      </trkpt>
      <trkpt lat="45.92449" lon="6.50704">
        <ele>1848.6</ele>
        <time>2015-03-24T12:27:22Z</time>
      </trkpt>
      <trkpt lat="45.9245" lon="6.50698">
        <ele>1846.7</ele>
        <time>2015-03-24T12:27:23Z</time>
      </trkpt>
      <trkpt lat="45.92451" lon="6.5069">
        <ele>1844.7</ele>
        <time>2015-03-24T12:27:24Z</time>
      </trkpt>
      <trkpt lat="45.92453" lon="6.50684">
        <ele>1842.7</ele>
        <time>2015-03-24T12:27:25Z</time>
      </trkpt>
      <trkpt lat="45.92459" lon="6.50683">
        <ele>1840</ele>
        <time>2015-03-24T12:27:26Z</time>
      </trkpt>
      <trkpt lat="45.92461" lon="6.50677">
        <ele>1838.3</ele>
        <time>2015-03-24T12:27:27Z</time>
      </trkpt>
      <trkpt lat="45.92461" lon="6.50672">
        <ele>1837.1</ele>
        <time>2015-03-24T12:27:28Z</time>
      </trkpt>
      <trkpt lat="45.9246" lon="6.50665">
        <ele>1835.9</ele>
        <time>2015-03-24T12:27:29Z</time>
      </trkpt>
      <trkpt lat="45.92458" lon="6.50669">
        <ele>1837.1</ele>
        <time>2015-03-24T12:27:30Z</time>
      </trkpt>
      <trkpt lat="45.92461" lon="6.50664">
        <ele>1835.2</ele>
        <time>2015-03-24T12:27:39Z</time>
      </trkpt>
      <trkpt lat="45.92466" lon="6.50667">
        <ele>1835.1</ele>
        <time>2015-03-24T12:27:41Z</time>
      </trkpt>
      <trkpt lat="45.92471" lon="6.50673">
        <ele>1835.4</ele>
        <time>2015-03-24T12:27:42Z</time>
      </trkpt>
      <trkpt lat="45.9248" lon="6.50682">
        <ele>1835.4</ele>
        <time>2015-03-24T12:27:43Z</time>
      </trkpt>
      <trkpt lat="45.92485" lon="6.50686">
        <ele>1835.1</ele>
        <time>2015-03-24T12:27:44Z</time>
      </trkpt>
      <trkpt lat="45.92493" lon="6.50684">
        <ele>1833.2</ele>
        <time>2015-03-24T12:27:45Z</time>
      </trkpt>
      <trkpt lat="45.925" lon="6.50688">
        <ele>1832.5</ele>
        <time>2015-03-24T12:27:46Z</time>
      </trkpt>
      <trkpt lat="45.92505" lon="6.50689">
        <ele>1831.5</ele>
        <time>2015-03-24T12:27:47Z</time>
      </trkpt>
      <trkpt lat="45.92511" lon="6.50683">
        <ele>1829.2</ele>
        <time>2015-03-24T12:27:48Z</time>
      </trkpt>
      <trkpt lat="45.92516" lon="6.50678">
        <ele>1827.3</ele>
        <time>2015-03-24T12:27:49Z</time>
      </trkpt>
      <trkpt lat="45.9252" lon="6.50674">
        <ele>1825.7</ele>
        <time>2015-03-24T12:27:50Z</time>
      </trkpt>
      <trkpt lat="45.92523" lon="6.50672">
        <ele>1824.5</ele>
        <time>2015-03-24T12:27:51Z</time>
      </trkpt>
      <trkpt lat="45.92528" lon="6.50671">
        <ele>1823.4</ele>
        <time>2015-03-24T12:27:54Z</time>
      </trkpt>
      <trkpt lat="45.9253" lon="6.50665">
        <ele>1822.1</ele>
        <time>2015-03-24T12:27:56Z</time>
      </trkpt>
      <trkpt lat="45.92533" lon="6.50664">
        <ele>1821.3</ele>
        <time>2015-03-24T12:27:57Z</time>
      </trkpt>
      <trkpt lat="45.92536" lon="6.50664">
        <ele>1820.6</ele>
        <time>2015-03-24T12:27:58Z</time>
      </trkpt>
      <trkpt lat="45.92542" lon="6.50665">
        <ele>1819.5</ele>
        <time>2015-03-24T12:28:00Z</time>
      </trkpt>
      <trkpt lat="45.92542" lon="6.50659">
        <ele>1818.7</ele>
        <time>2015-03-24T12:28:02Z</time>
      </trkpt>
      <trkpt lat="45.92543" lon="6.50655">
        <ele>1817.3</ele>
        <time>2015-03-24T12:28:03Z</time>
      </trkpt>
      <trkpt lat="45.92546" lon="6.5065">
        <ele>1815.6</ele>
        <time>2015-03-24T12:28:04Z</time>
      </trkpt>
      <trkpt lat="45.92546" lon="6.50646">
        <ele>1814.6</ele>
        <time>2015-03-24T12:28:05Z</time>
      </trkpt>
      <trkpt lat="45.92545" lon="6.50639">
        <ele>1813.9</ele>
        <time>2015-03-24T12:28:06Z</time>
      </trkpt>
      <trkpt lat="45.92547" lon="6.50633">
        <ele>1812</ele>
        <time>2015-03-24T12:28:07Z</time>
      </trkpt>
      <trkpt lat="45.92555" lon="6.50634">
        <ele>1808.9</ele>
        <time>2015-03-24T12:28:08Z</time>
      </trkpt>
      <trkpt lat="45.92559" lon="6.50632">
        <ele>1806.6</ele>
        <time>2015-03-24T12:28:09Z</time>
      </trkpt>
      <trkpt lat="45.92563" lon="6.50627">
        <ele>1804.1</ele>
        <time>2015-03-24T12:28:10Z</time>
      </trkpt>
      <trkpt lat="45.92568" lon="6.50624">
        <ele>1801</ele>
        <time>2015-03-24T12:28:11Z</time>
      </trkpt>
      <trkpt lat="45.92566" lon="6.50619">
        <ele>1800.3</ele>
        <time>2015-03-24T12:28:12Z</time>
      </trkpt>
      <trkpt lat="45.92569" lon="6.50616">
        <ele>1798.3</ele>
        <time>2015-03-24T12:28:13Z</time>
      </trkpt>
      <trkpt lat="45.92565" lon="6.50611">
        <ele>1798.7</ele>
        <time>2015-03-24T12:28:14Z</time>
      </trkpt>
      <trkpt lat="45.92563" lon="6.50607">
        <ele>1798.3</ele>
        <time>2015-03-24T12:28:15Z</time>
      </trkpt>
      <trkpt lat="45.92565" lon="6.50603">
        <ele>1796</ele>
        <time>2015-03-24T12:28:17Z</time>
      </trkpt>
      <trkpt lat="45.92568" lon="6.50605">
        <ele>1795.6</ele>
        <time>2015-03-24T12:28:18Z</time>
      </trkpt>
      <trkpt lat="45.92571" lon="6.50604">
        <ele>1794.1</ele>
        <time>2015-03-24T12:28:20Z</time>
      </trkpt>
      <trkpt lat="45.92573" lon="6.506">
        <ele>1791.8</ele>
        <time>2015-03-24T12:28:21Z</time>
      </trkpt>
      <trkpt lat="45.92575" lon="6.50603">
        <ele>1791.5</ele>
        <time>2015-03-24T12:28:22Z</time>
      </trkpt>
      <trkpt lat="45.92578" lon="6.50601">
        <ele>1789.9</ele>
        <time>2015-03-24T12:28:23Z</time>
      </trkpt>
      <trkpt lat="45.92582" lon="6.50599">
        <ele>1787.8</ele>
        <time>2015-03-24T12:28:24Z</time>
      </trkpt>
      <trkpt lat="45.92586" lon="6.50603">
        <ele>1787.1</ele>
        <time>2015-03-24T12:28:26Z</time>
      </trkpt>
      <trkpt lat="45.92589" lon="6.50603">
        <ele>1785.8</ele>
        <time>2015-03-24T12:28:27Z</time>
      </trkpt>
      <trkpt lat="45.92592" lon="6.50606">
        <ele>1785.4</ele>
        <time>2015-03-24T12:28:29Z</time>
      </trkpt>
      <trkpt lat="45.92596" lon="6.50606">
        <ele>1783.7</ele>
        <time>2015-03-24T12:28:30Z</time>
      </trkpt>
      <trkpt lat="45.92599" lon="6.50604">
        <ele>1781.7</ele>
        <time>2015-03-24T12:28:31Z</time>
      </trkpt>
      <trkpt lat="45.92604" lon="6.506">
        <ele>1778</ele>
        <time>2015-03-24T12:28:33Z</time>
      </trkpt>
      <trkpt lat="45.92605" lon="6.50596">
        <ele>1776.8</ele>
        <time>2015-03-24T12:28:34Z</time>
      </trkpt>
      <trkpt lat="45.92607" lon="6.50588">
        <ele>1773.5</ele>
        <time>2015-03-24T12:28:36Z</time>
      </trkpt>
      <trkpt lat="45.92608" lon="6.50584">
        <ele>1772</ele>
        <time>2015-03-24T12:28:37Z</time>
      </trkpt>
      <trkpt lat="45.92608" lon="6.50579">
        <ele>1770.6</ele>
        <time>2015-03-24T12:28:38Z</time>
      </trkpt>
      <trkpt lat="45.9261" lon="6.50576">
        <ele>1768.9</ele>
        <time>2015-03-24T12:28:39Z</time>
      </trkpt>
      <trkpt lat="45.92612" lon="6.50572">
        <ele>1766.7</ele>
        <time>2015-03-24T12:28:40Z</time>
      </trkpt>
      <trkpt lat="45.92611" lon="6.50568">
        <ele>1766.4</ele>
        <time>2015-03-24T12:28:41Z</time>
      </trkpt>
      <trkpt lat="45.92612" lon="6.50564">
        <ele>1764.8</ele>
        <time>2015-03-24T12:28:42Z</time>
      </trkpt>
      <trkpt lat="45.92615" lon="6.50557">
        <ele>1761.6</ele>
        <time>2015-03-24T12:28:44Z</time>
      </trkpt>
      <trkpt lat="45.92614" lon="6.5055">
        <ele>1760.2</ele>
        <time>2015-03-24T12:28:46Z</time>
      </trkpt>
      <trkpt lat="45.92613" lon="6.50543">
        <ele>1758.4</ele>
        <time>2015-03-24T12:28:47Z</time>
      </trkpt>
      <trkpt lat="45.92614" lon="6.50535">
        <ele>1756.1</ele>
        <time>2015-03-24T12:28:49Z</time>
      </trkpt>
      <trkpt lat="45.92614" lon="6.50529">
        <ele>1754.2</ele>
        <time>2015-03-24T12:28:50Z</time>
      </trkpt>
      <trkpt lat="45.92614" lon="6.50523">
        <ele>1752.9</ele>
        <time>2015-03-24T12:28:51Z</time>
      </trkpt>
      <trkpt lat="45.92615" lon="6.50517">
        <ele>1750.9</ele>
        <time>2015-03-24T12:28:53Z</time>
      </trkpt>
      <trkpt lat="45.92616" lon="6.5051">
        <ele>1749</ele>
        <time>2015-03-24T12:28:54Z</time>
      </trkpt>
      <trkpt lat="45.92616" lon="6.50504">
        <ele>1747.1</ele>
        <time>2015-03-24T12:28:55Z</time>
      </trkpt>
      <trkpt lat="45.92617" lon="6.50498">
        <ele>1745.2</ele>
        <time>2015-03-24T12:28:56Z</time>
      </trkpt>
      <trkpt lat="45.92618" lon="6.50494">
        <ele>1743.9</ele>
        <time>2015-03-24T12:28:57Z</time>
      </trkpt>
      <trkpt lat="45.92621" lon="6.50491">
        <ele>1741.8</ele>
        <time>2015-03-24T12:28:58Z</time>
      </trkpt>
      <trkpt lat="45.92622" lon="6.50484">
        <ele>1739.6</ele>
        <time>2015-03-24T12:28:59Z</time>
      </trkpt>
      <trkpt lat="45.92624" lon="6.50479">
        <ele>1737.7</ele>
        <time>2015-03-24T12:29:00Z</time>
      </trkpt>
      <trkpt lat="45.92629" lon="6.50478">
        <ele>1735.4</ele>
        <time>2015-03-24T12:29:01Z</time>
      </trkpt>
      <trkpt lat="45.92634" lon="6.5048">
        <ele>1734</ele>
        <time>2015-03-24T12:29:02Z</time>
      </trkpt>
      <trkpt lat="45.92638" lon="6.50474">
        <ele>1731.1</ele>
        <time>2015-03-24T12:29:04Z</time>
      </trkpt>
      <trkpt lat="45.92643" lon="6.50472">
        <ele>1728.8</ele>
        <time>2015-03-24T12:29:05Z</time>
      </trkpt>
      <trkpt lat="45.92646" lon="6.5047">
        <ele>1727.3</ele>
        <time>2015-03-24T12:29:06Z</time>
      </trkpt>
      <trkpt lat="45.92647" lon="6.50465">
        <ele>1725.8</ele>
        <time>2015-03-24T12:29:07Z</time>
      </trkpt>
      <trkpt lat="45.92649" lon="6.50462">
        <ele>1724</ele>
        <time>2015-03-24T12:29:08Z</time>
      </trkpt>
      <trkpt lat="45.92651" lon="6.50459">
        <ele>1722.5</ele>
        <time>2015-03-24T12:29:09Z</time>
      </trkpt>
      <trkpt lat="45.92648" lon="6.50448">
        <ele>1720.1</ele>
        <time>2015-03-24T12:29:11Z</time>
      </trkpt>
      <trkpt lat="45.92648" lon="6.50443">
        <ele>1718.7</ele>
        <time>2015-03-24T12:29:12Z</time>
      </trkpt>
      <trkpt lat="45.92648" lon="6.50436">
        <ele>1716.5</ele>
        <time>2015-03-24T12:29:13Z</time>
      </trkpt>
      <trkpt lat="45.92646" lon="6.5043">
        <ele>1715.4</ele>
        <time>2015-03-24T12:29:14Z</time>
      </trkpt>
      <trkpt lat="45.92645" lon="6.50424">
        <ele>1713.8</ele>
        <time>2015-03-24T12:29:15Z</time>
      </trkpt>
      <trkpt lat="45.92643" lon="6.50417">
        <ele>1712.5</ele>
        <time>2015-03-24T12:29:16Z</time>
      </trkpt>
      <trkpt lat="45.92642" lon="6.50411">
        <ele>1711.2</ele>
        <time>2015-03-24T12:29:17Z</time>
      </trkpt>
      <trkpt lat="45.9264" lon="6.50403">
        <ele>1709.6</ele>
        <time>2015-03-24T12:29:19Z</time>
      </trkpt>
      <trkpt lat="45.92641" lon="6.50398">
        <ele>1707.7</ele>
        <time>2015-03-24T12:29:22Z</time>
      </trkpt>
      <trkpt lat="45.9264" lon="6.50392">
        <ele>1706.2</ele>
        <time>2015-03-24T12:29:23Z</time>
      </trkpt>
      <trkpt lat="45.92638" lon="6.50388">
        <ele>1705.4</ele>
        <time>2015-03-24T12:29:24Z</time>
      </trkpt>
      <trkpt lat="45.92636" lon="6.5038">
        <ele>1704.1</ele>
        <time>2015-03-24T12:29:26Z</time>
      </trkpt>
      <trkpt lat="45.92635" lon="6.50376">
        <ele>1703.2</ele>
        <time>2015-03-24T12:29:28Z</time>
      </trkpt>
      <trkpt lat="45.92633" lon="6.50368">
        <ele>1701.6</ele>
        <time>2015-03-24T12:29:30Z</time>
      </trkpt>
      <trkpt lat="45.92631" lon="6.50363">
        <ele>1700.6</ele>
        <time>2015-03-24T12:29:31Z</time>
      </trkpt>
      <trkpt lat="45.9263" lon="6.50359">
        <ele>1699.7</ele>
        <time>2015-03-24T12:29:32Z</time>
      </trkpt>
      <trkpt lat="45.92628" lon="6.50354">
        <ele>1698.8</ele>
        <time>2015-03-24T12:29:33Z</time>
      </trkpt>
      <trkpt lat="45.92626" lon="6.5035">
        <ele>1697.8</ele>
        <time>2015-03-24T12:29:35Z</time>
      </trkpt>
      <trkpt lat="45.92625" lon="6.50345">
        <ele>1697.1</ele>
        <time>2015-03-24T12:29:37Z</time>
      </trkpt>
      <trkpt lat="45.92622" lon="6.50341">
        <ele>1696.4</ele>
        <time>2015-03-24T12:29:39Z</time>
      </trkpt>
      <trkpt lat="45.9262" lon="6.50337">
        <ele>1695.8</ele>
        <time>2015-03-24T12:29:40Z</time>
      </trkpt>
      <trkpt lat="45.92618" lon="6.50333">
        <ele>1695.2</ele>
        <time>2015-03-24T12:29:41Z</time>
      </trkpt>
      <trkpt lat="45.92618" lon="6.50339">
        <ele>1697.2</ele>
        <time>2015-03-24T12:29:42Z</time>
      </trkpt>
      <trkpt lat="45.92616" lon="6.50334">
        <ele>1696.2</ele>
        <time>2015-03-24T12:29:44Z</time>
      </trkpt>
      <trkpt lat="45.92612" lon="6.50328">
        <ele>1695.5</ele>
        <time>2015-03-24T12:29:48Z</time>
      </trkpt>
      <trkpt lat="45.9261" lon="6.50323">
        <ele>1694.7</ele>
        <time>2015-03-24T12:29:50Z</time>
      </trkpt>
      <trkpt lat="45.92608" lon="6.50319">
        <ele>1694</ele>
        <time>2015-03-24T12:29:52Z</time>
      </trkpt>
      <trkpt lat="45.92606" lon="6.50315">
        <ele>1693.4</ele>
        <time>2015-03-24T12:29:55Z</time>
      </trkpt>
      <trkpt lat="45.92603" lon="6.50312">
        <ele>1693.6</ele>
        <time>2015-03-24T12:29:57Z</time>
      </trkpt>
      <trkpt lat="45.926" lon="6.50309">
        <ele>1693.5</ele>
        <time>2015-03-24T12:29:58Z</time>
      </trkpt>
      <trkpt lat="45.92598" lon="6.50307">
        <ele>1693.5</ele>
        <time>2015-03-24T12:29:59Z</time>
      </trkpt>
      <trkpt lat="45.92595" lon="6.50303">
        <ele>1693.4</ele>
        <time>2015-03-24T12:30:00Z</time>
      </trkpt>
      <trkpt lat="45.92592" lon="6.503">
        <ele>1693.5</ele>
        <time>2015-03-24T12:30:01Z</time>
      </trkpt>
      <trkpt lat="45.92588" lon="6.50296">
        <ele>1693.4</ele>
        <time>2015-03-24T12:30:02Z</time>
      </trkpt>
      <trkpt lat="45.92585" lon="6.50292">
        <ele>1693.4</ele>
        <time>2015-03-24T12:30:03Z</time>
      </trkpt>
      <trkpt lat="45.92582" lon="6.50287">
        <ele>1693.1</ele>
        <time>2015-03-24T12:30:04Z</time>
      </trkpt>
      <trkpt lat="45.9258" lon="6.50283">
        <ele>1692.8</ele>
        <time>2015-03-24T12:30:05Z</time>
      </trkpt>
      <trkpt lat="45.92578" lon="6.50276">
        <ele>1691.6</ele>
        <time>2015-03-24T12:30:06Z</time>
      </trkpt>
      <trkpt lat="45.92576" lon="6.50271">
        <ele>1690.8</ele>
        <time>2015-03-24T12:30:07Z</time>
      </trkpt>
      <trkpt lat="45.92574" lon="6.50263">
        <ele>1689.6</ele>
        <time>2015-03-24T12:30:08Z</time>
      </trkpt>
      <trkpt lat="45.92573" lon="6.50267">
        <ele>1691.3</ele>
        <time>2015-03-24T12:30:09Z</time>
      </trkpt>
      <trkpt lat="45.92569" lon="6.50259">
        <ele>1690.8</ele>
        <time>2015-03-24T12:30:11Z</time>
      </trkpt>
      <trkpt lat="45.92567" lon="6.50255">
        <ele>1690.1</ele>
        <time>2015-03-24T12:30:12Z</time>
      </trkpt>
      <trkpt lat="45.92566" lon="6.5025">
        <ele>1689.6</ele>
        <time>2015-03-24T12:30:13Z</time>
      </trkpt>
      <trkpt lat="45.92565" lon="6.50245">
        <ele>1688.9</ele>
        <time>2015-03-24T12:30:14Z</time>
      </trkpt>
      <trkpt lat="45.92564" lon="6.5024">
        <ele>1688</ele>
        <time>2015-03-24T12:30:15Z</time>
      </trkpt>
      <trkpt lat="45.92562" lon="6.50234">
        <ele>1687.3</ele>
        <time>2015-03-24T12:30:16Z</time>
      </trkpt>
      <trkpt lat="45.92561" lon="6.50228">
        <ele>1686.4</ele>
        <time>2015-03-24T12:30:17Z</time>
      </trkpt>
      <trkpt lat="45.92557" lon="6.50221">
        <ele>1686.1</ele>
        <time>2015-03-24T12:30:19Z</time>
      </trkpt>
      <trkpt lat="45.92555" lon="6.50216">
        <ele>1686.1</ele>
        <time>2015-03-24T12:30:20Z</time>
      </trkpt>
      <trkpt lat="45.92551" lon="6.50211">
        <ele>1686.8</ele>
        <time>2015-03-24T12:30:22Z</time>
      </trkpt>
      <trkpt lat="45.92549" lon="6.50207">
        <ele>1687.1</ele>
        <time>2015-03-24T12:30:24Z</time>
      </trkpt>
      <trkpt lat="45.92546" lon="6.50204">
        <ele>1687.4</ele>
        <time>2015-03-24T12:30:25Z</time>
      </trkpt>
      <trkpt lat="45.92543" lon="6.50201">
        <ele>1688.5</ele>
        <time>2015-03-24T12:30:28Z</time>
      </trkpt>
      <trkpt lat="45.92541" lon="6.50197">
        <ele>1688.3</ele>
        <time>2015-03-24T12:30:31Z</time>
      </trkpt>
      <trkpt lat="45.92539" lon="6.50193">
        <ele>1688.2</ele>
        <time>2015-03-24T12:30:32Z</time>
      </trkpt>
      <trkpt lat="45.92537" lon="6.50189">
        <ele>1687.7</ele>
        <time>2015-03-24T12:30:33Z</time>
      </trkpt>
      <trkpt lat="45.92531" lon="6.50183">
        <ele>1688.9</ele>
        <time>2015-03-24T12:30:34Z</time>
      </trkpt>
      <trkpt lat="45.92528" lon="6.50178">
        <ele>1689.5</ele>
        <time>2015-03-24T12:30:35Z</time>
      </trkpt>
      <trkpt lat="45.92524" lon="6.50176">
        <ele>1690.8</ele>
        <time>2015-03-24T12:30:36Z</time>
      </trkpt>
      <trkpt lat="45.92518" lon="6.50171">
        <ele>1692.1</ele>
        <time>2015-03-24T12:30:37Z</time>
      </trkpt>
      <trkpt lat="45.92515" lon="6.5017">
        <ele>1693.9</ele>
        <time>2015-03-24T12:30:38Z</time>
      </trkpt>
      <trkpt lat="45.92514" lon="6.50166">
        <ele>1693.2</ele>
        <time>2015-03-24T12:30:41Z</time>
      </trkpt>
      <trkpt lat="45.92516" lon="6.50161">
        <ele>1691.3</ele>
        <time>2015-03-24T12:30:44Z</time>
      </trkpt>
      <trkpt lat="45.92517" lon="6.50156">
        <ele>1689.8</ele>
        <time>2015-03-24T12:30:46Z</time>
      </trkpt>
      <trkpt lat="45.92517" lon="6.50151">
        <ele>1688.8</ele>
        <time>2015-03-24T12:30:47Z</time>
      </trkpt>
      <trkpt lat="45.92516" lon="6.50145">
        <ele>1687.9</ele>
        <time>2015-03-24T12:30:48Z</time>
      </trkpt>
      <trkpt lat="45.92516" lon="6.50139">
        <ele>1687</ele>
        <time>2015-03-24T12:30:49Z</time>
      </trkpt>
      <trkpt lat="45.92516" lon="6.50132">
        <ele>1685.7</ele>
        <time>2015-03-24T12:30:51Z</time>
      </trkpt>
      <trkpt lat="45.92514" lon="6.50125">
        <ele>1685.2</ele>
        <time>2015-03-24T12:30:53Z</time>
      </trkpt>
      <trkpt lat="45.92514" lon="6.50121">
        <ele>1685.4</ele>
        <time>2015-03-24T12:30:54Z</time>
      </trkpt>
      <trkpt lat="45.92513" lon="6.50116">
        <ele>1686.7</ele>
        <time>2015-03-24T12:30:55Z</time>
      </trkpt>
      <trkpt lat="45.92512" lon="6.50112">
        <ele>1687.7</ele>
        <time>2015-03-24T12:30:56Z</time>
      </trkpt>
      <trkpt lat="45.92511" lon="6.50107">
        <ele>1689.3</ele>
        <time>2015-03-24T12:30:57Z</time>
      </trkpt>
      <trkpt lat="45.92508" lon="6.50101">
        <ele>1692.7</ele>
        <time>2015-03-24T12:30:58Z</time>
      </trkpt>
      <trkpt lat="45.92507" lon="6.50096">
        <ele>1694.5</ele>
        <time>2015-03-24T12:30:59Z</time>
      </trkpt>
      <trkpt lat="45.92506" lon="6.50091">
        <ele>1696.4</ele>
        <time>2015-03-24T12:31:00Z</time>
      </trkpt>
      <trkpt lat="45.92505" lon="6.50086">
        <ele>1698.1</ele>
        <time>2015-03-24T12:31:01Z</time>
      </trkpt>
      <trkpt lat="45.92504" lon="6.5008">
        <ele>1701.4</ele>
        <time>2015-03-24T12:31:02Z</time>
      </trkpt>
      <trkpt lat="45.92503" lon="6.50076">
        <ele>1703.6</ele>
        <time>2015-03-24T12:31:03Z</time>
      </trkpt>
      <trkpt lat="45.92502" lon="6.50068">
        <ele>1707.5</ele>
        <time>2015-03-24T12:31:05Z</time>
      </trkpt>
      <trkpt lat="45.92501" lon="6.50063">
        <ele>1710.7</ele>
        <time>2015-03-24T12:31:06Z</time>
      </trkpt>
      <trkpt lat="45.925" lon="6.50058">
        <ele>1713</ele>
        <time>2015-03-24T12:31:07Z</time>
      </trkpt>
      <trkpt lat="45.925" lon="6.50054">
        <ele>1715.7</ele>
        <time>2015-03-24T12:31:08Z</time>
      </trkpt>
      <trkpt lat="45.92499" lon="6.50049">
        <ele>1718.1</ele>
        <time>2015-03-24T12:31:09Z</time>
      </trkpt>
      <trkpt lat="45.92499" lon="6.50045">
        <ele>1720.1</ele>
        <time>2015-03-24T12:31:10Z</time>
      </trkpt>
      <trkpt lat="45.92498" lon="6.50037">
        <ele>1722.1</ele>
        <time>2015-03-24T12:31:12Z</time>
      </trkpt>
      <trkpt lat="45.92496" lon="6.50029">
        <ele>1724.2</ele>
        <time>2015-03-24T12:31:14Z</time>
      </trkpt>
      <trkpt lat="45.92496" lon="6.50025">
        <ele>1725.4</ele>
        <time>2015-03-24T12:31:15Z</time>
      </trkpt>
      <trkpt lat="45.92495" lon="6.50021">
        <ele>1726</ele>
        <time>2015-03-24T12:31:16Z</time>
      </trkpt>
      <trkpt lat="45.92494" lon="6.50015">
        <ele>1727.6</ele>
        <time>2015-03-24T12:31:18Z</time>
      </trkpt>
      <trkpt lat="45.92492" lon="6.5001">
        <ele>1729.3</ele>
        <time>2015-03-24T12:31:19Z</time>
      </trkpt>
      <trkpt lat="45.9249" lon="6.50006">
        <ele>1733.3</ele>
        <time>2015-03-24T12:31:20Z</time>
      </trkpt>
      <trkpt lat="45.92489" lon="6.50001">
        <ele>1735</ele>
        <time>2015-03-24T12:31:21Z</time>
      </trkpt>
      <trkpt lat="45.92488" lon="6.49997">
        <ele>1735.5</ele>
        <time>2015-03-24T12:31:22Z</time>
      </trkpt>
      <trkpt lat="45.92487" lon="6.49992">
        <ele>1735.6</ele>
        <time>2015-03-24T12:31:23Z</time>
      </trkpt>
      <trkpt lat="45.92486" lon="6.49987">
        <ele>1736.8</ele>
        <time>2015-03-24T12:31:24Z</time>
      </trkpt>
      <trkpt lat="45.92486" lon="6.49981">
        <ele>1736.6</ele>
        <time>2015-03-24T12:31:25Z</time>
      </trkpt>
      <trkpt lat="45.92485" lon="6.49976">
        <ele>1736.2</ele>
        <time>2015-03-24T12:31:26Z</time>
      </trkpt>
      <trkpt lat="45.92485" lon="6.49972">
        <ele>1736.7</ele>
        <time>2015-03-24T12:31:27Z</time>
      </trkpt>
      <trkpt lat="45.92487" lon="6.49964">
        <ele>1731.2</ele>
        <time>2015-03-24T12:31:29Z</time>
      </trkpt>
      <trkpt lat="45.92487" lon="6.49959">
        <ele>1730.1</ele>
        <time>2015-03-24T12:31:30Z</time>
      </trkpt>
      <trkpt lat="45.92487" lon="6.49955">
        <ele>1729.6</ele>
        <time>2015-03-24T12:31:31Z</time>
      </trkpt>
      <trkpt lat="45.92489" lon="6.49949">
        <ele>1726.1</ele>
        <time>2015-03-24T12:31:32Z</time>
      </trkpt>
      <trkpt lat="45.92489" lon="6.49944">
        <ele>1725.9</ele>
        <time>2015-03-24T12:31:33Z</time>
      </trkpt>
      <trkpt lat="45.92488" lon="6.4994">
        <ele>1726.6</ele>
        <time>2015-03-24T12:31:34Z</time>
      </trkpt>
      <trkpt lat="45.92489" lon="6.49935">
        <ele>1725.2</ele>
        <time>2015-03-24T12:31:35Z</time>
      </trkpt>
      <trkpt lat="45.92489" lon="6.49929">
        <ele>1724.5</ele>
        <time>2015-03-24T12:31:36Z</time>
      </trkpt>
      <trkpt lat="45.9249" lon="6.49924">
        <ele>1722.6</ele>
        <time>2015-03-24T12:31:37Z</time>
      </trkpt>
      <trkpt lat="45.92492" lon="6.49918">
        <ele>1719.7</ele>
        <time>2015-03-24T12:31:38Z</time>
      </trkpt>
      <trkpt lat="45.92493" lon="6.49914">
        <ele>1717.1</ele>
        <time>2015-03-24T12:31:39Z</time>
      </trkpt>
      <trkpt lat="45.92495" lon="6.49909">
        <ele>1714.4</ele>
        <time>2015-03-24T12:31:40Z</time>
      </trkpt>
      <trkpt lat="45.92498" lon="6.49903">
        <ele>1710.9</ele>
        <time>2015-03-24T12:31:41Z</time>
      </trkpt>
      <trkpt lat="45.92499" lon="6.49898">
        <ele>1708.9</ele>
        <time>2015-03-24T12:31:42Z</time>
      </trkpt>
      <trkpt lat="45.92501" lon="6.49893">
        <ele>1706.5</ele>
        <time>2015-03-24T12:31:43Z</time>
      </trkpt>
      <trkpt lat="45.92504" lon="6.49886">
        <ele>1703.6</ele>
        <time>2015-03-24T12:31:44Z</time>
      </trkpt>
      <trkpt lat="45.92505" lon="6.4988">
        <ele>1701.8</ele>
        <time>2015-03-24T12:31:45Z</time>
      </trkpt>
      <trkpt lat="45.92507" lon="6.49875">
        <ele>1700.7</ele>
        <time>2015-03-24T12:31:46Z</time>
      </trkpt>
      <trkpt lat="45.92509" lon="6.49871">
        <ele>1697.9</ele>
        <time>2015-03-24T12:31:47Z</time>
      </trkpt>
      <trkpt lat="45.92511" lon="6.49867">
        <ele>1695.5</ele>
        <time>2015-03-24T12:31:49Z</time>
      </trkpt>
      <trkpt lat="45.92512" lon="6.49862">
        <ele>1694.4</ele>
        <time>2015-03-24T12:31:50Z</time>
      </trkpt>
      <trkpt lat="45.92513" lon="6.49858">
        <ele>1693.4</ele>
        <time>2015-03-24T12:31:51Z</time>
      </trkpt>
      <trkpt lat="45.92514" lon="6.4985">
        <ele>1691.4</ele>
        <time>2015-03-24T12:31:53Z</time>
      </trkpt>
      <trkpt lat="45.92516" lon="6.49844">
        <ele>1689.3</ele>
        <time>2015-03-24T12:31:54Z</time>
      </trkpt>
      <trkpt lat="45.92518" lon="6.4984">
        <ele>1687.4</ele>
        <time>2015-03-24T12:31:55Z</time>
      </trkpt>
      <trkpt lat="45.92522" lon="6.49836">
        <ele>1684.5</ele>
        <time>2015-03-24T12:31:56Z</time>
      </trkpt>
      <trkpt lat="45.92523" lon="6.49833">
        <ele>1682.9</ele>
        <time>2015-03-24T12:31:57Z</time>
      </trkpt>
      <trkpt lat="45.92525" lon="6.4983">
        <ele>1681.5</ele>
        <time>2015-03-24T12:31:58Z</time>
      </trkpt>
      <trkpt lat="45.92527" lon="6.49826">
        <ele>1680.4</ele>
        <time>2015-03-24T12:31:59Z</time>
      </trkpt>
      <trkpt lat="45.92529" lon="6.49821">
        <ele>1678.8</ele>
        <time>2015-03-24T12:32:00Z</time>
      </trkpt>
      <trkpt lat="45.9253" lon="6.49816">
        <ele>1678.3</ele>
        <time>2015-03-24T12:32:01Z</time>
      </trkpt>
      <trkpt lat="45.92532" lon="6.49812">
        <ele>1677.2</ele>
        <time>2015-03-24T12:32:02Z</time>
      </trkpt>
      <trkpt lat="45.92531" lon="6.4981">
        <ele>1677.9</ele>
        <time>2015-03-24T12:32:14Z</time>
      </trkpt>
      <trkpt lat="45.92533" lon="6.4981">
        <ele>1676.2</ele>
        <time>2015-03-24T12:32:23Z</time>
      </trkpt>
      <trkpt lat="45.92535" lon="6.4981">
        <ele>1674.4</ele>
        <time>2015-03-24T12:32:24Z</time>
      </trkpt>
      <trkpt lat="45.92533" lon="6.49815">
        <ele>1676.2</ele>
        <time>2015-03-24T12:32:26Z</time>
      </trkpt>
      <trkpt lat="45.92535" lon="6.49821">
        <ele>1674</ele>
        <time>2015-03-24T12:32:28Z</time>
      </trkpt>
      <trkpt lat="45.92535" lon="6.49827">
        <ele>1673</ele>
        <time>2015-03-24T12:32:30Z</time>
      </trkpt>
      <trkpt lat="45.92537" lon="6.4983">
        <ele>1671.5</ele>
        <time>2015-03-24T12:32:32Z</time>
      </trkpt>
      <trkpt lat="45.9254" lon="6.49833">
        <ele>1667.8</ele>
        <time>2015-03-24T12:32:34Z</time>
      </trkpt>
      <trkpt lat="45.92544" lon="6.49833">
        <ele>1663.4</ele>
        <time>2015-03-24T12:32:37Z</time>
      </trkpt>
      <trkpt lat="45.92547" lon="6.49834">
        <ele>1659.8</ele>
        <time>2015-03-24T12:32:38Z</time>
      </trkpt>
      <trkpt lat="45.92552" lon="6.49834">
        <ele>1654.8</ele>
        <time>2015-03-24T12:32:39Z</time>
      </trkpt>
      <trkpt lat="45.92554" lon="6.49832">
        <ele>1652</ele>
        <time>2015-03-24T12:32:40Z</time>
      </trkpt>
      <trkpt lat="45.92557" lon="6.49834">
        <ele>1648.3</ele>
        <time>2015-03-24T12:32:42Z</time>
      </trkpt>
      <trkpt lat="45.92558" lon="6.49839">
        <ele>1647.1</ele>
        <time>2015-03-24T12:32:43Z</time>
      </trkpt>
      <trkpt lat="45.92561" lon="6.49846">
        <ele>1642.3</ele>
        <time>2015-03-24T12:32:45Z</time>
      </trkpt>
      <trkpt lat="45.92564" lon="6.49843">
        <ele>1639.6</ele>
        <time>2015-03-24T12:32:47Z</time>
      </trkpt>
      <trkpt lat="45.92567" lon="6.49844">
        <ele>1636.1</ele>
        <time>2015-03-24T12:32:48Z</time>
      </trkpt>
      <trkpt lat="45.92568" lon="6.4984">
        <ele>1634.3</ele>
        <time>2015-03-24T12:32:49Z</time>
      </trkpt>
      <trkpt lat="45.92571" lon="6.49835">
        <ele>1632.2</ele>
        <time>2015-03-24T12:32:50Z</time>
      </trkpt>
      <trkpt lat="45.92573" lon="6.4983">
        <ele>1630.4</ele>
        <time>2015-03-24T12:32:51Z</time>
      </trkpt>
      <trkpt lat="45.92573" lon="6.49825">
        <ele>1631</ele>
        <time>2015-03-24T12:32:52Z</time>
      </trkpt>
      <trkpt lat="45.92575" lon="6.49818">
        <ele>1628.9</ele>
        <time>2015-03-24T12:32:54Z</time>
      </trkpt>
      <trkpt lat="45.92576" lon="6.49814">
        <ele>1628.5</ele>
        <time>2015-03-24T12:32:55Z</time>
      </trkpt>
      <trkpt lat="45.92578" lon="6.49809">
        <ele>1626.6</ele>
        <time>2015-03-24T12:32:56Z</time>
      </trkpt>
      <trkpt lat="45.92576" lon="6.49802">
        <ele>1629.3</ele>
        <time>2015-03-24T12:32:58Z</time>
      </trkpt>
      <trkpt lat="45.9258" lon="6.49803">
        <ele>1625.1</ele>
        <time>2015-03-24T12:33:00Z</time>
      </trkpt>
      <trkpt lat="45.92582" lon="6.498">
        <ele>1622.1</ele>
        <time>2015-03-24T12:33:01Z</time>
      </trkpt>
      <trkpt lat="45.92587" lon="6.49798">
        <ele>1617</ele>
        <time>2015-03-24T12:33:03Z</time>
      </trkpt>
      <trkpt lat="45.9259" lon="6.49792">
        <ele>1613.4</ele>
        <time>2015-03-24T12:33:05Z</time>
      </trkpt>
      <trkpt lat="45.9259" lon="6.49787">
        <ele>1613</ele>
        <time>2015-03-24T12:33:06Z</time>
      </trkpt>
      <trkpt lat="45.92595" lon="6.49786">
        <ele>1607.1</ele>
        <time>2015-03-24T12:33:09Z</time>
      </trkpt>
      <trkpt lat="45.92598" lon="6.49786">
        <ele>1603.4</ele>
        <time>2015-03-24T12:33:12Z</time>
      </trkpt>
      <trkpt lat="45.92596" lon="6.49789">
        <ele>1606.5</ele>
        <time>2015-03-24T12:33:16Z</time>
      </trkpt>
      <trkpt lat="45.92592" lon="6.49789">
        <ele>1611.1</ele>
        <time>2015-03-24T12:33:19Z</time>
      </trkpt>
      <trkpt lat="45.92589" lon="6.49789">
        <ele>1614.9</ele>
        <time>2015-03-24T12:33:20Z</time>
      </trkpt>
      <trkpt lat="45.92593" lon="6.49787">
        <ele>1609.6</ele>
        <time>2015-03-24T12:33:30Z</time>
      </trkpt>
      <trkpt lat="45.92596" lon="6.49785">
        <ele>1606.3</ele>
        <time>2015-03-24T12:33:31Z</time>
      </trkpt>
      <trkpt lat="45.92598" lon="6.49781">
        <ele>1603.1</ele>
        <time>2015-03-24T12:33:32Z</time>
      </trkpt>
      <trkpt lat="45.92606" lon="6.49781">
        <ele>1593.5</ele>
        <time>2015-03-24T12:33:33Z</time>
      </trkpt>
      <trkpt lat="45.92609" lon="6.49783">
        <ele>1590.2</ele>
        <time>2015-03-24T12:33:34Z</time>
      </trkpt>
      <trkpt lat="45.92613" lon="6.49785">
        <ele>1586.1</ele>
        <time>2015-03-24T12:33:35Z</time>
      </trkpt>
      <trkpt lat="45.92607" lon="6.49785">
        <ele>1592.3</ele>
        <time>2015-03-24T12:33:46Z</time>
      </trkpt>
      <trkpt lat="45.92611" lon="6.49786">
        <ele>1588.5</ele>
        <time>2015-03-24T12:33:50Z</time>
      </trkpt>
      <trkpt lat="45.92606" lon="6.49781">
        <ele>1593.6</ele>
        <time>2015-03-24T12:33:52Z</time>
      </trkpt>
      <trkpt lat="45.92604" lon="6.49779">
        <ele>1596.8</ele>
        <time>2015-03-24T12:33:54Z</time>
      </trkpt>
      <trkpt lat="45.92608" lon="6.49776">
        <ele>1592</ele>
        <time>2015-03-24T12:33:58Z</time>
      </trkpt>
      <trkpt lat="45.92608" lon="6.49772">
        <ele>1591.9</ele>
        <time>2015-03-24T12:34:02Z</time>
      </trkpt>
      <trkpt lat="45.92609" lon="6.49764">
        <ele>1589.8</ele>
        <time>2015-03-24T12:34:04Z</time>
      </trkpt>
      <trkpt lat="45.92608" lon="6.49757">
        <ele>1591.2</ele>
        <time>2015-03-24T12:34:05Z</time>
      </trkpt>
      <trkpt lat="45.92608" lon="6.49749">
        <ele>1591.1</ele>
        <time>2015-03-24T12:34:06Z</time>
      </trkpt>
      <trkpt lat="45.92611" lon="6.49742">
        <ele>1587.5</ele>
        <time>2015-03-24T12:34:07Z</time>
      </trkpt>
      <trkpt lat="45.92612" lon="6.49737">
        <ele>1586.7</ele>
        <time>2015-03-24T12:34:08Z</time>
      </trkpt>
      <trkpt lat="45.9261" lon="6.49732">
        <ele>1588.1</ele>
        <time>2015-03-24T12:34:09Z</time>
      </trkpt>
      <trkpt lat="45.92609" lon="6.49724">
        <ele>1589</ele>
        <time>2015-03-24T12:34:10Z</time>
      </trkpt>
      <trkpt lat="45.92609" lon="6.49714">
        <ele>1589.6</ele>
        <time>2015-03-24T12:34:11Z</time>
      </trkpt>
      <trkpt lat="45.92608" lon="6.49708">
        <ele>1590.3</ele>
        <time>2015-03-24T12:34:12Z</time>
      </trkpt>
      <trkpt lat="45.92609" lon="6.49702">
        <ele>1590.7</ele>
        <time>2015-03-24T12:34:14Z</time>
      </trkpt>
      <trkpt lat="45.92608" lon="6.49697">
        <ele>1592.2</ele>
        <time>2015-03-24T12:34:16Z</time>
      </trkpt>
      <trkpt lat="45.92607" lon="6.49693">
        <ele>1593.6</ele>
        <time>2015-03-24T12:34:21Z</time>
      </trkpt>
      <trkpt lat="45.9261" lon="6.49691">
        <ele>1590.9</ele>
        <time>2015-03-24T12:34:24Z</time>
      </trkpt>
      <trkpt lat="45.92613" lon="6.49688">
        <ele>1588.8</ele>
        <time>2015-03-24T12:34:34Z</time>
      </trkpt>
      <trkpt lat="45.92614" lon="6.49685">
        <ele>1588.3</ele>
        <time>2015-03-24T12:34:35Z</time>
      </trkpt>
      <trkpt lat="45.92616" lon="6.4968">
        <ele>1587.6</ele>
        <time>2015-03-24T12:34:36Z</time>
      </trkpt>
      <trkpt lat="45.92617" lon="6.49674">
        <ele>1587.4</ele>
        <time>2015-03-24T12:34:37Z</time>
      </trkpt>
      <trkpt lat="45.92616" lon="6.49666">
        <ele>1590.2</ele>
        <time>2015-03-24T12:34:38Z</time>
      </trkpt>
      <trkpt lat="45.92616" lon="6.49661">
        <ele>1591.4</ele>
        <time>2015-03-24T12:34:39Z</time>
      </trkpt>
      <trkpt lat="45.92617" lon="6.49657">
        <ele>1591.1</ele>
        <time>2015-03-24T12:34:40Z</time>
      </trkpt>
      <trkpt lat="45.9262" lon="6.49654">
        <ele>1589.7</ele>
        <time>2015-03-24T12:34:43Z</time>
      </trkpt>
      <trkpt lat="45.92623" lon="6.4965">
        <ele>1588.2</ele>
        <time>2015-03-24T12:34:46Z</time>
      </trkpt>
      <trkpt lat="45.92626" lon="6.49647">
        <ele>1586.8</ele>
        <time>2015-03-24T12:34:47Z</time>
      </trkpt>
      <trkpt lat="45.92627" lon="6.49642">
        <ele>1587</ele>
        <time>2015-03-24T12:34:48Z</time>
      </trkpt>
      <trkpt lat="45.92632" lon="6.49636">
        <ele>1582.6</ele>
        <time>2015-03-24T12:34:49Z</time>
      </trkpt>
      <trkpt lat="45.92634" lon="6.4963">
        <ele>1582.6</ele>
        <time>2015-03-24T12:34:50Z</time>
      </trkpt>
      <trkpt lat="45.92636" lon="6.49625">
        <ele>1581.3</ele>
        <time>2015-03-24T12:34:51Z</time>
      </trkpt>
      <trkpt lat="45.92638" lon="6.4962">
        <ele>1578.7</ele>
        <time>2015-03-24T12:34:52Z</time>
      </trkpt>
      <trkpt lat="45.9264" lon="6.49617">
        <ele>1576.5</ele>
        <time>2015-03-24T12:34:53Z</time>
      </trkpt>
      <trkpt lat="45.92643" lon="6.49614">
        <ele>1573.9</ele>
        <time>2015-03-24T12:34:54Z</time>
      </trkpt>
      <trkpt lat="45.92645" lon="6.49608">
        <ele>1572</ele>
        <time>2015-03-24T12:34:56Z</time>
      </trkpt>
      <trkpt lat="45.92645" lon="6.49604">
        <ele>1571.3</ele>
        <time>2015-03-24T12:34:57Z</time>
      </trkpt>
      <trkpt lat="45.92649" lon="6.49598">
        <ele>1567.4</ele>
        <time>2015-03-24T12:34:59Z</time>
      </trkpt>
      <trkpt lat="45.92652" lon="6.49594">
        <ele>1564.4</ele>
        <time>2015-03-24T12:35:00Z</time>
      </trkpt>
      <trkpt lat="45.92653" lon="6.49589">
        <ele>1563.9</ele>
        <time>2015-03-24T12:35:01Z</time>
      </trkpt>
      <trkpt lat="45.92654" lon="6.49582">
        <ele>1562.7</ele>
        <time>2015-03-24T12:35:02Z</time>
      </trkpt>
      <trkpt lat="45.92657" lon="6.49575">
        <ele>1559.8</ele>
        <time>2015-03-24T12:35:03Z</time>
      </trkpt>
      <trkpt lat="45.9266" lon="6.49569">
        <ele>1557</ele>
        <time>2015-03-24T12:35:04Z</time>
      </trkpt>
      <trkpt lat="45.92663" lon="6.49563">
        <ele>1554</ele>
        <time>2015-03-24T12:35:05Z</time>
      </trkpt>
      <trkpt lat="45.92665" lon="6.49556">
        <ele>1552</ele>
        <time>2015-03-24T12:35:06Z</time>
      </trkpt>
      <trkpt lat="45.92668" lon="6.49552">
        <ele>1549.4</ele>
        <time>2015-03-24T12:35:07Z</time>
      </trkpt>
      <trkpt lat="45.92668" lon="6.49546">
        <ele>1549.4</ele>
        <time>2015-03-24T12:35:08Z</time>
      </trkpt>
      <trkpt lat="45.9267" lon="6.49543">
        <ele>1547.5</ele>
        <time>2015-03-24T12:35:09Z</time>
      </trkpt>
      <trkpt lat="45.92672" lon="6.49538">
        <ele>1545.4</ele>
        <time>2015-03-24T12:35:11Z</time>
      </trkpt>
      <trkpt lat="45.92674" lon="6.49533">
        <ele>1542.9</ele>
        <time>2015-03-24T12:35:12Z</time>
      </trkpt>
      <trkpt lat="45.92675" lon="6.49529">
        <ele>1542.3</ele>
        <time>2015-03-24T12:35:13Z</time>
      </trkpt>
      <trkpt lat="45.92675" lon="6.49524">
        <ele>1541.5</ele>
        <time>2015-03-24T12:35:14Z</time>
      </trkpt>
      <trkpt lat="45.92678" lon="6.49519">
        <ele>1539.1</ele>
        <time>2015-03-24T12:35:15Z</time>
      </trkpt>
      <trkpt lat="45.92683" lon="6.49512">
        <ele>1533.5</ele>
        <time>2015-03-24T12:35:16Z</time>
      </trkpt>
      <trkpt lat="45.92687" lon="6.49506">
        <ele>1529.9</ele>
        <time>2015-03-24T12:35:17Z</time>
      </trkpt>
      <trkpt lat="45.9269" lon="6.495">
        <ele>1527.1</ele>
        <time>2015-03-24T12:35:18Z</time>
      </trkpt>
      <trkpt lat="45.92695" lon="6.49494">
        <ele>1522.8</ele>
        <time>2015-03-24T12:35:19Z</time>
      </trkpt>
      <trkpt lat="45.92698" lon="6.49487">
        <ele>1519.9</ele>
        <time>2015-03-24T12:35:20Z</time>
      </trkpt>
      <trkpt lat="45.92704" lon="6.4948">
        <ele>1514.7</ele>
        <time>2015-03-24T12:35:21Z</time>
      </trkpt>
      <trkpt lat="45.9271" lon="6.49474">
        <ele>1510.7</ele>
        <time>2015-03-24T12:35:22Z</time>
      </trkpt>
      <trkpt lat="45.92717" lon="6.4947">
        <ele>1508.6</ele>
        <time>2015-03-24T12:35:23Z</time>
      </trkpt>
      <trkpt lat="45.92721" lon="6.49465">
        <ele>1507.6</ele>
        <time>2015-03-24T12:35:24Z</time>
      </trkpt>
      <trkpt lat="45.92727" lon="6.4946">
        <ele>1505.9</ele>
        <time>2015-03-24T12:35:25Z</time>
      </trkpt>
      <trkpt lat="45.92733" lon="6.49454">
        <ele>1503.7</ele>
        <time>2015-03-24T12:35:26Z</time>
      </trkpt>
      <trkpt lat="45.92736" lon="6.49451">
        <ele>1502.3</ele>
        <time>2015-03-24T12:35:27Z</time>
      </trkpt>
      <trkpt lat="45.92738" lon="6.49448">
        <ele>1501.2</ele>
        <time>2015-03-24T12:35:28Z</time>
      </trkpt>
      <trkpt lat="45.92731" lon="6.49448">
        <ele>1503.6</ele>
        <time>2015-03-24T12:35:29Z</time>
      </trkpt>
      <trkpt lat="45.92734" lon="6.49445">
        <ele>1502.4</ele>
        <time>2015-03-24T12:35:33Z</time>
      </trkpt>
      <trkpt lat="45.92737" lon="6.49443">
        <ele>1501.2</ele>
        <time>2015-03-24T12:35:37Z</time>
      </trkpt>
      <trkpt lat="45.92741" lon="6.49442">
        <ele>1499.8</ele>
        <time>2015-03-24T12:35:40Z</time>
      </trkpt>
      <trkpt lat="45.92744" lon="6.49442">
        <ele>1498.8</ele>
        <time>2015-03-24T12:35:41Z</time>
      </trkpt>
      <trkpt lat="45.92736" lon="6.49439">
        <ele>1501.1</ele>
        <time>2015-03-24T12:35:46Z</time>
      </trkpt>
      <trkpt lat="45.92741" lon="6.49434">
        <ele>1499</ele>
        <time>2015-03-24T12:35:48Z</time>
      </trkpt>
      <trkpt lat="45.92721" lon="6.4942">
        <ele>1504.6</ele>
        <time>2015-03-24T12:35:51Z</time>
      </trkpt>
      <trkpt lat="45.9272" lon="6.49417">
        <ele>1504.9</ele>
        <time>2015-03-24T12:35:52Z</time>
      </trkpt>
      <trkpt lat="45.9272" lon="6.49413">
        <ele>1504.2</ele>
        <time>2015-03-24T12:35:53Z</time>
      </trkpt>
      <trkpt lat="45.92719" lon="6.49408">
        <ele>1504.5</ele>
        <time>2015-03-24T12:35:54Z</time>
      </trkpt>
      <trkpt lat="45.92717" lon="6.49404">
        <ele>1504.8</ele>
        <time>2015-03-24T12:35:55Z</time>
      </trkpt>
      <trkpt lat="45.92716" lon="6.49396">
        <ele>1504.5</ele>
        <time>2015-03-24T12:35:57Z</time>
      </trkpt>
      <trkpt lat="45.92714" lon="6.49392">
        <ele>1504.9</ele>
        <time>2015-03-24T12:35:58Z</time>
      </trkpt>
      <trkpt lat="45.92715" lon="6.49388">
        <ele>1504.3</ele>
        <time>2015-03-24T12:35:59Z</time>
      </trkpt>
      <trkpt lat="45.92715" lon="6.49383">
        <ele>1503.9</ele>
        <time>2015-03-24T12:36:01Z</time>
      </trkpt>
      <trkpt lat="45.92714" lon="6.49378">
        <ele>1503.9</ele>
        <time>2015-03-24T12:36:02Z</time>
      </trkpt>
      <trkpt lat="45.92712" lon="6.49372">
        <ele>1503.3</ele>
        <time>2015-03-24T12:36:03Z</time>
      </trkpt>
      <trkpt lat="45.92709" lon="6.49367">
        <ele>1503.1</ele>
        <time>2015-03-24T12:36:04Z</time>
      </trkpt>
      <trkpt lat="45.92706" lon="6.4936">
        <ele>1501.3</ele>
        <time>2015-03-24T12:36:05Z</time>
      </trkpt>
      <trkpt lat="45.92704" lon="6.49352">
        <ele>1499.1</ele>
        <time>2015-03-24T12:36:06Z</time>
      </trkpt>
      <trkpt lat="45.92703" lon="6.49344">
        <ele>1496.7</ele>
        <time>2015-03-24T12:36:07Z</time>
      </trkpt>
      <trkpt lat="45.92702" lon="6.49338">
        <ele>1494.8</ele>
        <time>2015-03-24T12:36:08Z</time>
      </trkpt>
      <trkpt lat="45.927" lon="6.49331">
        <ele>1493.1</ele>
        <time>2015-03-24T12:36:09Z</time>
      </trkpt>
      <trkpt lat="45.92699" lon="6.49324">
        <ele>1490.9</ele>
        <time>2015-03-24T12:36:10Z</time>
      </trkpt>
      <trkpt lat="45.92697" lon="6.49319">
        <ele>1489.4</ele>
        <time>2015-03-24T12:36:11Z</time>
      </trkpt>
      <trkpt lat="45.92695" lon="6.49309">
        <ele>1486.4</ele>
        <time>2015-03-24T12:36:12Z</time>
      </trkpt>
      <trkpt lat="45.92692" lon="6.49301">
        <ele>1484.4</ele>
        <time>2015-03-24T12:36:13Z</time>
      </trkpt>
      <trkpt lat="45.92687" lon="6.49292">
        <ele>1482.2</ele>
        <time>2015-03-24T12:36:14Z</time>
      </trkpt>
      <trkpt lat="45.92683" lon="6.49285">
        <ele>1481.1</ele>
        <time>2015-03-24T12:36:15Z</time>
      </trkpt>
      <trkpt lat="45.92677" lon="6.49283">
        <ele>1481.9</ele>
        <time>2015-03-24T12:36:16Z</time>
      </trkpt>
      <trkpt lat="45.92673" lon="6.49279">
        <ele>1481.8</ele>
        <time>2015-03-24T12:36:17Z</time>
      </trkpt>
      <trkpt lat="45.92669" lon="6.49276">
        <ele>1481.8</ele>
        <time>2015-03-24T12:36:18Z</time>
      </trkpt>
      <trkpt lat="45.92665" lon="6.49275">
        <ele>1482.3</ele>
        <time>2015-03-24T12:36:19Z</time>
      </trkpt>
      <trkpt lat="45.92663" lon="6.49272">
        <ele>1482.2</ele>
        <time>2015-03-24T12:36:20Z</time>
      </trkpt>
      <trkpt lat="45.92659" lon="6.49271">
        <ele>1482.8</ele>
        <time>2015-03-24T12:36:22Z</time>
      </trkpt>
      <trkpt lat="45.92656" lon="6.49272">
        <ele>1484</ele>
        <time>2015-03-24T12:36:24Z</time>
      </trkpt>
      <trkpt lat="45.92652" lon="6.4927">
        <ele>1484.5</ele>
        <time>2015-03-24T12:36:27Z</time>
      </trkpt>
      <trkpt lat="45.92649" lon="6.49268">
        <ele>1484.5</ele>
        <time>2015-03-24T12:36:29Z</time>
      </trkpt>
      <trkpt lat="45.92647" lon="6.49266">
        <ele>1484.7</ele>
        <time>2015-03-24T12:36:31Z</time>
      </trkpt>
      <trkpt lat="45.92644" lon="6.49266">
        <ele>1485.4</ele>
        <time>2015-03-24T12:36:33Z</time>
      </trkpt>
      <trkpt lat="45.9264" lon="6.49263">
        <ele>1485.8</ele>
        <time>2015-03-24T12:36:35Z</time>
      </trkpt>
      <trkpt lat="45.92637" lon="6.49262">
        <ele>1486</ele>
        <time>2015-03-24T12:36:37Z</time>
      </trkpt>
      <trkpt lat="45.92634" lon="6.4926">
        <ele>1486.2</ele>
        <time>2015-03-24T12:36:40Z</time>
      </trkpt>
      <trkpt lat="45.92631" lon="6.49256">
        <ele>1485.7</ele>
        <time>2015-03-24T12:36:42Z</time>
      </trkpt>
      <trkpt lat="45.92628" lon="6.49254">
        <ele>1485.9</ele>
        <time>2015-03-24T12:36:44Z</time>
      </trkpt>
      <trkpt lat="45.92626" lon="6.49251">
        <ele>1485.6</ele>
        <time>2015-03-24T12:36:48Z</time>
      </trkpt>
      <trkpt lat="45.92624" lon="6.49247">
        <ele>1484.8</ele>
        <time>2015-03-24T12:36:52Z</time>
      </trkpt>
      <trkpt lat="45.92622" lon="6.49244">
        <ele>1484.1</ele>
        <time>2015-03-24T12:36:53Z</time>
      </trkpt>
      <trkpt lat="45.92619" lon="6.49244">
        <ele>1484.6</ele>
        <time>2015-03-24T12:36:57Z</time>
      </trkpt>
      <trkpt lat="45.92618" lon="6.4924">
        <ele>1483.7</ele>
        <time>2015-03-24T12:36:59Z</time>
      </trkpt>
      <trkpt lat="45.92615" lon="6.4924">
        <ele>1484.2</ele>
        <time>2015-03-24T12:37:04Z</time>
      </trkpt>
      <trkpt lat="45.92612" lon="6.49238">
        <ele>1484.2</ele>
        <time>2015-03-24T12:37:07Z</time>
      </trkpt>
      <trkpt lat="45.92609" lon="6.49239">
        <ele>1485.3</ele>
        <time>2015-03-24T12:37:11Z</time>
      </trkpt>
      <trkpt lat="45.92607" lon="6.49236">
        <ele>1484.6</ele>
        <time>2015-03-24T12:37:14Z</time>
      </trkpt>
      <trkpt lat="45.92604" lon="6.49233">
        <ele>1484.3</ele>
        <time>2015-03-24T12:37:18Z</time>
      </trkpt>
      <trkpt lat="45.92601" lon="6.49234">
        <ele>1485.3</ele>
        <time>2015-03-24T12:37:25Z</time>
      </trkpt>
      <trkpt lat="45.92598" lon="6.49232">
        <ele>1485.3</ele>
        <time>2015-03-24T12:37:29Z</time>
      </trkpt>
      <trkpt lat="45.92595" lon="6.4923">
        <ele>1485.2</ele>
        <time>2015-03-24T12:37:33Z</time>
      </trkpt>
      <trkpt lat="45.92592" lon="6.49228">
        <ele>1485.4</ele>
        <time>2015-03-24T12:37:36Z</time>
      </trkpt>
      <trkpt lat="45.92589" lon="6.49226">
        <ele>1485.5</ele>
        <time>2015-03-24T12:37:42Z</time>
      </trkpt>
      <trkpt lat="45.92586" lon="6.49227">
        <ele>1486.4</ele>
        <time>2015-03-24T12:37:47Z</time>
      </trkpt>
      <trkpt lat="45.92583" lon="6.49224">
        <ele>1486.3</ele>
        <time>2015-03-24T12:37:52Z</time>
      </trkpt>
      <trkpt lat="45.9258" lon="6.49224">
        <ele>1486.7</ele>
        <time>2015-03-24T12:37:57Z</time>
      </trkpt>
      <trkpt lat="45.92577" lon="6.49224">
        <ele>1487.5</ele>
        <time>2015-03-24T12:38:02Z</time>
      </trkpt>
      <trkpt lat="45.92574" lon="6.49223">
        <ele>1488</ele>
        <time>2015-03-24T12:38:08Z</time>
      </trkpt>
      <trkpt lat="45.92572" lon="6.49219">
        <ele>1487.1</ele>
        <time>2015-03-24T12:38:11Z</time>
      </trkpt>
      <trkpt lat="45.92569" lon="6.49217">
        <ele>1487</ele>
        <time>2015-03-24T12:38:14Z</time>
      </trkpt>
      <trkpt lat="45.92566" lon="6.49216">
        <ele>1487.3</ele>
        <time>2015-03-24T12:38:17Z</time>
      </trkpt>
      <trkpt lat="45.92564" lon="6.49216">
        <ele>1488.2</ele>
        <time>2015-03-24T12:38:22Z</time>
      </trkpt>
      <trkpt lat="45.92561" lon="6.49218">
        <ele>1489.3</ele>
        <time>2015-03-24T12:38:25Z</time>
      </trkpt>
      <trkpt lat="45.92557" lon="6.49215">
        <ele>1489.4</ele>
        <time>2015-03-24T12:38:29Z</time>
      </trkpt>
      <trkpt lat="45.92555" lon="6.49216">
        <ele>1490.2</ele>
        <time>2015-03-24T12:38:32Z</time>
      </trkpt>
      <trkpt lat="45.92551" lon="6.49216">
        <ele>1490.9</ele>
        <time>2015-03-24T12:38:35Z</time>
      </trkpt>
      <trkpt lat="45.92549" lon="6.49219">
        <ele>1492.5</ele>
        <time>2015-03-24T12:38:39Z</time>
      </trkpt>
      <trkpt lat="45.92545" lon="6.4922">
        <ele>1493.8</ele>
        <time>2015-03-24T12:38:44Z</time>
      </trkpt>
      <trkpt lat="45.92543" lon="6.49219">
        <ele>1493.9</ele>
        <time>2015-03-24T12:38:46Z</time>
      </trkpt>
      <trkpt lat="45.92538" lon="6.49215">
        <ele>1493.1</ele>
        <time>2015-03-24T12:38:48Z</time>
      </trkpt>
      <trkpt lat="45.92535" lon="6.49214">
        <ele>1492.6</ele>
        <time>2015-03-24T12:38:50Z</time>
      </trkpt>
      <trkpt lat="45.92531" lon="6.49212">
        <ele>1492.1</ele>
        <time>2015-03-24T12:38:52Z</time>
      </trkpt>
      <trkpt lat="45.92528" lon="6.49206">
        <ele>1490.6</ele>
        <time>2015-03-24T12:38:54Z</time>
      </trkpt>
      <trkpt lat="45.92525" lon="6.49207">
        <ele>1490.9</ele>
        <time>2015-03-24T12:38:56Z</time>
      </trkpt>
      <trkpt lat="45.92521" lon="6.49206">
        <ele>1490.6</ele>
        <time>2015-03-24T12:38:58Z</time>
      </trkpt>
      <trkpt lat="45.92517" lon="6.49203">
        <ele>1489.8</ele>
        <time>2015-03-24T12:39:00Z</time>
      </trkpt>
      <trkpt lat="45.92513" lon="6.49201">
        <ele>1489.5</ele>
        <time>2015-03-24T12:39:02Z</time>
      </trkpt>
      <trkpt lat="45.92508" lon="6.49199">
        <ele>1489.3</ele>
        <time>2015-03-24T12:39:04Z</time>
      </trkpt>
      <trkpt lat="45.92505" lon="6.49199">
        <ele>1489.2</ele>
        <time>2015-03-24T12:39:05Z</time>
      </trkpt>
      <trkpt lat="45.92502" lon="6.49198">
        <ele>1489.1</ele>
        <time>2015-03-24T12:39:06Z</time>
      </trkpt>
      <trkpt lat="45.92498" lon="6.49196">
        <ele>1488.9</ele>
        <time>2015-03-24T12:39:08Z</time>
      </trkpt>
      <trkpt lat="45.92495" lon="6.49194">
        <ele>1488.6</ele>
        <time>2015-03-24T12:39:10Z</time>
      </trkpt>
      <trkpt lat="45.92492" lon="6.49192">
        <ele>1488.2</ele>
        <time>2015-03-24T12:39:12Z</time>
      </trkpt>
      <trkpt lat="45.92489" lon="6.49191">
        <ele>1488.1</ele>
        <time>2015-03-24T12:39:14Z</time>
      </trkpt>
      <trkpt lat="45.92487" lon="6.49189">
        <ele>1487.8</ele>
        <time>2015-03-24T12:39:16Z</time>
      </trkpt>
      <trkpt lat="45.92485" lon="6.49185">
        <ele>1487.2</ele>
        <time>2015-03-24T12:39:18Z</time>
      </trkpt>
      <trkpt lat="45.92481" lon="6.49183">
        <ele>1487</ele>
        <time>2015-03-24T12:39:21Z</time>
      </trkpt>
      <trkpt lat="45.92478" lon="6.49178">
        <ele>1486.3</ele>
        <time>2015-03-24T12:39:23Z</time>
      </trkpt>
      <trkpt lat="45.92475" lon="6.49174">
        <ele>1485.7</ele>
        <time>2015-03-24T12:39:25Z</time>
      </trkpt>
      <trkpt lat="45.92471" lon="6.49168">
        <ele>1485</ele>
        <time>2015-03-24T12:39:27Z</time>
      </trkpt>
      <trkpt lat="45.92468" lon="6.49163">
        <ele>1484.5</ele>
        <time>2015-03-24T12:39:29Z</time>
      </trkpt>
      <trkpt lat="45.92465" lon="6.49157">
        <ele>1483.9</ele>
        <time>2015-03-24T12:39:31Z</time>
      </trkpt>
      <trkpt lat="45.92462" lon="6.49152">
        <ele>1483.5</ele>
        <time>2015-03-24T12:39:33Z</time>
      </trkpt>
      <trkpt lat="45.92459" lon="6.49151">
        <ele>1483.7</ele>
        <time>2015-03-24T12:39:36Z</time>
      </trkpt>
      <trkpt lat="45.92456" lon="6.49147">
        <ele>1483.1</ele>
        <time>2015-03-24T12:39:38Z</time>
      </trkpt>
      <trkpt lat="45.92454" lon="6.49143">
        <ele>1482.5</ele>
        <time>2015-03-24T12:39:39Z</time>
      </trkpt>
      <trkpt lat="45.9245" lon="6.4914">
        <ele>1482</ele>
        <time>2015-03-24T12:39:41Z</time>
      </trkpt>
      <trkpt lat="45.92447" lon="6.49135">
        <ele>1481.2</ele>
        <time>2015-03-24T12:39:43Z</time>
      </trkpt>
      <trkpt lat="45.92443" lon="6.49131">
        <ele>1480.5</ele>
        <time>2015-03-24T12:39:45Z</time>
      </trkpt>
      <trkpt lat="45.92438" lon="6.49128">
        <ele>1479.9</ele>
        <time>2015-03-24T12:39:47Z</time>
      </trkpt>
      <trkpt lat="45.92433" lon="6.49127">
        <ele>1479.6</ele>
        <time>2015-03-24T12:39:49Z</time>
      </trkpt>
      <trkpt lat="45.92428" lon="6.49125">
        <ele>1479.3</ele>
        <time>2015-03-24T12:39:50Z</time>
      </trkpt>
      <trkpt lat="45.92424" lon="6.49123">
        <ele>1478.7</ele>
        <time>2015-03-24T12:39:51Z</time>
      </trkpt>
      <trkpt lat="45.92419" lon="6.4912">
        <ele>1477.8</ele>
        <time>2015-03-24T12:39:52Z</time>
      </trkpt>
      <trkpt lat="45.92413" lon="6.49118">
        <ele>1477.2</ele>
        <time>2015-03-24T12:39:53Z</time>
      </trkpt>
      <trkpt lat="45.92406" lon="6.49115">
        <ele>1476.1</ele>
        <time>2015-03-24T12:39:54Z</time>
      </trkpt>
      <trkpt lat="45.92399" lon="6.49114">
        <ele>1476</ele>
        <time>2015-03-24T12:39:55Z</time>
      </trkpt>
      <trkpt lat="45.92391" lon="6.49114">
        <ele>1475.8</ele>
        <time>2015-03-24T12:39:56Z</time>
      </trkpt>
      <trkpt lat="45.92382" lon="6.49114">
        <ele>1475.7</ele>
        <time>2015-03-24T12:39:57Z</time>
      </trkpt>
      <trkpt lat="45.92372" lon="6.49111">
        <ele>1474.9</ele>
        <time>2015-03-24T12:39:58Z</time>
      </trkpt>
      <trkpt lat="45.92362" lon="6.49105">
        <ele>1473.2</ele>
        <time>2015-03-24T12:39:59Z</time>
      </trkpt>
      <trkpt lat="45.92353" lon="6.49093">
        <ele>1470.6</ele>
        <time>2015-03-24T12:40:00Z</time>
      </trkpt>
      <trkpt lat="45.92345" lon="6.49083">
        <ele>1468.6</ele>
        <time>2015-03-24T12:40:01Z</time>
      </trkpt>
      <trkpt lat="45.92338" lon="6.49072">
        <ele>1466.4</ele>
        <time>2015-03-24T12:40:02Z</time>
      </trkpt>
      <trkpt lat="45.92329" lon="6.49067">
        <ele>1465.5</ele>
        <time>2015-03-24T12:40:03Z</time>
      </trkpt>
      <trkpt lat="45.92318" lon="6.49065">
        <ele>1465.1</ele>
        <time>2015-03-24T12:40:04Z</time>
      </trkpt>
      <trkpt lat="45.92308" lon="6.49062">
        <ele>1464.6</ele>
        <time>2015-03-24T12:40:05Z</time>
      </trkpt>
      <trkpt lat="45.92298" lon="6.4906">
        <ele>1464.2</ele>
        <time>2015-03-24T12:40:06Z</time>
      </trkpt>
      <trkpt lat="45.92289" lon="6.4905">
        <ele>1463.1</ele>
        <time>2015-03-24T12:40:07Z</time>
      </trkpt>
      <trkpt lat="45.92281" lon="6.49041">
        <ele>1462</ele>
        <time>2015-03-24T12:40:08Z</time>
      </trkpt>
      <trkpt lat="45.92274" lon="6.49029">
        <ele>1460.3</ele>
        <time>2015-03-24T12:40:09Z</time>
      </trkpt>
      <trkpt lat="45.92269" lon="6.49021">
        <ele>1459.3</ele>
        <time>2015-03-24T12:40:10Z</time>
      </trkpt>
      <trkpt lat="45.92261" lon="6.49013">
        <ele>1458.4</ele>
        <time>2015-03-24T12:40:11Z</time>
      </trkpt>
      <trkpt lat="45.92253" lon="6.49001">
        <ele>1457.3</ele>
        <time>2015-03-24T12:40:12Z</time>
      </trkpt>
      <trkpt lat="45.92245" lon="6.48991">
        <ele>1456.5</ele>
        <time>2015-03-24T12:40:13Z</time>
      </trkpt>
      <trkpt lat="45.92238" lon="6.4898">
        <ele>1455.6</ele>
        <time>2015-03-24T12:40:14Z</time>
      </trkpt>
      <trkpt lat="45.92231" lon="6.48965">
        <ele>1454.6</ele>
        <time>2015-03-24T12:40:15Z</time>
      </trkpt>
      <trkpt lat="45.92225" lon="6.48956">
        <ele>1454.4</ele>
        <time>2015-03-24T12:40:16Z</time>
      </trkpt>
      <trkpt lat="45.92217" lon="6.48944">
        <ele>1455</ele>
        <time>2015-03-24T12:40:17Z</time>
      </trkpt>
      <trkpt lat="45.9221" lon="6.48934">
        <ele>1456.1</ele>
        <time>2015-03-24T12:40:18Z</time>
      </trkpt>
      <trkpt lat="45.92201" lon="6.48924">
        <ele>1458.3</ele>
        <time>2015-03-24T12:40:19Z</time>
      </trkpt>
      <trkpt lat="45.92194" lon="6.4892">
        <ele>1460.3</ele>
        <time>2015-03-24T12:40:20Z</time>
      </trkpt>
      <trkpt lat="45.92186" lon="6.4891">
        <ele>1462</ele>
        <time>2015-03-24T12:40:21Z</time>
      </trkpt>
      <trkpt lat="45.92179" lon="6.48902">
        <ele>1463.2</ele>
        <time>2015-03-24T12:40:22Z</time>
      </trkpt>
      <trkpt lat="45.92173" lon="6.48894">
        <ele>1464.2</ele>
        <time>2015-03-24T12:40:23Z</time>
      </trkpt>
      <trkpt lat="45.92167" lon="6.48887">
        <ele>1464.9</ele>
        <time>2015-03-24T12:40:24Z</time>
      </trkpt>
      <trkpt lat="45.92162" lon="6.48879">
        <ele>1465.1</ele>
        <time>2015-03-24T12:40:25Z</time>
      </trkpt>
      <trkpt lat="45.9216" lon="6.48871">
        <ele>1465.1</ele>
        <time>2015-03-24T12:40:26Z</time>
      </trkpt>
      <trkpt lat="45.92159" lon="6.48864">
        <ele>1465.3</ele>
        <time>2015-03-24T12:40:27Z</time>
      </trkpt>
      <trkpt lat="45.92159" lon="6.4886">
        <ele>1465.2</ele>
        <time>2015-03-24T12:40:28Z</time>
      </trkpt>
      <trkpt lat="45.92161" lon="6.48855">
        <ele>1464.7</ele>
        <time>2015-03-24T12:40:29Z</time>
      </trkpt>
      <trkpt lat="45.92163" lon="6.48852">
        <ele>1464.5</ele>
        <time>2015-03-24T12:40:30Z</time>
      </trkpt>
      <trkpt lat="45.92165" lon="6.48845">
        <ele>1464</ele>
        <time>2015-03-24T12:40:32Z</time>
      </trkpt>
      <trkpt lat="45.92167" lon="6.48841">
        <ele>1463.6</ele>
        <time>2015-03-24T12:40:34Z</time>
      </trkpt>
      <trkpt lat="45.92168" lon="6.48837">
        <ele>1463.2</ele>
        <time>2015-03-24T12:40:36Z</time>
      </trkpt>
      <trkpt lat="45.92169" lon="6.48832">
        <ele>1462.9</ele>
        <time>2015-03-24T12:40:38Z</time>
      </trkpt>
      <trkpt lat="45.92171" lon="6.48826">
        <ele>1462.4</ele>
        <time>2015-03-24T12:40:41Z</time>
      </trkpt>
      <trkpt lat="45.92176" lon="6.48822">
        <ele>1461.3</ele>
        <time>2015-03-24T12:40:43Z</time>
      </trkpt>
      <trkpt lat="45.92177" lon="6.48818">
        <ele>1461.1</ele>
        <time>2015-03-24T12:40:45Z</time>
      </trkpt>
      <trkpt lat="45.92177" lon="6.48813">
        <ele>1461</ele>
        <time>2015-03-24T12:40:47Z</time>
      </trkpt>
      <trkpt lat="45.92175" lon="6.48808">
        <ele>1461.2</ele>
        <time>2015-03-24T12:40:49Z</time>
      </trkpt>
      <trkpt lat="45.92174" lon="6.48804">
        <ele>1461.4</ele>
        <time>2015-03-24T12:40:50Z</time>
      </trkpt>
      <trkpt lat="45.92173" lon="6.48797">
        <ele>1461.6</ele>
        <time>2015-03-24T12:40:52Z</time>
      </trkpt>
      <trkpt lat="45.92172" lon="6.48793">
        <ele>1461.8</ele>
        <time>2015-03-24T12:40:53Z</time>
      </trkpt>
      <trkpt lat="45.9217" lon="6.48785">
        <ele>1462.2</ele>
        <time>2015-03-24T12:40:55Z</time>
      </trkpt>
      <trkpt lat="45.9217" lon="6.48781">
        <ele>1462.4</ele>
        <time>2015-03-24T12:40:57Z</time>
      </trkpt>
      <trkpt lat="45.92169" lon="6.48777">
        <ele>1462.8</ele>
        <time>2015-03-24T12:40:59Z</time>
      </trkpt>
      <trkpt lat="45.92167" lon="6.4877">
        <ele>1463.3</ele>
        <time>2015-03-24T12:41:01Z</time>
      </trkpt>
      <trkpt lat="45.92166" lon="6.48764">
        <ele>1463.7</ele>
        <time>2015-03-24T12:41:03Z</time>
      </trkpt>
      <trkpt lat="45.92165" lon="6.48759">
        <ele>1464</ele>
        <time>2015-03-24T12:41:04Z</time>
      </trkpt>
      <trkpt lat="45.92164" lon="6.48751">
        <ele>1464.7</ele>
        <time>2015-03-24T12:41:06Z</time>
      </trkpt>
      <trkpt lat="45.92162" lon="6.48745">
        <ele>1465.3</ele>
        <time>2015-03-24T12:41:08Z</time>
      </trkpt>
      <trkpt lat="45.9216" lon="6.48737">
        <ele>1466.3</ele>
        <time>2015-03-24T12:41:11Z</time>
      </trkpt>
      <trkpt lat="45.92159" lon="6.48731">
        <ele>1466.7</ele>
        <time>2015-03-24T12:41:13Z</time>
      </trkpt>
      <trkpt lat="45.92156" lon="6.48721">
        <ele>1467.9</ele>
        <time>2015-03-24T12:41:15Z</time>
      </trkpt>
      <trkpt lat="45.92156" lon="6.48716">
        <ele>1468.4</ele>
        <time>2015-03-24T12:41:16Z</time>
      </trkpt>
      <trkpt lat="45.92154" lon="6.48708">
        <ele>1469.4</ele>
        <time>2015-03-24T12:41:18Z</time>
      </trkpt>
      <trkpt lat="45.9215" lon="6.48701">
        <ele>1470.6</ele>
        <time>2015-03-24T12:41:21Z</time>
      </trkpt>
      <trkpt lat="45.92148" lon="6.48693">
        <ele>1471.3</ele>
        <time>2015-03-24T12:41:23Z</time>
      </trkpt>
      <trkpt lat="45.92146" lon="6.48688">
        <ele>1471.9</ele>
        <time>2015-03-24T12:41:25Z</time>
      </trkpt>
      <trkpt lat="45.92142" lon="6.48682">
        <ele>1473.2</ele>
        <time>2015-03-24T12:41:27Z</time>
      </trkpt>
      <trkpt lat="45.9214" lon="6.48678">
        <ele>1473.8</ele>
        <time>2015-03-24T12:41:28Z</time>
      </trkpt>
      <trkpt lat="45.92137" lon="6.48674">
        <ele>1474.6</ele>
        <time>2015-03-24T12:41:29Z</time>
      </trkpt>
      <trkpt lat="45.92135" lon="6.4867">
        <ele>1475.3</ele>
        <time>2015-03-24T12:41:30Z</time>
      </trkpt>
      <trkpt lat="45.92132" lon="6.48667">
        <ele>1476.1</ele>
        <time>2015-03-24T12:41:31Z</time>
      </trkpt>
      <trkpt lat="45.9213" lon="6.48663">
        <ele>1476.7</ele>
        <time>2015-03-24T12:41:32Z</time>
      </trkpt>
      <trkpt lat="45.92128" lon="6.48657">
        <ele>1477.1</ele>
        <time>2015-03-24T12:41:33Z</time>
      </trkpt>
      <trkpt lat="45.92127" lon="6.48654">
        <ele>1477.5</ele>
        <time>2015-03-24T12:41:34Z</time>
      </trkpt>
      <trkpt lat="45.92125" lon="6.48647">
        <ele>1477.8</ele>
        <time>2015-03-24T12:41:35Z</time>
      </trkpt>
      <trkpt lat="45.92123" lon="6.48642">
        <ele>1477.8</ele>
        <time>2015-03-24T12:41:36Z</time>
      </trkpt>
      <trkpt lat="45.92123" lon="6.4865">
        <ele>1478.1</ele>
        <time>2015-03-24T12:41:37Z</time>
      </trkpt>
      <trkpt lat="45.92123" lon="6.48646">
        <ele>1477.9</ele>
        <time>2015-03-24T12:41:39Z</time>
      </trkpt>
      <trkpt lat="45.92124" lon="6.4864">
        <ele>1477.6</ele>
        <time>2015-03-24T12:41:40Z</time>
      </trkpt>
      <trkpt lat="45.92125" lon="6.48635">
        <ele>1477.2</ele>
        <time>2015-03-24T12:41:41Z</time>
      </trkpt>
      <trkpt lat="45.92127" lon="6.48632">
        <ele>1476.6</ele>
        <time>2015-03-24T12:41:42Z</time>
      </trkpt>
      <trkpt lat="45.92132" lon="6.48627">
        <ele>1475</ele>
        <time>2015-03-24T12:41:44Z</time>
      </trkpt>
      <trkpt lat="45.92133" lon="6.48623">
        <ele>1474.1</ele>
        <time>2015-03-24T12:41:45Z</time>
      </trkpt>
      <trkpt lat="45.92135" lon="6.48619">
        <ele>1473</ele>
        <time>2015-03-24T12:41:46Z</time>
      </trkpt>
      <trkpt lat="45.92138" lon="6.48613">
        <ele>1471.4</ele>
        <time>2015-03-24T12:41:48Z</time>
      </trkpt>
      <trkpt lat="45.9214" lon="6.48609">
        <ele>1470.5</ele>
        <time>2015-03-24T12:41:49Z</time>
      </trkpt>
      <trkpt lat="45.92139" lon="6.48605">
        <ele>1470.2</ele>
        <time>2015-03-24T12:41:50Z</time>
      </trkpt>
      <trkpt lat="45.92141" lon="6.48601">
        <ele>1469.2</ele>
        <time>2015-03-24T12:41:51Z</time>
      </trkpt>
      <trkpt lat="45.92143" lon="6.48597">
        <ele>1468.3</ele>
        <time>2015-03-24T12:41:52Z</time>
      </trkpt>
      <trkpt lat="45.92145" lon="6.48593">
        <ele>1467.3</ele>
        <time>2015-03-24T12:41:53Z</time>
      </trkpt>
      <trkpt lat="45.92147" lon="6.48589">
        <ele>1466.3</ele>
        <time>2015-03-24T12:41:54Z</time>
      </trkpt>
      <trkpt lat="45.9215" lon="6.48584">
        <ele>1465.1</ele>
        <time>2015-03-24T12:41:55Z</time>
      </trkpt>
      <trkpt lat="45.92154" lon="6.48578">
        <ele>1463.8</ele>
        <time>2015-03-24T12:41:56Z</time>
      </trkpt>
      <trkpt lat="45.92157" lon="6.48573">
        <ele>1462.6</ele>
        <time>2015-03-24T12:41:57Z</time>
      </trkpt>
      <trkpt lat="45.9216" lon="6.48567">
        <ele>1461.5</ele>
        <time>2015-03-24T12:41:58Z</time>
      </trkpt>
      <trkpt lat="45.92164" lon="6.48559">
        <ele>1460.1</ele>
        <time>2015-03-24T12:41:59Z</time>
      </trkpt>
      <trkpt lat="45.92167" lon="6.48551">
        <ele>1459</ele>
        <time>2015-03-24T12:42:00Z</time>
      </trkpt>
      <trkpt lat="45.92171" lon="6.48543">
        <ele>1457.9</ele>
        <time>2015-03-24T12:42:01Z</time>
      </trkpt>
      <trkpt lat="45.92174" lon="6.48535">
        <ele>1456.7</ele>
        <time>2015-03-24T12:42:02Z</time>
      </trkpt>
      <trkpt lat="45.92178" lon="6.48527">
        <ele>1455.5</ele>
        <time>2015-03-24T12:42:03Z</time>
      </trkpt>
      <trkpt lat="45.92182" lon="6.48519">
        <ele>1454.2</ele>
        <time>2015-03-24T12:42:04Z</time>
      </trkpt>
      <trkpt lat="45.92185" lon="6.4851">
        <ele>1453</ele>
        <time>2015-03-24T12:42:05Z</time>
      </trkpt>
      <trkpt lat="45.92188" lon="6.48501">
        <ele>1451.9</ele>
        <time>2015-03-24T12:42:06Z</time>
      </trkpt>
      <trkpt lat="45.92191" lon="6.48496">
        <ele>1451.1</ele>
        <time>2015-03-24T12:42:07Z</time>
      </trkpt>
      <trkpt lat="45.92196" lon="6.48491">
        <ele>1450</ele>
        <time>2015-03-24T12:42:08Z</time>
      </trkpt>
      <trkpt lat="45.92202" lon="6.48484">
        <ele>1448.7</ele>
        <time>2015-03-24T12:42:09Z</time>
      </trkpt>
      <trkpt lat="45.92207" lon="6.48477">
        <ele>1447.5</ele>
        <time>2015-03-24T12:42:10Z</time>
      </trkpt>
      <trkpt lat="45.92213" lon="6.4847">
        <ele>1446.5</ele>
        <time>2015-03-24T12:42:11Z</time>
      </trkpt>
      <trkpt lat="45.92218" lon="6.48463">
        <ele>1445.6</ele>
        <time>2015-03-24T12:42:12Z</time>
      </trkpt>
      <trkpt lat="45.92223" lon="6.48457">
        <ele>1445</ele>
        <time>2015-03-24T12:42:13Z</time>
      </trkpt>
      <trkpt lat="45.92228" lon="6.48452">
        <ele>1444.5</ele>
        <time>2015-03-24T12:42:14Z</time>
      </trkpt>
      <trkpt lat="45.92231" lon="6.48447">
        <ele>1443.9</ele>
        <time>2015-03-24T12:42:15Z</time>
      </trkpt>
      <trkpt lat="45.92235" lon="6.48443">
        <ele>1443.5</ele>
        <time>2015-03-24T12:42:16Z</time>
      </trkpt>
      <trkpt lat="45.92238" lon="6.48441">
        <ele>1443.2</ele>
        <time>2015-03-24T12:42:17Z</time>
      </trkpt>
      <trkpt lat="45.92239" lon="6.48435">
        <ele>1442.8</ele>
        <time>2015-03-24T12:42:19Z</time>
      </trkpt>
      <trkpt lat="45.92238" lon="6.48432">
        <ele>1442.7</ele>
        <time>2015-03-24T12:42:24Z</time>
      </trkpt>
      <trkpt lat="45.92236" lon="6.48429">
        <ele>1442.6</ele>
        <time>2015-03-24T12:42:49Z</time>
      </trkpt>
      <trkpt lat="45.92237" lon="6.48432">
        <ele>1442.7</ele>
        <time>2015-03-24T12:43:45Z</time>
      </trkpt>
    </trkseg>
  </trk>
</gpx>